<?xml version="1.0" encoding="UTF-8" standalone="no" ?>
<gpx xmlns="http://www.topografix.com/GPX/1/1" xmlns:xsi="http://www.w3.org/2001/XMLSchema-instance" xsi:schemaLocation="http://www.topografix.com/GPX/1/1 http://www.topografix.com/GPX/1/1/gpx.xsd" version="1.1" creator="VisuGPX - https://www.visugpx.com">
  <metadata>
    <name>Dassy-Dimitile-jacky inard-maraboue</name>
    <desc><![CDATA[Très belle randonnées avec de nombreux points de vue sur la plaine des cafres, le cirque de cilaos et le piton des neiges]]></desc>
  </metadata>
  <trk>
    <name><![CDATA[2013-05-24-01_dassy dimitile plaine des cafres_unified]]></name>
    <trkseg>
      <trkpt lat="-21.24851" lon="55.48815">
        <ele>597.8</ele>
        <time>2013-05-24T01:00:32Z</time>
      </trkpt>
      <trkpt lat="-21.24848" lon="55.48806">
        <ele>597.5</ele>
        <time>2013-05-24T01:01:50Z</time>
      </trkpt>
      <trkpt lat="-21.24851" lon="55.48797">
        <ele>595.3</ele>
        <time>2013-05-24T01:02:02Z</time>
      </trkpt>
      <trkpt lat="-21.24856" lon="55.4879">
        <ele>593.9</ele>
        <time>2013-05-24T01:02:48Z</time>
      </trkpt>
      <trkpt lat="-21.24863" lon="55.48784">
        <ele>593.1</ele>
        <time>2013-05-24T01:03:00Z</time>
      </trkpt>
      <trkpt lat="-21.24868" lon="55.48776">
        <ele>591.3</ele>
        <time>2013-05-24T01:03:08Z</time>
      </trkpt>
      <trkpt lat="-21.24872" lon="55.48769">
        <ele>590</ele>
        <time>2013-05-24T01:03:15Z</time>
      </trkpt>
      <trkpt lat="-21.24878" lon="55.48762">
        <ele>589.9</ele>
        <time>2013-05-24T01:03:21Z</time>
      </trkpt>
      <trkpt lat="-21.24884" lon="55.48755">
        <ele>588.6</ele>
        <time>2013-05-24T01:03:28Z</time>
      </trkpt>
      <trkpt lat="-21.24888" lon="55.48748">
        <ele>588.7</ele>
        <time>2013-05-24T01:03:34Z</time>
      </trkpt>
      <trkpt lat="-21.24889" lon="55.48738">
        <ele>588.8</ele>
        <time>2013-05-24T01:03:41Z</time>
      </trkpt>
      <trkpt lat="-21.24891" lon="55.4873">
        <ele>585.7</ele>
        <time>2013-05-24T01:03:48Z</time>
      </trkpt>
      <trkpt lat="-21.24893" lon="55.48721">
        <ele>583.6</ele>
        <time>2013-05-24T01:03:55Z</time>
      </trkpt>
      <trkpt lat="-21.24895" lon="55.48713">
        <ele>581.7</ele>
        <time>2013-05-24T01:04:01Z</time>
      </trkpt>
      <trkpt lat="-21.24899" lon="55.48705">
        <ele>580.9</ele>
        <time>2013-05-24T01:04:08Z</time>
      </trkpt>
      <trkpt lat="-21.24904" lon="55.48698">
        <ele>580.2</ele>
        <time>2013-05-24T01:04:15Z</time>
      </trkpt>
      <trkpt lat="-21.24908" lon="55.48691">
        <ele>579.4</ele>
        <time>2013-05-24T01:04:21Z</time>
      </trkpt>
      <trkpt lat="-21.24913" lon="55.48683">
        <ele>579.2</ele>
        <time>2013-05-24T01:04:27Z</time>
      </trkpt>
      <trkpt lat="-21.24918" lon="55.48675">
        <ele>577.4</ele>
        <time>2013-05-24T01:04:33Z</time>
      </trkpt>
      <trkpt lat="-21.24919" lon="55.48666">
        <ele>576</ele>
        <time>2013-05-24T01:04:39Z</time>
      </trkpt>
      <trkpt lat="-21.2491" lon="55.48666">
        <ele>574.2</ele>
        <time>2013-05-24T01:04:49Z</time>
      </trkpt>
      <trkpt lat="-21.24903" lon="55.48669">
        <ele>571.4</ele>
        <time>2013-05-24T01:05:01Z</time>
      </trkpt>
      <trkpt lat="-21.24897" lon="55.48675">
        <ele>570.7</ele>
        <time>2013-05-24T01:05:07Z</time>
      </trkpt>
      <trkpt lat="-21.24891" lon="55.4868">
        <ele>569.6</ele>
        <time>2013-05-24T01:05:13Z</time>
      </trkpt>
      <trkpt lat="-21.24884" lon="55.48686">
        <ele>568.4</ele>
        <time>2013-05-24T01:05:20Z</time>
      </trkpt>
      <trkpt lat="-21.24879" lon="55.48693">
        <ele>565.6</ele>
        <time>2013-05-24T01:05:27Z</time>
      </trkpt>
      <trkpt lat="-21.24872" lon="55.48699">
        <ele>563.5</ele>
        <time>2013-05-24T01:05:36Z</time>
      </trkpt>
      <trkpt lat="-21.24868" lon="55.48707">
        <ele>562</ele>
        <time>2013-05-24T01:05:43Z</time>
      </trkpt>
      <trkpt lat="-21.24864" lon="55.48714">
        <ele>560.3</ele>
        <time>2013-05-24T01:05:48Z</time>
      </trkpt>
      <trkpt lat="-21.24859" lon="55.48722">
        <ele>559.5</ele>
        <time>2013-05-24T01:05:56Z</time>
      </trkpt>
      <trkpt lat="-21.24859" lon="55.48731">
        <ele>557.5</ele>
        <time>2013-05-24T01:06:03Z</time>
      </trkpt>
      <trkpt lat="-21.24855" lon="55.48737">
        <ele>556.9</ele>
        <time>2013-05-24T01:06:08Z</time>
      </trkpt>
      <trkpt lat="-21.24849" lon="55.48745">
        <ele>556.5</ele>
        <time>2013-05-24T01:06:14Z</time>
      </trkpt>
      <trkpt lat="-21.24843" lon="55.48752">
        <ele>555.3</ele>
        <time>2013-05-24T01:06:20Z</time>
      </trkpt>
      <trkpt lat="-21.24835" lon="55.48751">
        <ele>553.2</ele>
        <time>2013-05-24T01:06:38Z</time>
      </trkpt>
      <trkpt lat="-21.24832" lon="55.48742">
        <ele>550.2</ele>
        <time>2013-05-24T01:06:46Z</time>
      </trkpt>
      <trkpt lat="-21.24834" lon="55.48734">
        <ele>548.2</ele>
        <time>2013-05-24T01:06:54Z</time>
      </trkpt>
      <trkpt lat="-21.24833" lon="55.48725">
        <ele>546</ele>
        <time>2013-05-24T01:07:03Z</time>
      </trkpt>
      <trkpt lat="-21.24832" lon="55.48717">
        <ele>545.6</ele>
        <time>2013-05-24T01:07:08Z</time>
      </trkpt>
      <trkpt lat="-21.24828" lon="55.48725">
        <ele>536.7</ele>
        <time>2013-05-24T01:07:40Z</time>
      </trkpt>
      <trkpt lat="-21.24823" lon="55.48733">
        <ele>534.3</ele>
        <time>2013-05-24T01:07:51Z</time>
      </trkpt>
      <trkpt lat="-21.2482" lon="55.4874">
        <ele>532.3</ele>
        <time>2013-05-24T01:07:57Z</time>
      </trkpt>
      <trkpt lat="-21.24817" lon="55.48749">
        <ele>530.8</ele>
        <time>2013-05-24T01:08:02Z</time>
      </trkpt>
      <trkpt lat="-21.24816" lon="55.48758">
        <ele>529.8</ele>
        <time>2013-05-24T01:08:09Z</time>
      </trkpt>
      <trkpt lat="-21.24817" lon="55.48766">
        <ele>528.9</ele>
        <time>2013-05-24T01:08:13Z</time>
      </trkpt>
      <trkpt lat="-21.24818" lon="55.48774">
        <ele>528.8</ele>
        <time>2013-05-24T01:08:18Z</time>
      </trkpt>
      <trkpt lat="-21.24819" lon="55.48783">
        <ele>528.4</ele>
        <time>2013-05-24T01:08:23Z</time>
      </trkpt>
      <trkpt lat="-21.24811" lon="55.48787">
        <ele>524.9</ele>
        <time>2013-05-24T01:08:40Z</time>
      </trkpt>
      <trkpt lat="-21.24802" lon="55.48789">
        <ele>524.9</ele>
        <time>2013-05-24T01:08:46Z</time>
      </trkpt>
      <trkpt lat="-21.24795" lon="55.48792">
        <ele>523.2</ele>
        <time>2013-05-24T01:08:52Z</time>
      </trkpt>
      <trkpt lat="-21.24786" lon="55.4879">
        <ele>521.1</ele>
        <time>2013-05-24T01:08:59Z</time>
      </trkpt>
      <trkpt lat="-21.24781" lon="55.48783">
        <ele>518</ele>
        <time>2013-05-24T01:09:08Z</time>
      </trkpt>
      <trkpt lat="-21.24772" lon="55.48786">
        <ele>515.4</ele>
        <time>2013-05-24T01:09:17Z</time>
      </trkpt>
      <trkpt lat="-21.24767" lon="55.48793">
        <ele>514.8</ele>
        <time>2013-05-24T01:09:23Z</time>
      </trkpt>
      <trkpt lat="-21.24761" lon="55.48786">
        <ele>512.4</ele>
        <time>2013-05-24T01:09:33Z</time>
      </trkpt>
      <trkpt lat="-21.24752" lon="55.48786">
        <ele>510.4</ele>
        <time>2013-05-24T01:09:42Z</time>
      </trkpt>
      <trkpt lat="-21.24745" lon="55.48791">
        <ele>508.3</ele>
        <time>2013-05-24T01:09:49Z</time>
      </trkpt>
      <trkpt lat="-21.24736" lon="55.4879">
        <ele>506.4</ele>
        <time>2013-05-24T01:10:00Z</time>
      </trkpt>
      <trkpt lat="-21.24731" lon="55.48782">
        <ele>503.5</ele>
        <time>2013-05-24T01:10:07Z</time>
      </trkpt>
      <trkpt lat="-21.24725" lon="55.48786">
        <ele>500.8</ele>
        <time>2013-05-24T01:10:14Z</time>
      </trkpt>
      <trkpt lat="-21.24716" lon="55.48789">
        <ele>500.1</ele>
        <time>2013-05-24T01:10:19Z</time>
      </trkpt>
      <trkpt lat="-21.24708" lon="55.4879">
        <ele>499.1</ele>
        <time>2013-05-24T01:10:24Z</time>
      </trkpt>
      <trkpt lat="-21.24701" lon="55.48794">
        <ele>498.1</ele>
        <time>2013-05-24T01:10:29Z</time>
      </trkpt>
      <trkpt lat="-21.24693" lon="55.48791">
        <ele>496.7</ele>
        <time>2013-05-24T01:10:37Z</time>
      </trkpt>
      <trkpt lat="-21.24685" lon="55.48793">
        <ele>495.4</ele>
        <time>2013-05-24T01:10:42Z</time>
      </trkpt>
      <trkpt lat="-21.24677" lon="55.48795">
        <ele>494.7</ele>
        <time>2013-05-24T01:10:47Z</time>
      </trkpt>
      <trkpt lat="-21.24669" lon="55.48797">
        <ele>494.4</ele>
        <time>2013-05-24T01:10:52Z</time>
      </trkpt>
      <trkpt lat="-21.24662" lon="55.48799">
        <ele>494.6</ele>
        <time>2013-05-24T01:10:57Z</time>
      </trkpt>
      <trkpt lat="-21.24654" lon="55.48802">
        <ele>493.7</ele>
        <time>2013-05-24T01:11:03Z</time>
      </trkpt>
      <trkpt lat="-21.24647" lon="55.48806">
        <ele>492.1</ele>
        <time>2013-05-24T01:11:09Z</time>
      </trkpt>
      <trkpt lat="-21.24641" lon="55.48813">
        <ele>490.1</ele>
        <time>2013-05-24T01:11:18Z</time>
      </trkpt>
      <trkpt lat="-21.24636" lon="55.4882">
        <ele>490.4</ele>
        <time>2013-05-24T01:11:29Z</time>
      </trkpt>
      <trkpt lat="-21.24638" lon="55.48811">
        <ele>486</ele>
        <time>2013-05-24T01:11:45Z</time>
      </trkpt>
      <trkpt lat="-21.24645" lon="55.48805">
        <ele>484.5</ele>
        <time>2013-05-24T01:11:54Z</time>
      </trkpt>
      <trkpt lat="-21.24654" lon="55.48807">
        <ele>483</ele>
        <time>2013-05-24T01:12:00Z</time>
      </trkpt>
      <trkpt lat="-21.24661" lon="55.48804">
        <ele>481.1</ele>
        <time>2013-05-24T01:12:11Z</time>
      </trkpt>
      <trkpt lat="-21.24669" lon="55.48803">
        <ele>480.2</ele>
        <time>2013-05-24T01:12:18Z</time>
      </trkpt>
      <trkpt lat="-21.24678" lon="55.488">
        <ele>477.9</ele>
        <time>2013-05-24T01:12:26Z</time>
      </trkpt>
      <trkpt lat="-21.24685" lon="55.48798">
        <ele>477.1</ele>
        <time>2013-05-24T01:12:32Z</time>
      </trkpt>
      <trkpt lat="-21.24692" lon="55.48793">
        <ele>476.1</ele>
        <time>2013-05-24T01:12:38Z</time>
      </trkpt>
      <trkpt lat="-21.24699" lon="55.48788">
        <ele>473.8</ele>
        <time>2013-05-24T01:12:45Z</time>
      </trkpt>
      <trkpt lat="-21.24707" lon="55.48785">
        <ele>473.1</ele>
        <time>2013-05-24T01:12:52Z</time>
      </trkpt>
      <trkpt lat="-21.24715" lon="55.48784">
        <ele>472.1</ele>
        <time>2013-05-24T01:12:59Z</time>
      </trkpt>
      <trkpt lat="-21.24715" lon="55.48775">
        <ele>469.4</ele>
        <time>2013-05-24T01:13:11Z</time>
      </trkpt>
      <trkpt lat="-21.24708" lon="55.4877">
        <ele>467.8</ele>
        <time>2013-05-24T01:13:21Z</time>
      </trkpt>
      <trkpt lat="-21.247" lon="55.48768">
        <ele>466.1</ele>
        <time>2013-05-24T01:13:29Z</time>
      </trkpt>
      <trkpt lat="-21.24692" lon="55.48768">
        <ele>464.6</ele>
        <time>2013-05-24T01:13:37Z</time>
      </trkpt>
      <trkpt lat="-21.24683" lon="55.4877">
        <ele>463.6</ele>
        <time>2013-05-24T01:13:45Z</time>
      </trkpt>
      <trkpt lat="-21.24691" lon="55.48765">
        <ele>458.1</ele>
        <time>2013-05-24T01:14:12Z</time>
      </trkpt>
      <trkpt lat="-21.24699" lon="55.48761">
        <ele>455</ele>
        <time>2013-05-24T01:14:25Z</time>
      </trkpt>
      <trkpt lat="-21.24695" lon="55.48753">
        <ele>450</ele>
        <time>2013-05-24T01:14:49Z</time>
      </trkpt>
      <trkpt lat="-21.24699" lon="55.48745">
        <ele>446.3</ele>
        <time>2013-05-24T01:15:08Z</time>
      </trkpt>
      <trkpt lat="-21.24691" lon="55.48741">
        <ele>441.8</ele>
        <time>2013-05-24T01:15:35Z</time>
      </trkpt>
      <trkpt lat="-21.24684" lon="55.48736">
        <ele>438.5</ele>
        <time>2013-05-24T01:15:44Z</time>
      </trkpt>
      <trkpt lat="-21.24675" lon="55.48734">
        <ele>437.7</ele>
        <time>2013-05-24T01:15:54Z</time>
      </trkpt>
      <trkpt lat="-21.24684" lon="55.48731">
        <ele>432.7</ele>
        <time>2013-05-24T01:16:21Z</time>
      </trkpt>
      <trkpt lat="-21.2469" lon="55.48725">
        <ele>430.2</ele>
        <time>2013-05-24T01:16:35Z</time>
      </trkpt>
      <trkpt lat="-21.24684" lon="55.48719">
        <ele>427</ele>
        <time>2013-05-24T01:16:49Z</time>
      </trkpt>
      <trkpt lat="-21.24676" lon="55.48715">
        <ele>425</ele>
        <time>2013-05-24T01:16:59Z</time>
      </trkpt>
      <trkpt lat="-21.24676" lon="55.48706">
        <ele>418.5</ele>
        <time>2013-05-24T01:17:24Z</time>
      </trkpt>
      <trkpt lat="-21.24681" lon="55.48699">
        <ele>417.5</ele>
        <time>2013-05-24T01:17:31Z</time>
      </trkpt>
      <trkpt lat="-21.24689" lon="55.48696">
        <ele>416.1</ele>
        <time>2013-05-24T01:17:41Z</time>
      </trkpt>
      <trkpt lat="-21.24697" lon="55.48693">
        <ele>414.6</ele>
        <time>2013-05-24T01:17:48Z</time>
      </trkpt>
      <trkpt lat="-21.24705" lon="55.4869">
        <ele>414.4</ele>
        <time>2013-05-24T01:17:54Z</time>
      </trkpt>
      <trkpt lat="-21.24712" lon="55.48687">
        <ele>414.2</ele>
        <time>2013-05-24T01:17:59Z</time>
      </trkpt>
      <trkpt lat="-21.2472" lon="55.48684">
        <ele>413.7</ele>
        <time>2013-05-24T01:18:05Z</time>
      </trkpt>
      <trkpt lat="-21.24728" lon="55.48681">
        <ele>411.6</ele>
        <time>2013-05-24T01:18:12Z</time>
      </trkpt>
      <trkpt lat="-21.24736" lon="55.48679">
        <ele>411.2</ele>
        <time>2013-05-24T01:18:21Z</time>
      </trkpt>
      <trkpt lat="-21.24745" lon="55.48676">
        <ele>409.9</ele>
        <time>2013-05-24T01:18:27Z</time>
      </trkpt>
      <trkpt lat="-21.2475" lon="55.48668">
        <ele>407</ele>
        <time>2013-05-24T01:18:34Z</time>
      </trkpt>
      <trkpt lat="-21.24755" lon="55.48662">
        <ele>406.1</ele>
        <time>2013-05-24T01:18:41Z</time>
      </trkpt>
      <trkpt lat="-21.24759" lon="55.48654">
        <ele>405.2</ele>
        <time>2013-05-24T01:18:47Z</time>
      </trkpt>
      <trkpt lat="-21.24762" lon="55.48645">
        <ele>402.8</ele>
        <time>2013-05-24T01:18:55Z</time>
      </trkpt>
      <trkpt lat="-21.24765" lon="55.48637">
        <ele>399.8</ele>
        <time>2013-05-24T01:19:05Z</time>
      </trkpt>
      <trkpt lat="-21.24758" lon="55.48631">
        <ele>397.2</ele>
        <time>2013-05-24T01:19:20Z</time>
      </trkpt>
      <trkpt lat="-21.24752" lon="55.48637">
        <ele>393.4</ele>
        <time>2013-05-24T01:19:33Z</time>
      </trkpt>
      <trkpt lat="-21.24746" lon="55.48643">
        <ele>392.5</ele>
        <time>2013-05-24T01:19:42Z</time>
      </trkpt>
      <trkpt lat="-21.2474" lon="55.48649">
        <ele>390.6</ele>
        <time>2013-05-24T01:19:49Z</time>
      </trkpt>
      <trkpt lat="-21.24734" lon="55.48642">
        <ele>385.6</ele>
        <time>2013-05-24T01:20:06Z</time>
      </trkpt>
      <trkpt lat="-21.24738" lon="55.48634">
        <ele>382.9</ele>
        <time>2013-05-24T01:20:17Z</time>
      </trkpt>
      <trkpt lat="-21.24742" lon="55.48626">
        <ele>381</ele>
        <time>2013-05-24T01:20:24Z</time>
      </trkpt>
      <trkpt lat="-21.24742" lon="55.48617">
        <ele>378.9</ele>
        <time>2013-05-24T01:20:34Z</time>
      </trkpt>
      <trkpt lat="-21.24747" lon="55.4861">
        <ele>377.3</ele>
        <time>2013-05-24T01:20:43Z</time>
      </trkpt>
      <trkpt lat="-21.24748" lon="55.48602">
        <ele>375.8</ele>
        <time>2013-05-24T01:20:48Z</time>
      </trkpt>
      <trkpt lat="-21.24754" lon="55.48595">
        <ele>374.6</ele>
        <time>2013-05-24T01:20:58Z</time>
      </trkpt>
      <trkpt lat="-21.2476" lon="55.4859">
        <ele>372.5</ele>
        <time>2013-05-24T01:21:04Z</time>
      </trkpt>
      <trkpt lat="-21.24765" lon="55.48583">
        <ele>370.1</ele>
        <time>2013-05-24T01:21:13Z</time>
      </trkpt>
      <trkpt lat="-21.2477" lon="55.48574">
        <ele>367.5</ele>
        <time>2013-05-24T01:21:22Z</time>
      </trkpt>
      <trkpt lat="-21.24773" lon="55.48567">
        <ele>365.7</ele>
        <time>2013-05-24T01:21:27Z</time>
      </trkpt>
      <trkpt lat="-21.24776" lon="55.48559">
        <ele>362.6</ele>
        <time>2013-05-24T01:21:34Z</time>
      </trkpt>
      <trkpt lat="-21.24781" lon="55.48551">
        <ele>361.8</ele>
        <time>2013-05-24T01:21:40Z</time>
      </trkpt>
      <trkpt lat="-21.24774" lon="55.48557">
        <ele>358.1</ele>
        <time>2013-05-24T01:22:02Z</time>
      </trkpt>
      <trkpt lat="-21.24776" lon="55.48548">
        <ele>352.8</ele>
        <time>2013-05-24T01:22:22Z</time>
      </trkpt>
      <trkpt lat="-21.2478" lon="55.48539">
        <ele>350.3</ele>
        <time>2013-05-24T01:22:34Z</time>
      </trkpt>
      <trkpt lat="-21.24779" lon="55.48531">
        <ele>347.9</ele>
        <time>2013-05-24T01:22:42Z</time>
      </trkpt>
      <trkpt lat="-21.24778" lon="55.48522">
        <ele>347.2</ele>
        <time>2013-05-24T01:22:48Z</time>
      </trkpt>
      <trkpt lat="-21.24781" lon="55.48514">
        <ele>346.9</ele>
        <time>2013-05-24T01:22:54Z</time>
      </trkpt>
      <trkpt lat="-21.24788" lon="55.48509">
        <ele>346.5</ele>
        <time>2013-05-24T01:23:00Z</time>
      </trkpt>
      <trkpt lat="-21.24791" lon="55.48501">
        <ele>345.7</ele>
        <time>2013-05-24T01:23:06Z</time>
      </trkpt>
      <trkpt lat="-21.24796" lon="55.48495">
        <ele>345.1</ele>
        <time>2013-05-24T01:23:11Z</time>
      </trkpt>
      <trkpt lat="-21.24801" lon="55.48488">
        <ele>344.6</ele>
        <time>2013-05-24T01:23:18Z</time>
      </trkpt>
      <trkpt lat="-21.24806" lon="55.4848">
        <ele>343</ele>
        <time>2013-05-24T01:23:26Z</time>
      </trkpt>
      <trkpt lat="-21.24812" lon="55.48474">
        <ele>341.8</ele>
        <time>2013-05-24T01:23:35Z</time>
      </trkpt>
      <trkpt lat="-21.24815" lon="55.48465">
        <ele>339.8</ele>
        <time>2013-05-24T01:23:44Z</time>
      </trkpt>
      <trkpt lat="-21.24819" lon="55.48457">
        <ele>339.9</ele>
        <time>2013-05-24T01:23:51Z</time>
      </trkpt>
      <trkpt lat="-21.24816" lon="55.48448">
        <ele>339.3</ele>
        <time>2013-05-24T01:23:57Z</time>
      </trkpt>
      <trkpt lat="-21.2482" lon="55.48441">
        <ele>338.4</ele>
        <time>2013-05-24T01:24:03Z</time>
      </trkpt>
      <trkpt lat="-21.24822" lon="55.48432">
        <ele>337</ele>
        <time>2013-05-24T01:24:11Z</time>
      </trkpt>
      <trkpt lat="-21.24814" lon="55.48427">
        <ele>332.2</ele>
        <time>2013-05-24T01:24:27Z</time>
      </trkpt>
      <trkpt lat="-21.24806" lon="55.48424">
        <ele>329.9</ele>
        <time>2013-05-24T01:24:37Z</time>
      </trkpt>
      <trkpt lat="-21.24799" lon="55.48419">
        <ele>328.4</ele>
        <time>2013-05-24T01:24:44Z</time>
      </trkpt>
      <trkpt lat="-21.24798" lon="55.4841">
        <ele>326.5</ele>
        <time>2013-05-24T01:24:53Z</time>
      </trkpt>
      <trkpt lat="-21.24805" lon="55.48404">
        <ele>326</ele>
        <time>2013-05-24T01:24:58Z</time>
      </trkpt>
      <trkpt lat="-21.24813" lon="55.48402">
        <ele>325.7</ele>
        <time>2013-05-24T01:25:03Z</time>
      </trkpt>
      <trkpt lat="-21.2482" lon="55.48396">
        <ele>326.3</ele>
        <time>2013-05-24T01:25:10Z</time>
      </trkpt>
      <trkpt lat="-21.24822" lon="55.48388">
        <ele>325.7</ele>
        <time>2013-05-24T01:25:18Z</time>
      </trkpt>
      <trkpt lat="-21.24828" lon="55.48383">
        <ele>324.6</ele>
        <time>2013-05-24T01:25:26Z</time>
      </trkpt>
      <trkpt lat="-21.24836" lon="55.48381">
        <ele>324.3</ele>
        <time>2013-05-24T01:25:32Z</time>
      </trkpt>
      <trkpt lat="-21.24841" lon="55.48372">
        <ele>322.3</ele>
        <time>2013-05-24T01:25:39Z</time>
      </trkpt>
      <trkpt lat="-21.24841" lon="55.48364">
        <ele>322.2</ele>
        <time>2013-05-24T01:25:44Z</time>
      </trkpt>
      <trkpt lat="-21.24844" lon="55.48357">
        <ele>322.3</ele>
        <time>2013-05-24T01:25:49Z</time>
      </trkpt>
      <trkpt lat="-21.24847" lon="55.48349">
        <ele>321.3</ele>
        <time>2013-05-24T01:25:54Z</time>
      </trkpt>
      <trkpt lat="-21.24852" lon="55.48341">
        <ele>320.7</ele>
        <time>2013-05-24T01:26:00Z</time>
      </trkpt>
      <trkpt lat="-21.24857" lon="55.48333">
        <ele>319.4</ele>
        <time>2013-05-24T01:26:07Z</time>
      </trkpt>
      <trkpt lat="-21.24863" lon="55.48322">
        <ele>318</ele>
        <time>2013-05-24T01:26:16Z</time>
      </trkpt>
      <trkpt lat="-21.24864" lon="55.48312">
        <ele>316</ele>
        <time>2013-05-24T01:26:24Z</time>
      </trkpt>
      <trkpt lat="-21.24867" lon="55.48304">
        <ele>315.7</ele>
        <time>2013-05-24T01:26:33Z</time>
      </trkpt>
      <trkpt lat="-21.24874" lon="55.48299">
        <ele>315.6</ele>
        <time>2013-05-24T01:26:39Z</time>
      </trkpt>
      <trkpt lat="-21.24881" lon="55.48294">
        <ele>314.1</ele>
        <time>2013-05-24T01:26:46Z</time>
      </trkpt>
      <trkpt lat="-21.24889" lon="55.48294">
        <ele>313.4</ele>
        <time>2013-05-24T01:26:52Z</time>
      </trkpt>
      <trkpt lat="-21.24898" lon="55.48291">
        <ele>313.4</ele>
        <time>2013-05-24T01:26:58Z</time>
      </trkpt>
      <trkpt lat="-21.24906" lon="55.48288">
        <ele>312.7</ele>
        <time>2013-05-24T01:27:07Z</time>
      </trkpt>
      <trkpt lat="-21.24915" lon="55.48287">
        <ele>313.9</ele>
        <time>2013-05-24T01:27:12Z</time>
      </trkpt>
      <trkpt lat="-21.24922" lon="55.48282">
        <ele>314.7</ele>
        <time>2013-05-24T01:27:21Z</time>
      </trkpt>
      <trkpt lat="-21.24922" lon="55.48272">
        <ele>316</ele>
        <time>2013-05-24T01:27:28Z</time>
      </trkpt>
      <trkpt lat="-21.24921" lon="55.48263">
        <ele>316.6</ele>
        <time>2013-05-24T01:27:33Z</time>
      </trkpt>
      <trkpt lat="-21.24921" lon="55.48254">
        <ele>316</ele>
        <time>2013-05-24T01:27:46Z</time>
      </trkpt>
      <trkpt lat="-21.24928" lon="55.48248">
        <ele>316</ele>
        <time>2013-05-24T01:28:04Z</time>
      </trkpt>
      <trkpt lat="-21.24941" lon="55.48252">
        <ele>315</ele>
        <time>2013-05-24T01:28:12Z</time>
      </trkpt>
      <trkpt lat="-21.24949" lon="55.48253">
        <ele>315.8</ele>
        <time>2013-05-24T01:28:17Z</time>
      </trkpt>
      <trkpt lat="-21.24957" lon="55.48252">
        <ele>316.8</ele>
        <time>2013-05-24T01:28:21Z</time>
      </trkpt>
      <trkpt lat="-21.24966" lon="55.48245">
        <ele>317</ele>
        <time>2013-05-24T01:28:30Z</time>
      </trkpt>
      <trkpt lat="-21.24966" lon="55.48234">
        <ele>318</ele>
        <time>2013-05-24T01:28:35Z</time>
      </trkpt>
      <trkpt lat="-21.24964" lon="55.48223">
        <ele>318</ele>
        <time>2013-05-24T01:28:39Z</time>
      </trkpt>
      <trkpt lat="-21.24967" lon="55.48212">
        <ele>318</ele>
        <time>2013-05-24T01:28:45Z</time>
      </trkpt>
      <trkpt lat="-21.24974" lon="55.48197">
        <ele>320</ele>
        <time>2013-05-24T01:28:58Z</time>
      </trkpt>
      <trkpt lat="-21.24974" lon="55.48186">
        <ele>321</ele>
        <time>2013-05-24T01:29:06Z</time>
      </trkpt>
      <trkpt lat="-21.24984" lon="55.48179">
        <ele>320</ele>
        <time>2013-05-24T01:29:18Z</time>
      </trkpt>
      <trkpt lat="-21.24988" lon="55.48167">
        <ele>320</ele>
        <time>2013-05-24T01:29:30Z</time>
      </trkpt>
      <trkpt lat="-21.24983" lon="55.4815">
        <ele>320</ele>
        <time>2013-05-24T01:29:38Z</time>
      </trkpt>
      <trkpt lat="-21.24986" lon="55.48143">
        <ele>323.6</ele>
        <time>2013-05-24T01:29:48Z</time>
      </trkpt>
      <trkpt lat="-21.24992" lon="55.48136">
        <ele>323.8</ele>
        <time>2013-05-24T01:29:54Z</time>
      </trkpt>
      <trkpt lat="-21.25" lon="55.48132">
        <ele>323.4</ele>
        <time>2013-05-24T01:30:02Z</time>
      </trkpt>
      <trkpt lat="-21.25009" lon="55.48133">
        <ele>325</ele>
        <time>2013-05-24T01:30:08Z</time>
      </trkpt>
      <trkpt lat="-21.25018" lon="55.48134">
        <ele>325.6</ele>
        <time>2013-05-24T01:30:12Z</time>
      </trkpt>
      <trkpt lat="-21.25025" lon="55.48135">
        <ele>326.1</ele>
        <time>2013-05-24T01:30:16Z</time>
      </trkpt>
      <trkpt lat="-21.25033" lon="55.48135">
        <ele>326.1</ele>
        <time>2013-05-24T01:30:19Z</time>
      </trkpt>
      <trkpt lat="-21.25041" lon="55.48134">
        <ele>327</ele>
        <time>2013-05-24T01:30:24Z</time>
      </trkpt>
      <trkpt lat="-21.25049" lon="55.48133">
        <ele>326.1</ele>
        <time>2013-05-24T01:30:28Z</time>
      </trkpt>
      <trkpt lat="-21.25056" lon="55.48131">
        <ele>325.7</ele>
        <time>2013-05-24T01:30:32Z</time>
      </trkpt>
      <trkpt lat="-21.25063" lon="55.48126">
        <ele>325.5</ele>
        <time>2013-05-24T01:30:38Z</time>
      </trkpt>
      <trkpt lat="-21.25059" lon="55.48107">
        <ele>324</ele>
        <time>2013-05-24T01:30:47Z</time>
      </trkpt>
      <trkpt lat="-21.25055" lon="55.48098">
        <ele>324</ele>
        <time>2013-05-24T01:30:51Z</time>
      </trkpt>
      <trkpt lat="-21.25051" lon="55.48089">
        <ele>322.9</ele>
        <time>2013-05-24T01:30:56Z</time>
      </trkpt>
      <trkpt lat="-21.25048" lon="55.48081">
        <ele>322.6</ele>
        <time>2013-05-24T01:31:01Z</time>
      </trkpt>
      <trkpt lat="-21.25049" lon="55.48069">
        <ele>323</ele>
        <time>2013-05-24T01:31:11Z</time>
      </trkpt>
      <trkpt lat="-21.25056" lon="55.48059">
        <ele>325</ele>
        <time>2013-05-24T01:31:23Z</time>
      </trkpt>
      <trkpt lat="-21.25065" lon="55.48054">
        <ele>326.2</ele>
        <time>2013-05-24T01:31:33Z</time>
      </trkpt>
      <trkpt lat="-21.25074" lon="55.48052">
        <ele>327.3</ele>
        <time>2013-05-24T01:31:41Z</time>
      </trkpt>
      <trkpt lat="-21.2508" lon="55.48047">
        <ele>328.5</ele>
        <time>2013-05-24T01:31:49Z</time>
      </trkpt>
      <trkpt lat="-21.25086" lon="55.48041">
        <ele>328.2</ele>
        <time>2013-05-24T01:31:57Z</time>
      </trkpt>
      <trkpt lat="-21.25086" lon="55.48031">
        <ele>329.2</ele>
        <time>2013-05-24T01:32:03Z</time>
      </trkpt>
      <trkpt lat="-21.25096" lon="55.48028">
        <ele>330</ele>
        <time>2013-05-24T01:32:16Z</time>
      </trkpt>
      <trkpt lat="-21.25105" lon="55.4804">
        <ele>331</ele>
        <time>2013-05-24T01:32:24Z</time>
      </trkpt>
      <trkpt lat="-21.25177" lon="55.48211">
        <ele>333</ele>
        <time>2013-05-24T01:32:40Z</time>
      </trkpt>
      <trkpt lat="-21.25218" lon="55.48259">
        <ele>333</ele>
        <time>2013-05-24T01:32:45Z</time>
      </trkpt>
      <trkpt lat="-21.25237" lon="55.48269">
        <ele>333</ele>
        <time>2013-05-24T01:32:47Z</time>
      </trkpt>
      <trkpt lat="-21.25245" lon="55.48271">
        <ele>332.8</ele>
        <time>2013-05-24T01:32:49Z</time>
      </trkpt>
      <trkpt lat="-21.25251" lon="55.48267">
        <ele>333.2</ele>
        <time>2013-05-24T01:32:52Z</time>
      </trkpt>
      <trkpt lat="-21.25258" lon="55.48261">
        <ele>333.6</ele>
        <time>2013-05-24T01:32:56Z</time>
      </trkpt>
      <trkpt lat="-21.25262" lon="55.48253">
        <ele>333</ele>
        <time>2013-05-24T01:32:59Z</time>
      </trkpt>
      <trkpt lat="-21.25269" lon="55.48252">
        <ele>333.2</ele>
        <time>2013-05-24T01:33:02Z</time>
      </trkpt>
      <trkpt lat="-21.25277" lon="55.48249">
        <ele>334</ele>
        <time>2013-05-24T01:33:05Z</time>
      </trkpt>
      <trkpt lat="-21.25283" lon="55.48243">
        <ele>333.1</ele>
        <time>2013-05-24T01:33:07Z</time>
      </trkpt>
      <trkpt lat="-21.25287" lon="55.48235">
        <ele>332.9</ele>
        <time>2013-05-24T01:33:10Z</time>
      </trkpt>
      <trkpt lat="-21.25289" lon="55.48226">
        <ele>333</ele>
        <time>2013-05-24T01:33:13Z</time>
      </trkpt>
      <trkpt lat="-21.25289" lon="55.48221">
        <ele>333.3</ele>
        <time>2013-05-24T01:33:14Z</time>
      </trkpt>
      <trkpt lat="-21.25289" lon="55.48216">
        <ele>333.6</ele>
        <time>2013-05-24T01:33:15Z</time>
      </trkpt>
      <trkpt lat="-21.25288" lon="55.4821">
        <ele>333.7</ele>
        <time>2013-05-24T01:33:16Z</time>
      </trkpt>
      <trkpt lat="-21.25288" lon="55.48204">
        <ele>333.8</ele>
        <time>2013-05-24T01:33:17Z</time>
      </trkpt>
      <trkpt lat="-21.25288" lon="55.48199">
        <ele>333.7</ele>
        <time>2013-05-24T01:33:18Z</time>
      </trkpt>
      <trkpt lat="-21.25287" lon="55.48192">
        <ele>333.7</ele>
        <time>2013-05-24T01:33:19Z</time>
      </trkpt>
      <trkpt lat="-21.25287" lon="55.48187">
        <ele>333.7</ele>
        <time>2013-05-24T01:33:20Z</time>
      </trkpt>
      <trkpt lat="-21.25286" lon="55.48182">
        <ele>333.9</ele>
        <time>2013-05-24T01:33:21Z</time>
      </trkpt>
      <trkpt lat="-21.25285" lon="55.48177">
        <ele>334.1</ele>
        <time>2013-05-24T01:33:22Z</time>
      </trkpt>
      <trkpt lat="-21.25284" lon="55.48171">
        <ele>334.3</ele>
        <time>2013-05-24T01:33:23Z</time>
      </trkpt>
      <trkpt lat="-21.25287" lon="55.48158">
        <ele>334</ele>
        <time>2013-05-24T01:33:26Z</time>
      </trkpt>
      <trkpt lat="-21.25295" lon="55.48148">
        <ele>335</ele>
        <time>2013-05-24T01:33:30Z</time>
      </trkpt>
      <trkpt lat="-21.25305" lon="55.48141">
        <ele>335</ele>
        <time>2013-05-24T01:33:34Z</time>
      </trkpt>
      <trkpt lat="-21.25311" lon="55.48134">
        <ele>336</ele>
        <time>2013-05-24T01:33:38Z</time>
      </trkpt>
      <trkpt lat="-21.25313" lon="55.48126">
        <ele>337.6</ele>
        <time>2013-05-24T01:33:43Z</time>
      </trkpt>
      <trkpt lat="-21.25311" lon="55.48117">
        <ele>338</ele>
        <time>2013-05-24T01:33:45Z</time>
      </trkpt>
      <trkpt lat="-21.25308" lon="55.48111">
        <ele>338.1</ele>
        <time>2013-05-24T01:33:46Z</time>
      </trkpt>
      <trkpt lat="-21.25304" lon="55.48106">
        <ele>338.4</ele>
        <time>2013-05-24T01:33:47Z</time>
      </trkpt>
      <trkpt lat="-21.25301" lon="55.48102">
        <ele>338.6</ele>
        <time>2013-05-24T01:33:48Z</time>
      </trkpt>
      <trkpt lat="-21.25298" lon="55.48097">
        <ele>338.9</ele>
        <time>2013-05-24T01:33:49Z</time>
      </trkpt>
      <trkpt lat="-21.25295" lon="55.48092">
        <ele>339.1</ele>
        <time>2013-05-24T01:33:50Z</time>
      </trkpt>
      <trkpt lat="-21.25291" lon="55.48087">
        <ele>339.2</ele>
        <time>2013-05-24T01:33:51Z</time>
      </trkpt>
      <trkpt lat="-21.25288" lon="55.48082">
        <ele>339</ele>
        <time>2013-05-24T01:33:52Z</time>
      </trkpt>
      <trkpt lat="-21.25284" lon="55.48078">
        <ele>338.9</ele>
        <time>2013-05-24T01:33:53Z</time>
      </trkpt>
      <trkpt lat="-21.2528" lon="55.4807">
        <ele>339.3</ele>
        <time>2013-05-24T01:33:55Z</time>
      </trkpt>
      <trkpt lat="-21.25277" lon="55.48066">
        <ele>339.9</ele>
        <time>2013-05-24T01:33:56Z</time>
      </trkpt>
      <trkpt lat="-21.2527" lon="55.48061">
        <ele>340.3</ele>
        <time>2013-05-24T01:33:57Z</time>
      </trkpt>
      <trkpt lat="-21.25266" lon="55.48058">
        <ele>340.6</ele>
        <time>2013-05-24T01:33:58Z</time>
      </trkpt>
      <trkpt lat="-21.25259" lon="55.48051">
        <ele>340.9</ele>
        <time>2013-05-24T01:33:59Z</time>
      </trkpt>
      <trkpt lat="-21.25252" lon="55.48046">
        <ele>341.2</ele>
        <time>2013-05-24T01:34:00Z</time>
      </trkpt>
      <trkpt lat="-21.25245" lon="55.48039">
        <ele>341.4</ele>
        <time>2013-05-24T01:34:01Z</time>
      </trkpt>
      <trkpt lat="-21.25238" lon="55.48033">
        <ele>341.6</ele>
        <time>2013-05-24T01:34:02Z</time>
      </trkpt>
      <trkpt lat="-21.25232" lon="55.48028">
        <ele>341.7</ele>
        <time>2013-05-24T01:34:03Z</time>
      </trkpt>
      <trkpt lat="-21.25228" lon="55.48024">
        <ele>341.6</ele>
        <time>2013-05-24T01:34:04Z</time>
      </trkpt>
      <trkpt lat="-21.25225" lon="55.4802">
        <ele>341.6</ele>
        <time>2013-05-24T01:34:05Z</time>
      </trkpt>
      <trkpt lat="-21.25219" lon="55.48013">
        <ele>342</ele>
        <time>2013-05-24T01:34:07Z</time>
      </trkpt>
      <trkpt lat="-21.25215" lon="55.48009">
        <ele>342.6</ele>
        <time>2013-05-24T01:34:09Z</time>
      </trkpt>
      <trkpt lat="-21.25209" lon="55.48002">
        <ele>342.7</ele>
        <time>2013-05-24T01:34:11Z</time>
      </trkpt>
      <trkpt lat="-21.25205" lon="55.47995">
        <ele>343.3</ele>
        <time>2013-05-24T01:34:14Z</time>
      </trkpt>
      <trkpt lat="-21.25202" lon="55.47988">
        <ele>344.8</ele>
        <time>2013-05-24T01:34:17Z</time>
      </trkpt>
      <trkpt lat="-21.252" lon="55.47978">
        <ele>346.2</ele>
        <time>2013-05-24T01:34:21Z</time>
      </trkpt>
      <trkpt lat="-21.25198" lon="55.47969">
        <ele>346.8</ele>
        <time>2013-05-24T01:34:27Z</time>
      </trkpt>
      <trkpt lat="-21.25193" lon="55.47964">
        <ele>349.2</ele>
        <time>2013-05-24T01:34:39Z</time>
      </trkpt>
      <trkpt lat="-21.25185" lon="55.47963">
        <ele>351.2</ele>
        <time>2013-05-24T01:34:46Z</time>
      </trkpt>
      <trkpt lat="-21.25177" lon="55.47965">
        <ele>351.5</ele>
        <time>2013-05-24T01:34:52Z</time>
      </trkpt>
      <trkpt lat="-21.25177" lon="55.47956">
        <ele>357.8</ele>
        <time>2013-05-24T01:35:19Z</time>
      </trkpt>
      <trkpt lat="-21.25184" lon="55.47952">
        <ele>357.8</ele>
        <time>2013-05-24T01:35:26Z</time>
      </trkpt>
      <trkpt lat="-21.25189" lon="55.47945">
        <ele>357.9</ele>
        <time>2013-05-24T01:35:31Z</time>
      </trkpt>
      <trkpt lat="-21.25196" lon="55.47941">
        <ele>357.7</ele>
        <time>2013-05-24T01:35:37Z</time>
      </trkpt>
      <trkpt lat="-21.25203" lon="55.47938">
        <ele>358</ele>
        <time>2013-05-24T01:35:42Z</time>
      </trkpt>
      <trkpt lat="-21.25209" lon="55.47931">
        <ele>357.8</ele>
        <time>2013-05-24T01:35:49Z</time>
      </trkpt>
      <trkpt lat="-21.25214" lon="55.47925">
        <ele>357.6</ele>
        <time>2013-05-24T01:35:54Z</time>
      </trkpt>
      <trkpt lat="-21.2522" lon="55.4792">
        <ele>357.3</ele>
        <time>2013-05-24T01:35:59Z</time>
      </trkpt>
      <trkpt lat="-21.25227" lon="55.47915">
        <ele>356.7</ele>
        <time>2013-05-24T01:36:05Z</time>
      </trkpt>
      <trkpt lat="-21.25232" lon="55.47909">
        <ele>357</ele>
        <time>2013-05-24T01:36:10Z</time>
      </trkpt>
      <trkpt lat="-21.25234" lon="55.479">
        <ele>357.6</ele>
        <time>2013-05-24T01:36:18Z</time>
      </trkpt>
      <trkpt lat="-21.2524" lon="55.47894">
        <ele>358.7</ele>
        <time>2013-05-24T01:36:25Z</time>
      </trkpt>
      <trkpt lat="-21.25245" lon="55.47887">
        <ele>359.2</ele>
        <time>2013-05-24T01:36:32Z</time>
      </trkpt>
      <trkpt lat="-21.2525" lon="55.47879">
        <ele>360.8</ele>
        <time>2013-05-24T01:36:42Z</time>
      </trkpt>
      <trkpt lat="-21.25257" lon="55.47875">
        <ele>363.6</ele>
        <time>2013-05-24T01:36:53Z</time>
      </trkpt>
      <trkpt lat="-21.2525" lon="55.47874">
        <ele>366.3</ele>
        <time>2013-05-24T01:37:11Z</time>
      </trkpt>
      <trkpt lat="-21.25241" lon="55.47871">
        <ele>367.7</ele>
        <time>2013-05-24T01:37:17Z</time>
      </trkpt>
      <trkpt lat="-21.25233" lon="55.47869">
        <ele>368.9</ele>
        <time>2013-05-24T01:37:23Z</time>
      </trkpt>
      <trkpt lat="-21.25225" lon="55.47867">
        <ele>369.7</ele>
        <time>2013-05-24T01:37:28Z</time>
      </trkpt>
      <trkpt lat="-21.25218" lon="55.47865">
        <ele>371</ele>
        <time>2013-05-24T01:37:33Z</time>
      </trkpt>
      <trkpt lat="-21.2521" lon="55.47867">
        <ele>372</ele>
        <time>2013-05-24T01:37:39Z</time>
      </trkpt>
      <trkpt lat="-21.25202" lon="55.47869">
        <ele>375.1</ele>
        <time>2013-05-24T01:37:55Z</time>
      </trkpt>
      <trkpt lat="-21.25195" lon="55.47875">
        <ele>377</ele>
        <time>2013-05-24T01:38:05Z</time>
      </trkpt>
      <trkpt lat="-21.25188" lon="55.47881">
        <ele>380.5</ele>
        <time>2013-05-24T01:38:19Z</time>
      </trkpt>
      <trkpt lat="-21.25184" lon="55.47889">
        <ele>382.2</ele>
        <time>2013-05-24T01:38:30Z</time>
      </trkpt>
      <trkpt lat="-21.25179" lon="55.47896">
        <ele>384.3</ele>
        <time>2013-05-24T01:38:40Z</time>
      </trkpt>
      <trkpt lat="-21.25174" lon="55.47903">
        <ele>385.1</ele>
        <time>2013-05-24T01:38:46Z</time>
      </trkpt>
      <trkpt lat="-21.25169" lon="55.4791">
        <ele>386.3</ele>
        <time>2013-05-24T01:38:54Z</time>
      </trkpt>
      <trkpt lat="-21.25161" lon="55.47913">
        <ele>387.1</ele>
        <time>2013-05-24T01:39:01Z</time>
      </trkpt>
      <trkpt lat="-21.25153" lon="55.47917">
        <ele>389</ele>
        <time>2013-05-24T01:39:08Z</time>
      </trkpt>
      <trkpt lat="-21.25146" lon="55.47922">
        <ele>391.1</ele>
        <time>2013-05-24T01:39:17Z</time>
      </trkpt>
      <trkpt lat="-21.25142" lon="55.47929">
        <ele>393</ele>
        <time>2013-05-24T01:39:25Z</time>
      </trkpt>
      <trkpt lat="-21.25139" lon="55.47938">
        <ele>393.3</ele>
        <time>2013-05-24T01:39:36Z</time>
      </trkpt>
      <trkpt lat="-21.25134" lon="55.47946">
        <ele>395.5</ele>
        <time>2013-05-24T01:39:45Z</time>
      </trkpt>
      <trkpt lat="-21.25131" lon="55.47954">
        <ele>397.7</ele>
        <time>2013-05-24T01:39:52Z</time>
      </trkpt>
      <trkpt lat="-21.2513" lon="55.47963">
        <ele>398</ele>
        <time>2013-05-24T01:39:58Z</time>
      </trkpt>
      <trkpt lat="-21.25125" lon="55.4797">
        <ele>397.7</ele>
        <time>2013-05-24T01:40:05Z</time>
      </trkpt>
      <trkpt lat="-21.25117" lon="55.47975">
        <ele>399.5</ele>
        <time>2013-05-24T01:40:15Z</time>
      </trkpt>
      <trkpt lat="-21.25109" lon="55.47976">
        <ele>400.3</ele>
        <time>2013-05-24T01:40:24Z</time>
      </trkpt>
      <trkpt lat="-21.25102" lon="55.47975">
        <ele>401.4</ele>
        <time>2013-05-24T01:40:31Z</time>
      </trkpt>
      <trkpt lat="-21.25112" lon="55.47975">
        <ele>405</ele>
        <time>2013-05-24T01:40:55Z</time>
      </trkpt>
      <trkpt lat="-21.25103" lon="55.47972">
        <ele>407.8</ele>
        <time>2013-05-24T01:41:10Z</time>
      </trkpt>
      <trkpt lat="-21.25096" lon="55.47966">
        <ele>409</ele>
        <time>2013-05-24T01:41:20Z</time>
      </trkpt>
      <trkpt lat="-21.25104" lon="55.47962">
        <ele>411.8</ele>
        <time>2013-05-24T01:41:32Z</time>
      </trkpt>
      <trkpt lat="-21.25111" lon="55.47957">
        <ele>412.9</ele>
        <time>2013-05-24T01:41:41Z</time>
      </trkpt>
      <trkpt lat="-21.25102" lon="55.47959">
        <ele>417.7</ele>
        <time>2013-05-24T01:42:10Z</time>
      </trkpt>
      <trkpt lat="-21.25111" lon="55.47957">
        <ele>420.3</ele>
        <time>2013-05-24T01:42:27Z</time>
      </trkpt>
      <trkpt lat="-21.25104" lon="55.47952">
        <ele>422.7</ele>
        <time>2013-05-24T01:42:41Z</time>
      </trkpt>
      <trkpt lat="-21.25097" lon="55.47945">
        <ele>423.3</ele>
        <time>2013-05-24T01:42:50Z</time>
      </trkpt>
      <trkpt lat="-21.25104" lon="55.47941">
        <ele>425.8</ele>
        <time>2013-05-24T01:43:01Z</time>
      </trkpt>
      <trkpt lat="-21.25112" lon="55.47941">
        <ele>427</ele>
        <time>2013-05-24T01:43:08Z</time>
      </trkpt>
      <trkpt lat="-21.25121" lon="55.47939">
        <ele>428.5</ele>
        <time>2013-05-24T01:43:16Z</time>
      </trkpt>
      <trkpt lat="-21.25127" lon="55.47933">
        <ele>430.8</ele>
        <time>2013-05-24T01:43:24Z</time>
      </trkpt>
      <trkpt lat="-21.25132" lon="55.47924">
        <ele>430.8</ele>
        <time>2013-05-24T01:43:31Z</time>
      </trkpt>
      <trkpt lat="-21.25136" lon="55.47916">
        <ele>431.5</ele>
        <time>2013-05-24T01:43:38Z</time>
      </trkpt>
      <trkpt lat="-21.2514" lon="55.47907">
        <ele>433.3</ele>
        <time>2013-05-24T01:43:45Z</time>
      </trkpt>
      <trkpt lat="-21.25143" lon="55.47898">
        <ele>432.8</ele>
        <time>2013-05-24T01:43:52Z</time>
      </trkpt>
      <trkpt lat="-21.25147" lon="55.4789">
        <ele>433.6</ele>
        <time>2013-05-24T01:44:01Z</time>
      </trkpt>
      <trkpt lat="-21.25149" lon="55.47882">
        <ele>434.2</ele>
        <time>2013-05-24T01:44:07Z</time>
      </trkpt>
      <trkpt lat="-21.25152" lon="55.47874">
        <ele>437.4</ele>
        <time>2013-05-24T01:44:20Z</time>
      </trkpt>
      <trkpt lat="-21.25161" lon="55.47873">
        <ele>437.5</ele>
        <time>2013-05-24T01:44:28Z</time>
      </trkpt>
      <trkpt lat="-21.25167" lon="55.47877">
        <ele>437.9</ele>
        <time>2013-05-24T01:44:32Z</time>
      </trkpt>
      <trkpt lat="-21.25175" lon="55.47879">
        <ele>438.4</ele>
        <time>2013-05-24T01:44:36Z</time>
      </trkpt>
      <trkpt lat="-21.25181" lon="55.47873">
        <ele>439</ele>
        <time>2013-05-24T01:44:43Z</time>
      </trkpt>
      <trkpt lat="-21.25181" lon="55.47865">
        <ele>440</ele>
        <time>2013-05-24T01:44:48Z</time>
      </trkpt>
      <trkpt lat="-21.25184" lon="55.47856">
        <ele>440.2</ele>
        <time>2013-05-24T01:44:54Z</time>
      </trkpt>
      <trkpt lat="-21.25186" lon="55.47848">
        <ele>442</ele>
        <time>2013-05-24T01:45:00Z</time>
      </trkpt>
      <trkpt lat="-21.25188" lon="55.4784">
        <ele>442.6</ele>
        <time>2013-05-24T01:45:05Z</time>
      </trkpt>
      <trkpt lat="-21.25189" lon="55.47831">
        <ele>443.2</ele>
        <time>2013-05-24T01:45:10Z</time>
      </trkpt>
      <trkpt lat="-21.2519" lon="55.47821">
        <ele>444.4</ele>
        <time>2013-05-24T01:45:18Z</time>
      </trkpt>
      <trkpt lat="-21.25198" lon="55.47817">
        <ele>445.7</ele>
        <time>2013-05-24T01:45:25Z</time>
      </trkpt>
      <trkpt lat="-21.25205" lon="55.47811">
        <ele>446.4</ele>
        <time>2013-05-24T01:45:32Z</time>
      </trkpt>
      <trkpt lat="-21.25207" lon="55.47803">
        <ele>446.4</ele>
        <time>2013-05-24T01:45:37Z</time>
      </trkpt>
      <trkpt lat="-21.25207" lon="55.47793">
        <ele>445.9</ele>
        <time>2013-05-24T01:45:42Z</time>
      </trkpt>
      <trkpt lat="-21.25205" lon="55.47785">
        <ele>446.1</ele>
        <time>2013-05-24T01:45:47Z</time>
      </trkpt>
      <trkpt lat="-21.25206" lon="55.47777">
        <ele>446.7</ele>
        <time>2013-05-24T01:45:52Z</time>
      </trkpt>
      <trkpt lat="-21.25208" lon="55.47767">
        <ele>448.3</ele>
        <time>2013-05-24T01:45:59Z</time>
      </trkpt>
      <trkpt lat="-21.25207" lon="55.47759">
        <ele>447.3</ele>
        <time>2013-05-24T01:46:05Z</time>
      </trkpt>
      <trkpt lat="-21.25205" lon="55.4775">
        <ele>447.9</ele>
        <time>2013-05-24T01:46:11Z</time>
      </trkpt>
      <trkpt lat="-21.25203" lon="55.47741">
        <ele>448.5</ele>
        <time>2013-05-24T01:46:17Z</time>
      </trkpt>
      <trkpt lat="-21.25201" lon="55.47732">
        <ele>449.4</ele>
        <time>2013-05-24T01:46:24Z</time>
      </trkpt>
      <trkpt lat="-21.252" lon="55.47724">
        <ele>449.3</ele>
        <time>2013-05-24T01:46:30Z</time>
      </trkpt>
      <trkpt lat="-21.25196" lon="55.47716">
        <ele>450.2</ele>
        <time>2013-05-24T01:46:35Z</time>
      </trkpt>
      <trkpt lat="-21.25196" lon="55.47707">
        <ele>451.7</ele>
        <time>2013-05-24T01:46:43Z</time>
      </trkpt>
      <trkpt lat="-21.25195" lon="55.47698">
        <ele>452.3</ele>
        <time>2013-05-24T01:46:49Z</time>
      </trkpt>
      <trkpt lat="-21.252" lon="55.47692">
        <ele>452.9</ele>
        <time>2013-05-24T01:46:53Z</time>
      </trkpt>
      <trkpt lat="-21.25206" lon="55.47685">
        <ele>453.1</ele>
        <time>2013-05-24T01:46:58Z</time>
      </trkpt>
      <trkpt lat="-21.25208" lon="55.47676">
        <ele>452.3</ele>
        <time>2013-05-24T01:47:06Z</time>
      </trkpt>
      <trkpt lat="-21.252" lon="55.47678">
        <ele>456.1</ele>
        <time>2013-05-24T01:47:36Z</time>
      </trkpt>
      <trkpt lat="-21.25191" lon="55.47676">
        <ele>459.6</ele>
        <time>2013-05-24T01:47:51Z</time>
      </trkpt>
      <trkpt lat="-21.25191" lon="55.47667">
        <ele>463.1</ele>
        <time>2013-05-24T01:48:03Z</time>
      </trkpt>
      <trkpt lat="-21.25198" lon="55.47663">
        <ele>463.2</ele>
        <time>2013-05-24T01:48:11Z</time>
      </trkpt>
      <trkpt lat="-21.25202" lon="55.47656">
        <ele>463</ele>
        <time>2013-05-24T01:48:18Z</time>
      </trkpt>
      <trkpt lat="-21.25204" lon="55.47647">
        <ele>465</ele>
        <time>2013-05-24T01:48:25Z</time>
      </trkpt>
      <trkpt lat="-21.25206" lon="55.47638">
        <ele>465.9</ele>
        <time>2013-05-24T01:48:35Z</time>
      </trkpt>
      <trkpt lat="-21.25205" lon="55.47629">
        <ele>465.9</ele>
        <time>2013-05-24T01:48:44Z</time>
      </trkpt>
      <trkpt lat="-21.25206" lon="55.47623">
        <ele>466.4</ele>
        <time>2013-05-24T01:48:58Z</time>
      </trkpt>
      <trkpt lat="-21.25206" lon="55.47623">
        <ele>466.4</ele>
        <time>2013-05-24T01:48:58Z</time>
      </trkpt>
      <trkpt lat="-21.25206" lon="55.47622">
        <ele>466.1</ele>
        <time>2013-05-24T01:49:01Z</time>
      </trkpt>
      <trkpt lat="-21.25206" lon="55.47617">
        <ele>465.3</ele>
        <time>2013-05-24T01:49:36Z</time>
      </trkpt>
      <trkpt lat="-21.25204" lon="55.47608">
        <ele>465.6</ele>
        <time>2013-05-24T01:49:57Z</time>
      </trkpt>
      <trkpt lat="-21.25205" lon="55.47599">
        <ele>465</ele>
        <time>2013-05-24T01:50:07Z</time>
      </trkpt>
      <trkpt lat="-21.25201" lon="55.47591">
        <ele>463.6</ele>
        <time>2013-05-24T01:50:16Z</time>
      </trkpt>
      <trkpt lat="-21.25196" lon="55.47584">
        <ele>463</ele>
        <time>2013-05-24T01:50:23Z</time>
      </trkpt>
      <trkpt lat="-21.25192" lon="55.47576">
        <ele>462</ele>
        <time>2013-05-24T01:50:30Z</time>
      </trkpt>
      <trkpt lat="-21.25187" lon="55.47568">
        <ele>460.9</ele>
        <time>2013-05-24T01:50:38Z</time>
      </trkpt>
      <trkpt lat="-21.25183" lon="55.4756">
        <ele>460.3</ele>
        <time>2013-05-24T01:50:45Z</time>
      </trkpt>
      <trkpt lat="-21.2518" lon="55.47552">
        <ele>459.6</ele>
        <time>2013-05-24T01:50:52Z</time>
      </trkpt>
      <trkpt lat="-21.25176" lon="55.47544">
        <ele>458.8</ele>
        <time>2013-05-24T01:50:59Z</time>
      </trkpt>
      <trkpt lat="-21.25173" lon="55.47536">
        <ele>457.7</ele>
        <time>2013-05-24T01:51:06Z</time>
      </trkpt>
      <trkpt lat="-21.25169" lon="55.47528">
        <ele>458.1</ele>
        <time>2013-05-24T01:51:13Z</time>
      </trkpt>
      <trkpt lat="-21.25165" lon="55.47519">
        <ele>457.8</ele>
        <time>2013-05-24T01:51:20Z</time>
      </trkpt>
      <trkpt lat="-21.25163" lon="55.4751">
        <ele>456.8</ele>
        <time>2013-05-24T01:51:28Z</time>
      </trkpt>
      <trkpt lat="-21.25163" lon="55.47501">
        <ele>456.6</ele>
        <time>2013-05-24T01:51:35Z</time>
      </trkpt>
      <trkpt lat="-21.25166" lon="55.47493">
        <ele>455.9</ele>
        <time>2013-05-24T01:51:42Z</time>
      </trkpt>
      <trkpt lat="-21.25171" lon="55.47486">
        <ele>455.4</ele>
        <time>2013-05-24T01:51:49Z</time>
      </trkpt>
      <trkpt lat="-21.25176" lon="55.47478">
        <ele>454.9</ele>
        <time>2013-05-24T01:51:56Z</time>
      </trkpt>
      <trkpt lat="-21.25181" lon="55.47471">
        <ele>455.7</ele>
        <time>2013-05-24T01:52:03Z</time>
      </trkpt>
      <trkpt lat="-21.25187" lon="55.47465">
        <ele>454.7</ele>
        <time>2013-05-24T01:52:10Z</time>
      </trkpt>
      <trkpt lat="-21.25192" lon="55.4746">
        <ele>454.7</ele>
        <time>2013-05-24T01:52:16Z</time>
      </trkpt>
      <trkpt lat="-21.25198" lon="55.47453">
        <ele>453.7</ele>
        <time>2013-05-24T01:52:23Z</time>
      </trkpt>
      <trkpt lat="-21.25204" lon="55.47446">
        <ele>453.1</ele>
        <time>2013-05-24T01:52:30Z</time>
      </trkpt>
      <trkpt lat="-21.2521" lon="55.47439">
        <ele>452.4</ele>
        <time>2013-05-24T01:52:36Z</time>
      </trkpt>
      <trkpt lat="-21.25216" lon="55.47433">
        <ele>451.5</ele>
        <time>2013-05-24T01:52:42Z</time>
      </trkpt>
      <trkpt lat="-21.25222" lon="55.47427">
        <ele>450.8</ele>
        <time>2013-05-24T01:52:48Z</time>
      </trkpt>
      <trkpt lat="-21.25228" lon="55.47421">
        <ele>449.1</ele>
        <time>2013-05-24T01:52:54Z</time>
      </trkpt>
      <trkpt lat="-21.25231" lon="55.47413">
        <ele>448.9</ele>
        <time>2013-05-24T01:52:59Z</time>
      </trkpt>
      <trkpt lat="-21.25233" lon="55.47405">
        <ele>448.2</ele>
        <time>2013-05-24T01:53:05Z</time>
      </trkpt>
      <trkpt lat="-21.25229" lon="55.47397">
        <ele>447.1</ele>
        <time>2013-05-24T01:53:11Z</time>
      </trkpt>
      <trkpt lat="-21.25224" lon="55.4739">
        <ele>446.8</ele>
        <time>2013-05-24T01:53:17Z</time>
      </trkpt>
      <trkpt lat="-21.25218" lon="55.47384">
        <ele>446.4</ele>
        <time>2013-05-24T01:53:22Z</time>
      </trkpt>
      <trkpt lat="-21.25214" lon="55.47376">
        <ele>445.9</ele>
        <time>2013-05-24T01:53:28Z</time>
      </trkpt>
      <trkpt lat="-21.25211" lon="55.47367">
        <ele>444.9</ele>
        <time>2013-05-24T01:53:34Z</time>
      </trkpt>
      <trkpt lat="-21.25209" lon="55.47359">
        <ele>444.4</ele>
        <time>2013-05-24T01:53:40Z</time>
      </trkpt>
      <trkpt lat="-21.25205" lon="55.47351">
        <ele>443.8</ele>
        <time>2013-05-24T01:53:46Z</time>
      </trkpt>
      <trkpt lat="-21.25202" lon="55.47342">
        <ele>442.8</ele>
        <time>2013-05-24T01:53:51Z</time>
      </trkpt>
      <trkpt lat="-21.25199" lon="55.47335">
        <ele>442.7</ele>
        <time>2013-05-24T01:53:56Z</time>
      </trkpt>
      <trkpt lat="-21.25191" lon="55.47329">
        <ele>441.6</ele>
        <time>2013-05-24T01:54:02Z</time>
      </trkpt>
      <trkpt lat="-21.25184" lon="55.47332">
        <ele>439.8</ele>
        <time>2013-05-24T01:54:08Z</time>
      </trkpt>
      <trkpt lat="-21.25177" lon="55.47338">
        <ele>439.5</ele>
        <time>2013-05-24T01:54:13Z</time>
      </trkpt>
      <trkpt lat="-21.2517" lon="55.47343">
        <ele>439.9</ele>
        <time>2013-05-24T01:54:20Z</time>
      </trkpt>
      <trkpt lat="-21.25163" lon="55.47347">
        <ele>440</ele>
        <time>2013-05-24T01:54:26Z</time>
      </trkpt>
      <trkpt lat="-21.25154" lon="55.47344">
        <ele>439.5</ele>
        <time>2013-05-24T01:54:34Z</time>
      </trkpt>
      <trkpt lat="-21.25147" lon="55.4734">
        <ele>439.6</ele>
        <time>2013-05-24T01:54:41Z</time>
      </trkpt>
      <trkpt lat="-21.25142" lon="55.47332">
        <ele>439.8</ele>
        <time>2013-05-24T01:54:48Z</time>
      </trkpt>
      <trkpt lat="-21.25143" lon="55.47323">
        <ele>440.5</ele>
        <time>2013-05-24T01:54:58Z</time>
      </trkpt>
      <trkpt lat="-21.25148" lon="55.47316">
        <ele>440.9</ele>
        <time>2013-05-24T01:55:05Z</time>
      </trkpt>
      <trkpt lat="-21.25154" lon="55.4731">
        <ele>442.1</ele>
        <time>2013-05-24T01:55:12Z</time>
      </trkpt>
      <trkpt lat="-21.25159" lon="55.47302">
        <ele>442.6</ele>
        <time>2013-05-24T01:55:18Z</time>
      </trkpt>
      <trkpt lat="-21.25161" lon="55.47294">
        <ele>442.6</ele>
        <time>2013-05-24T01:55:24Z</time>
      </trkpt>
      <trkpt lat="-21.25161" lon="55.47285">
        <ele>443.4</ele>
        <time>2013-05-24T01:55:29Z</time>
      </trkpt>
      <trkpt lat="-21.25155" lon="55.47278">
        <ele>443.8</ele>
        <time>2013-05-24T01:55:35Z</time>
      </trkpt>
      <trkpt lat="-21.25147" lon="55.47274">
        <ele>443.4</ele>
        <time>2013-05-24T01:55:41Z</time>
      </trkpt>
      <trkpt lat="-21.25138" lon="55.47275">
        <ele>444.4</ele>
        <time>2013-05-24T01:55:47Z</time>
      </trkpt>
      <trkpt lat="-21.2513" lon="55.47278">
        <ele>445.5</ele>
        <time>2013-05-24T01:55:53Z</time>
      </trkpt>
      <trkpt lat="-21.25123" lon="55.47281">
        <ele>445</ele>
        <time>2013-05-24T01:55:58Z</time>
      </trkpt>
      <trkpt lat="-21.25116" lon="55.47284">
        <ele>444.6</ele>
        <time>2013-05-24T01:56:03Z</time>
      </trkpt>
      <trkpt lat="-21.25108" lon="55.47287">
        <ele>443.4</ele>
        <time>2013-05-24T01:56:08Z</time>
      </trkpt>
      <trkpt lat="-21.251" lon="55.4729">
        <ele>443.1</ele>
        <time>2013-05-24T01:56:13Z</time>
      </trkpt>
      <trkpt lat="-21.25092" lon="55.47293">
        <ele>441.8</ele>
        <time>2013-05-24T01:56:19Z</time>
      </trkpt>
      <trkpt lat="-21.25085" lon="55.47297">
        <ele>441.7</ele>
        <time>2013-05-24T01:56:24Z</time>
      </trkpt>
      <trkpt lat="-21.25076" lon="55.47298">
        <ele>440.6</ele>
        <time>2013-05-24T01:56:30Z</time>
      </trkpt>
      <trkpt lat="-21.25069" lon="55.47293">
        <ele>439.8</ele>
        <time>2013-05-24T01:56:36Z</time>
      </trkpt>
      <trkpt lat="-21.25062" lon="55.47287">
        <ele>439.3</ele>
        <time>2013-05-24T01:56:43Z</time>
      </trkpt>
      <trkpt lat="-21.25058" lon="55.4728">
        <ele>438.6</ele>
        <time>2013-05-24T01:56:50Z</time>
      </trkpt>
      <trkpt lat="-21.25053" lon="55.47272">
        <ele>439.4</ele>
        <time>2013-05-24T01:56:56Z</time>
      </trkpt>
      <trkpt lat="-21.25048" lon="55.47266">
        <ele>438.8</ele>
        <time>2013-05-24T01:57:02Z</time>
      </trkpt>
      <trkpt lat="-21.25043" lon="55.47258">
        <ele>439</ele>
        <time>2013-05-24T01:57:08Z</time>
      </trkpt>
      <trkpt lat="-21.25039" lon="55.4725">
        <ele>439</ele>
        <time>2013-05-24T01:57:13Z</time>
      </trkpt>
      <trkpt lat="-21.25035" lon="55.47242">
        <ele>439.2</ele>
        <time>2013-05-24T01:57:19Z</time>
      </trkpt>
      <trkpt lat="-21.25029" lon="55.47235">
        <ele>440.2</ele>
        <time>2013-05-24T01:57:25Z</time>
      </trkpt>
      <trkpt lat="-21.25025" lon="55.47227">
        <ele>439.9</ele>
        <time>2013-05-24T01:57:31Z</time>
      </trkpt>
      <trkpt lat="-21.2502" lon="55.4722">
        <ele>440.4</ele>
        <time>2013-05-24T01:57:37Z</time>
      </trkpt>
      <trkpt lat="-21.25016" lon="55.47212">
        <ele>441.2</ele>
        <time>2013-05-24T01:57:43Z</time>
      </trkpt>
      <trkpt lat="-21.25011" lon="55.47205">
        <ele>440.6</ele>
        <time>2013-05-24T01:57:49Z</time>
      </trkpt>
      <trkpt lat="-21.25005" lon="55.47199">
        <ele>440.9</ele>
        <time>2013-05-24T01:57:55Z</time>
      </trkpt>
      <trkpt lat="-21.25" lon="55.47192">
        <ele>442</ele>
        <time>2013-05-24T01:58:01Z</time>
      </trkpt>
      <trkpt lat="-21.24996" lon="55.47184">
        <ele>441.9</ele>
        <time>2013-05-24T01:58:06Z</time>
      </trkpt>
      <trkpt lat="-21.24992" lon="55.47176">
        <ele>442.3</ele>
        <time>2013-05-24T01:58:12Z</time>
      </trkpt>
      <trkpt lat="-21.24983" lon="55.47174">
        <ele>441.9</ele>
        <time>2013-05-24T01:58:21Z</time>
      </trkpt>
      <trkpt lat="-21.24977" lon="55.47179">
        <ele>442.1</ele>
        <time>2013-05-24T01:58:26Z</time>
      </trkpt>
      <trkpt lat="-21.2497" lon="55.47183">
        <ele>442.3</ele>
        <time>2013-05-24T01:58:31Z</time>
      </trkpt>
      <trkpt lat="-21.24962" lon="55.47186">
        <ele>442.6</ele>
        <time>2013-05-24T01:58:36Z</time>
      </trkpt>
      <trkpt lat="-21.24955" lon="55.47189">
        <ele>442.7</ele>
        <time>2013-05-24T01:58:41Z</time>
      </trkpt>
      <trkpt lat="-21.24947" lon="55.47193">
        <ele>442.4</ele>
        <time>2013-05-24T01:58:46Z</time>
      </trkpt>
      <trkpt lat="-21.2494" lon="55.47197">
        <ele>441.9</ele>
        <time>2013-05-24T01:58:51Z</time>
      </trkpt>
      <trkpt lat="-21.24933" lon="55.47202">
        <ele>441.6</ele>
        <time>2013-05-24T01:58:56Z</time>
      </trkpt>
      <trkpt lat="-21.24926" lon="55.47206">
        <ele>441.3</ele>
        <time>2013-05-24T01:59:01Z</time>
      </trkpt>
      <trkpt lat="-21.24918" lon="55.4721">
        <ele>441.7</ele>
        <time>2013-05-24T01:59:07Z</time>
      </trkpt>
      <trkpt lat="-21.24911" lon="55.47213">
        <ele>440.6</ele>
        <time>2013-05-24T01:59:12Z</time>
      </trkpt>
      <trkpt lat="-21.24903" lon="55.47216">
        <ele>440</ele>
        <time>2013-05-24T01:59:17Z</time>
      </trkpt>
      <trkpt lat="-21.24896" lon="55.47219">
        <ele>440</ele>
        <time>2013-05-24T01:59:22Z</time>
      </trkpt>
      <trkpt lat="-21.24889" lon="55.47222">
        <ele>440.2</ele>
        <time>2013-05-24T01:59:28Z</time>
      </trkpt>
      <trkpt lat="-21.24881" lon="55.47226">
        <ele>439.7</ele>
        <time>2013-05-24T01:59:34Z</time>
      </trkpt>
      <trkpt lat="-21.24873" lon="55.47229">
        <ele>439.8</ele>
        <time>2013-05-24T01:59:39Z</time>
      </trkpt>
      <trkpt lat="-21.24866" lon="55.47232">
        <ele>439.6</ele>
        <time>2013-05-24T01:59:44Z</time>
      </trkpt>
      <trkpt lat="-21.24858" lon="55.47235">
        <ele>440.4</ele>
        <time>2013-05-24T01:59:50Z</time>
      </trkpt>
      <trkpt lat="-21.24851" lon="55.47236">
        <ele>440.5</ele>
        <time>2013-05-24T01:59:55Z</time>
      </trkpt>
      <trkpt lat="-21.24843" lon="55.47238">
        <ele>439.7</ele>
        <time>2013-05-24T02:00:00Z</time>
      </trkpt>
      <trkpt lat="-21.24835" lon="55.47241">
        <ele>439.2</ele>
        <time>2013-05-24T02:00:06Z</time>
      </trkpt>
      <trkpt lat="-21.24826" lon="55.47243">
        <ele>440.2</ele>
        <time>2013-05-24T02:00:12Z</time>
      </trkpt>
      <trkpt lat="-21.24818" lon="55.47245">
        <ele>439.7</ele>
        <time>2013-05-24T02:00:18Z</time>
      </trkpt>
      <trkpt lat="-21.2481" lon="55.47247">
        <ele>440.6</ele>
        <time>2013-05-24T02:00:26Z</time>
      </trkpt>
      <trkpt lat="-21.24802" lon="55.47249">
        <ele>440</ele>
        <time>2013-05-24T02:00:34Z</time>
      </trkpt>
      <trkpt lat="-21.24794" lon="55.47251">
        <ele>439.6</ele>
        <time>2013-05-24T02:00:40Z</time>
      </trkpt>
      <trkpt lat="-21.24785" lon="55.47254">
        <ele>440.5</ele>
        <time>2013-05-24T02:00:46Z</time>
      </trkpt>
      <trkpt lat="-21.24777" lon="55.47257">
        <ele>441.2</ele>
        <time>2013-05-24T02:00:52Z</time>
      </trkpt>
      <trkpt lat="-21.24769" lon="55.47258">
        <ele>441.2</ele>
        <time>2013-05-24T02:00:58Z</time>
      </trkpt>
      <trkpt lat="-21.24761" lon="55.47259">
        <ele>440.6</ele>
        <time>2013-05-24T02:01:03Z</time>
      </trkpt>
      <trkpt lat="-21.24753" lon="55.47263">
        <ele>441.4</ele>
        <time>2013-05-24T02:01:08Z</time>
      </trkpt>
      <trkpt lat="-21.24746" lon="55.47265">
        <ele>441.5</ele>
        <time>2013-05-24T02:01:14Z</time>
      </trkpt>
      <trkpt lat="-21.24738" lon="55.47267">
        <ele>440.9</ele>
        <time>2013-05-24T02:01:20Z</time>
      </trkpt>
      <trkpt lat="-21.2473" lon="55.47267">
        <ele>441.1</ele>
        <time>2013-05-24T02:01:26Z</time>
      </trkpt>
      <trkpt lat="-21.24721" lon="55.47266">
        <ele>441.8</ele>
        <time>2013-05-24T02:01:32Z</time>
      </trkpt>
      <trkpt lat="-21.24713" lon="55.47264">
        <ele>442.8</ele>
        <time>2013-05-24T02:01:40Z</time>
      </trkpt>
      <trkpt lat="-21.24705" lon="55.47264">
        <ele>443.7</ele>
        <time>2013-05-24T02:01:47Z</time>
      </trkpt>
      <trkpt lat="-21.24696" lon="55.47262">
        <ele>445</ele>
        <time>2013-05-24T02:01:54Z</time>
      </trkpt>
      <trkpt lat="-21.24689" lon="55.4726">
        <ele>446.1</ele>
        <time>2013-05-24T02:02:01Z</time>
      </trkpt>
      <trkpt lat="-21.2468" lon="55.4726">
        <ele>446.8</ele>
        <time>2013-05-24T02:02:08Z</time>
      </trkpt>
      <trkpt lat="-21.24672" lon="55.47261">
        <ele>447.2</ele>
        <time>2013-05-24T02:02:13Z</time>
      </trkpt>
      <trkpt lat="-21.24664" lon="55.47262">
        <ele>448.1</ele>
        <time>2013-05-24T02:02:18Z</time>
      </trkpt>
      <trkpt lat="-21.24656" lon="55.47263">
        <ele>449.1</ele>
        <time>2013-05-24T02:02:24Z</time>
      </trkpt>
      <trkpt lat="-21.24647" lon="55.47263">
        <ele>449.9</ele>
        <time>2013-05-24T02:02:30Z</time>
      </trkpt>
      <trkpt lat="-21.24639" lon="55.47265">
        <ele>451.6</ele>
        <time>2013-05-24T02:02:39Z</time>
      </trkpt>
      <trkpt lat="-21.2463" lon="55.47264">
        <ele>453</ele>
        <time>2013-05-24T02:02:47Z</time>
      </trkpt>
      <trkpt lat="-21.24622" lon="55.47265">
        <ele>453.3</ele>
        <time>2013-05-24T02:02:54Z</time>
      </trkpt>
      <trkpt lat="-21.24614" lon="55.47265">
        <ele>453.4</ele>
        <time>2013-05-24T02:03:00Z</time>
      </trkpt>
      <trkpt lat="-21.24606" lon="55.47265">
        <ele>456.2</ele>
        <time>2013-05-24T02:03:09Z</time>
      </trkpt>
      <trkpt lat="-21.24598" lon="55.47269">
        <ele>457.9</ele>
        <time>2013-05-24T02:03:17Z</time>
      </trkpt>
      <trkpt lat="-21.24591" lon="55.47274">
        <ele>459.1</ele>
        <time>2013-05-24T02:03:24Z</time>
      </trkpt>
      <trkpt lat="-21.24586" lon="55.47281">
        <ele>460.5</ele>
        <time>2013-05-24T02:03:31Z</time>
      </trkpt>
      <trkpt lat="-21.24582" lon="55.47289">
        <ele>462</ele>
        <time>2013-05-24T02:03:39Z</time>
      </trkpt>
      <trkpt lat="-21.24579" lon="55.47297">
        <ele>462.7</ele>
        <time>2013-05-24T02:03:46Z</time>
      </trkpt>
      <trkpt lat="-21.24577" lon="55.47306">
        <ele>464.4</ele>
        <time>2013-05-24T02:03:55Z</time>
      </trkpt>
      <trkpt lat="-21.2457" lon="55.47303">
        <ele>465.1</ele>
        <time>2013-05-24T02:04:03Z</time>
      </trkpt>
      <trkpt lat="-21.24564" lon="55.47298">
        <ele>465.7</ele>
        <time>2013-05-24T02:04:10Z</time>
      </trkpt>
      <trkpt lat="-21.24559" lon="55.47291">
        <ele>467</ele>
        <time>2013-05-24T02:04:18Z</time>
      </trkpt>
      <trkpt lat="-21.24555" lon="55.47284">
        <ele>467.1</ele>
        <time>2013-05-24T02:04:26Z</time>
      </trkpt>
      <trkpt lat="-21.24549" lon="55.47277">
        <ele>467.6</ele>
        <time>2013-05-24T02:04:33Z</time>
      </trkpt>
      <trkpt lat="-21.24543" lon="55.47272">
        <ele>467.8</ele>
        <time>2013-05-24T02:04:39Z</time>
      </trkpt>
      <trkpt lat="-21.24536" lon="55.47266">
        <ele>469.7</ele>
        <time>2013-05-24T02:04:46Z</time>
      </trkpt>
      <trkpt lat="-21.24529" lon="55.47261">
        <ele>470.9</ele>
        <time>2013-05-24T02:04:53Z</time>
      </trkpt>
      <trkpt lat="-21.24523" lon="55.47255">
        <ele>472.3</ele>
        <time>2013-05-24T02:05:00Z</time>
      </trkpt>
      <trkpt lat="-21.24517" lon="55.47248">
        <ele>472</ele>
        <time>2013-05-24T02:05:08Z</time>
      </trkpt>
      <trkpt lat="-21.24511" lon="55.47242">
        <ele>474</ele>
        <time>2013-05-24T02:05:16Z</time>
      </trkpt>
      <trkpt lat="-21.24503" lon="55.47243">
        <ele>474.4</ele>
        <time>2013-05-24T02:05:22Z</time>
      </trkpt>
      <trkpt lat="-21.24495" lon="55.47244">
        <ele>475.3</ele>
        <time>2013-05-24T02:05:27Z</time>
      </trkpt>
      <trkpt lat="-21.24487" lon="55.47247">
        <ele>475.4</ele>
        <time>2013-05-24T02:05:33Z</time>
      </trkpt>
      <trkpt lat="-21.2448" lon="55.47251">
        <ele>476.3</ele>
        <time>2013-05-24T02:05:38Z</time>
      </trkpt>
      <trkpt lat="-21.24472" lon="55.47256">
        <ele>476.9</ele>
        <time>2013-05-24T02:05:44Z</time>
      </trkpt>
      <trkpt lat="-21.24465" lon="55.4726">
        <ele>477.3</ele>
        <time>2013-05-24T02:05:50Z</time>
      </trkpt>
      <trkpt lat="-21.24458" lon="55.47265">
        <ele>477.8</ele>
        <time>2013-05-24T02:05:56Z</time>
      </trkpt>
      <trkpt lat="-21.2445" lon="55.47269">
        <ele>477.8</ele>
        <time>2013-05-24T02:06:02Z</time>
      </trkpt>
      <trkpt lat="-21.24442" lon="55.47273">
        <ele>478.3</ele>
        <time>2013-05-24T02:06:08Z</time>
      </trkpt>
      <trkpt lat="-21.24435" lon="55.47278">
        <ele>479.4</ele>
        <time>2013-05-24T02:06:14Z</time>
      </trkpt>
      <trkpt lat="-21.24427" lon="55.47279">
        <ele>480.9</ele>
        <time>2013-05-24T02:06:22Z</time>
      </trkpt>
      <trkpt lat="-21.24419" lon="55.47275">
        <ele>481.1</ele>
        <time>2013-05-24T02:06:29Z</time>
      </trkpt>
      <trkpt lat="-21.24415" lon="55.47267">
        <ele>482.5</ele>
        <time>2013-05-24T02:06:35Z</time>
      </trkpt>
      <trkpt lat="-21.24412" lon="55.4726">
        <ele>483</ele>
        <time>2013-05-24T02:06:41Z</time>
      </trkpt>
      <trkpt lat="-21.2441" lon="55.47252">
        <ele>483</ele>
        <time>2013-05-24T02:06:47Z</time>
      </trkpt>
      <trkpt lat="-21.24401" lon="55.47251">
        <ele>484.3</ele>
        <time>2013-05-24T02:07:01Z</time>
      </trkpt>
      <trkpt lat="-21.24393" lon="55.47255">
        <ele>484.2</ele>
        <time>2013-05-24T02:07:08Z</time>
      </trkpt>
      <trkpt lat="-21.24385" lon="55.47258">
        <ele>484.3</ele>
        <time>2013-05-24T02:07:14Z</time>
      </trkpt>
      <trkpt lat="-21.24377" lon="55.47262">
        <ele>486.4</ele>
        <time>2013-05-24T02:07:22Z</time>
      </trkpt>
      <trkpt lat="-21.2437" lon="55.47267">
        <ele>488.7</ele>
        <time>2013-05-24T02:07:30Z</time>
      </trkpt>
      <trkpt lat="-21.24363" lon="55.47271">
        <ele>489.8</ele>
        <time>2013-05-24T02:07:37Z</time>
      </trkpt>
      <trkpt lat="-21.24356" lon="55.47277">
        <ele>491.4</ele>
        <time>2013-05-24T02:07:45Z</time>
      </trkpt>
      <trkpt lat="-21.24348" lon="55.47281">
        <ele>493.7</ele>
        <time>2013-05-24T02:07:54Z</time>
      </trkpt>
      <trkpt lat="-21.24341" lon="55.47287">
        <ele>495.4</ele>
        <time>2013-05-24T02:08:02Z</time>
      </trkpt>
      <trkpt lat="-21.24334" lon="55.47292">
        <ele>497.7</ele>
        <time>2013-05-24T02:08:11Z</time>
      </trkpt>
      <trkpt lat="-21.24327" lon="55.47296">
        <ele>498.5</ele>
        <time>2013-05-24T02:08:19Z</time>
      </trkpt>
      <trkpt lat="-21.2432" lon="55.47301">
        <ele>500.2</ele>
        <time>2013-05-24T02:08:27Z</time>
      </trkpt>
      <trkpt lat="-21.24313" lon="55.47307">
        <ele>501.7</ele>
        <time>2013-05-24T02:08:35Z</time>
      </trkpt>
      <trkpt lat="-21.24307" lon="55.47314">
        <ele>503.4</ele>
        <time>2013-05-24T02:08:45Z</time>
      </trkpt>
      <trkpt lat="-21.24303" lon="55.47322">
        <ele>505</ele>
        <time>2013-05-24T02:08:55Z</time>
      </trkpt>
      <trkpt lat="-21.24298" lon="55.47329">
        <ele>506.5</ele>
        <time>2013-05-24T02:09:03Z</time>
      </trkpt>
      <trkpt lat="-21.24298" lon="55.47337">
        <ele>508.1</ele>
        <time>2013-05-24T02:09:10Z</time>
      </trkpt>
      <trkpt lat="-21.24297" lon="55.47346">
        <ele>509</ele>
        <time>2013-05-24T02:09:19Z</time>
      </trkpt>
      <trkpt lat="-21.24288" lon="55.47348">
        <ele>514.5</ele>
        <time>2013-05-24T02:09:58Z</time>
      </trkpt>
      <trkpt lat="-21.2428" lon="55.47348">
        <ele>517.1</ele>
        <time>2013-05-24T02:10:08Z</time>
      </trkpt>
      <trkpt lat="-21.24271" lon="55.4735">
        <ele>520.1</ele>
        <time>2013-05-24T02:10:21Z</time>
      </trkpt>
      <trkpt lat="-21.24263" lon="55.47352">
        <ele>523.5</ele>
        <time>2013-05-24T02:10:34Z</time>
      </trkpt>
      <trkpt lat="-21.2426" lon="55.47344">
        <ele>524.2</ele>
        <time>2013-05-24T02:10:51Z</time>
      </trkpt>
      <trkpt lat="-21.24259" lon="55.47334">
        <ele>526.8</ele>
        <time>2013-05-24T02:11:04Z</time>
      </trkpt>
      <trkpt lat="-21.24252" lon="55.47329">
        <ele>529.4</ele>
        <time>2013-05-24T02:11:14Z</time>
      </trkpt>
      <trkpt lat="-21.24243" lon="55.47328">
        <ele>531.4</ele>
        <time>2013-05-24T02:11:25Z</time>
      </trkpt>
      <trkpt lat="-21.24235" lon="55.47331">
        <ele>534</ele>
        <time>2013-05-24T02:11:36Z</time>
      </trkpt>
      <trkpt lat="-21.24227" lon="55.47333">
        <ele>537.9</ele>
        <time>2013-05-24T02:11:54Z</time>
      </trkpt>
      <trkpt lat="-21.2422" lon="55.47339">
        <ele>541</ele>
        <time>2013-05-24T02:12:11Z</time>
      </trkpt>
      <trkpt lat="-21.24214" lon="55.47345">
        <ele>544.1</ele>
        <time>2013-05-24T02:12:24Z</time>
      </trkpt>
      <trkpt lat="-21.24205" lon="55.47347">
        <ele>547.7</ele>
        <time>2013-05-24T02:12:41Z</time>
      </trkpt>
      <trkpt lat="-21.24198" lon="55.47351">
        <ele>549.3</ele>
        <time>2013-05-24T02:12:53Z</time>
      </trkpt>
      <trkpt lat="-21.24192" lon="55.47358">
        <ele>551.4</ele>
        <time>2013-05-24T02:13:03Z</time>
      </trkpt>
      <trkpt lat="-21.24183" lon="55.47356">
        <ele>555.7</ele>
        <time>2013-05-24T02:13:25Z</time>
      </trkpt>
      <trkpt lat="-21.24175" lon="55.47358">
        <ele>558.7</ele>
        <time>2013-05-24T02:13:42Z</time>
      </trkpt>
      <trkpt lat="-21.24166" lon="55.4736">
        <ele>561.3</ele>
        <time>2013-05-24T02:13:58Z</time>
      </trkpt>
      <trkpt lat="-21.24157" lon="55.47358">
        <ele>564.8</ele>
        <time>2013-05-24T02:14:15Z</time>
      </trkpt>
      <trkpt lat="-21.24149" lon="55.47362">
        <ele>567.9</ele>
        <time>2013-05-24T02:14:26Z</time>
      </trkpt>
      <trkpt lat="-21.24141" lon="55.47365">
        <ele>569.2</ele>
        <time>2013-05-24T02:14:39Z</time>
      </trkpt>
      <trkpt lat="-21.24132" lon="55.47368">
        <ele>571.6</ele>
        <time>2013-05-24T02:14:51Z</time>
      </trkpt>
      <trkpt lat="-21.24124" lon="55.47371">
        <ele>573.9</ele>
        <time>2013-05-24T02:15:05Z</time>
      </trkpt>
      <trkpt lat="-21.24116" lon="55.47373">
        <ele>575.6</ele>
        <time>2013-05-24T02:15:15Z</time>
      </trkpt>
      <trkpt lat="-21.24108" lon="55.47376">
        <ele>578.1</ele>
        <time>2013-05-24T02:15:28Z</time>
      </trkpt>
      <trkpt lat="-21.24101" lon="55.47381">
        <ele>578.9</ele>
        <time>2013-05-24T02:15:39Z</time>
      </trkpt>
      <trkpt lat="-21.24093" lon="55.47385">
        <ele>581</ele>
        <time>2013-05-24T02:15:49Z</time>
      </trkpt>
      <trkpt lat="-21.24086" lon="55.47389">
        <ele>583</ele>
        <time>2013-05-24T02:16:00Z</time>
      </trkpt>
      <trkpt lat="-21.24078" lon="55.47394">
        <ele>585.4</ele>
        <time>2013-05-24T02:16:12Z</time>
      </trkpt>
      <trkpt lat="-21.2407" lon="55.47397">
        <ele>588.8</ele>
        <time>2013-05-24T02:16:30Z</time>
      </trkpt>
      <trkpt lat="-21.24065" lon="55.47404">
        <ele>591</ele>
        <time>2013-05-24T02:16:39Z</time>
      </trkpt>
      <trkpt lat="-21.24063" lon="55.47412">
        <ele>592.1</ele>
        <time>2013-05-24T02:16:45Z</time>
      </trkpt>
      <trkpt lat="-21.24058" lon="55.4742">
        <ele>591.3</ele>
        <time>2013-05-24T02:16:53Z</time>
      </trkpt>
      <trkpt lat="-21.24055" lon="55.47428">
        <ele>592.4</ele>
        <time>2013-05-24T02:17:01Z</time>
      </trkpt>
      <trkpt lat="-21.24052" lon="55.47437">
        <ele>594.1</ele>
        <time>2013-05-24T02:17:09Z</time>
      </trkpt>
      <trkpt lat="-21.24053" lon="55.47445">
        <ele>595.7</ele>
        <time>2013-05-24T02:17:17Z</time>
      </trkpt>
      <trkpt lat="-21.24055" lon="55.47453">
        <ele>596.7</ele>
        <time>2013-05-24T02:17:24Z</time>
      </trkpt>
      <trkpt lat="-21.24059" lon="55.47461">
        <ele>597.5</ele>
        <time>2013-05-24T02:17:30Z</time>
      </trkpt>
      <trkpt lat="-21.24052" lon="55.47467">
        <ele>599.2</ele>
        <time>2013-05-24T02:17:48Z</time>
      </trkpt>
      <trkpt lat="-21.24045" lon="55.47474">
        <ele>598.3</ele>
        <time>2013-05-24T02:17:55Z</time>
      </trkpt>
      <trkpt lat="-21.2404" lon="55.47481">
        <ele>595.5</ele>
        <time>2013-05-24T02:18:29Z</time>
      </trkpt>
      <trkpt lat="-21.24037" lon="55.4749">
        <ele>595.7</ele>
        <time>2013-05-24T02:18:42Z</time>
      </trkpt>
      <trkpt lat="-21.24032" lon="55.47498">
        <ele>595.2</ele>
        <time>2013-05-24T02:18:58Z</time>
      </trkpt>
      <trkpt lat="-21.24025" lon="55.47504">
        <ele>595.5</ele>
        <time>2013-05-24T02:19:08Z</time>
      </trkpt>
      <trkpt lat="-21.2402" lon="55.47511">
        <ele>598.5</ele>
        <time>2013-05-24T02:19:17Z</time>
      </trkpt>
      <trkpt lat="-21.24016" lon="55.47518">
        <ele>599.9</ele>
        <time>2013-05-24T02:19:28Z</time>
      </trkpt>
      <trkpt lat="-21.24014" lon="55.47528">
        <ele>599.8</ele>
        <time>2013-05-24T02:19:39Z</time>
      </trkpt>
      <trkpt lat="-21.24011" lon="55.47536">
        <ele>597.6</ele>
        <time>2013-05-24T02:19:49Z</time>
      </trkpt>
      <trkpt lat="-21.24003" lon="55.47539">
        <ele>597.7</ele>
        <time>2013-05-24T02:19:56Z</time>
      </trkpt>
      <trkpt lat="-21.23996" lon="55.47544">
        <ele>598.7</ele>
        <time>2013-05-24T02:20:03Z</time>
      </trkpt>
      <trkpt lat="-21.23989" lon="55.47548">
        <ele>598.8</ele>
        <time>2013-05-24T02:20:09Z</time>
      </trkpt>
      <trkpt lat="-21.23982" lon="55.47551">
        <ele>600.1</ele>
        <time>2013-05-24T02:20:16Z</time>
      </trkpt>
      <trkpt lat="-21.23975" lon="55.47556">
        <ele>599.9</ele>
        <time>2013-05-24T02:20:23Z</time>
      </trkpt>
      <trkpt lat="-21.23969" lon="55.47563">
        <ele>599.8</ele>
        <time>2013-05-24T02:20:30Z</time>
      </trkpt>
      <trkpt lat="-21.23967" lon="55.4757">
        <ele>601.6</ele>
        <time>2013-05-24T02:20:36Z</time>
      </trkpt>
      <trkpt lat="-21.23966" lon="55.47579">
        <ele>605.1</ele>
        <time>2013-05-24T02:20:49Z</time>
      </trkpt>
      <trkpt lat="-21.2396" lon="55.47585">
        <ele>609.2</ele>
        <time>2013-05-24T02:21:00Z</time>
      </trkpt>
      <trkpt lat="-21.23954" lon="55.47593">
        <ele>612.2</ele>
        <time>2013-05-24T02:21:13Z</time>
      </trkpt>
      <trkpt lat="-21.23948" lon="55.47599">
        <ele>615.6</ele>
        <time>2013-05-24T02:21:27Z</time>
      </trkpt>
      <trkpt lat="-21.23945" lon="55.47608">
        <ele>619.8</ele>
        <time>2013-05-24T02:21:44Z</time>
      </trkpt>
      <trkpt lat="-21.23941" lon="55.47616">
        <ele>623</ele>
        <time>2013-05-24T02:22:00Z</time>
      </trkpt>
      <trkpt lat="-21.23936" lon="55.47623">
        <ele>625.4</ele>
        <time>2013-05-24T02:22:13Z</time>
      </trkpt>
      <trkpt lat="-21.23928" lon="55.47626">
        <ele>627.6</ele>
        <time>2013-05-24T02:22:24Z</time>
      </trkpt>
      <trkpt lat="-21.23921" lon="55.47631">
        <ele>629</ele>
        <time>2013-05-24T02:22:31Z</time>
      </trkpt>
      <trkpt lat="-21.23915" lon="55.47636">
        <ele>630.6</ele>
        <time>2013-05-24T02:22:42Z</time>
      </trkpt>
      <trkpt lat="-21.23908" lon="55.47642">
        <ele>633.3</ele>
        <time>2013-05-24T02:22:55Z</time>
      </trkpt>
      <trkpt lat="-21.23901" lon="55.47648">
        <ele>635.3</ele>
        <time>2013-05-24T02:23:05Z</time>
      </trkpt>
      <trkpt lat="-21.23896" lon="55.47656">
        <ele>638.6</ele>
        <time>2013-05-24T02:23:17Z</time>
      </trkpt>
      <trkpt lat="-21.23891" lon="55.47663">
        <ele>640.4</ele>
        <time>2013-05-24T02:23:26Z</time>
      </trkpt>
      <trkpt lat="-21.23884" lon="55.47667">
        <ele>642.2</ele>
        <time>2013-05-24T02:23:35Z</time>
      </trkpt>
      <trkpt lat="-21.23875" lon="55.47667">
        <ele>643.9</ele>
        <time>2013-05-24T02:23:47Z</time>
      </trkpt>
      <trkpt lat="-21.23866" lon="55.47667">
        <ele>644</ele>
        <time>2013-05-24T02:23:55Z</time>
      </trkpt>
      <trkpt lat="-21.23859" lon="55.47671">
        <ele>646.3</ele>
        <time>2013-05-24T02:24:02Z</time>
      </trkpt>
      <trkpt lat="-21.23851" lon="55.47675">
        <ele>647.4</ele>
        <time>2013-05-24T02:24:08Z</time>
      </trkpt>
      <trkpt lat="-21.23844" lon="55.4768">
        <ele>647.8</ele>
        <time>2013-05-24T02:24:15Z</time>
      </trkpt>
      <trkpt lat="-21.23838" lon="55.47686">
        <ele>648</ele>
        <time>2013-05-24T02:24:23Z</time>
      </trkpt>
      <trkpt lat="-21.23832" lon="55.47693">
        <ele>648.8</ele>
        <time>2013-05-24T02:24:30Z</time>
      </trkpt>
      <trkpt lat="-21.23825" lon="55.47697">
        <ele>648.6</ele>
        <time>2013-05-24T02:24:36Z</time>
      </trkpt>
      <trkpt lat="-21.23816" lon="55.477">
        <ele>648.9</ele>
        <time>2013-05-24T02:24:44Z</time>
      </trkpt>
      <trkpt lat="-21.23808" lon="55.47701">
        <ele>649.8</ele>
        <time>2013-05-24T02:24:53Z</time>
      </trkpt>
      <trkpt lat="-21.238" lon="55.47698">
        <ele>649.5</ele>
        <time>2013-05-24T02:25:00Z</time>
      </trkpt>
      <trkpt lat="-21.23793" lon="55.47699">
        <ele>649.5</ele>
        <time>2013-05-24T02:25:06Z</time>
      </trkpt>
      <trkpt lat="-21.23785" lon="55.47701">
        <ele>649.6</ele>
        <time>2013-05-24T02:25:13Z</time>
      </trkpt>
      <trkpt lat="-21.23776" lon="55.47702">
        <ele>651.1</ele>
        <time>2013-05-24T02:25:20Z</time>
      </trkpt>
      <trkpt lat="-21.23768" lon="55.47702">
        <ele>651.7</ele>
        <time>2013-05-24T02:25:27Z</time>
      </trkpt>
      <trkpt lat="-21.23759" lon="55.47704">
        <ele>652.4</ele>
        <time>2013-05-24T02:25:35Z</time>
      </trkpt>
      <trkpt lat="-21.2375" lon="55.47704">
        <ele>653.8</ele>
        <time>2013-05-24T02:25:46Z</time>
      </trkpt>
      <trkpt lat="-21.23742" lon="55.47704">
        <ele>654.4</ele>
        <time>2013-05-24T02:25:54Z</time>
      </trkpt>
      <trkpt lat="-21.23733" lon="55.47703">
        <ele>657.1</ele>
        <time>2013-05-24T02:26:02Z</time>
      </trkpt>
      <trkpt lat="-21.23725" lon="55.47704">
        <ele>658.8</ele>
        <time>2013-05-24T02:26:09Z</time>
      </trkpt>
      <trkpt lat="-21.23717" lon="55.47705">
        <ele>659.8</ele>
        <time>2013-05-24T02:26:18Z</time>
      </trkpt>
      <trkpt lat="-21.23708" lon="55.47707">
        <ele>661.9</ele>
        <time>2013-05-24T02:26:27Z</time>
      </trkpt>
      <trkpt lat="-21.23701" lon="55.4771">
        <ele>663</ele>
        <time>2013-05-24T02:26:36Z</time>
      </trkpt>
      <trkpt lat="-21.23692" lon="55.47712">
        <ele>663.7</ele>
        <time>2013-05-24T02:26:45Z</time>
      </trkpt>
      <trkpt lat="-21.23683" lon="55.47712">
        <ele>664.2</ele>
        <time>2013-05-24T02:26:54Z</time>
      </trkpt>
      <trkpt lat="-21.23675" lon="55.47708">
        <ele>665.3</ele>
        <time>2013-05-24T02:27:02Z</time>
      </trkpt>
      <trkpt lat="-21.23667" lon="55.47706">
        <ele>666.3</ele>
        <time>2013-05-24T02:27:11Z</time>
      </trkpt>
      <trkpt lat="-21.23658" lon="55.47707">
        <ele>665.1</ele>
        <time>2013-05-24T02:27:17Z</time>
      </trkpt>
      <trkpt lat="-21.2365" lon="55.47708">
        <ele>666.9</ele>
        <time>2013-05-24T02:27:23Z</time>
      </trkpt>
      <trkpt lat="-21.23641" lon="55.47709">
        <ele>667.2</ele>
        <time>2013-05-24T02:27:29Z</time>
      </trkpt>
      <trkpt lat="-21.23633" lon="55.47709">
        <ele>667.1</ele>
        <time>2013-05-24T02:27:35Z</time>
      </trkpt>
      <trkpt lat="-21.23624" lon="55.47709">
        <ele>667.1</ele>
        <time>2013-05-24T02:27:50Z</time>
      </trkpt>
      <trkpt lat="-21.23615" lon="55.47709">
        <ele>666</ele>
        <time>2013-05-24T02:27:58Z</time>
      </trkpt>
      <trkpt lat="-21.23607" lon="55.47708">
        <ele>666.2</ele>
        <time>2013-05-24T02:28:05Z</time>
      </trkpt>
      <trkpt lat="-21.23599" lon="55.47709">
        <ele>665.8</ele>
        <time>2013-05-24T02:28:12Z</time>
      </trkpt>
      <trkpt lat="-21.23592" lon="55.47709">
        <ele>667</ele>
        <time>2013-05-24T02:28:18Z</time>
      </trkpt>
      <trkpt lat="-21.23584" lon="55.47709">
        <ele>668</ele>
        <time>2013-05-24T02:28:25Z</time>
      </trkpt>
      <trkpt lat="-21.23576" lon="55.4771">
        <ele>668.5</ele>
        <time>2013-05-24T02:28:31Z</time>
      </trkpt>
      <trkpt lat="-21.23568" lon="55.47711">
        <ele>668.8</ele>
        <time>2013-05-24T02:28:37Z</time>
      </trkpt>
      <trkpt lat="-21.2356" lon="55.4771">
        <ele>669.6</ele>
        <time>2013-05-24T02:28:44Z</time>
      </trkpt>
      <trkpt lat="-21.23551" lon="55.47711">
        <ele>669.5</ele>
        <time>2013-05-24T02:28:50Z</time>
      </trkpt>
      <trkpt lat="-21.23543" lon="55.47711">
        <ele>669.7</ele>
        <time>2013-05-24T02:28:58Z</time>
      </trkpt>
      <trkpt lat="-21.23535" lon="55.47711">
        <ele>671.8</ele>
        <time>2013-05-24T02:29:05Z</time>
      </trkpt>
      <trkpt lat="-21.23527" lon="55.47714">
        <ele>672.7</ele>
        <time>2013-05-24T02:29:12Z</time>
      </trkpt>
      <trkpt lat="-21.2352" lon="55.47718">
        <ele>673.6</ele>
        <time>2013-05-24T02:29:17Z</time>
      </trkpt>
      <trkpt lat="-21.23512" lon="55.47721">
        <ele>673.6</ele>
        <time>2013-05-24T02:29:24Z</time>
      </trkpt>
      <trkpt lat="-21.23505" lon="55.47724">
        <ele>672.8</ele>
        <time>2013-05-24T02:29:30Z</time>
      </trkpt>
      <trkpt lat="-21.23497" lon="55.47724">
        <ele>672.3</ele>
        <time>2013-05-24T02:29:36Z</time>
      </trkpt>
      <trkpt lat="-21.23489" lon="55.47725">
        <ele>673.1</ele>
        <time>2013-05-24T02:29:43Z</time>
      </trkpt>
      <trkpt lat="-21.2348" lon="55.47728">
        <ele>675.2</ele>
        <time>2013-05-24T02:29:54Z</time>
      </trkpt>
      <trkpt lat="-21.23472" lon="55.47729">
        <ele>677</ele>
        <time>2013-05-24T02:30:02Z</time>
      </trkpt>
      <trkpt lat="-21.23464" lon="55.4773">
        <ele>679.7</ele>
        <time>2013-05-24T02:30:13Z</time>
      </trkpt>
      <trkpt lat="-21.23456" lon="55.47732">
        <ele>681.8</ele>
        <time>2013-05-24T02:30:20Z</time>
      </trkpt>
      <trkpt lat="-21.23449" lon="55.47736">
        <ele>681.8</ele>
        <time>2013-05-24T02:30:26Z</time>
      </trkpt>
      <trkpt lat="-21.23443" lon="55.47742">
        <ele>682.4</ele>
        <time>2013-05-24T02:30:32Z</time>
      </trkpt>
      <trkpt lat="-21.23436" lon="55.47746">
        <ele>683.5</ele>
        <time>2013-05-24T02:30:37Z</time>
      </trkpt>
      <trkpt lat="-21.23429" lon="55.47752">
        <ele>684</ele>
        <time>2013-05-24T02:30:43Z</time>
      </trkpt>
      <trkpt lat="-21.23421" lon="55.47756">
        <ele>684.7</ele>
        <time>2013-05-24T02:30:49Z</time>
      </trkpt>
      <trkpt lat="-21.23413" lon="55.47759">
        <ele>684.2</ele>
        <time>2013-05-24T02:30:55Z</time>
      </trkpt>
      <trkpt lat="-21.23405" lon="55.47763">
        <ele>683.9</ele>
        <time>2013-05-24T02:31:03Z</time>
      </trkpt>
      <trkpt lat="-21.23398" lon="55.47766">
        <ele>682.7</ele>
        <time>2013-05-24T02:31:10Z</time>
      </trkpt>
      <trkpt lat="-21.2339" lon="55.47762">
        <ele>681.9</ele>
        <time>2013-05-24T02:31:20Z</time>
      </trkpt>
      <trkpt lat="-21.23384" lon="55.47756">
        <ele>683</ele>
        <time>2013-05-24T02:31:28Z</time>
      </trkpt>
      <trkpt lat="-21.23377" lon="55.47753">
        <ele>683.3</ele>
        <time>2013-05-24T02:31:36Z</time>
      </trkpt>
      <trkpt lat="-21.23371" lon="55.47746">
        <ele>683.5</ele>
        <time>2013-05-24T02:31:44Z</time>
      </trkpt>
      <trkpt lat="-21.23366" lon="55.47739">
        <ele>685.9</ele>
        <time>2013-05-24T02:31:53Z</time>
      </trkpt>
      <trkpt lat="-21.23357" lon="55.47737">
        <ele>688.5</ele>
        <time>2013-05-24T02:32:01Z</time>
      </trkpt>
      <trkpt lat="-21.23349" lon="55.47737">
        <ele>689.6</ele>
        <time>2013-05-24T02:32:09Z</time>
      </trkpt>
      <trkpt lat="-21.23341" lon="55.4774">
        <ele>690.8</ele>
        <time>2013-05-24T02:32:14Z</time>
      </trkpt>
      <trkpt lat="-21.23333" lon="55.47743">
        <ele>691.7</ele>
        <time>2013-05-24T02:32:20Z</time>
      </trkpt>
      <trkpt lat="-21.23326" lon="55.47746">
        <ele>691.9</ele>
        <time>2013-05-24T02:32:27Z</time>
      </trkpt>
      <trkpt lat="-21.23319" lon="55.47748">
        <ele>692.2</ele>
        <time>2013-05-24T02:32:32Z</time>
      </trkpt>
      <trkpt lat="-21.23311" lon="55.47752">
        <ele>691.4</ele>
        <time>2013-05-24T02:32:37Z</time>
      </trkpt>
      <trkpt lat="-21.23303" lon="55.47754">
        <ele>690.4</ele>
        <time>2013-05-24T02:32:44Z</time>
      </trkpt>
      <trkpt lat="-21.23295" lon="55.47756">
        <ele>689.8</ele>
        <time>2013-05-24T02:32:52Z</time>
      </trkpt>
      <trkpt lat="-21.23287" lon="55.4776">
        <ele>690.5</ele>
        <time>2013-05-24T02:33:02Z</time>
      </trkpt>
      <trkpt lat="-21.23279" lon="55.47756">
        <ele>690.9</ele>
        <time>2013-05-24T02:33:34Z</time>
      </trkpt>
      <trkpt lat="-21.2327" lon="55.47755">
        <ele>691.2</ele>
        <time>2013-05-24T02:33:42Z</time>
      </trkpt>
      <trkpt lat="-21.23263" lon="55.4775">
        <ele>692.5</ele>
        <time>2013-05-24T02:33:51Z</time>
      </trkpt>
      <trkpt lat="-21.23255" lon="55.47748">
        <ele>694</ele>
        <time>2013-05-24T02:33:59Z</time>
      </trkpt>
      <trkpt lat="-21.23249" lon="55.47742">
        <ele>694.7</ele>
        <time>2013-05-24T02:34:07Z</time>
      </trkpt>
      <trkpt lat="-21.23241" lon="55.4774">
        <ele>695.2</ele>
        <time>2013-05-24T02:34:13Z</time>
      </trkpt>
      <trkpt lat="-21.23233" lon="55.47738">
        <ele>696.2</ele>
        <time>2013-05-24T02:34:20Z</time>
      </trkpt>
      <trkpt lat="-21.23224" lon="55.4774">
        <ele>697.1</ele>
        <time>2013-05-24T02:34:27Z</time>
      </trkpt>
      <trkpt lat="-21.23216" lon="55.47739">
        <ele>698</ele>
        <time>2013-05-24T02:34:34Z</time>
      </trkpt>
      <trkpt lat="-21.23208" lon="55.47737">
        <ele>699.4</ele>
        <time>2013-05-24T02:34:40Z</time>
      </trkpt>
      <trkpt lat="-21.232" lon="55.47737">
        <ele>701.5</ele>
        <time>2013-05-24T02:34:47Z</time>
      </trkpt>
      <trkpt lat="-21.23192" lon="55.47734">
        <ele>702.3</ele>
        <time>2013-05-24T02:34:54Z</time>
      </trkpt>
      <trkpt lat="-21.23185" lon="55.47732">
        <ele>703.1</ele>
        <time>2013-05-24T02:35:02Z</time>
      </trkpt>
      <trkpt lat="-21.23177" lon="55.47729">
        <ele>704.1</ele>
        <time>2013-05-24T02:35:08Z</time>
      </trkpt>
      <trkpt lat="-21.23168" lon="55.4773">
        <ele>705.4</ele>
        <time>2013-05-24T02:35:14Z</time>
      </trkpt>
      <trkpt lat="-21.2316" lon="55.4773">
        <ele>706</ele>
        <time>2013-05-24T02:35:19Z</time>
      </trkpt>
      <trkpt lat="-21.23152" lon="55.47728">
        <ele>706.4</ele>
        <time>2013-05-24T02:35:25Z</time>
      </trkpt>
      <trkpt lat="-21.23144" lon="55.47726">
        <ele>706.8</ele>
        <time>2013-05-24T02:35:31Z</time>
      </trkpt>
      <trkpt lat="-21.23138" lon="55.47721">
        <ele>707.6</ele>
        <time>2013-05-24T02:35:38Z</time>
      </trkpt>
      <trkpt lat="-21.23132" lon="55.47715">
        <ele>709</ele>
        <time>2013-05-24T02:35:47Z</time>
      </trkpt>
      <trkpt lat="-21.23126" lon="55.47708">
        <ele>710.2</ele>
        <time>2013-05-24T02:35:53Z</time>
      </trkpt>
      <trkpt lat="-21.23119" lon="55.47703">
        <ele>711</ele>
        <time>2013-05-24T02:36:00Z</time>
      </trkpt>
      <trkpt lat="-21.2311" lon="55.47704">
        <ele>712</ele>
        <time>2013-05-24T02:36:07Z</time>
      </trkpt>
      <trkpt lat="-21.23102" lon="55.47699">
        <ele>713.5</ele>
        <time>2013-05-24T02:36:18Z</time>
      </trkpt>
      <trkpt lat="-21.23095" lon="55.47696">
        <ele>715.4</ele>
        <time>2013-05-24T02:36:29Z</time>
      </trkpt>
      <trkpt lat="-21.23087" lon="55.47695">
        <ele>716.1</ele>
        <time>2013-05-24T02:36:33Z</time>
      </trkpt>
      <trkpt lat="-21.23079" lon="55.47697">
        <ele>716.5</ele>
        <time>2013-05-24T02:36:37Z</time>
      </trkpt>
      <trkpt lat="-21.23072" lon="55.47699">
        <ele>716.8</ele>
        <time>2013-05-24T02:36:40Z</time>
      </trkpt>
      <trkpt lat="-21.23066" lon="55.47701">
        <ele>717.3</ele>
        <time>2013-05-24T02:36:43Z</time>
      </trkpt>
      <trkpt lat="-21.23058" lon="55.47703">
        <ele>718</ele>
        <time>2013-05-24T02:36:47Z</time>
      </trkpt>
      <trkpt lat="-21.2305" lon="55.47703">
        <ele>718.7</ele>
        <time>2013-05-24T02:36:52Z</time>
      </trkpt>
      <trkpt lat="-21.23042" lon="55.47705">
        <ele>721</ele>
        <time>2013-05-24T02:36:59Z</time>
      </trkpt>
      <trkpt lat="-21.23034" lon="55.47708">
        <ele>722.3</ele>
        <time>2013-05-24T02:37:04Z</time>
      </trkpt>
      <trkpt lat="-21.23027" lon="55.47712">
        <ele>723.6</ele>
        <time>2013-05-24T02:37:11Z</time>
      </trkpt>
      <trkpt lat="-21.2302" lon="55.47718">
        <ele>725</ele>
        <time>2013-05-24T02:37:18Z</time>
      </trkpt>
      <trkpt lat="-21.23014" lon="55.47723">
        <ele>726.1</ele>
        <time>2013-05-24T02:37:25Z</time>
      </trkpt>
      <trkpt lat="-21.23008" lon="55.47729">
        <ele>728.6</ele>
        <time>2013-05-24T02:37:36Z</time>
      </trkpt>
      <trkpt lat="-21.23002" lon="55.47735">
        <ele>730.7</ele>
        <time>2013-05-24T02:37:43Z</time>
      </trkpt>
      <trkpt lat="-21.22995" lon="55.47739">
        <ele>732.7</ele>
        <time>2013-05-24T02:37:51Z</time>
      </trkpt>
      <trkpt lat="-21.22988" lon="55.47744">
        <ele>733.3</ele>
        <time>2013-05-24T02:37:56Z</time>
      </trkpt>
      <trkpt lat="-21.22982" lon="55.4775">
        <ele>734.2</ele>
        <time>2013-05-24T02:38:01Z</time>
      </trkpt>
      <trkpt lat="-21.22976" lon="55.47755">
        <ele>735.9</ele>
        <time>2013-05-24T02:38:07Z</time>
      </trkpt>
      <trkpt lat="-21.22969" lon="55.47761">
        <ele>737.8</ele>
        <time>2013-05-24T02:38:16Z</time>
      </trkpt>
      <trkpt lat="-21.22961" lon="55.47766">
        <ele>740.5</ele>
        <time>2013-05-24T02:38:27Z</time>
      </trkpt>
      <trkpt lat="-21.22954" lon="55.47768">
        <ele>741.4</ele>
        <time>2013-05-24T02:38:30Z</time>
      </trkpt>
      <trkpt lat="-21.2295" lon="55.47774">
        <ele>742.2</ele>
        <time>2013-05-24T02:38:33Z</time>
      </trkpt>
      <trkpt lat="-21.22938" lon="55.47776">
        <ele>747</ele>
        <time>2013-05-24T02:39:00Z</time>
      </trkpt>
      <trkpt lat="-21.22933" lon="55.47782">
        <ele>749.3</ele>
        <time>2013-05-24T02:39:08Z</time>
      </trkpt>
      <trkpt lat="-21.22929" lon="55.4779">
        <ele>752.8</ele>
        <time>2013-05-24T02:39:24Z</time>
      </trkpt>
      <trkpt lat="-21.22921" lon="55.47792">
        <ele>753.9</ele>
        <time>2013-05-24T02:39:31Z</time>
      </trkpt>
      <trkpt lat="-21.22912" lon="55.47793">
        <ele>755.5</ele>
        <time>2013-05-24T02:39:38Z</time>
      </trkpt>
      <trkpt lat="-21.22905" lon="55.4779">
        <ele>758.3</ele>
        <time>2013-05-24T02:39:49Z</time>
      </trkpt>
      <trkpt lat="-21.22897" lon="55.47791">
        <ele>759.1</ele>
        <time>2013-05-24T02:39:53Z</time>
      </trkpt>
      <trkpt lat="-21.22894" lon="55.47782">
        <ele>761.5</ele>
        <time>2013-05-24T02:40:07Z</time>
      </trkpt>
      <trkpt lat="-21.22887" lon="55.47781">
        <ele>763.6</ele>
        <time>2013-05-24T02:40:14Z</time>
      </trkpt>
      <trkpt lat="-21.22878" lon="55.47783">
        <ele>764.7</ele>
        <time>2013-05-24T02:40:23Z</time>
      </trkpt>
      <trkpt lat="-21.22872" lon="55.47786">
        <ele>765.7</ele>
        <time>2013-05-24T02:40:26Z</time>
      </trkpt>
      <trkpt lat="-21.22865" lon="55.47786">
        <ele>765.8</ele>
        <time>2013-05-24T02:40:28Z</time>
      </trkpt>
      <trkpt lat="-21.22859" lon="55.47785">
        <ele>766.1</ele>
        <time>2013-05-24T02:40:30Z</time>
      </trkpt>
      <trkpt lat="-21.22853" lon="55.47783">
        <ele>766.8</ele>
        <time>2013-05-24T02:40:32Z</time>
      </trkpt>
      <trkpt lat="-21.22845" lon="55.47781">
        <ele>767.7</ele>
        <time>2013-05-24T02:40:35Z</time>
      </trkpt>
      <trkpt lat="-21.22838" lon="55.47781">
        <ele>768.2</ele>
        <time>2013-05-24T02:40:38Z</time>
      </trkpt>
      <trkpt lat="-21.22829" lon="55.4778">
        <ele>770.8</ele>
        <time>2013-05-24T02:40:48Z</time>
      </trkpt>
      <trkpt lat="-21.22823" lon="55.47782">
        <ele>771.2</ele>
        <time>2013-05-24T02:40:53Z</time>
      </trkpt>
      <trkpt lat="-21.22815" lon="55.47786">
        <ele>771.9</ele>
        <time>2013-05-24T02:40:56Z</time>
      </trkpt>
      <trkpt lat="-21.22821" lon="55.47781">
        <ele>775.3</ele>
        <time>2013-05-24T02:41:13Z</time>
      </trkpt>
      <trkpt lat="-21.22816" lon="55.47787">
        <ele>782.9</ele>
        <time>2013-05-24T02:41:44Z</time>
      </trkpt>
      <trkpt lat="-21.22809" lon="55.47792">
        <ele>783.8</ele>
        <time>2013-05-24T02:41:47Z</time>
      </trkpt>
      <trkpt lat="-21.22802" lon="55.47795">
        <ele>784.3</ele>
        <time>2013-05-24T02:41:50Z</time>
      </trkpt>
      <trkpt lat="-21.22794" lon="55.47799">
        <ele>785.8</ele>
        <time>2013-05-24T02:41:55Z</time>
      </trkpt>
      <trkpt lat="-21.22788" lon="55.47806">
        <ele>789.6</ele>
        <time>2013-05-24T02:42:12Z</time>
      </trkpt>
      <trkpt lat="-21.2278" lon="55.4781">
        <ele>793.5</ele>
        <time>2013-05-24T02:42:28Z</time>
      </trkpt>
      <trkpt lat="-21.22774" lon="55.47816">
        <ele>795.6</ele>
        <time>2013-05-24T02:42:37Z</time>
      </trkpt>
      <trkpt lat="-21.22768" lon="55.47822">
        <ele>796.3</ele>
        <time>2013-05-24T02:42:44Z</time>
      </trkpt>
      <trkpt lat="-21.2276" lon="55.47826">
        <ele>797.1</ele>
        <time>2013-05-24T02:43:01Z</time>
      </trkpt>
      <trkpt lat="-21.22754" lon="55.47831">
        <ele>800.4</ele>
        <time>2013-05-24T02:43:13Z</time>
      </trkpt>
      <trkpt lat="-21.22747" lon="55.47835">
        <ele>801.8</ele>
        <time>2013-05-24T02:43:23Z</time>
      </trkpt>
      <trkpt lat="-21.22739" lon="55.47839">
        <ele>802.1</ele>
        <time>2013-05-24T02:43:33Z</time>
      </trkpt>
      <trkpt lat="-21.2273" lon="55.47841">
        <ele>803.5</ele>
        <time>2013-05-24T02:43:43Z</time>
      </trkpt>
      <trkpt lat="-21.22722" lon="55.4784">
        <ele>805.3</ele>
        <time>2013-05-24T02:43:58Z</time>
      </trkpt>
      <trkpt lat="-21.22713" lon="55.4784">
        <ele>806.8</ele>
        <time>2013-05-24T02:44:07Z</time>
      </trkpt>
      <trkpt lat="-21.22704" lon="55.47842">
        <ele>806.3</ele>
        <time>2013-05-24T02:44:14Z</time>
      </trkpt>
      <trkpt lat="-21.22695" lon="55.47842">
        <ele>806.9</ele>
        <time>2013-05-24T02:44:24Z</time>
      </trkpt>
      <trkpt lat="-21.22688" lon="55.47847">
        <ele>807.2</ele>
        <time>2013-05-24T02:44:43Z</time>
      </trkpt>
      <trkpt lat="-21.22684" lon="55.47839">
        <ele>807.7</ele>
        <time>2013-05-24T02:45:32Z</time>
      </trkpt>
      <trkpt lat="-21.22677" lon="55.47834">
        <ele>811.4</ele>
        <time>2013-05-24T02:45:46Z</time>
      </trkpt>
      <trkpt lat="-21.22669" lon="55.47831">
        <ele>813.2</ele>
        <time>2013-05-24T02:45:56Z</time>
      </trkpt>
      <trkpt lat="-21.22661" lon="55.47828">
        <ele>814.1</ele>
        <time>2013-05-24T02:46:06Z</time>
      </trkpt>
      <trkpt lat="-21.22654" lon="55.4783">
        <ele>814.1</ele>
        <time>2013-05-24T02:46:10Z</time>
      </trkpt>
      <trkpt lat="-21.22647" lon="55.47824">
        <ele>818.7</ele>
        <time>2013-05-24T02:46:30Z</time>
      </trkpt>
      <trkpt lat="-21.22639" lon="55.47824">
        <ele>820.8</ele>
        <time>2013-05-24T02:46:39Z</time>
      </trkpt>
      <trkpt lat="-21.22631" lon="55.47826">
        <ele>821.7</ele>
        <time>2013-05-24T02:46:43Z</time>
      </trkpt>
      <trkpt lat="-21.22624" lon="55.47829">
        <ele>822.6</ele>
        <time>2013-05-24T02:46:47Z</time>
      </trkpt>
      <trkpt lat="-21.22616" lon="55.4783">
        <ele>823.8</ele>
        <time>2013-05-24T02:46:52Z</time>
      </trkpt>
      <trkpt lat="-21.22608" lon="55.47833">
        <ele>825.6</ele>
        <time>2013-05-24T02:47:02Z</time>
      </trkpt>
      <trkpt lat="-21.226" lon="55.47835">
        <ele>827</ele>
        <time>2013-05-24T02:47:08Z</time>
      </trkpt>
      <trkpt lat="-21.22592" lon="55.47836">
        <ele>828.7</ele>
        <time>2013-05-24T02:47:17Z</time>
      </trkpt>
      <trkpt lat="-21.22584" lon="55.47837">
        <ele>831.3</ele>
        <time>2013-05-24T02:47:29Z</time>
      </trkpt>
      <trkpt lat="-21.22575" lon="55.47835">
        <ele>834.7</ele>
        <time>2013-05-24T02:47:41Z</time>
      </trkpt>
      <trkpt lat="-21.22567" lon="55.47834">
        <ele>837.8</ele>
        <time>2013-05-24T02:47:53Z</time>
      </trkpt>
      <trkpt lat="-21.22559" lon="55.47832">
        <ele>839.9</ele>
        <time>2013-05-24T02:48:05Z</time>
      </trkpt>
      <trkpt lat="-21.2255" lon="55.47833">
        <ele>841.5</ele>
        <time>2013-05-24T02:48:14Z</time>
      </trkpt>
      <trkpt lat="-21.22541" lon="55.47833">
        <ele>843.1</ele>
        <time>2013-05-24T02:48:23Z</time>
      </trkpt>
      <trkpt lat="-21.22533" lon="55.47832">
        <ele>845</ele>
        <time>2013-05-24T02:48:33Z</time>
      </trkpt>
      <trkpt lat="-21.22525" lon="55.47828">
        <ele>848</ele>
        <time>2013-05-24T02:48:44Z</time>
      </trkpt>
      <trkpt lat="-21.22518" lon="55.47824">
        <ele>851.3</ele>
        <time>2013-05-24T02:49:00Z</time>
      </trkpt>
      <trkpt lat="-21.2251" lon="55.4782">
        <ele>853.1</ele>
        <time>2013-05-24T02:49:10Z</time>
      </trkpt>
      <trkpt lat="-21.22503" lon="55.47816">
        <ele>854.9</ele>
        <time>2013-05-24T02:49:23Z</time>
      </trkpt>
      <trkpt lat="-21.22494" lon="55.47816">
        <ele>856.1</ele>
        <time>2013-05-24T02:49:33Z</time>
      </trkpt>
      <trkpt lat="-21.22487" lon="55.47812">
        <ele>856.9</ele>
        <time>2013-05-24T02:49:43Z</time>
      </trkpt>
      <trkpt lat="-21.22478" lon="55.47811">
        <ele>858.7</ele>
        <time>2013-05-24T02:49:52Z</time>
      </trkpt>
      <trkpt lat="-21.22471" lon="55.4781">
        <ele>858.8</ele>
        <time>2013-05-24T02:49:58Z</time>
      </trkpt>
      <trkpt lat="-21.22463" lon="55.47812">
        <ele>858.6</ele>
        <time>2013-05-24T02:50:05Z</time>
      </trkpt>
      <trkpt lat="-21.22455" lon="55.4781">
        <ele>857</ele>
        <time>2013-05-24T02:50:13Z</time>
      </trkpt>
      <trkpt lat="-21.22447" lon="55.47806">
        <ele>856.7</ele>
        <time>2013-05-24T02:50:21Z</time>
      </trkpt>
      <trkpt lat="-21.22441" lon="55.47802">
        <ele>857.3</ele>
        <time>2013-05-24T02:50:29Z</time>
      </trkpt>
      <trkpt lat="-21.22433" lon="55.47802">
        <ele>858.5</ele>
        <time>2013-05-24T02:50:35Z</time>
      </trkpt>
      <trkpt lat="-21.22424" lon="55.47801">
        <ele>859.4</ele>
        <time>2013-05-24T02:50:42Z</time>
      </trkpt>
      <trkpt lat="-21.22416" lon="55.47799">
        <ele>860</ele>
        <time>2013-05-24T02:51:02Z</time>
      </trkpt>
      <trkpt lat="-21.22407" lon="55.47799">
        <ele>862.2</ele>
        <time>2013-05-24T02:51:14Z</time>
      </trkpt>
      <trkpt lat="-21.22399" lon="55.47797">
        <ele>865.5</ele>
        <time>2013-05-24T02:51:24Z</time>
      </trkpt>
      <trkpt lat="-21.22391" lon="55.47798">
        <ele>868.4</ele>
        <time>2013-05-24T02:51:35Z</time>
      </trkpt>
      <trkpt lat="-21.22385" lon="55.47792">
        <ele>869.7</ele>
        <time>2013-05-24T02:51:45Z</time>
      </trkpt>
      <trkpt lat="-21.22377" lon="55.47791">
        <ele>872.4</ele>
        <time>2013-05-24T02:51:56Z</time>
      </trkpt>
      <trkpt lat="-21.22368" lon="55.47792">
        <ele>873.5</ele>
        <time>2013-05-24T02:52:03Z</time>
      </trkpt>
      <trkpt lat="-21.2236" lon="55.47792">
        <ele>873.9</ele>
        <time>2013-05-24T02:52:13Z</time>
      </trkpt>
      <trkpt lat="-21.22351" lon="55.47791">
        <ele>875.5</ele>
        <time>2013-05-24T02:52:28Z</time>
      </trkpt>
      <trkpt lat="-21.22342" lon="55.47791">
        <ele>879.8</ele>
        <time>2013-05-24T02:52:42Z</time>
      </trkpt>
      <trkpt lat="-21.22334" lon="55.47792">
        <ele>882.8</ele>
        <time>2013-05-24T02:52:51Z</time>
      </trkpt>
      <trkpt lat="-21.22326" lon="55.47794">
        <ele>882.9</ele>
        <time>2013-05-24T02:52:58Z</time>
      </trkpt>
      <trkpt lat="-21.22318" lon="55.47798">
        <ele>883.9</ele>
        <time>2013-05-24T02:53:07Z</time>
      </trkpt>
      <trkpt lat="-21.22309" lon="55.47801">
        <ele>885.3</ele>
        <time>2013-05-24T02:53:18Z</time>
      </trkpt>
      <trkpt lat="-21.22301" lon="55.47802">
        <ele>886</ele>
        <time>2013-05-24T02:53:26Z</time>
      </trkpt>
      <trkpt lat="-21.22293" lon="55.478">
        <ele>886.9</ele>
        <time>2013-05-24T02:53:34Z</time>
      </trkpt>
      <trkpt lat="-21.22285" lon="55.47797">
        <ele>887</ele>
        <time>2013-05-24T02:53:41Z</time>
      </trkpt>
      <trkpt lat="-21.22277" lon="55.47793">
        <ele>888.3</ele>
        <time>2013-05-24T02:54:01Z</time>
      </trkpt>
      <trkpt lat="-21.22268" lon="55.47793">
        <ele>886.9</ele>
        <time>2013-05-24T02:54:53Z</time>
      </trkpt>
      <trkpt lat="-21.2226" lon="55.47789">
        <ele>886.2</ele>
        <time>2013-05-24T02:55:05Z</time>
      </trkpt>
      <trkpt lat="-21.22252" lon="55.47787">
        <ele>886.5</ele>
        <time>2013-05-24T02:55:16Z</time>
      </trkpt>
      <trkpt lat="-21.22244" lon="55.47786">
        <ele>887.2</ele>
        <time>2013-05-24T02:55:29Z</time>
      </trkpt>
      <trkpt lat="-21.22235" lon="55.47787">
        <ele>886.3</ele>
        <time>2013-05-24T02:55:52Z</time>
      </trkpt>
      <trkpt lat="-21.22227" lon="55.47788">
        <ele>886.6</ele>
        <time>2013-05-24T02:56:00Z</time>
      </trkpt>
      <trkpt lat="-21.22219" lon="55.47792">
        <ele>886</ele>
        <time>2013-05-24T02:56:08Z</time>
      </trkpt>
      <trkpt lat="-21.22212" lon="55.47794">
        <ele>885.8</ele>
        <time>2013-05-24T02:56:18Z</time>
      </trkpt>
      <trkpt lat="-21.22204" lon="55.47798">
        <ele>884.9</ele>
        <time>2013-05-24T02:56:26Z</time>
      </trkpt>
      <trkpt lat="-21.22196" lon="55.47802">
        <ele>884.2</ele>
        <time>2013-05-24T02:58:01Z</time>
      </trkpt>
      <trkpt lat="-21.22188" lon="55.478">
        <ele>885.5</ele>
        <time>2013-05-24T02:58:10Z</time>
      </trkpt>
      <trkpt lat="-21.2218" lon="55.478">
        <ele>885.7</ele>
        <time>2013-05-24T02:58:21Z</time>
      </trkpt>
      <trkpt lat="-21.22171" lon="55.47803">
        <ele>886.1</ele>
        <time>2013-05-24T02:58:34Z</time>
      </trkpt>
      <trkpt lat="-21.22163" lon="55.47806">
        <ele>885.7</ele>
        <time>2013-05-24T02:58:42Z</time>
      </trkpt>
      <trkpt lat="-21.22156" lon="55.47811">
        <ele>885.4</ele>
        <time>2013-05-24T02:58:50Z</time>
      </trkpt>
      <trkpt lat="-21.22153" lon="55.47819">
        <ele>886.1</ele>
        <time>2013-05-24T02:58:57Z</time>
      </trkpt>
      <trkpt lat="-21.22148" lon="55.47827">
        <ele>885.6</ele>
        <time>2013-05-24T02:59:04Z</time>
      </trkpt>
      <trkpt lat="-21.22142" lon="55.47833">
        <ele>884.1</ele>
        <time>2013-05-24T02:59:14Z</time>
      </trkpt>
      <trkpt lat="-21.22136" lon="55.47838">
        <ele>881.4</ele>
        <time>2013-05-24T02:59:20Z</time>
      </trkpt>
      <trkpt lat="-21.22128" lon="55.4784">
        <ele>879.9</ele>
        <time>2013-05-24T02:59:28Z</time>
      </trkpt>
      <trkpt lat="-21.2212" lon="55.47841">
        <ele>880.8</ele>
        <time>2013-05-24T02:59:34Z</time>
      </trkpt>
      <trkpt lat="-21.22111" lon="55.47838">
        <ele>879.8</ele>
        <time>2013-05-24T02:59:49Z</time>
      </trkpt>
      <trkpt lat="-21.22103" lon="55.47837">
        <ele>880.2</ele>
        <time>2013-05-24T02:59:59Z</time>
      </trkpt>
      <trkpt lat="-21.22094" lon="55.47836">
        <ele>879.2</ele>
        <time>2013-05-24T03:00:06Z</time>
      </trkpt>
      <trkpt lat="-21.22086" lon="55.47837">
        <ele>878</ele>
        <time>2013-05-24T03:00:26Z</time>
      </trkpt>
      <trkpt lat="-21.22078" lon="55.47836">
        <ele>877.1</ele>
        <time>2013-05-24T03:00:35Z</time>
      </trkpt>
      <trkpt lat="-21.2207" lon="55.47838">
        <ele>876.5</ele>
        <time>2013-05-24T03:00:41Z</time>
      </trkpt>
      <trkpt lat="-21.22061" lon="55.4784">
        <ele>876.3</ele>
        <time>2013-05-24T03:00:47Z</time>
      </trkpt>
      <trkpt lat="-21.22054" lon="55.47844">
        <ele>875.5</ele>
        <time>2013-05-24T03:00:54Z</time>
      </trkpt>
      <trkpt lat="-21.22046" lon="55.47848">
        <ele>874.4</ele>
        <time>2013-05-24T03:01:03Z</time>
      </trkpt>
      <trkpt lat="-21.2204" lon="55.47855">
        <ele>870.1</ele>
        <time>2013-05-24T03:01:14Z</time>
      </trkpt>
      <trkpt lat="-21.22035" lon="55.4786">
        <ele>868.4</ele>
        <time>2013-05-24T03:01:19Z</time>
      </trkpt>
      <trkpt lat="-21.22028" lon="55.47867">
        <ele>867.1</ele>
        <time>2013-05-24T03:01:24Z</time>
      </trkpt>
      <trkpt lat="-21.22023" lon="55.47875">
        <ele>863</ele>
        <time>2013-05-24T03:01:32Z</time>
      </trkpt>
      <trkpt lat="-21.22018" lon="55.47888">
        <ele>860</ele>
        <time>2013-05-24T03:01:46Z</time>
      </trkpt>
      <trkpt lat="-21.22016" lon="55.47897">
        <ele>860.8</ele>
        <time>2013-05-24T03:01:57Z</time>
      </trkpt>
      <trkpt lat="-21.22008" lon="55.479">
        <ele>860</ele>
        <time>2013-05-24T03:02:04Z</time>
      </trkpt>
      <trkpt lat="-21.22001" lon="55.47906">
        <ele>858.4</ele>
        <time>2013-05-24T03:02:14Z</time>
      </trkpt>
      <trkpt lat="-21.21993" lon="55.47908">
        <ele>856.4</ele>
        <time>2013-05-24T03:02:24Z</time>
      </trkpt>
      <trkpt lat="-21.21984" lon="55.47906">
        <ele>855.5</ele>
        <time>2013-05-24T03:02:31Z</time>
      </trkpt>
      <trkpt lat="-21.21976" lon="55.47903">
        <ele>853.9</ele>
        <time>2013-05-24T03:02:41Z</time>
      </trkpt>
      <trkpt lat="-21.21968" lon="55.47899">
        <ele>851</ele>
        <time>2013-05-24T03:02:50Z</time>
      </trkpt>
      <trkpt lat="-21.21962" lon="55.47895">
        <ele>848.5</ele>
        <time>2013-05-24T03:02:57Z</time>
      </trkpt>
      <trkpt lat="-21.21956" lon="55.47888">
        <ele>847</ele>
        <time>2013-05-24T03:03:03Z</time>
      </trkpt>
      <trkpt lat="-21.2195" lon="55.47881">
        <ele>846.9</ele>
        <time>2013-05-24T03:03:10Z</time>
      </trkpt>
      <trkpt lat="-21.21945" lon="55.47875">
        <ele>845</ele>
        <time>2013-05-24T03:03:15Z</time>
      </trkpt>
      <trkpt lat="-21.2194" lon="55.47868">
        <ele>844.2</ele>
        <time>2013-05-24T03:03:20Z</time>
      </trkpt>
      <trkpt lat="-21.21932" lon="55.47868">
        <ele>842.7</ele>
        <time>2013-05-24T03:03:27Z</time>
      </trkpt>
      <trkpt lat="-21.21923" lon="55.47867">
        <ele>842.6</ele>
        <time>2013-05-24T03:03:34Z</time>
      </trkpt>
      <trkpt lat="-21.21915" lon="55.47867">
        <ele>843.5</ele>
        <time>2013-05-24T03:03:40Z</time>
      </trkpt>
      <trkpt lat="-21.21907" lon="55.47867">
        <ele>844</ele>
        <time>2013-05-24T03:03:48Z</time>
      </trkpt>
      <trkpt lat="-21.21899" lon="55.47867">
        <ele>844.5</ele>
        <time>2013-05-24T03:03:56Z</time>
      </trkpt>
      <trkpt lat="-21.21892" lon="55.47871">
        <ele>844.6</ele>
        <time>2013-05-24T03:04:02Z</time>
      </trkpt>
      <trkpt lat="-21.21884" lon="55.47875">
        <ele>844.7</ele>
        <time>2013-05-24T03:04:10Z</time>
      </trkpt>
      <trkpt lat="-21.21878" lon="55.47881">
        <ele>845.2</ele>
        <time>2013-05-24T03:04:15Z</time>
      </trkpt>
      <trkpt lat="-21.21872" lon="55.47885">
        <ele>845.7</ele>
        <time>2013-05-24T03:04:21Z</time>
      </trkpt>
      <trkpt lat="-21.21866" lon="55.47891">
        <ele>845.4</ele>
        <time>2013-05-24T03:04:26Z</time>
      </trkpt>
      <trkpt lat="-21.21859" lon="55.47895">
        <ele>846.9</ele>
        <time>2013-05-24T03:04:34Z</time>
      </trkpt>
      <trkpt lat="-21.21853" lon="55.47901">
        <ele>849</ele>
        <time>2013-05-24T03:04:48Z</time>
      </trkpt>
      <trkpt lat="-21.21848" lon="55.47908">
        <ele>846.2</ele>
        <time>2013-05-24T03:05:00Z</time>
      </trkpt>
      <trkpt lat="-21.2184" lon="55.47911">
        <ele>845.5</ele>
        <time>2013-05-24T03:05:05Z</time>
      </trkpt>
      <trkpt lat="-21.21833" lon="55.47915">
        <ele>844.5</ele>
        <time>2013-05-24T03:05:09Z</time>
      </trkpt>
      <trkpt lat="-21.21826" lon="55.47923">
        <ele>841</ele>
        <time>2013-05-24T03:05:21Z</time>
      </trkpt>
      <trkpt lat="-21.21819" lon="55.4793">
        <ele>841</ele>
        <time>2013-05-24T03:05:29Z</time>
      </trkpt>
      <trkpt lat="-21.21801" lon="55.47936">
        <ele>843</ele>
        <time>2013-05-24T03:05:40Z</time>
      </trkpt>
      <trkpt lat="-21.21788" lon="55.4794">
        <ele>843</ele>
        <time>2013-05-24T03:05:48Z</time>
      </trkpt>
      <trkpt lat="-21.21778" lon="55.47944">
        <ele>845</ele>
        <time>2013-05-24T03:06:12Z</time>
      </trkpt>
      <trkpt lat="-21.21764" lon="55.47943">
        <ele>845</ele>
        <time>2013-05-24T03:06:20Z</time>
      </trkpt>
      <trkpt lat="-21.21757" lon="55.47949">
        <ele>849.2</ele>
        <time>2013-05-24T03:06:43Z</time>
      </trkpt>
      <trkpt lat="-21.2175" lon="55.47952">
        <ele>851.6</ele>
        <time>2013-05-24T03:06:49Z</time>
      </trkpt>
      <trkpt lat="-21.21742" lon="55.47953">
        <ele>853.1</ele>
        <time>2013-05-24T03:07:00Z</time>
      </trkpt>
      <trkpt lat="-21.21733" lon="55.47955">
        <ele>855</ele>
        <time>2013-05-24T03:07:09Z</time>
      </trkpt>
      <trkpt lat="-21.21724" lon="55.47959">
        <ele>856</ele>
        <time>2013-05-24T03:07:19Z</time>
      </trkpt>
      <trkpt lat="-21.2171" lon="55.4796">
        <ele>859</ele>
        <time>2013-05-24T03:07:35Z</time>
      </trkpt>
      <trkpt lat="-21.21697" lon="55.47963">
        <ele>861</ele>
        <time>2013-05-24T03:07:43Z</time>
      </trkpt>
      <trkpt lat="-21.21687" lon="55.47966">
        <ele>860</ele>
        <time>2013-05-24T03:07:51Z</time>
      </trkpt>
      <trkpt lat="-21.21677" lon="55.47975">
        <ele>862</ele>
        <time>2013-05-24T03:08:03Z</time>
      </trkpt>
      <trkpt lat="-21.21666" lon="55.47978">
        <ele>864</ele>
        <time>2013-05-24T03:08:11Z</time>
      </trkpt>
      <trkpt lat="-21.21655" lon="55.47982">
        <ele>865</ele>
        <time>2013-05-24T03:08:23Z</time>
      </trkpt>
      <trkpt lat="-21.21641" lon="55.47979">
        <ele>871</ele>
        <time>2013-05-24T03:08:56Z</time>
      </trkpt>
      <trkpt lat="-21.21627" lon="55.47983">
        <ele>873</ele>
        <time>2013-05-24T03:09:04Z</time>
      </trkpt>
      <trkpt lat="-21.21612" lon="55.47986">
        <ele>874</ele>
        <time>2013-05-24T03:09:12Z</time>
      </trkpt>
      <trkpt lat="-21.216" lon="55.47992">
        <ele>875</ele>
        <time>2013-05-24T03:09:24Z</time>
      </trkpt>
      <trkpt lat="-21.21589" lon="55.47998">
        <ele>876</ele>
        <time>2013-05-24T03:09:33Z</time>
      </trkpt>
      <trkpt lat="-21.21582" lon="55.48005">
        <ele>876</ele>
        <time>2013-05-24T03:09:45Z</time>
      </trkpt>
      <trkpt lat="-21.21571" lon="55.48011">
        <ele>879</ele>
        <time>2013-05-24T03:10:01Z</time>
      </trkpt>
      <trkpt lat="-21.21559" lon="55.48018">
        <ele>882</ele>
        <time>2013-05-24T03:10:14Z</time>
      </trkpt>
      <trkpt lat="-21.21548" lon="55.48026">
        <ele>884</ele>
        <time>2013-05-24T03:10:26Z</time>
      </trkpt>
      <trkpt lat="-21.21541" lon="55.48034">
        <ele>887</ele>
        <time>2013-05-24T03:10:42Z</time>
      </trkpt>
      <trkpt lat="-21.21532" lon="55.48037">
        <ele>890</ele>
        <time>2013-05-24T03:10:58Z</time>
      </trkpt>
      <trkpt lat="-21.21521" lon="55.48045">
        <ele>890</ele>
        <time>2013-05-24T03:11:10Z</time>
      </trkpt>
      <trkpt lat="-21.2151" lon="55.48048">
        <ele>893</ele>
        <time>2013-05-24T03:11:30Z</time>
      </trkpt>
      <trkpt lat="-21.215" lon="55.48051">
        <ele>896</ele>
        <time>2013-05-24T03:11:42Z</time>
      </trkpt>
      <trkpt lat="-21.21488" lon="55.48051">
        <ele>898</ele>
        <time>2013-05-24T03:11:54Z</time>
      </trkpt>
      <trkpt lat="-21.21478" lon="55.48057">
        <ele>900</ele>
        <time>2013-05-24T03:12:07Z</time>
      </trkpt>
      <trkpt lat="-21.21473" lon="55.48065">
        <ele>902</ele>
        <time>2013-05-24T03:12:15Z</time>
      </trkpt>
      <trkpt lat="-21.21461" lon="55.48065">
        <ele>902</ele>
        <time>2013-05-24T03:12:23Z</time>
      </trkpt>
      <trkpt lat="-21.21452" lon="55.48069">
        <ele>903</ele>
        <time>2013-05-24T03:12:31Z</time>
      </trkpt>
      <trkpt lat="-21.21439" lon="55.48063">
        <ele>907</ele>
        <time>2013-05-24T03:12:43Z</time>
      </trkpt>
      <trkpt lat="-21.21428" lon="55.48062">
        <ele>908</ele>
        <time>2013-05-24T03:12:51Z</time>
      </trkpt>
      <trkpt lat="-21.21419" lon="55.48063">
        <ele>910</ele>
        <time>2013-05-24T03:12:59Z</time>
      </trkpt>
      <trkpt lat="-21.21413" lon="55.48071">
        <ele>914.4</ele>
        <time>2013-05-24T03:13:30Z</time>
      </trkpt>
      <trkpt lat="-21.21405" lon="55.4807">
        <ele>915.9</ele>
        <time>2013-05-24T03:13:37Z</time>
      </trkpt>
      <trkpt lat="-21.21397" lon="55.48071">
        <ele>917.9</ele>
        <time>2013-05-24T03:13:49Z</time>
      </trkpt>
      <trkpt lat="-21.21389" lon="55.4807">
        <ele>919</ele>
        <time>2013-05-24T03:13:56Z</time>
      </trkpt>
      <trkpt lat="-21.21383" lon="55.48064">
        <ele>919.8</ele>
        <time>2013-05-24T03:14:03Z</time>
      </trkpt>
      <trkpt lat="-21.21375" lon="55.4806">
        <ele>922.4</ele>
        <time>2013-05-24T03:14:12Z</time>
      </trkpt>
      <trkpt lat="-21.21367" lon="55.48059">
        <ele>922.3</ele>
        <time>2013-05-24T03:14:17Z</time>
      </trkpt>
      <trkpt lat="-21.2136" lon="55.48054">
        <ele>922.4</ele>
        <time>2013-05-24T03:14:23Z</time>
      </trkpt>
      <trkpt lat="-21.21352" lon="55.48048">
        <ele>923.8</ele>
        <time>2013-05-24T03:14:31Z</time>
      </trkpt>
      <trkpt lat="-21.21345" lon="55.48043">
        <ele>924.9</ele>
        <time>2013-05-24T03:14:41Z</time>
      </trkpt>
      <trkpt lat="-21.2134" lon="55.48035">
        <ele>928.1</ele>
        <time>2013-05-24T03:14:52Z</time>
      </trkpt>
      <trkpt lat="-21.21333" lon="55.4803">
        <ele>928.7</ele>
        <time>2013-05-24T03:14:57Z</time>
      </trkpt>
      <trkpt lat="-21.21325" lon="55.48029">
        <ele>931.1</ele>
        <time>2013-05-24T03:15:11Z</time>
      </trkpt>
      <trkpt lat="-21.21316" lon="55.48031">
        <ele>932.4</ele>
        <time>2013-05-24T03:15:23Z</time>
      </trkpt>
      <trkpt lat="-21.21309" lon="55.48037">
        <ele>934.6</ele>
        <time>2013-05-24T03:15:36Z</time>
      </trkpt>
      <trkpt lat="-21.213" lon="55.48037">
        <ele>939</ele>
        <time>2013-05-24T03:16:01Z</time>
      </trkpt>
      <trkpt lat="-21.21292" lon="55.4804">
        <ele>941.2</ele>
        <time>2013-05-24T03:16:06Z</time>
      </trkpt>
      <trkpt lat="-21.21285" lon="55.48042">
        <ele>941.7</ele>
        <time>2013-05-24T03:16:10Z</time>
      </trkpt>
      <trkpt lat="-21.21277" lon="55.48046">
        <ele>942.6</ele>
        <time>2013-05-24T03:16:15Z</time>
      </trkpt>
      <trkpt lat="-21.2127" lon="55.48051">
        <ele>945.5</ele>
        <time>2013-05-24T03:16:29Z</time>
      </trkpt>
      <trkpt lat="-21.21255" lon="55.48053">
        <ele>947</ele>
        <time>2013-05-24T03:16:40Z</time>
      </trkpt>
      <trkpt lat="-21.21242" lon="55.48054">
        <ele>948</ele>
        <time>2013-05-24T03:16:44Z</time>
      </trkpt>
      <trkpt lat="-21.21232" lon="55.48055">
        <ele>949</ele>
        <time>2013-05-24T03:16:48Z</time>
      </trkpt>
      <trkpt lat="-21.2122" lon="55.48059">
        <ele>949</ele>
        <time>2013-05-24T03:16:56Z</time>
      </trkpt>
      <trkpt lat="-21.21208" lon="55.48064">
        <ele>950</ele>
        <time>2013-05-24T03:17:04Z</time>
      </trkpt>
      <trkpt lat="-21.21197" lon="55.48067">
        <ele>952</ele>
        <time>2013-05-24T03:17:16Z</time>
      </trkpt>
      <trkpt lat="-21.21189" lon="55.48071">
        <ele>956.5</ele>
        <time>2013-05-24T03:17:36Z</time>
      </trkpt>
      <trkpt lat="-21.21192" lon="55.4808">
        <ele>960.7</ele>
        <time>2013-05-24T03:17:54Z</time>
      </trkpt>
      <trkpt lat="-21.21183" lon="55.48085">
        <ele>963</ele>
        <time>2013-05-24T03:18:09Z</time>
      </trkpt>
      <trkpt lat="-21.21173" lon="55.48083">
        <ele>964</ele>
        <time>2013-05-24T03:18:13Z</time>
      </trkpt>
      <trkpt lat="-21.21161" lon="55.48081">
        <ele>965</ele>
        <time>2013-05-24T03:18:17Z</time>
      </trkpt>
      <trkpt lat="-21.21152" lon="55.4808">
        <ele>966</ele>
        <time>2013-05-24T03:18:21Z</time>
      </trkpt>
      <trkpt lat="-21.21135" lon="55.48083">
        <ele>967</ele>
        <time>2013-05-24T03:18:29Z</time>
      </trkpt>
      <trkpt lat="-21.21121" lon="55.48082">
        <ele>969</ele>
        <time>2013-05-24T03:18:37Z</time>
      </trkpt>
      <trkpt lat="-21.21115" lon="55.4809">
        <ele>970</ele>
        <time>2013-05-24T03:18:53Z</time>
      </trkpt>
      <trkpt lat="-21.21115" lon="55.481">
        <ele>970.2</ele>
        <time>2013-05-24T03:19:05Z</time>
      </trkpt>
      <trkpt lat="-21.21119" lon="55.48107">
        <ele>970.4</ele>
        <time>2013-05-24T03:19:11Z</time>
      </trkpt>
      <trkpt lat="-21.21127" lon="55.48111">
        <ele>971.5</ele>
        <time>2013-05-24T03:19:15Z</time>
      </trkpt>
      <trkpt lat="-21.21134" lon="55.48116">
        <ele>972.7</ele>
        <time>2013-05-24T03:19:22Z</time>
      </trkpt>
      <trkpt lat="-21.21127" lon="55.48121">
        <ele>976.2</ele>
        <time>2013-05-24T03:19:35Z</time>
      </trkpt>
      <trkpt lat="-21.21118" lon="55.48122">
        <ele>978.7</ele>
        <time>2013-05-24T03:19:44Z</time>
      </trkpt>
      <trkpt lat="-21.2111" lon="55.48125">
        <ele>980.9</ele>
        <time>2013-05-24T03:19:57Z</time>
      </trkpt>
      <trkpt lat="-21.21103" lon="55.48133">
        <ele>985</ele>
        <time>2013-05-24T03:20:18Z</time>
      </trkpt>
      <trkpt lat="-21.21091" lon="55.48134">
        <ele>986.4</ele>
        <time>2013-05-24T03:20:24Z</time>
      </trkpt>
      <trkpt lat="-21.21082" lon="55.48134">
        <ele>986</ele>
        <time>2013-05-24T03:20:29Z</time>
      </trkpt>
      <trkpt lat="-21.21067" lon="55.48134">
        <ele>989</ele>
        <time>2013-05-24T03:20:48Z</time>
      </trkpt>
      <trkpt lat="-21.21049" lon="55.48131">
        <ele>990</ele>
        <time>2013-05-24T03:20:56Z</time>
      </trkpt>
      <trkpt lat="-21.21039" lon="55.48132">
        <ele>990</ele>
        <time>2013-05-24T03:21:00Z</time>
      </trkpt>
      <trkpt lat="-21.21029" lon="55.4813">
        <ele>991</ele>
        <time>2013-05-24T03:21:04Z</time>
      </trkpt>
      <trkpt lat="-21.21025" lon="55.48138">
        <ele>995.7</ele>
        <time>2013-05-24T03:21:24Z</time>
      </trkpt>
      <trkpt lat="-21.21013" lon="55.48141">
        <ele>999</ele>
        <time>2013-05-24T03:21:44Z</time>
      </trkpt>
      <trkpt lat="-21.21005" lon="55.48135">
        <ele>1002</ele>
        <time>2013-05-24T03:21:57Z</time>
      </trkpt>
      <trkpt lat="-21.20996" lon="55.48134">
        <ele>1004</ele>
        <time>2013-05-24T03:22:11Z</time>
      </trkpt>
      <trkpt lat="-21.20984" lon="55.48129">
        <ele>1005</ele>
        <time>2013-05-24T03:22:15Z</time>
      </trkpt>
      <trkpt lat="-21.20972" lon="55.48131">
        <ele>1007</ele>
        <time>2013-05-24T03:22:30Z</time>
      </trkpt>
      <trkpt lat="-21.20963" lon="55.48128">
        <ele>1008</ele>
        <time>2013-05-24T03:22:34Z</time>
      </trkpt>
      <trkpt lat="-21.20962" lon="55.4812">
        <ele>1010.3</ele>
        <time>2013-05-24T03:22:47Z</time>
      </trkpt>
      <trkpt lat="-21.20957" lon="55.48114">
        <ele>1010.9</ele>
        <time>2013-05-24T03:22:50Z</time>
      </trkpt>
      <trkpt lat="-21.20948" lon="55.48108">
        <ele>1011</ele>
        <time>2013-05-24T03:22:53Z</time>
      </trkpt>
      <trkpt lat="-21.20938" lon="55.48102">
        <ele>1010</ele>
        <time>2013-05-24T03:22:57Z</time>
      </trkpt>
      <trkpt lat="-21.2093" lon="55.48102">
        <ele>1014</ele>
        <time>2013-05-24T03:23:20Z</time>
      </trkpt>
      <trkpt lat="-21.20921" lon="55.48099">
        <ele>1015.9</ele>
        <time>2013-05-24T03:23:37Z</time>
      </trkpt>
      <trkpt lat="-21.20914" lon="55.48096">
        <ele>1017</ele>
        <time>2013-05-24T03:23:48Z</time>
      </trkpt>
      <trkpt lat="-21.20906" lon="55.48093">
        <ele>1019</ele>
        <time>2013-05-24T03:23:55Z</time>
      </trkpt>
      <trkpt lat="-21.20898" lon="55.48088">
        <ele>1020.7</ele>
        <time>2013-05-24T03:24:05Z</time>
      </trkpt>
      <trkpt lat="-21.20889" lon="55.48086">
        <ele>1021.8</ele>
        <time>2013-05-24T03:24:11Z</time>
      </trkpt>
      <trkpt lat="-21.20882" lon="55.4809">
        <ele>1025.6</ele>
        <time>2013-05-24T03:24:26Z</time>
      </trkpt>
      <trkpt lat="-21.20874" lon="55.48095">
        <ele>1026.5</ele>
        <time>2013-05-24T03:24:37Z</time>
      </trkpt>
      <trkpt lat="-21.20867" lon="55.48099">
        <ele>1027.3</ele>
        <time>2013-05-24T03:24:44Z</time>
      </trkpt>
      <trkpt lat="-21.20859" lon="55.48101">
        <ele>1029.1</ele>
        <time>2013-05-24T03:24:53Z</time>
      </trkpt>
      <trkpt lat="-21.2085" lon="55.48103">
        <ele>1032</ele>
        <time>2013-05-24T03:25:12Z</time>
      </trkpt>
      <trkpt lat="-21.20852" lon="55.48113">
        <ele>1035</ele>
        <time>2013-05-24T03:25:26Z</time>
      </trkpt>
      <trkpt lat="-21.20857" lon="55.48121">
        <ele>1037.2</ele>
        <time>2013-05-24T03:25:38Z</time>
      </trkpt>
      <trkpt lat="-21.20861" lon="55.48129">
        <ele>1038.3</ele>
        <time>2013-05-24T03:25:49Z</time>
      </trkpt>
      <trkpt lat="-21.2087" lon="55.48131">
        <ele>1039.9</ele>
        <time>2013-05-24T03:26:03Z</time>
      </trkpt>
      <trkpt lat="-21.20873" lon="55.48139">
        <ele>1043.1</ele>
        <time>2013-05-24T03:26:18Z</time>
      </trkpt>
      <trkpt lat="-21.20865" lon="55.48145">
        <ele>1047.6</ele>
        <time>2013-05-24T03:26:44Z</time>
      </trkpt>
      <trkpt lat="-21.20857" lon="55.48147">
        <ele>1049.9</ele>
        <time>2013-05-24T03:26:58Z</time>
      </trkpt>
      <trkpt lat="-21.20848" lon="55.48148">
        <ele>1053.4</ele>
        <time>2013-05-24T03:27:14Z</time>
      </trkpt>
      <trkpt lat="-21.2084" lon="55.48151">
        <ele>1054.6</ele>
        <time>2013-05-24T03:27:26Z</time>
      </trkpt>
      <trkpt lat="-21.20833" lon="55.48155">
        <ele>1056.6</ele>
        <time>2013-05-24T03:27:34Z</time>
      </trkpt>
      <trkpt lat="-21.20826" lon="55.4816">
        <ele>1060.4</ele>
        <time>2013-05-24T03:27:51Z</time>
      </trkpt>
      <trkpt lat="-21.20821" lon="55.48167">
        <ele>1060.9</ele>
        <time>2013-05-24T03:27:55Z</time>
      </trkpt>
      <trkpt lat="-21.20814" lon="55.48175">
        <ele>1061</ele>
        <time>2013-05-24T03:28:01Z</time>
      </trkpt>
      <trkpt lat="-21.20807" lon="55.4818">
        <ele>1064</ele>
        <time>2013-05-24T03:28:08Z</time>
      </trkpt>
      <trkpt lat="-21.20805" lon="55.48188">
        <ele>1065</ele>
        <time>2013-05-24T03:28:15Z</time>
      </trkpt>
      <trkpt lat="-21.20803" lon="55.48197">
        <ele>1068.4</ele>
        <time>2013-05-24T03:28:33Z</time>
      </trkpt>
      <trkpt lat="-21.20809" lon="55.48191">
        <ele>1070.7</ele>
        <time>2013-05-24T03:28:42Z</time>
      </trkpt>
      <trkpt lat="-21.20813" lon="55.48199">
        <ele>1071.6</ele>
        <time>2013-05-24T03:28:51Z</time>
      </trkpt>
      <trkpt lat="-21.20809" lon="55.48208">
        <ele>1073.6</ele>
        <time>2013-05-24T03:29:01Z</time>
      </trkpt>
      <trkpt lat="-21.20824" lon="55.48189">
        <ele>1077</ele>
        <time>2013-05-24T03:29:19Z</time>
      </trkpt>
      <trkpt lat="-21.2083" lon="55.48198">
        <ele>1078</ele>
        <time>2013-05-24T03:29:29Z</time>
      </trkpt>
      <trkpt lat="-21.20836" lon="55.48206">
        <ele>1079</ele>
        <time>2013-05-24T03:29:36Z</time>
      </trkpt>
      <trkpt lat="-21.20834" lon="55.48217">
        <ele>1085</ele>
        <time>2013-05-24T03:29:59Z</time>
      </trkpt>
      <trkpt lat="-21.20822" lon="55.48234">
        <ele>1085</ele>
        <time>2013-05-24T03:30:08Z</time>
      </trkpt>
      <trkpt lat="-21.20819" lon="55.48217">
        <ele>1087</ele>
        <time>2013-05-24T03:30:16Z</time>
      </trkpt>
      <trkpt lat="-21.20814" lon="55.48204">
        <ele>1090</ele>
        <time>2013-05-24T03:30:32Z</time>
      </trkpt>
      <trkpt lat="-21.20813" lon="55.48194">
        <ele>1091</ele>
        <time>2013-05-24T03:30:40Z</time>
      </trkpt>
      <trkpt lat="-21.20795" lon="55.48282">
        <ele>1096</ele>
        <time>2013-05-24T03:31:05Z</time>
      </trkpt>
      <trkpt lat="-21.20801" lon="55.48257">
        <ele>1098</ele>
        <time>2013-05-24T03:31:16Z</time>
      </trkpt>
      <trkpt lat="-21.20805" lon="55.48249">
        <ele>1104.4</ele>
        <time>2013-05-24T03:31:43Z</time>
      </trkpt>
      <trkpt lat="-21.20814" lon="55.48248">
        <ele>1107.7</ele>
        <time>2013-05-24T03:32:05Z</time>
      </trkpt>
      <trkpt lat="-21.20822" lon="55.48252">
        <ele>1109.2</ele>
        <time>2013-05-24T03:32:15Z</time>
      </trkpt>
      <trkpt lat="-21.20831" lon="55.48253">
        <ele>1112.7</ele>
        <time>2013-05-24T03:32:29Z</time>
      </trkpt>
      <trkpt lat="-21.20839" lon="55.48243">
        <ele>1113</ele>
        <time>2013-05-24T03:32:35Z</time>
      </trkpt>
      <trkpt lat="-21.20845" lon="55.48233">
        <ele>1114</ele>
        <time>2013-05-24T03:32:42Z</time>
      </trkpt>
      <trkpt lat="-21.20852" lon="55.48226">
        <ele>1117</ele>
        <time>2013-05-24T03:32:52Z</time>
      </trkpt>
      <trkpt lat="-21.20852" lon="55.48237">
        <ele>1119</ele>
        <time>2013-05-24T03:33:04Z</time>
      </trkpt>
      <trkpt lat="-21.20844" lon="55.48246">
        <ele>1126</ele>
        <time>2013-05-24T03:33:40Z</time>
      </trkpt>
      <trkpt lat="-21.20835" lon="55.48253">
        <ele>1129</ele>
        <time>2013-05-24T03:33:52Z</time>
      </trkpt>
      <trkpt lat="-21.20828" lon="55.48266">
        <ele>1132</ele>
        <time>2013-05-24T03:34:08Z</time>
      </trkpt>
      <trkpt lat="-21.20827" lon="55.48285">
        <ele>1134</ele>
        <time>2013-05-24T03:34:16Z</time>
      </trkpt>
      <trkpt lat="-21.20825" lon="55.48296">
        <ele>1135</ele>
        <time>2013-05-24T03:34:20Z</time>
      </trkpt>
      <trkpt lat="-21.20819" lon="55.48318">
        <ele>1136</ele>
        <time>2013-05-24T03:34:26Z</time>
      </trkpt>
      <trkpt lat="-21.20808" lon="55.48347">
        <ele>1137</ele>
        <time>2013-05-24T03:34:34Z</time>
      </trkpt>
      <trkpt lat="-21.20798" lon="55.48369">
        <ele>1139</ele>
        <time>2013-05-24T03:34:42Z</time>
      </trkpt>
      <trkpt lat="-21.20791" lon="55.4838">
        <ele>1141</ele>
        <time>2013-05-24T03:34:50Z</time>
      </trkpt>
      <trkpt lat="-21.20777" lon="55.48386">
        <ele>1144</ele>
        <time>2013-05-24T03:35:06Z</time>
      </trkpt>
      <trkpt lat="-21.20769" lon="55.48376">
        <ele>1148</ele>
        <time>2013-05-24T03:35:20Z</time>
      </trkpt>
      <trkpt lat="-21.20769" lon="55.4836">
        <ele>1149</ele>
        <time>2013-05-24T03:35:28Z</time>
      </trkpt>
      <trkpt lat="-21.20767" lon="55.48348">
        <ele>1151</ele>
        <time>2013-05-24T03:35:36Z</time>
      </trkpt>
      <trkpt lat="-21.2076" lon="55.48339">
        <ele>1153</ele>
        <time>2013-05-24T03:35:48Z</time>
      </trkpt>
      <trkpt lat="-21.20749" lon="55.48335">
        <ele>1156</ele>
        <time>2013-05-24T03:36:04Z</time>
      </trkpt>
      <trkpt lat="-21.20738" lon="55.48338">
        <ele>1157</ele>
        <time>2013-05-24T03:36:16Z</time>
      </trkpt>
      <trkpt lat="-21.20733" lon="55.48343">
        <ele>1158.8</ele>
        <time>2013-05-24T03:36:20Z</time>
      </trkpt>
      <trkpt lat="-21.20725" lon="55.48351">
        <ele>1160</ele>
        <time>2013-05-24T03:36:26Z</time>
      </trkpt>
      <trkpt lat="-21.20715" lon="55.48353">
        <ele>1162</ele>
        <time>2013-05-24T03:36:38Z</time>
      </trkpt>
      <trkpt lat="-21.20705" lon="55.48349">
        <ele>1164</ele>
        <time>2013-05-24T03:36:50Z</time>
      </trkpt>
      <trkpt lat="-21.20696" lon="55.48345">
        <ele>1167</ele>
        <time>2013-05-24T03:37:02Z</time>
      </trkpt>
      <trkpt lat="-21.20687" lon="55.48343">
        <ele>1170</ele>
        <time>2013-05-24T03:37:18Z</time>
      </trkpt>
      <trkpt lat="-21.20675" lon="55.48348">
        <ele>1176</ele>
        <time>2013-05-24T03:37:50Z</time>
      </trkpt>
      <trkpt lat="-21.2067" lon="55.48359">
        <ele>1176</ele>
        <time>2013-05-24T03:37:57Z</time>
      </trkpt>
      <trkpt lat="-21.20683" lon="55.48373">
        <ele>1181</ele>
        <time>2013-05-24T03:38:20Z</time>
      </trkpt>
      <trkpt lat="-21.2071" lon="55.48341">
        <ele>1183</ele>
        <time>2013-05-24T03:38:31Z</time>
      </trkpt>
      <trkpt lat="-21.20714" lon="55.48351">
        <ele>1189</ele>
        <time>2013-05-24T03:38:53Z</time>
      </trkpt>
      <trkpt lat="-21.20717" lon="55.48361">
        <ele>1191</ele>
        <time>2013-05-24T03:39:01Z</time>
      </trkpt>
      <trkpt lat="-21.2073" lon="55.4836">
        <ele>1193</ele>
        <time>2013-05-24T03:39:19Z</time>
      </trkpt>
      <trkpt lat="-21.2073" lon="55.48359">
        <ele>1196.9</ele>
        <time>2013-05-24T03:39:43Z</time>
      </trkpt>
      <trkpt lat="-21.2073" lon="55.48359">
        <ele>1196.9</ele>
        <time>2013-05-24T03:39:43Z</time>
      </trkpt>
      <trkpt lat="-21.2073" lon="55.48359">
        <ele>1197</ele>
        <time>2013-05-24T03:39:48Z</time>
      </trkpt>
      <trkpt lat="-21.20732" lon="55.48357">
        <ele>1197.9</ele>
        <time>2013-05-24T03:41:00Z</time>
      </trkpt>
      <trkpt lat="-21.20724" lon="55.48357">
        <ele>1199.7</ele>
        <time>2013-05-24T03:41:13Z</time>
      </trkpt>
      <trkpt lat="-21.20715" lon="55.48359">
        <ele>1202</ele>
        <time>2013-05-24T03:41:23Z</time>
      </trkpt>
      <trkpt lat="-21.20708" lon="55.48364">
        <ele>1203.6</ele>
        <time>2013-05-24T03:41:30Z</time>
      </trkpt>
      <trkpt lat="-21.207" lon="55.48367">
        <ele>1204.5</ele>
        <time>2013-05-24T03:41:37Z</time>
      </trkpt>
      <trkpt lat="-21.20692" lon="55.48372">
        <ele>1205.5</ele>
        <time>2013-05-24T03:41:44Z</time>
      </trkpt>
      <trkpt lat="-21.20684" lon="55.48369">
        <ele>1207.1</ele>
        <time>2013-05-24T03:41:54Z</time>
      </trkpt>
      <trkpt lat="-21.20675" lon="55.4837">
        <ele>1210.1</ele>
        <time>2013-05-24T03:42:07Z</time>
      </trkpt>
      <trkpt lat="-21.20667" lon="55.48373">
        <ele>1211</ele>
        <time>2013-05-24T03:42:17Z</time>
      </trkpt>
      <trkpt lat="-21.20659" lon="55.48375">
        <ele>1212.4</ele>
        <time>2013-05-24T03:42:25Z</time>
      </trkpt>
      <trkpt lat="-21.20651" lon="55.48377">
        <ele>1213.4</ele>
        <time>2013-05-24T03:42:33Z</time>
      </trkpt>
      <trkpt lat="-21.20642" lon="55.48376">
        <ele>1214.3</ele>
        <time>2013-05-24T03:42:43Z</time>
      </trkpt>
      <trkpt lat="-21.20634" lon="55.48375">
        <ele>1216.3</ele>
        <time>2013-05-24T03:42:52Z</time>
      </trkpt>
      <trkpt lat="-21.20625" lon="55.48376">
        <ele>1218.6</ele>
        <time>2013-05-24T03:43:03Z</time>
      </trkpt>
      <trkpt lat="-21.20617" lon="55.4838">
        <ele>1220.6</ele>
        <time>2013-05-24T03:43:12Z</time>
      </trkpt>
      <trkpt lat="-21.20609" lon="55.48381">
        <ele>1220.5</ele>
        <time>2013-05-24T03:43:20Z</time>
      </trkpt>
      <trkpt lat="-21.20602" lon="55.48383">
        <ele>1222</ele>
        <time>2013-05-24T03:43:26Z</time>
      </trkpt>
      <trkpt lat="-21.20593" lon="55.48385">
        <ele>1223.9</ele>
        <time>2013-05-24T03:43:34Z</time>
      </trkpt>
      <trkpt lat="-21.20585" lon="55.48385">
        <ele>1225.8</ele>
        <time>2013-05-24T03:43:44Z</time>
      </trkpt>
      <trkpt lat="-21.20577" lon="55.48381">
        <ele>1227.4</ele>
        <time>2013-05-24T03:43:54Z</time>
      </trkpt>
      <trkpt lat="-21.2057" lon="55.48379">
        <ele>1229.8</ele>
        <time>2013-05-24T03:44:05Z</time>
      </trkpt>
      <trkpt lat="-21.20562" lon="55.48376">
        <ele>1230.3</ele>
        <time>2013-05-24T03:44:14Z</time>
      </trkpt>
      <trkpt lat="-21.20553" lon="55.48377">
        <ele>1232.3</ele>
        <time>2013-05-24T03:44:23Z</time>
      </trkpt>
      <trkpt lat="-21.20545" lon="55.48379">
        <ele>1233.8</ele>
        <time>2013-05-24T03:44:31Z</time>
      </trkpt>
      <trkpt lat="-21.20537" lon="55.4838">
        <ele>1234.9</ele>
        <time>2013-05-24T03:44:39Z</time>
      </trkpt>
      <trkpt lat="-21.20529" lon="55.48382">
        <ele>1236.9</ele>
        <time>2013-05-24T03:44:46Z</time>
      </trkpt>
      <trkpt lat="-21.20521" lon="55.48377">
        <ele>1239</ele>
        <time>2013-05-24T03:45:00Z</time>
      </trkpt>
      <trkpt lat="-21.20513" lon="55.48374">
        <ele>1241.5</ele>
        <time>2013-05-24T03:45:10Z</time>
      </trkpt>
      <trkpt lat="-21.20505" lon="55.4837">
        <ele>1242.5</ele>
        <time>2013-05-24T03:45:19Z</time>
      </trkpt>
      <trkpt lat="-21.20496" lon="55.4837">
        <ele>1245</ele>
        <time>2013-05-24T03:45:30Z</time>
      </trkpt>
      <trkpt lat="-21.20488" lon="55.48368">
        <ele>1247.1</ele>
        <time>2013-05-24T03:45:41Z</time>
      </trkpt>
      <trkpt lat="-21.20482" lon="55.48374">
        <ele>1249.1</ele>
        <time>2013-05-24T03:45:50Z</time>
      </trkpt>
      <trkpt lat="-21.20474" lon="55.48378">
        <ele>1249.9</ele>
        <time>2013-05-24T03:45:57Z</time>
      </trkpt>
      <trkpt lat="-21.20466" lon="55.48377">
        <ele>1252</ele>
        <time>2013-05-24T03:46:07Z</time>
      </trkpt>
      <trkpt lat="-21.20458" lon="55.48375">
        <ele>1254.4</ele>
        <time>2013-05-24T03:46:17Z</time>
      </trkpt>
      <trkpt lat="-21.20452" lon="55.48369">
        <ele>1255.8</ele>
        <time>2013-05-24T03:46:25Z</time>
      </trkpt>
      <trkpt lat="-21.20443" lon="55.48371">
        <ele>1257.1</ele>
        <time>2013-05-24T03:46:34Z</time>
      </trkpt>
      <trkpt lat="-21.20436" lon="55.48365">
        <ele>1259.6</ele>
        <time>2013-05-24T03:46:46Z</time>
      </trkpt>
      <trkpt lat="-21.20428" lon="55.48365">
        <ele>1261.3</ele>
        <time>2013-05-24T03:46:56Z</time>
      </trkpt>
      <trkpt lat="-21.20419" lon="55.48363">
        <ele>1264</ele>
        <time>2013-05-24T03:47:07Z</time>
      </trkpt>
      <trkpt lat="-21.20413" lon="55.48356">
        <ele>1264.8</ele>
        <time>2013-05-24T03:47:16Z</time>
      </trkpt>
      <trkpt lat="-21.20405" lon="55.48356">
        <ele>1267.6</ele>
        <time>2013-05-24T03:47:28Z</time>
      </trkpt>
      <trkpt lat="-21.20397" lon="55.48354">
        <ele>1270.3</ele>
        <time>2013-05-24T03:47:38Z</time>
      </trkpt>
      <trkpt lat="-21.20388" lon="55.48355">
        <ele>1270.9</ele>
        <time>2013-05-24T03:47:47Z</time>
      </trkpt>
      <trkpt lat="-21.2038" lon="55.48359">
        <ele>1272.9</ele>
        <time>2013-05-24T03:47:55Z</time>
      </trkpt>
      <trkpt lat="-21.20372" lon="55.4836">
        <ele>1274.7</ele>
        <time>2013-05-24T03:48:07Z</time>
      </trkpt>
      <trkpt lat="-21.20363" lon="55.48358">
        <ele>1276.1</ele>
        <time>2013-05-24T03:48:16Z</time>
      </trkpt>
      <trkpt lat="-21.20355" lon="55.48362">
        <ele>1277.2</ele>
        <time>2013-05-24T03:48:26Z</time>
      </trkpt>
      <trkpt lat="-21.20346" lon="55.48361">
        <ele>1279.5</ele>
        <time>2013-05-24T03:48:38Z</time>
      </trkpt>
      <trkpt lat="-21.20338" lon="55.48357">
        <ele>1281.1</ele>
        <time>2013-05-24T03:48:48Z</time>
      </trkpt>
      <trkpt lat="-21.2033" lon="55.48359">
        <ele>1283.9</ele>
        <time>2013-05-24T03:49:00Z</time>
      </trkpt>
      <trkpt lat="-21.20323" lon="55.48365">
        <ele>1285.2</ele>
        <time>2013-05-24T03:49:08Z</time>
      </trkpt>
      <trkpt lat="-21.20315" lon="55.48366">
        <ele>1287</ele>
        <time>2013-05-24T03:49:20Z</time>
      </trkpt>
      <trkpt lat="-21.20306" lon="55.48369">
        <ele>1289.1</ele>
        <time>2013-05-24T03:49:29Z</time>
      </trkpt>
      <trkpt lat="-21.20298" lon="55.48369">
        <ele>1290.6</ele>
        <time>2013-05-24T03:49:42Z</time>
      </trkpt>
      <trkpt lat="-21.20291" lon="55.48363">
        <ele>1292.8</ele>
        <time>2013-05-24T03:49:53Z</time>
      </trkpt>
      <trkpt lat="-21.20282" lon="55.48364">
        <ele>1295.6</ele>
        <time>2013-05-24T03:50:08Z</time>
      </trkpt>
      <trkpt lat="-21.20273" lon="55.48364">
        <ele>1297.4</ele>
        <time>2013-05-24T03:50:20Z</time>
      </trkpt>
      <trkpt lat="-21.20265" lon="55.48361">
        <ele>1299.3</ele>
        <time>2013-05-24T03:50:32Z</time>
      </trkpt>
      <trkpt lat="-21.20258" lon="55.48354">
        <ele>1301.6</ele>
        <time>2013-05-24T03:50:42Z</time>
      </trkpt>
      <trkpt lat="-21.20249" lon="55.48356">
        <ele>1303.9</ele>
        <time>2013-05-24T03:50:54Z</time>
      </trkpt>
      <trkpt lat="-21.2024" lon="55.48356">
        <ele>1307.4</ele>
        <time>2013-05-24T03:51:07Z</time>
      </trkpt>
      <trkpt lat="-21.20233" lon="55.48351">
        <ele>1308.8</ele>
        <time>2013-05-24T03:51:17Z</time>
      </trkpt>
      <trkpt lat="-21.20224" lon="55.4835">
        <ele>1311.2</ele>
        <time>2013-05-24T03:51:29Z</time>
      </trkpt>
      <trkpt lat="-21.20218" lon="55.48344">
        <ele>1312.6</ele>
        <time>2013-05-24T03:51:37Z</time>
      </trkpt>
      <trkpt lat="-21.20209" lon="55.48342">
        <ele>1314.6</ele>
        <time>2013-05-24T03:51:48Z</time>
      </trkpt>
      <trkpt lat="-21.20201" lon="55.48342">
        <ele>1316.6</ele>
        <time>2013-05-24T03:52:00Z</time>
      </trkpt>
      <trkpt lat="-21.20194" lon="55.48344">
        <ele>1317.8</ele>
        <time>2013-05-24T03:52:07Z</time>
      </trkpt>
      <trkpt lat="-21.20186" lon="55.48347">
        <ele>1319.5</ele>
        <time>2013-05-24T03:52:15Z</time>
      </trkpt>
      <trkpt lat="-21.20179" lon="55.48341">
        <ele>1322.7</ele>
        <time>2013-05-24T03:52:27Z</time>
      </trkpt>
      <trkpt lat="-21.2017" lon="55.48342">
        <ele>1325.7</ele>
        <time>2013-05-24T03:52:40Z</time>
      </trkpt>
      <trkpt lat="-21.20163" lon="55.48346">
        <ele>1326.9</ele>
        <time>2013-05-24T03:52:50Z</time>
      </trkpt>
      <trkpt lat="-21.20154" lon="55.48343">
        <ele>1329.7</ele>
        <time>2013-05-24T03:53:01Z</time>
      </trkpt>
      <trkpt lat="-21.20147" lon="55.48337">
        <ele>1332.7</ele>
        <time>2013-05-24T03:53:13Z</time>
      </trkpt>
      <trkpt lat="-21.20141" lon="55.48332">
        <ele>1334.5</ele>
        <time>2013-05-24T03:53:24Z</time>
      </trkpt>
      <trkpt lat="-21.20136" lon="55.48325">
        <ele>1337.2</ele>
        <time>2013-05-24T03:53:34Z</time>
      </trkpt>
      <trkpt lat="-21.20128" lon="55.4832">
        <ele>1339</ele>
        <time>2013-05-24T03:53:44Z</time>
      </trkpt>
      <trkpt lat="-21.20122" lon="55.48314">
        <ele>1341.2</ele>
        <time>2013-05-24T03:53:56Z</time>
      </trkpt>
      <trkpt lat="-21.20115" lon="55.4831">
        <ele>1341.9</ele>
        <time>2013-05-24T03:54:05Z</time>
      </trkpt>
      <trkpt lat="-21.2011" lon="55.48303">
        <ele>1343.3</ele>
        <time>2013-05-24T03:54:15Z</time>
      </trkpt>
      <trkpt lat="-21.20102" lon="55.48299">
        <ele>1344.3</ele>
        <time>2013-05-24T03:54:25Z</time>
      </trkpt>
      <trkpt lat="-21.20096" lon="55.48292">
        <ele>1347.4</ele>
        <time>2013-05-24T03:54:39Z</time>
      </trkpt>
      <trkpt lat="-21.20088" lon="55.48291">
        <ele>1348.6</ele>
        <time>2013-05-24T03:54:50Z</time>
      </trkpt>
      <trkpt lat="-21.2008" lon="55.48287">
        <ele>1352</ele>
        <time>2013-05-24T03:55:04Z</time>
      </trkpt>
      <trkpt lat="-21.20072" lon="55.48285">
        <ele>1353.7</ele>
        <time>2013-05-24T03:55:15Z</time>
      </trkpt>
      <trkpt lat="-21.20064" lon="55.48282">
        <ele>1355.8</ele>
        <time>2013-05-24T03:55:24Z</time>
      </trkpt>
      <trkpt lat="-21.20058" lon="55.48289">
        <ele>1357.5</ele>
        <time>2013-05-24T03:55:32Z</time>
      </trkpt>
      <trkpt lat="-21.20049" lon="55.48288">
        <ele>1359.9</ele>
        <time>2013-05-24T03:55:44Z</time>
      </trkpt>
      <trkpt lat="-21.2004" lon="55.4829">
        <ele>1361</ele>
        <time>2013-05-24T03:55:54Z</time>
      </trkpt>
      <trkpt lat="-21.20031" lon="55.4829">
        <ele>1364</ele>
        <time>2013-05-24T03:56:06Z</time>
      </trkpt>
      <trkpt lat="-21.2002" lon="55.48289">
        <ele>1366</ele>
        <time>2013-05-24T03:56:18Z</time>
      </trkpt>
      <trkpt lat="-21.20008" lon="55.48291">
        <ele>1368</ele>
        <time>2013-05-24T03:56:31Z</time>
      </trkpt>
      <trkpt lat="-21.20001" lon="55.483">
        <ele>1370.7</ele>
        <time>2013-05-24T03:56:41Z</time>
      </trkpt>
      <trkpt lat="-21.19992" lon="55.48291">
        <ele>1374</ele>
        <time>2013-05-24T03:56:56Z</time>
      </trkpt>
      <trkpt lat="-21.19993" lon="55.48285">
        <ele>1374.4</ele>
        <time>2013-05-24T03:56:58Z</time>
      </trkpt>
      <trkpt lat="-21.19996" lon="55.48277">
        <ele>1374.9</ele>
        <time>2013-05-24T03:57:00Z</time>
      </trkpt>
      <trkpt lat="-21.19999" lon="55.4827">
        <ele>1375.3</ele>
        <time>2013-05-24T03:57:03Z</time>
      </trkpt>
      <trkpt lat="-21.20006" lon="55.48267">
        <ele>1376.6</ele>
        <time>2013-05-24T03:57:21Z</time>
      </trkpt>
      <trkpt lat="-21.20014" lon="55.48265">
        <ele>1378.3</ele>
        <time>2013-05-24T03:57:29Z</time>
      </trkpt>
      <trkpt lat="-21.20021" lon="55.48269">
        <ele>1379.8</ele>
        <time>2013-05-24T03:57:39Z</time>
      </trkpt>
      <trkpt lat="-21.20024" lon="55.48277">
        <ele>1382.4</ele>
        <time>2013-05-24T03:57:49Z</time>
      </trkpt>
      <trkpt lat="-21.2003" lon="55.48283">
        <ele>1382.7</ele>
        <time>2013-05-24T03:57:54Z</time>
      </trkpt>
      <trkpt lat="-21.20034" lon="55.4829">
        <ele>1383.6</ele>
        <time>2013-05-24T03:57:59Z</time>
      </trkpt>
      <trkpt lat="-21.20038" lon="55.48297">
        <ele>1384.7</ele>
        <time>2013-05-24T03:58:05Z</time>
      </trkpt>
      <trkpt lat="-21.20042" lon="55.48306">
        <ele>1386.6</ele>
        <time>2013-05-24T03:58:13Z</time>
      </trkpt>
      <trkpt lat="-21.2005" lon="55.4831">
        <ele>1388.5</ele>
        <time>2013-05-24T03:58:23Z</time>
      </trkpt>
      <trkpt lat="-21.20057" lon="55.48314">
        <ele>1389.3</ele>
        <time>2013-05-24T03:58:32Z</time>
      </trkpt>
      <trkpt lat="-21.20065" lon="55.48313">
        <ele>1390.4</ele>
        <time>2013-05-24T03:58:39Z</time>
      </trkpt>
      <trkpt lat="-21.20073" lon="55.48314">
        <ele>1392</ele>
        <time>2013-05-24T03:58:47Z</time>
      </trkpt>
      <trkpt lat="-21.20081" lon="55.48317">
        <ele>1393.8</ele>
        <time>2013-05-24T03:58:55Z</time>
      </trkpt>
      <trkpt lat="-21.20085" lon="55.48325">
        <ele>1394.5</ele>
        <time>2013-05-24T03:59:02Z</time>
      </trkpt>
      <trkpt lat="-21.20086" lon="55.48333">
        <ele>1396.3</ele>
        <time>2013-05-24T03:59:07Z</time>
      </trkpt>
      <trkpt lat="-21.20079" lon="55.48338">
        <ele>1401.1</ele>
        <time>2013-05-24T03:59:31Z</time>
      </trkpt>
      <trkpt lat="-21.2007" lon="55.48338">
        <ele>1401.8</ele>
        <time>2013-05-24T03:59:41Z</time>
      </trkpt>
      <trkpt lat="-21.20062" lon="55.48336">
        <ele>1405</ele>
        <time>2013-05-24T03:59:55Z</time>
      </trkpt>
      <trkpt lat="-21.20054" lon="55.48338">
        <ele>1406.7</ele>
        <time>2013-05-24T04:00:03Z</time>
      </trkpt>
      <trkpt lat="-21.20046" lon="55.48335">
        <ele>1409.2</ele>
        <time>2013-05-24T04:00:15Z</time>
      </trkpt>
      <trkpt lat="-21.20038" lon="55.48334">
        <ele>1410.5</ele>
        <time>2013-05-24T04:00:27Z</time>
      </trkpt>
      <trkpt lat="-21.20029" lon="55.48332">
        <ele>1411.8</ele>
        <time>2013-05-24T04:00:37Z</time>
      </trkpt>
      <trkpt lat="-21.2002" lon="55.48331">
        <ele>1415.5</ele>
        <time>2013-05-24T04:00:53Z</time>
      </trkpt>
      <trkpt lat="-21.20019" lon="55.4834">
        <ele>1419.4</ele>
        <time>2013-05-24T04:01:11Z</time>
      </trkpt>
      <trkpt lat="-21.20026" lon="55.48343">
        <ele>1420.9</ele>
        <time>2013-05-24T04:01:23Z</time>
      </trkpt>
      <trkpt lat="-21.2003" lon="55.48351">
        <ele>1423.3</ele>
        <time>2013-05-24T04:01:34Z</time>
      </trkpt>
      <trkpt lat="-21.20023" lon="55.48356">
        <ele>1426.1</ele>
        <time>2013-05-24T04:01:47Z</time>
      </trkpt>
      <trkpt lat="-21.20015" lon="55.48354">
        <ele>1427.4</ele>
        <time>2013-05-24T04:01:58Z</time>
      </trkpt>
      <trkpt lat="-21.20007" lon="55.48352">
        <ele>1430.3</ele>
        <time>2013-05-24T04:02:10Z</time>
      </trkpt>
      <trkpt lat="-21.19998" lon="55.48351">
        <ele>1432.5</ele>
        <time>2013-05-24T04:02:20Z</time>
      </trkpt>
      <trkpt lat="-21.19991" lon="55.48353">
        <ele>1434.3</ele>
        <time>2013-05-24T04:02:29Z</time>
      </trkpt>
      <trkpt lat="-21.19983" lon="55.48356">
        <ele>1435.8</ele>
        <time>2013-05-24T04:02:37Z</time>
      </trkpt>
      <trkpt lat="-21.19976" lon="55.48361">
        <ele>1438.3</ele>
        <time>2013-05-24T04:02:49Z</time>
      </trkpt>
      <trkpt lat="-21.1997" lon="55.48367">
        <ele>1440.8</ele>
        <time>2013-05-24T04:03:02Z</time>
      </trkpt>
      <trkpt lat="-21.19962" lon="55.48367">
        <ele>1442</ele>
        <time>2013-05-24T04:03:08Z</time>
      </trkpt>
      <trkpt lat="-21.19952" lon="55.48369">
        <ele>1442</ele>
        <time>2013-05-24T04:03:17Z</time>
      </trkpt>
      <trkpt lat="-21.19947" lon="55.48378">
        <ele>1445</ele>
        <time>2013-05-24T04:03:29Z</time>
      </trkpt>
      <trkpt lat="-21.19942" lon="55.48385">
        <ele>1448.5</ele>
        <time>2013-05-24T04:03:41Z</time>
      </trkpt>
      <trkpt lat="-21.19937" lon="55.48392">
        <ele>1450.1</ele>
        <time>2013-05-24T04:03:53Z</time>
      </trkpt>
      <trkpt lat="-21.19934" lon="55.484">
        <ele>1451.9</ele>
        <time>2013-05-24T04:04:04Z</time>
      </trkpt>
      <trkpt lat="-21.19931" lon="55.48409">
        <ele>1454.1</ele>
        <time>2013-05-24T04:04:13Z</time>
      </trkpt>
      <trkpt lat="-21.19927" lon="55.48417">
        <ele>1455.2</ele>
        <time>2013-05-24T04:04:20Z</time>
      </trkpt>
      <trkpt lat="-21.19924" lon="55.48426">
        <ele>1457.5</ele>
        <time>2013-05-24T04:04:34Z</time>
      </trkpt>
      <trkpt lat="-21.19916" lon="55.48429">
        <ele>1458.9</ele>
        <time>2013-05-24T04:04:46Z</time>
      </trkpt>
      <trkpt lat="-21.19915" lon="55.48438">
        <ele>1460.5</ele>
        <time>2013-05-24T04:04:55Z</time>
      </trkpt>
      <trkpt lat="-21.19909" lon="55.48445">
        <ele>1462.9</ele>
        <time>2013-05-24T04:05:04Z</time>
      </trkpt>
      <trkpt lat="-21.19902" lon="55.48448">
        <ele>1464.6</ele>
        <time>2013-05-24T04:05:13Z</time>
      </trkpt>
      <trkpt lat="-21.19894" lon="55.48453">
        <ele>1465.7</ele>
        <time>2013-05-24T04:05:23Z</time>
      </trkpt>
      <trkpt lat="-21.19889" lon="55.4846">
        <ele>1469.2</ele>
        <time>2013-05-24T04:05:41Z</time>
      </trkpt>
      <trkpt lat="-21.19883" lon="55.48467">
        <ele>1471.1</ele>
        <time>2013-05-24T04:05:50Z</time>
      </trkpt>
      <trkpt lat="-21.19878" lon="55.48474">
        <ele>1472.2</ele>
        <time>2013-05-24T04:06:00Z</time>
      </trkpt>
      <trkpt lat="-21.1987" lon="55.48477">
        <ele>1474.5</ele>
        <time>2013-05-24T04:06:10Z</time>
      </trkpt>
      <trkpt lat="-21.19862" lon="55.48477">
        <ele>1475.5</ele>
        <time>2013-05-24T04:06:17Z</time>
      </trkpt>
      <trkpt lat="-21.19854" lon="55.48475">
        <ele>1477.8</ele>
        <time>2013-05-24T04:06:25Z</time>
      </trkpt>
      <trkpt lat="-21.19845" lon="55.48476">
        <ele>1479</ele>
        <time>2013-05-24T04:06:34Z</time>
      </trkpt>
      <trkpt lat="-21.19846" lon="55.48465">
        <ele>1480.3</ele>
        <time>2013-05-24T04:06:50Z</time>
      </trkpt>
      <trkpt lat="-21.19838" lon="55.48461">
        <ele>1481</ele>
        <time>2013-05-24T04:07:15Z</time>
      </trkpt>
      <trkpt lat="-21.19839" lon="55.4847">
        <ele>1485.5</ele>
        <time>2013-05-24T04:07:38Z</time>
      </trkpt>
      <trkpt lat="-21.19831" lon="55.48467">
        <ele>1487.6</ele>
        <time>2013-05-24T04:07:49Z</time>
      </trkpt>
      <trkpt lat="-21.19822" lon="55.48468">
        <ele>1491.1</ele>
        <time>2013-05-24T04:08:01Z</time>
      </trkpt>
      <trkpt lat="-21.19815" lon="55.48466">
        <ele>1491.3</ele>
        <time>2013-05-24T04:08:06Z</time>
      </trkpt>
      <trkpt lat="-21.19807" lon="55.48466">
        <ele>1491.4</ele>
        <time>2013-05-24T04:08:13Z</time>
      </trkpt>
      <trkpt lat="-21.19798" lon="55.48471">
        <ele>1495</ele>
        <time>2013-05-24T04:08:22Z</time>
      </trkpt>
      <trkpt lat="-21.19791" lon="55.4847">
        <ele>1495.1</ele>
        <time>2013-05-24T04:08:28Z</time>
      </trkpt>
      <trkpt lat="-21.1978" lon="55.48464">
        <ele>1496</ele>
        <time>2013-05-24T04:08:37Z</time>
      </trkpt>
      <trkpt lat="-21.19769" lon="55.48461">
        <ele>1499.1</ele>
        <time>2013-05-24T04:08:47Z</time>
      </trkpt>
      <trkpt lat="-21.19762" lon="55.48458">
        <ele>1499.4</ele>
        <time>2013-05-24T04:08:50Z</time>
      </trkpt>
      <trkpt lat="-21.19756" lon="55.48453">
        <ele>1499.7</ele>
        <time>2013-05-24T04:08:53Z</time>
      </trkpt>
      <trkpt lat="-21.19749" lon="55.48448">
        <ele>1500.9</ele>
        <time>2013-05-24T04:08:59Z</time>
      </trkpt>
      <trkpt lat="-21.19741" lon="55.48446">
        <ele>1506.2</ele>
        <time>2013-05-24T04:09:21Z</time>
      </trkpt>
      <trkpt lat="-21.19734" lon="55.48443">
        <ele>1507.1</ele>
        <time>2013-05-24T04:09:25Z</time>
      </trkpt>
      <trkpt lat="-21.19727" lon="55.4844">
        <ele>1507.5</ele>
        <time>2013-05-24T04:09:31Z</time>
      </trkpt>
      <trkpt lat="-21.19718" lon="55.4844">
        <ele>1512.3</ele>
        <time>2013-05-24T04:09:51Z</time>
      </trkpt>
      <trkpt lat="-21.19711" lon="55.48446">
        <ele>1514.4</ele>
        <time>2013-05-24T04:10:06Z</time>
      </trkpt>
      <trkpt lat="-21.19716" lon="55.48454">
        <ele>1517.2</ele>
        <time>2013-05-24T04:10:19Z</time>
      </trkpt>
      <trkpt lat="-21.19721" lon="55.4846">
        <ele>1519.6</ele>
        <time>2013-05-24T04:10:33Z</time>
      </trkpt>
      <trkpt lat="-21.19729" lon="55.4846">
        <ele>1520.3</ele>
        <time>2013-05-24T04:10:40Z</time>
      </trkpt>
      <trkpt lat="-21.19737" lon="55.48457">
        <ele>1523.3</ele>
        <time>2013-05-24T04:10:51Z</time>
      </trkpt>
      <trkpt lat="-21.19746" lon="55.48456">
        <ele>1526.6</ele>
        <time>2013-05-24T04:11:03Z</time>
      </trkpt>
      <trkpt lat="-21.19754" lon="55.48454">
        <ele>1528</ele>
        <time>2013-05-24T04:11:15Z</time>
      </trkpt>
      <trkpt lat="-21.19759" lon="55.48447">
        <ele>1529.6</ele>
        <time>2013-05-24T04:11:24Z</time>
      </trkpt>
      <trkpt lat="-21.19767" lon="55.48443">
        <ele>1530.2</ele>
        <time>2013-05-24T04:11:32Z</time>
      </trkpt>
      <trkpt lat="-21.19768" lon="55.48434">
        <ele>1532.2</ele>
        <time>2013-05-24T04:11:50Z</time>
      </trkpt>
      <trkpt lat="-21.19776" lon="55.48433">
        <ele>1534.3</ele>
        <time>2013-05-24T04:12:10Z</time>
      </trkpt>
      <trkpt lat="-21.19784" lon="55.48429">
        <ele>1536.3</ele>
        <time>2013-05-24T04:12:19Z</time>
      </trkpt>
      <trkpt lat="-21.19792" lon="55.48426">
        <ele>1537.3</ele>
        <time>2013-05-24T04:12:26Z</time>
      </trkpt>
      <trkpt lat="-21.19793" lon="55.48417">
        <ele>1538.1</ele>
        <time>2013-05-24T04:12:34Z</time>
      </trkpt>
      <trkpt lat="-21.19788" lon="55.48411">
        <ele>1539.6</ele>
        <time>2013-05-24T04:12:40Z</time>
      </trkpt>
      <trkpt lat="-21.19781" lon="55.48405">
        <ele>1540.9</ele>
        <time>2013-05-24T04:12:46Z</time>
      </trkpt>
      <trkpt lat="-21.19773" lon="55.48402">
        <ele>1542.1</ele>
        <time>2013-05-24T04:12:53Z</time>
      </trkpt>
      <trkpt lat="-21.19768" lon="55.48395">
        <ele>1544</ele>
        <time>2013-05-24T04:13:01Z</time>
      </trkpt>
      <trkpt lat="-21.19761" lon="55.4839">
        <ele>1544.8</ele>
        <time>2013-05-24T04:13:11Z</time>
      </trkpt>
      <trkpt lat="-21.19752" lon="55.48387">
        <ele>1546</ele>
        <time>2013-05-24T04:13:19Z</time>
      </trkpt>
      <trkpt lat="-21.19745" lon="55.48385">
        <ele>1548.2</ele>
        <time>2013-05-24T04:13:27Z</time>
      </trkpt>
      <trkpt lat="-21.19736" lon="55.48385">
        <ele>1549</ele>
        <time>2013-05-24T04:13:38Z</time>
      </trkpt>
      <trkpt lat="-21.19728" lon="55.48383">
        <ele>1551.1</ele>
        <time>2013-05-24T04:13:47Z</time>
      </trkpt>
      <trkpt lat="-21.19719" lon="55.48384">
        <ele>1553.1</ele>
        <time>2013-05-24T04:13:56Z</time>
      </trkpt>
      <trkpt lat="-21.19711" lon="55.48383">
        <ele>1554.8</ele>
        <time>2013-05-24T04:14:05Z</time>
      </trkpt>
      <trkpt lat="-21.19702" lon="55.48382">
        <ele>1556.8</ele>
        <time>2013-05-24T04:14:14Z</time>
      </trkpt>
      <trkpt lat="-21.19695" lon="55.48385">
        <ele>1558.1</ele>
        <time>2013-05-24T04:14:25Z</time>
      </trkpt>
      <trkpt lat="-21.19686" lon="55.48383">
        <ele>1560.1</ele>
        <time>2013-05-24T04:14:34Z</time>
      </trkpt>
      <trkpt lat="-21.19678" lon="55.48383">
        <ele>1561.6</ele>
        <time>2013-05-24T04:14:48Z</time>
      </trkpt>
      <trkpt lat="-21.1967" lon="55.4838">
        <ele>1562.7</ele>
        <time>2013-05-24T04:14:58Z</time>
      </trkpt>
      <trkpt lat="-21.19662" lon="55.48378">
        <ele>1564.1</ele>
        <time>2013-05-24T04:15:06Z</time>
      </trkpt>
      <trkpt lat="-21.19654" lon="55.48377">
        <ele>1564.8</ele>
        <time>2013-05-24T04:15:14Z</time>
      </trkpt>
      <trkpt lat="-21.19646" lon="55.48374">
        <ele>1569.5</ele>
        <time>2013-05-24T04:15:35Z</time>
      </trkpt>
      <trkpt lat="-21.19638" lon="55.48371">
        <ele>1574.9</ele>
        <time>2013-05-24T04:15:56Z</time>
      </trkpt>
      <trkpt lat="-21.1963" lon="55.48374">
        <ele>1578</ele>
        <time>2013-05-24T04:16:10Z</time>
      </trkpt>
      <trkpt lat="-21.19622" lon="55.48379">
        <ele>1579.6</ele>
        <time>2013-05-24T04:16:19Z</time>
      </trkpt>
      <trkpt lat="-21.19615" lon="55.48383">
        <ele>1581.2</ele>
        <time>2013-05-24T04:16:32Z</time>
      </trkpt>
      <trkpt lat="-21.19606" lon="55.4838">
        <ele>1584.9</ele>
        <time>2013-05-24T04:16:47Z</time>
      </trkpt>
      <trkpt lat="-21.19601" lon="55.48372">
        <ele>1587.7</ele>
        <time>2013-05-24T04:17:00Z</time>
      </trkpt>
      <trkpt lat="-21.19596" lon="55.48366">
        <ele>1589.6</ele>
        <time>2013-05-24T04:17:11Z</time>
      </trkpt>
      <trkpt lat="-21.19587" lon="55.48364">
        <ele>1591.4</ele>
        <time>2013-05-24T04:17:25Z</time>
      </trkpt>
      <trkpt lat="-21.19579" lon="55.48362">
        <ele>1593.6</ele>
        <time>2013-05-24T04:17:36Z</time>
      </trkpt>
      <trkpt lat="-21.1957" lon="55.4836">
        <ele>1598.9</ele>
        <time>2013-05-24T04:17:57Z</time>
      </trkpt>
      <trkpt lat="-21.19563" lon="55.48356">
        <ele>1601</ele>
        <time>2013-05-24T04:18:08Z</time>
      </trkpt>
      <trkpt lat="-21.19555" lon="55.48353">
        <ele>1601.7</ele>
        <time>2013-05-24T04:18:18Z</time>
      </trkpt>
      <trkpt lat="-21.19546" lon="55.48353">
        <ele>1605.8</ele>
        <time>2013-05-24T04:18:39Z</time>
      </trkpt>
      <trkpt lat="-21.19538" lon="55.48351">
        <ele>1610.1</ele>
        <time>2013-05-24T04:18:54Z</time>
      </trkpt>
      <trkpt lat="-21.1953" lon="55.48349">
        <ele>1612.8</ele>
        <time>2013-05-24T04:19:06Z</time>
      </trkpt>
      <trkpt lat="-21.19524" lon="55.48341">
        <ele>1618.5</ele>
        <time>2013-05-24T04:19:40Z</time>
      </trkpt>
      <trkpt lat="-21.19516" lon="55.48336">
        <ele>1621.6</ele>
        <time>2013-05-24T04:19:53Z</time>
      </trkpt>
      <trkpt lat="-21.19509" lon="55.48331">
        <ele>1624</ele>
        <time>2013-05-24T04:20:07Z</time>
      </trkpt>
      <trkpt lat="-21.195" lon="55.48331">
        <ele>1626.1</ele>
        <time>2013-05-24T04:20:22Z</time>
      </trkpt>
      <trkpt lat="-21.19495" lon="55.48323">
        <ele>1631.1</ele>
        <time>2013-05-24T04:20:48Z</time>
      </trkpt>
      <trkpt lat="-21.19487" lon="55.48322">
        <ele>1634.3</ele>
        <time>2013-05-24T04:21:02Z</time>
      </trkpt>
      <trkpt lat="-21.19478" lon="55.48321">
        <ele>1635.6</ele>
        <time>2013-05-24T04:21:15Z</time>
      </trkpt>
      <trkpt lat="-21.19469" lon="55.4832">
        <ele>1638.3</ele>
        <time>2013-05-24T04:21:28Z</time>
      </trkpt>
      <trkpt lat="-21.19461" lon="55.48321">
        <ele>1642.1</ele>
        <time>2013-05-24T04:21:43Z</time>
      </trkpt>
      <trkpt lat="-21.19452" lon="55.48318">
        <ele>1644.7</ele>
        <time>2013-05-24T04:22:00Z</time>
      </trkpt>
      <trkpt lat="-21.19443" lon="55.48319">
        <ele>1646.9</ele>
        <time>2013-05-24T04:22:12Z</time>
      </trkpt>
      <trkpt lat="-21.19435" lon="55.48319">
        <ele>1649</ele>
        <time>2013-05-24T04:22:28Z</time>
      </trkpt>
      <trkpt lat="-21.19426" lon="55.48318">
        <ele>1652.7</ele>
        <time>2013-05-24T04:22:50Z</time>
      </trkpt>
      <trkpt lat="-21.19418" lon="55.48321">
        <ele>1657.1</ele>
        <time>2013-05-24T04:23:11Z</time>
      </trkpt>
      <trkpt lat="-21.19409" lon="55.48321">
        <ele>1658.9</ele>
        <time>2013-05-24T04:23:45Z</time>
      </trkpt>
      <trkpt lat="-21.19401" lon="55.48322">
        <ele>1661.9</ele>
        <time>2013-05-24T04:23:59Z</time>
      </trkpt>
      <trkpt lat="-21.19392" lon="55.48322">
        <ele>1665.8</ele>
        <time>2013-05-24T04:24:23Z</time>
      </trkpt>
      <trkpt lat="-21.19384" lon="55.48321">
        <ele>1667.7</ele>
        <time>2013-05-24T04:24:37Z</time>
      </trkpt>
      <trkpt lat="-21.19375" lon="55.48321">
        <ele>1669.9</ele>
        <time>2013-05-24T04:24:53Z</time>
      </trkpt>
      <trkpt lat="-21.19367" lon="55.48323">
        <ele>1672.1</ele>
        <time>2013-05-24T04:25:05Z</time>
      </trkpt>
      <trkpt lat="-21.19359" lon="55.48324">
        <ele>1674.2</ele>
        <time>2013-05-24T04:25:16Z</time>
      </trkpt>
      <trkpt lat="-21.1935" lon="55.48325">
        <ele>1676</ele>
        <time>2013-05-24T04:25:31Z</time>
      </trkpt>
      <trkpt lat="-21.19342" lon="55.48323">
        <ele>1680.8</ele>
        <time>2013-05-24T04:25:50Z</time>
      </trkpt>
      <trkpt lat="-21.19333" lon="55.48324">
        <ele>1683.4</ele>
        <time>2013-05-24T04:26:06Z</time>
      </trkpt>
      <trkpt lat="-21.19325" lon="55.48323">
        <ele>1686.3</ele>
        <time>2013-05-24T04:26:29Z</time>
      </trkpt>
      <trkpt lat="-21.19316" lon="55.48321">
        <ele>1691.5</ele>
        <time>2013-05-24T04:27:15Z</time>
      </trkpt>
      <trkpt lat="-21.19309" lon="55.48316">
        <ele>1692.6</ele>
        <time>2013-05-24T04:27:33Z</time>
      </trkpt>
      <trkpt lat="-21.19303" lon="55.48309">
        <ele>1695.5</ele>
        <time>2013-05-24T04:28:09Z</time>
      </trkpt>
      <trkpt lat="-21.19294" lon="55.48309">
        <ele>1697.4</ele>
        <time>2013-05-24T04:28:22Z</time>
      </trkpt>
      <trkpt lat="-21.19285" lon="55.48308">
        <ele>1700</ele>
        <time>2013-05-24T04:28:38Z</time>
      </trkpt>
      <trkpt lat="-21.19277" lon="55.48312">
        <ele>1701.8</ele>
        <time>2013-05-24T04:28:48Z</time>
      </trkpt>
      <trkpt lat="-21.19269" lon="55.48313">
        <ele>1704.5</ele>
        <time>2013-05-24T04:28:59Z</time>
      </trkpt>
      <trkpt lat="-21.1926" lon="55.48315">
        <ele>1706.8</ele>
        <time>2013-05-24T04:29:11Z</time>
      </trkpt>
      <trkpt lat="-21.19252" lon="55.48315">
        <ele>1708.2</ele>
        <time>2013-05-24T04:29:23Z</time>
      </trkpt>
      <trkpt lat="-21.19243" lon="55.48314">
        <ele>1711.6</ele>
        <time>2013-05-24T04:29:38Z</time>
      </trkpt>
      <trkpt lat="-21.19234" lon="55.48313">
        <ele>1713.2</ele>
        <time>2013-05-24T04:29:53Z</time>
      </trkpt>
      <trkpt lat="-21.19226" lon="55.48312">
        <ele>1717.1</ele>
        <time>2013-05-24T04:30:13Z</time>
      </trkpt>
      <trkpt lat="-21.19217" lon="55.48311">
        <ele>1719.7</ele>
        <time>2013-05-24T04:30:25Z</time>
      </trkpt>
      <trkpt lat="-21.1921" lon="55.48309">
        <ele>1719.8</ele>
        <time>2013-05-24T04:30:33Z</time>
      </trkpt>
      <trkpt lat="-21.19201" lon="55.48307">
        <ele>1720.3</ele>
        <time>2013-05-24T04:30:39Z</time>
      </trkpt>
      <trkpt lat="-21.19193" lon="55.48306">
        <ele>1720.2</ele>
        <time>2013-05-24T04:30:46Z</time>
      </trkpt>
      <trkpt lat="-21.19185" lon="55.48303">
        <ele>1723.2</ele>
        <time>2013-05-24T04:30:57Z</time>
      </trkpt>
      <trkpt lat="-21.19178" lon="55.48299">
        <ele>1724</ele>
        <time>2013-05-24T04:31:04Z</time>
      </trkpt>
      <trkpt lat="-21.1917" lon="55.48295">
        <ele>1725.2</ele>
        <time>2013-05-24T04:31:11Z</time>
      </trkpt>
      <trkpt lat="-21.19163" lon="55.4829">
        <ele>1724.9</ele>
        <time>2013-05-24T04:31:19Z</time>
      </trkpt>
      <trkpt lat="-21.19158" lon="55.48282">
        <ele>1726.6</ele>
        <time>2013-05-24T04:31:28Z</time>
      </trkpt>
      <trkpt lat="-21.19153" lon="55.48274">
        <ele>1728.3</ele>
        <time>2013-05-24T04:31:38Z</time>
      </trkpt>
      <trkpt lat="-21.1915" lon="55.48266">
        <ele>1731</ele>
        <time>2013-05-24T04:31:48Z</time>
      </trkpt>
      <trkpt lat="-21.19146" lon="55.48258">
        <ele>1733.4</ele>
        <time>2013-05-24T04:31:58Z</time>
      </trkpt>
      <trkpt lat="-21.19139" lon="55.48252">
        <ele>1734.5</ele>
        <time>2013-05-24T04:32:07Z</time>
      </trkpt>
      <trkpt lat="-21.19134" lon="55.48245">
        <ele>1736.5</ele>
        <time>2013-05-24T04:32:16Z</time>
      </trkpt>
      <trkpt lat="-21.19129" lon="55.48238">
        <ele>1735.4</ele>
        <time>2013-05-24T04:32:24Z</time>
      </trkpt>
      <trkpt lat="-21.19123" lon="55.48231">
        <ele>1737.7</ele>
        <time>2013-05-24T04:32:35Z</time>
      </trkpt>
      <trkpt lat="-21.19116" lon="55.48229">
        <ele>1739.4</ele>
        <time>2013-05-24T04:32:43Z</time>
      </trkpt>
      <trkpt lat="-21.19108" lon="55.48225">
        <ele>1740.5</ele>
        <time>2013-05-24T04:32:50Z</time>
      </trkpt>
      <trkpt lat="-21.191" lon="55.48221">
        <ele>1742.3</ele>
        <time>2013-05-24T04:32:59Z</time>
      </trkpt>
      <trkpt lat="-21.19095" lon="55.48214">
        <ele>1745.1</ele>
        <time>2013-05-24T04:33:09Z</time>
      </trkpt>
      <trkpt lat="-21.19092" lon="55.48205">
        <ele>1747.3</ele>
        <time>2013-05-24T04:33:17Z</time>
      </trkpt>
      <trkpt lat="-21.19087" lon="55.48198">
        <ele>1748.3</ele>
        <time>2013-05-24T04:33:26Z</time>
      </trkpt>
      <trkpt lat="-21.1908" lon="55.48192">
        <ele>1748.4</ele>
        <time>2013-05-24T04:33:35Z</time>
      </trkpt>
      <trkpt lat="-21.19073" lon="55.48187">
        <ele>1749.4</ele>
        <time>2013-05-24T04:33:43Z</time>
      </trkpt>
      <trkpt lat="-21.19067" lon="55.48181">
        <ele>1749.6</ele>
        <time>2013-05-24T04:33:58Z</time>
      </trkpt>
      <trkpt lat="-21.1906" lon="55.48176">
        <ele>1748.5</ele>
        <time>2013-05-24T04:34:10Z</time>
      </trkpt>
      <trkpt lat="-21.19052" lon="55.48174">
        <ele>1746.4</ele>
        <time>2013-05-24T04:34:17Z</time>
      </trkpt>
      <trkpt lat="-21.19047" lon="55.48166">
        <ele>1746.9</ele>
        <time>2013-05-24T04:34:25Z</time>
      </trkpt>
      <trkpt lat="-21.19043" lon="55.48159">
        <ele>1747.2</ele>
        <time>2013-05-24T04:34:32Z</time>
      </trkpt>
      <trkpt lat="-21.19042" lon="55.4815">
        <ele>1749.4</ele>
        <time>2013-05-24T04:34:44Z</time>
      </trkpt>
      <trkpt lat="-21.1904" lon="55.48141">
        <ele>1753.7</ele>
        <time>2013-05-24T04:35:05Z</time>
      </trkpt>
      <trkpt lat="-21.19036" lon="55.48133">
        <ele>1756.4</ele>
        <time>2013-05-24T04:35:15Z</time>
      </trkpt>
      <trkpt lat="-21.19031" lon="55.48125">
        <ele>1759.2</ele>
        <time>2013-05-24T04:35:25Z</time>
      </trkpt>
      <trkpt lat="-21.19029" lon="55.48117">
        <ele>1761.3</ele>
        <time>2013-05-24T04:35:33Z</time>
      </trkpt>
      <trkpt lat="-21.19028" lon="55.48108">
        <ele>1761.9</ele>
        <time>2013-05-24T04:35:41Z</time>
      </trkpt>
      <trkpt lat="-21.19023" lon="55.48101">
        <ele>1762.5</ele>
        <time>2013-05-24T04:35:48Z</time>
      </trkpt>
      <trkpt lat="-21.19024" lon="55.48092">
        <ele>1763.8</ele>
        <time>2013-05-24T04:36:00Z</time>
      </trkpt>
      <trkpt lat="-21.19026" lon="55.48083">
        <ele>1765.2</ele>
        <time>2013-05-24T04:36:09Z</time>
      </trkpt>
      <trkpt lat="-21.19027" lon="55.48074">
        <ele>1766.8</ele>
        <time>2013-05-24T04:36:17Z</time>
      </trkpt>
      <trkpt lat="-21.19026" lon="55.48065">
        <ele>1768</ele>
        <time>2013-05-24T04:36:25Z</time>
      </trkpt>
      <trkpt lat="-21.19021" lon="55.48058">
        <ele>1770.2</ele>
        <time>2013-05-24T04:36:32Z</time>
      </trkpt>
      <trkpt lat="-21.19017" lon="55.4805">
        <ele>1770.7</ele>
        <time>2013-05-24T04:36:39Z</time>
      </trkpt>
      <trkpt lat="-21.19011" lon="55.48044">
        <ele>1771</ele>
        <time>2013-05-24T04:36:46Z</time>
      </trkpt>
      <trkpt lat="-21.19004" lon="55.48042">
        <ele>1770.1</ele>
        <time>2013-05-24T04:36:53Z</time>
      </trkpt>
      <trkpt lat="-21.18996" lon="55.4804">
        <ele>1769.4</ele>
        <time>2013-05-24T04:37:00Z</time>
      </trkpt>
      <trkpt lat="-21.18989" lon="55.48037">
        <ele>1767.9</ele>
        <time>2013-05-24T04:37:07Z</time>
      </trkpt>
      <trkpt lat="-21.18981" lon="55.48034">
        <ele>1766.3</ele>
        <time>2013-05-24T04:37:14Z</time>
      </trkpt>
      <trkpt lat="-21.18974" lon="55.48029">
        <ele>1767.6</ele>
        <time>2013-05-24T04:37:22Z</time>
      </trkpt>
      <trkpt lat="-21.18965" lon="55.48027">
        <ele>1769.1</ele>
        <time>2013-05-24T04:37:31Z</time>
      </trkpt>
      <trkpt lat="-21.18959" lon="55.4802">
        <ele>1771.4</ele>
        <time>2013-05-24T04:37:41Z</time>
      </trkpt>
      <trkpt lat="-21.18955" lon="55.48013">
        <ele>1772.4</ele>
        <time>2013-05-24T04:37:50Z</time>
      </trkpt>
      <trkpt lat="-21.18947" lon="55.48008">
        <ele>1773.8</ele>
        <time>2013-05-24T04:37:58Z</time>
      </trkpt>
      <trkpt lat="-21.18939" lon="55.48004">
        <ele>1774.4</ele>
        <time>2013-05-24T04:38:05Z</time>
      </trkpt>
      <trkpt lat="-21.18932" lon="55.47999">
        <ele>1774.8</ele>
        <time>2013-05-24T04:38:11Z</time>
      </trkpt>
      <trkpt lat="-21.18925" lon="55.47994">
        <ele>1776</ele>
        <time>2013-05-24T04:38:19Z</time>
      </trkpt>
      <trkpt lat="-21.18918" lon="55.4799">
        <ele>1777.9</ele>
        <time>2013-05-24T04:38:27Z</time>
      </trkpt>
      <trkpt lat="-21.1891" lon="55.47985">
        <ele>1777.1</ele>
        <time>2013-05-24T04:38:33Z</time>
      </trkpt>
      <trkpt lat="-21.18903" lon="55.4798">
        <ele>1777.1</ele>
        <time>2013-05-24T04:38:39Z</time>
      </trkpt>
      <trkpt lat="-21.18895" lon="55.47977">
        <ele>1776.3</ele>
        <time>2013-05-24T04:38:46Z</time>
      </trkpt>
      <trkpt lat="-21.18886" lon="55.47976">
        <ele>1776.6</ele>
        <time>2013-05-24T04:38:53Z</time>
      </trkpt>
      <trkpt lat="-21.18878" lon="55.47981">
        <ele>1779.2</ele>
        <time>2013-05-24T04:39:12Z</time>
      </trkpt>
      <trkpt lat="-21.18877" lon="55.47991">
        <ele>1784.7</ele>
        <time>2013-05-24T04:39:36Z</time>
      </trkpt>
      <trkpt lat="-21.18876" lon="55.48">
        <ele>1787.9</ele>
        <time>2013-05-24T04:39:48Z</time>
      </trkpt>
      <trkpt lat="-21.18871" lon="55.48008">
        <ele>1792.2</ele>
        <time>2013-05-24T04:40:07Z</time>
      </trkpt>
      <trkpt lat="-21.18871" lon="55.48009">
        <ele>1793.7</ele>
        <time>2013-05-24T04:40:21Z</time>
      </trkpt>
      <trkpt lat="-21.18871" lon="55.48009">
        <ele>1793.7</ele>
        <time>2013-05-24T04:40:21Z</time>
      </trkpt>
      <trkpt lat="-21.18871" lon="55.4801">
        <ele>1793.4</ele>
        <time>2013-05-24T04:40:24Z</time>
      </trkpt>
      <trkpt lat="-21.18881" lon="55.48033">
        <ele>1793</ele>
        <time>2013-05-24T04:52:42Z</time>
      </trkpt>
      <trkpt lat="-21.18877" lon="55.48025">
        <ele>1792.2</ele>
        <time>2013-05-24T04:53:03Z</time>
      </trkpt>
      <trkpt lat="-21.18873" lon="55.48016">
        <ele>1792.9</ele>
        <time>2013-05-24T04:53:43Z</time>
      </trkpt>
      <trkpt lat="-21.18867" lon="55.48009">
        <ele>1791.9</ele>
        <time>2013-05-24T04:53:57Z</time>
      </trkpt>
      <trkpt lat="-21.18859" lon="55.48006">
        <ele>1794.1</ele>
        <time>2013-05-24T04:54:07Z</time>
      </trkpt>
      <trkpt lat="-21.18851" lon="55.48007">
        <ele>1795.8</ele>
        <time>2013-05-24T04:54:18Z</time>
      </trkpt>
      <trkpt lat="-21.18843" lon="55.4801">
        <ele>1797.6</ele>
        <time>2013-05-24T04:54:30Z</time>
      </trkpt>
      <trkpt lat="-21.18834" lon="55.48011">
        <ele>1801.2</ele>
        <time>2013-05-24T04:54:42Z</time>
      </trkpt>
      <trkpt lat="-21.18826" lon="55.48009">
        <ele>1802.8</ele>
        <time>2013-05-24T04:54:54Z</time>
      </trkpt>
      <trkpt lat="-21.18817" lon="55.48008">
        <ele>1804.8</ele>
        <time>2013-05-24T04:55:04Z</time>
      </trkpt>
      <trkpt lat="-21.1881" lon="55.48013">
        <ele>1805.7</ele>
        <time>2013-05-24T04:55:11Z</time>
      </trkpt>
      <trkpt lat="-21.18806" lon="55.4802">
        <ele>1805.8</ele>
        <time>2013-05-24T04:55:19Z</time>
      </trkpt>
      <trkpt lat="-21.18802" lon="55.48028">
        <ele>1804.3</ele>
        <time>2013-05-24T04:55:28Z</time>
      </trkpt>
      <trkpt lat="-21.18798" lon="55.48037">
        <ele>1804.4</ele>
        <time>2013-05-24T04:56:02Z</time>
      </trkpt>
      <trkpt lat="-21.18793" lon="55.48045">
        <ele>1802.7</ele>
        <time>2013-05-24T04:56:13Z</time>
      </trkpt>
      <trkpt lat="-21.18788" lon="55.48052">
        <ele>1801</ele>
        <time>2013-05-24T04:56:23Z</time>
      </trkpt>
      <trkpt lat="-21.18783" lon="55.48059">
        <ele>1800.1</ele>
        <time>2013-05-24T04:56:31Z</time>
      </trkpt>
      <trkpt lat="-21.18777" lon="55.48066">
        <ele>1797.8</ele>
        <time>2013-05-24T04:56:38Z</time>
      </trkpt>
      <trkpt lat="-21.18773" lon="55.48074">
        <ele>1796.9</ele>
        <time>2013-05-24T04:56:45Z</time>
      </trkpt>
      <trkpt lat="-21.1877" lon="55.48082">
        <ele>1796.5</ele>
        <time>2013-05-24T04:56:52Z</time>
      </trkpt>
      <trkpt lat="-21.18769" lon="55.48091">
        <ele>1796.3</ele>
        <time>2013-05-24T04:57:00Z</time>
      </trkpt>
      <trkpt lat="-21.18771" lon="55.48099">
        <ele>1794</ele>
        <time>2013-05-24T04:57:08Z</time>
      </trkpt>
      <trkpt lat="-21.18775" lon="55.48108">
        <ele>1790.8</ele>
        <time>2013-05-24T04:57:25Z</time>
      </trkpt>
      <trkpt lat="-21.18775" lon="55.48117">
        <ele>1791.7</ele>
        <time>2013-05-24T04:57:34Z</time>
      </trkpt>
      <trkpt lat="-21.18773" lon="55.48125">
        <ele>1790.7</ele>
        <time>2013-05-24T04:57:40Z</time>
      </trkpt>
      <trkpt lat="-21.18769" lon="55.48133">
        <ele>1790.4</ele>
        <time>2013-05-24T04:57:47Z</time>
      </trkpt>
      <trkpt lat="-21.18766" lon="55.48142">
        <ele>1788</ele>
        <time>2013-05-24T04:58:00Z</time>
      </trkpt>
      <trkpt lat="-21.18765" lon="55.48151">
        <ele>1788.7</ele>
        <time>2013-05-24T04:58:08Z</time>
      </trkpt>
      <trkpt lat="-21.18762" lon="55.48159">
        <ele>1789.6</ele>
        <time>2013-05-24T04:58:14Z</time>
      </trkpt>
      <trkpt lat="-21.18759" lon="55.48168">
        <ele>1790.1</ele>
        <time>2013-05-24T04:58:20Z</time>
      </trkpt>
      <trkpt lat="-21.18756" lon="55.48176">
        <ele>1790.9</ele>
        <time>2013-05-24T04:58:26Z</time>
      </trkpt>
      <trkpt lat="-21.18752" lon="55.48184">
        <ele>1789.7</ele>
        <time>2013-05-24T04:58:32Z</time>
      </trkpt>
      <trkpt lat="-21.18748" lon="55.48191">
        <ele>1788.6</ele>
        <time>2013-05-24T04:58:37Z</time>
      </trkpt>
      <trkpt lat="-21.18745" lon="55.48199">
        <ele>1788.5</ele>
        <time>2013-05-24T04:58:43Z</time>
      </trkpt>
      <trkpt lat="-21.18739" lon="55.48206">
        <ele>1788.5</ele>
        <time>2013-05-24T04:58:49Z</time>
      </trkpt>
      <trkpt lat="-21.18735" lon="55.48212">
        <ele>1786.7</ele>
        <time>2013-05-24T04:58:55Z</time>
      </trkpt>
      <trkpt lat="-21.18729" lon="55.48218">
        <ele>1785.5</ele>
        <time>2013-05-24T04:59:01Z</time>
      </trkpt>
      <trkpt lat="-21.18723" lon="55.48225">
        <ele>1785.2</ele>
        <time>2013-05-24T04:59:07Z</time>
      </trkpt>
      <trkpt lat="-21.18718" lon="55.48231">
        <ele>1784.5</ele>
        <time>2013-05-24T04:59:12Z</time>
      </trkpt>
      <trkpt lat="-21.18714" lon="55.48238">
        <ele>1783.4</ele>
        <time>2013-05-24T04:59:17Z</time>
      </trkpt>
      <trkpt lat="-21.18709" lon="55.48245">
        <ele>1783.6</ele>
        <time>2013-05-24T04:59:22Z</time>
      </trkpt>
      <trkpt lat="-21.18707" lon="55.48253">
        <ele>1782.1</ele>
        <time>2013-05-24T04:59:28Z</time>
      </trkpt>
      <trkpt lat="-21.18703" lon="55.48262">
        <ele>1782.2</ele>
        <time>2013-05-24T04:59:38Z</time>
      </trkpt>
      <trkpt lat="-21.18702" lon="55.4827">
        <ele>1781.3</ele>
        <time>2013-05-24T04:59:43Z</time>
      </trkpt>
      <trkpt lat="-21.18698" lon="55.48278">
        <ele>1781.3</ele>
        <time>2013-05-24T04:59:49Z</time>
      </trkpt>
      <trkpt lat="-21.18694" lon="55.48287">
        <ele>1781.2</ele>
        <time>2013-05-24T04:59:56Z</time>
      </trkpt>
      <trkpt lat="-21.18692" lon="55.48294">
        <ele>1782</ele>
        <time>2013-05-24T05:00:01Z</time>
      </trkpt>
      <trkpt lat="-21.18688" lon="55.48303">
        <ele>1780.8</ele>
        <time>2013-05-24T05:00:07Z</time>
      </trkpt>
      <trkpt lat="-21.18685" lon="55.48311">
        <ele>1781</ele>
        <time>2013-05-24T05:00:13Z</time>
      </trkpt>
      <trkpt lat="-21.18682" lon="55.4832">
        <ele>1781</ele>
        <time>2013-05-24T05:00:20Z</time>
      </trkpt>
      <trkpt lat="-21.18677" lon="55.48327">
        <ele>1780.4</ele>
        <time>2013-05-24T05:00:26Z</time>
      </trkpt>
      <trkpt lat="-21.18672" lon="55.48334">
        <ele>1778</ele>
        <time>2013-05-24T05:00:34Z</time>
      </trkpt>
      <trkpt lat="-21.18666" lon="55.48341">
        <ele>1777.3</ele>
        <time>2013-05-24T05:00:41Z</time>
      </trkpt>
      <trkpt lat="-21.18661" lon="55.48348">
        <ele>1776.4</ele>
        <time>2013-05-24T05:00:50Z</time>
      </trkpt>
      <trkpt lat="-21.18655" lon="55.48355">
        <ele>1777.4</ele>
        <time>2013-05-24T05:00:57Z</time>
      </trkpt>
      <trkpt lat="-21.18651" lon="55.48362">
        <ele>1778.3</ele>
        <time>2013-05-24T05:01:03Z</time>
      </trkpt>
      <trkpt lat="-21.18645" lon="55.48368">
        <ele>1778.9</ele>
        <time>2013-05-24T05:01:09Z</time>
      </trkpt>
      <trkpt lat="-21.18641" lon="55.48376">
        <ele>1780.4</ele>
        <time>2013-05-24T05:01:15Z</time>
      </trkpt>
      <trkpt lat="-21.18635" lon="55.48383">
        <ele>1779.4</ele>
        <time>2013-05-24T05:01:24Z</time>
      </trkpt>
      <trkpt lat="-21.1863" lon="55.4839">
        <ele>1778.5</ele>
        <time>2013-05-24T05:01:29Z</time>
      </trkpt>
      <trkpt lat="-21.18627" lon="55.48399">
        <ele>1778</ele>
        <time>2013-05-24T05:01:35Z</time>
      </trkpt>
      <trkpt lat="-21.18622" lon="55.48407">
        <ele>1777.5</ele>
        <time>2013-05-24T05:01:41Z</time>
      </trkpt>
      <trkpt lat="-21.18617" lon="55.48414">
        <ele>1777.1</ele>
        <time>2013-05-24T05:01:46Z</time>
      </trkpt>
      <trkpt lat="-21.18613" lon="55.48422">
        <ele>1776.7</ele>
        <time>2013-05-24T05:01:51Z</time>
      </trkpt>
      <trkpt lat="-21.1861" lon="55.4843">
        <ele>1777.7</ele>
        <time>2013-05-24T05:01:57Z</time>
      </trkpt>
      <trkpt lat="-21.18608" lon="55.48439">
        <ele>1777.9</ele>
        <time>2013-05-24T05:02:05Z</time>
      </trkpt>
      <trkpt lat="-21.18605" lon="55.48446">
        <ele>1778.5</ele>
        <time>2013-05-24T05:02:11Z</time>
      </trkpt>
      <trkpt lat="-21.18603" lon="55.48455">
        <ele>1776.3</ele>
        <time>2013-05-24T05:02:19Z</time>
      </trkpt>
      <trkpt lat="-21.18599" lon="55.48463">
        <ele>1773.6</ele>
        <time>2013-05-24T05:02:26Z</time>
      </trkpt>
      <trkpt lat="-21.18597" lon="55.48472">
        <ele>1770.1</ele>
        <time>2013-05-24T05:02:35Z</time>
      </trkpt>
      <trkpt lat="-21.18594" lon="55.48481">
        <ele>1767.9</ele>
        <time>2013-05-24T05:02:44Z</time>
      </trkpt>
      <trkpt lat="-21.18593" lon="55.4849">
        <ele>1766.1</ele>
        <time>2013-05-24T05:02:50Z</time>
      </trkpt>
      <trkpt lat="-21.18595" lon="55.48499">
        <ele>1764.5</ele>
        <time>2013-05-24T05:02:57Z</time>
      </trkpt>
      <trkpt lat="-21.18594" lon="55.48508">
        <ele>1766.3</ele>
        <time>2013-05-24T05:03:06Z</time>
      </trkpt>
      <trkpt lat="-21.1859" lon="55.48517">
        <ele>1770</ele>
        <time>2013-05-24T05:03:17Z</time>
      </trkpt>
      <trkpt lat="-21.18586" lon="55.48524">
        <ele>1773.4</ele>
        <time>2013-05-24T05:03:26Z</time>
      </trkpt>
      <trkpt lat="-21.18581" lon="55.48531">
        <ele>1774</ele>
        <time>2013-05-24T05:03:33Z</time>
      </trkpt>
      <trkpt lat="-21.18575" lon="55.48537">
        <ele>1772.9</ele>
        <time>2013-05-24T05:03:41Z</time>
      </trkpt>
      <trkpt lat="-21.1857" lon="55.48545">
        <ele>1772.6</ele>
        <time>2013-05-24T05:03:47Z</time>
      </trkpt>
      <trkpt lat="-21.18567" lon="55.48552">
        <ele>1771.3</ele>
        <time>2013-05-24T05:03:52Z</time>
      </trkpt>
      <trkpt lat="-21.18562" lon="55.4856">
        <ele>1770.9</ele>
        <time>2013-05-24T05:03:58Z</time>
      </trkpt>
      <trkpt lat="-21.18559" lon="55.48569">
        <ele>1773.1</ele>
        <time>2013-05-24T05:04:07Z</time>
      </trkpt>
      <trkpt lat="-21.18554" lon="55.48576">
        <ele>1771.3</ele>
        <time>2013-05-24T05:04:16Z</time>
      </trkpt>
      <trkpt lat="-21.18547" lon="55.48581">
        <ele>1771.2</ele>
        <time>2013-05-24T05:04:25Z</time>
      </trkpt>
      <trkpt lat="-21.18541" lon="55.48587">
        <ele>1771.7</ele>
        <time>2013-05-24T05:04:32Z</time>
      </trkpt>
      <trkpt lat="-21.18534" lon="55.48592">
        <ele>1774.2</ele>
        <time>2013-05-24T05:04:47Z</time>
      </trkpt>
      <trkpt lat="-21.18525" lon="55.48593">
        <ele>1773</ele>
        <time>2013-05-24T05:05:08Z</time>
      </trkpt>
      <trkpt lat="-21.18528" lon="55.48602">
        <ele>1772.9</ele>
        <time>2013-05-24T05:06:26Z</time>
      </trkpt>
      <trkpt lat="-21.18526" lon="55.4861">
        <ele>1771.4</ele>
        <time>2013-05-24T05:06:34Z</time>
      </trkpt>
      <trkpt lat="-21.18526" lon="55.48619">
        <ele>1772</ele>
        <time>2013-05-24T05:06:42Z</time>
      </trkpt>
      <trkpt lat="-21.18527" lon="55.48628">
        <ele>1773.5</ele>
        <time>2013-05-24T05:06:52Z</time>
      </trkpt>
      <trkpt lat="-21.18529" lon="55.48637">
        <ele>1776.4</ele>
        <time>2013-05-24T05:07:02Z</time>
      </trkpt>
      <trkpt lat="-21.18533" lon="55.48645">
        <ele>1777.8</ele>
        <time>2013-05-24T05:07:09Z</time>
      </trkpt>
      <trkpt lat="-21.18539" lon="55.48651">
        <ele>1776.9</ele>
        <time>2013-05-24T05:07:17Z</time>
      </trkpt>
      <trkpt lat="-21.18543" lon="55.4866">
        <ele>1777.1</ele>
        <time>2013-05-24T05:07:26Z</time>
      </trkpt>
      <trkpt lat="-21.18549" lon="55.48667">
        <ele>1775.1</ele>
        <time>2013-05-24T05:07:35Z</time>
      </trkpt>
      <trkpt lat="-21.18556" lon="55.48673">
        <ele>1771.5</ele>
        <time>2013-05-24T05:07:50Z</time>
      </trkpt>
      <trkpt lat="-21.18558" lon="55.48682">
        <ele>1768.3</ele>
        <time>2013-05-24T05:08:04Z</time>
      </trkpt>
      <trkpt lat="-21.18564" lon="55.48688">
        <ele>1766.2</ele>
        <time>2013-05-24T05:08:15Z</time>
      </trkpt>
      <trkpt lat="-21.18568" lon="55.48697">
        <ele>1764</ele>
        <time>2013-05-24T05:08:32Z</time>
      </trkpt>
      <trkpt lat="-21.18574" lon="55.48703">
        <ele>1762.5</ele>
        <time>2013-05-24T05:08:46Z</time>
      </trkpt>
      <trkpt lat="-21.18582" lon="55.48705">
        <ele>1761.4</ele>
        <time>2013-05-24T05:08:53Z</time>
      </trkpt>
      <trkpt lat="-21.1859" lon="55.48708">
        <ele>1760.8</ele>
        <time>2013-05-24T05:09:01Z</time>
      </trkpt>
      <trkpt lat="-21.18598" lon="55.48712">
        <ele>1757.8</ele>
        <time>2013-05-24T05:09:11Z</time>
      </trkpt>
      <trkpt lat="-21.18601" lon="55.4872">
        <ele>1756.8</ele>
        <time>2013-05-24T05:09:25Z</time>
      </trkpt>
      <trkpt lat="-21.18606" lon="55.48728">
        <ele>1756.8</ele>
        <time>2013-05-24T05:09:32Z</time>
      </trkpt>
      <trkpt lat="-21.18611" lon="55.48735">
        <ele>1755.2</ele>
        <time>2013-05-24T05:09:38Z</time>
      </trkpt>
      <trkpt lat="-21.18614" lon="55.48744">
        <ele>1753.9</ele>
        <time>2013-05-24T05:09:45Z</time>
      </trkpt>
      <trkpt lat="-21.18614" lon="55.48753">
        <ele>1752.6</ele>
        <time>2013-05-24T05:09:51Z</time>
      </trkpt>
      <trkpt lat="-21.18617" lon="55.48761">
        <ele>1751.1</ele>
        <time>2013-05-24T05:09:58Z</time>
      </trkpt>
      <trkpt lat="-21.18621" lon="55.48769">
        <ele>1751.2</ele>
        <time>2013-05-24T05:10:04Z</time>
      </trkpt>
      <trkpt lat="-21.18627" lon="55.48775">
        <ele>1750.6</ele>
        <time>2013-05-24T05:10:10Z</time>
      </trkpt>
      <trkpt lat="-21.1863" lon="55.48783">
        <ele>1749.4</ele>
        <time>2013-05-24T05:10:16Z</time>
      </trkpt>
      <trkpt lat="-21.18634" lon="55.4879">
        <ele>1748.2</ele>
        <time>2013-05-24T05:10:21Z</time>
      </trkpt>
      <trkpt lat="-21.18638" lon="55.48798">
        <ele>1748.6</ele>
        <time>2013-05-24T05:10:27Z</time>
      </trkpt>
      <trkpt lat="-21.18642" lon="55.48807">
        <ele>1747.3</ele>
        <time>2013-05-24T05:10:34Z</time>
      </trkpt>
      <trkpt lat="-21.18647" lon="55.48814">
        <ele>1746.5</ele>
        <time>2013-05-24T05:10:40Z</time>
      </trkpt>
      <trkpt lat="-21.18655" lon="55.48819">
        <ele>1746.3</ele>
        <time>2013-05-24T05:10:46Z</time>
      </trkpt>
      <trkpt lat="-21.1866" lon="55.48825">
        <ele>1745.7</ele>
        <time>2013-05-24T05:10:52Z</time>
      </trkpt>
      <trkpt lat="-21.18665" lon="55.48833">
        <ele>1745.4</ele>
        <time>2013-05-24T05:10:59Z</time>
      </trkpt>
      <trkpt lat="-21.18669" lon="55.4884">
        <ele>1744.9</ele>
        <time>2013-05-24T05:11:05Z</time>
      </trkpt>
      <trkpt lat="-21.18675" lon="55.48847">
        <ele>1743.9</ele>
        <time>2013-05-24T05:11:12Z</time>
      </trkpt>
      <trkpt lat="-21.1868" lon="55.48854">
        <ele>1742.6</ele>
        <time>2013-05-24T05:11:18Z</time>
      </trkpt>
      <trkpt lat="-21.18679" lon="55.48863">
        <ele>1741.3</ele>
        <time>2013-05-24T05:11:29Z</time>
      </trkpt>
      <trkpt lat="-21.18671" lon="55.48866">
        <ele>1741</ele>
        <time>2013-05-24T05:11:36Z</time>
      </trkpt>
      <trkpt lat="-21.18663" lon="55.48868">
        <ele>1741.6</ele>
        <time>2013-05-24T05:11:43Z</time>
      </trkpt>
      <trkpt lat="-21.18654" lon="55.48871">
        <ele>1742.4</ele>
        <time>2013-05-24T05:11:52Z</time>
      </trkpt>
      <trkpt lat="-21.18645" lon="55.48873">
        <ele>1743.3</ele>
        <time>2013-05-24T05:12:00Z</time>
      </trkpt>
      <trkpt lat="-21.18637" lon="55.48871">
        <ele>1744.5</ele>
        <time>2013-05-24T05:12:08Z</time>
      </trkpt>
      <trkpt lat="-21.18629" lon="55.48868">
        <ele>1744.7</ele>
        <time>2013-05-24T05:12:14Z</time>
      </trkpt>
      <trkpt lat="-21.18621" lon="55.48864">
        <ele>1745.9</ele>
        <time>2013-05-24T05:12:20Z</time>
      </trkpt>
      <trkpt lat="-21.18612" lon="55.48863">
        <ele>1746.2</ele>
        <time>2013-05-24T05:12:26Z</time>
      </trkpt>
      <trkpt lat="-21.18603" lon="55.48866">
        <ele>1747.7</ele>
        <time>2013-05-24T05:12:33Z</time>
      </trkpt>
      <trkpt lat="-21.18595" lon="55.48868">
        <ele>1747.7</ele>
        <time>2013-05-24T05:12:40Z</time>
      </trkpt>
      <trkpt lat="-21.18586" lon="55.48869">
        <ele>1748.8</ele>
        <time>2013-05-24T05:12:47Z</time>
      </trkpt>
      <trkpt lat="-21.18578" lon="55.48871">
        <ele>1750</ele>
        <time>2013-05-24T05:12:53Z</time>
      </trkpt>
      <trkpt lat="-21.1857" lon="55.4887">
        <ele>1750.2</ele>
        <time>2013-05-24T05:13:01Z</time>
      </trkpt>
      <trkpt lat="-21.18563" lon="55.48867">
        <ele>1751.5</ele>
        <time>2013-05-24T05:13:09Z</time>
      </trkpt>
      <trkpt lat="-21.18555" lon="55.48862">
        <ele>1753</ele>
        <time>2013-05-24T05:13:18Z</time>
      </trkpt>
      <trkpt lat="-21.18546" lon="55.4886">
        <ele>1753.5</ele>
        <time>2013-05-24T05:13:25Z</time>
      </trkpt>
      <trkpt lat="-21.18537" lon="55.4886">
        <ele>1754.2</ele>
        <time>2013-05-24T05:13:32Z</time>
      </trkpt>
      <trkpt lat="-21.18529" lon="55.4886">
        <ele>1754.8</ele>
        <time>2013-05-24T05:13:39Z</time>
      </trkpt>
      <trkpt lat="-21.1852" lon="55.48862">
        <ele>1756</ele>
        <time>2013-05-24T05:13:47Z</time>
      </trkpt>
      <trkpt lat="-21.18513" lon="55.48861">
        <ele>1756.6</ele>
        <time>2013-05-24T05:13:53Z</time>
      </trkpt>
      <trkpt lat="-21.18505" lon="55.4886">
        <ele>1756.9</ele>
        <time>2013-05-24T05:13:59Z</time>
      </trkpt>
      <trkpt lat="-21.18497" lon="55.48859">
        <ele>1757.5</ele>
        <time>2013-05-24T05:14:05Z</time>
      </trkpt>
      <trkpt lat="-21.18489" lon="55.48856">
        <ele>1759.1</ele>
        <time>2013-05-24T05:14:12Z</time>
      </trkpt>
      <trkpt lat="-21.1848" lon="55.48854">
        <ele>1760.1</ele>
        <time>2013-05-24T05:14:19Z</time>
      </trkpt>
      <trkpt lat="-21.18473" lon="55.4885">
        <ele>1760.3</ele>
        <time>2013-05-24T05:14:25Z</time>
      </trkpt>
      <trkpt lat="-21.18466" lon="55.48846">
        <ele>1761.3</ele>
        <time>2013-05-24T05:14:31Z</time>
      </trkpt>
      <trkpt lat="-21.1846" lon="55.48842">
        <ele>1761.4</ele>
        <time>2013-05-24T05:14:36Z</time>
      </trkpt>
      <trkpt lat="-21.18451" lon="55.48839">
        <ele>1760.8</ele>
        <time>2013-05-24T05:14:42Z</time>
      </trkpt>
      <trkpt lat="-21.18444" lon="55.48836">
        <ele>1761.9</ele>
        <time>2013-05-24T05:14:49Z</time>
      </trkpt>
      <trkpt lat="-21.18436" lon="55.48838">
        <ele>1762</ele>
        <time>2013-05-24T05:14:55Z</time>
      </trkpt>
      <trkpt lat="-21.18428" lon="55.48839">
        <ele>1763</ele>
        <time>2013-05-24T05:15:01Z</time>
      </trkpt>
      <trkpt lat="-21.18419" lon="55.48839">
        <ele>1762.7</ele>
        <time>2013-05-24T05:15:07Z</time>
      </trkpt>
      <trkpt lat="-21.18411" lon="55.4884">
        <ele>1763.2</ele>
        <time>2013-05-24T05:15:13Z</time>
      </trkpt>
      <trkpt lat="-21.18403" lon="55.48844">
        <ele>1762.8</ele>
        <time>2013-05-24T05:15:57Z</time>
      </trkpt>
      <trkpt lat="-21.18395" lon="55.48844">
        <ele>1763.1</ele>
        <time>2013-05-24T05:16:06Z</time>
      </trkpt>
      <trkpt lat="-21.18387" lon="55.48842">
        <ele>1762.7</ele>
        <time>2013-05-24T05:16:32Z</time>
      </trkpt>
      <trkpt lat="-21.18379" lon="55.48841">
        <ele>1762.4</ele>
        <time>2013-05-24T05:16:54Z</time>
      </trkpt>
      <trkpt lat="-21.18371" lon="55.48841">
        <ele>1761.5</ele>
        <time>2013-05-24T05:17:01Z</time>
      </trkpt>
      <trkpt lat="-21.18362" lon="55.48841">
        <ele>1761.3</ele>
        <time>2013-05-24T05:17:08Z</time>
      </trkpt>
      <trkpt lat="-21.18354" lon="55.48842">
        <ele>1761.3</ele>
        <time>2013-05-24T05:17:16Z</time>
      </trkpt>
      <trkpt lat="-21.18347" lon="55.48846">
        <ele>1761.5</ele>
        <time>2013-05-24T05:17:24Z</time>
      </trkpt>
      <trkpt lat="-21.18338" lon="55.48849">
        <ele>1761.8</ele>
        <time>2013-05-24T05:17:39Z</time>
      </trkpt>
      <trkpt lat="-21.18333" lon="55.48856">
        <ele>1763.3</ele>
        <time>2013-05-24T05:20:03Z</time>
      </trkpt>
      <trkpt lat="-21.18329" lon="55.48864">
        <ele>1767.4</ele>
        <time>2013-05-24T05:20:19Z</time>
      </trkpt>
      <trkpt lat="-21.1833" lon="55.48874">
        <ele>1770.6</ele>
        <time>2013-05-24T05:20:36Z</time>
      </trkpt>
      <trkpt lat="-21.18332" lon="55.48883">
        <ele>1774.6</ele>
        <time>2013-05-24T05:20:54Z</time>
      </trkpt>
      <trkpt lat="-21.18325" lon="55.48889">
        <ele>1781</ele>
        <time>2013-05-24T05:21:27Z</time>
      </trkpt>
      <trkpt lat="-21.18322" lon="55.48898">
        <ele>1783.6</ele>
        <time>2013-05-24T05:21:41Z</time>
      </trkpt>
      <trkpt lat="-21.18316" lon="55.48904">
        <ele>1782.9</ele>
        <time>2013-05-24T05:21:49Z</time>
      </trkpt>
      <trkpt lat="-21.18313" lon="55.48913">
        <ele>1783.6</ele>
        <time>2013-05-24T05:21:59Z</time>
      </trkpt>
      <trkpt lat="-21.18307" lon="55.48919">
        <ele>1782.2</ele>
        <time>2013-05-24T05:22:12Z</time>
      </trkpt>
      <trkpt lat="-21.183" lon="55.48925">
        <ele>1778.8</ele>
        <time>2013-05-24T05:22:24Z</time>
      </trkpt>
      <trkpt lat="-21.18294" lon="55.48931">
        <ele>1778.7</ele>
        <time>2013-05-24T05:22:37Z</time>
      </trkpt>
      <trkpt lat="-21.18288" lon="55.48939">
        <ele>1779.5</ele>
        <time>2013-05-24T05:22:45Z</time>
      </trkpt>
      <trkpt lat="-21.18284" lon="55.48946">
        <ele>1778.3</ele>
        <time>2013-05-24T05:22:53Z</time>
      </trkpt>
      <trkpt lat="-21.18279" lon="55.48954">
        <ele>1778.4</ele>
        <time>2013-05-24T05:23:01Z</time>
      </trkpt>
      <trkpt lat="-21.18274" lon="55.4896">
        <ele>1778.8</ele>
        <time>2013-05-24T05:23:09Z</time>
      </trkpt>
      <trkpt lat="-21.18271" lon="55.4897">
        <ele>1779.7</ele>
        <time>2013-05-24T05:23:19Z</time>
      </trkpt>
      <trkpt lat="-21.18266" lon="55.48977">
        <ele>1783.4</ele>
        <time>2013-05-24T05:23:35Z</time>
      </trkpt>
      <trkpt lat="-21.18261" lon="55.48984">
        <ele>1785.2</ele>
        <time>2013-05-24T05:23:44Z</time>
      </trkpt>
      <trkpt lat="-21.18255" lon="55.4899">
        <ele>1784</ele>
        <time>2013-05-24T05:23:51Z</time>
      </trkpt>
      <trkpt lat="-21.1825" lon="55.48998">
        <ele>1783.1</ele>
        <time>2013-05-24T05:23:58Z</time>
      </trkpt>
      <trkpt lat="-21.18244" lon="55.49005">
        <ele>1781.3</ele>
        <time>2013-05-24T05:24:05Z</time>
      </trkpt>
      <trkpt lat="-21.18237" lon="55.49011">
        <ele>1780.8</ele>
        <time>2013-05-24T05:24:12Z</time>
      </trkpt>
      <trkpt lat="-21.18231" lon="55.49018">
        <ele>1781</ele>
        <time>2013-05-24T05:24:20Z</time>
      </trkpt>
      <trkpt lat="-21.18227" lon="55.49027">
        <ele>1779</ele>
        <time>2013-05-24T05:24:38Z</time>
      </trkpt>
      <trkpt lat="-21.18224" lon="55.49035">
        <ele>1780.5</ele>
        <time>2013-05-24T05:24:57Z</time>
      </trkpt>
      <trkpt lat="-21.18218" lon="55.49042">
        <ele>1786.1</ele>
        <time>2013-05-24T05:25:19Z</time>
      </trkpt>
      <trkpt lat="-21.18213" lon="55.49049">
        <ele>1788.4</ele>
        <time>2013-05-24T05:25:36Z</time>
      </trkpt>
      <trkpt lat="-21.1821" lon="55.49058">
        <ele>1793.1</ele>
        <time>2013-05-24T05:26:02Z</time>
      </trkpt>
      <trkpt lat="-21.18204" lon="55.49064">
        <ele>1795.5</ele>
        <time>2013-05-24T05:26:19Z</time>
      </trkpt>
      <trkpt lat="-21.18197" lon="55.4907">
        <ele>1795</ele>
        <time>2013-05-24T05:26:28Z</time>
      </trkpt>
      <trkpt lat="-21.18191" lon="55.49076">
        <ele>1794.3</ele>
        <time>2013-05-24T05:26:36Z</time>
      </trkpt>
      <trkpt lat="-21.18184" lon="55.49081">
        <ele>1792.8</ele>
        <time>2013-05-24T05:26:46Z</time>
      </trkpt>
      <trkpt lat="-21.1818" lon="55.49088">
        <ele>1792.2</ele>
        <time>2013-05-24T05:26:53Z</time>
      </trkpt>
      <trkpt lat="-21.18178" lon="55.49097">
        <ele>1795.8</ele>
        <time>2013-05-24T05:27:07Z</time>
      </trkpt>
      <trkpt lat="-21.1818" lon="55.49106">
        <ele>1800.4</ele>
        <time>2013-05-24T05:27:30Z</time>
      </trkpt>
      <trkpt lat="-21.18179" lon="55.49115">
        <ele>1803</ele>
        <time>2013-05-24T05:27:44Z</time>
      </trkpt>
      <trkpt lat="-21.1817" lon="55.49116">
        <ele>1802.8</ele>
        <time>2013-05-24T05:27:57Z</time>
      </trkpt>
      <trkpt lat="-21.18162" lon="55.49116">
        <ele>1801.2</ele>
        <time>2013-05-24T05:28:04Z</time>
      </trkpt>
      <trkpt lat="-21.18155" lon="55.49122">
        <ele>1800</ele>
        <time>2013-05-24T05:28:11Z</time>
      </trkpt>
      <trkpt lat="-21.18147" lon="55.49126">
        <ele>1800.2</ele>
        <time>2013-05-24T05:28:19Z</time>
      </trkpt>
      <trkpt lat="-21.1814" lon="55.49132">
        <ele>1798.6</ele>
        <time>2013-05-24T05:28:26Z</time>
      </trkpt>
      <trkpt lat="-21.18133" lon="55.49136">
        <ele>1796.7</ele>
        <time>2013-05-24T05:28:33Z</time>
      </trkpt>
      <trkpt lat="-21.18126" lon="55.4914">
        <ele>1795</ele>
        <time>2013-05-24T05:28:39Z</time>
      </trkpt>
      <trkpt lat="-21.1812" lon="55.49147">
        <ele>1794.7</ele>
        <time>2013-05-24T05:28:47Z</time>
      </trkpt>
      <trkpt lat="-21.18115" lon="55.49154">
        <ele>1796</ele>
        <time>2013-05-24T05:28:57Z</time>
      </trkpt>
      <trkpt lat="-21.1811" lon="55.49162">
        <ele>1800.7</ele>
        <time>2013-05-24T05:29:12Z</time>
      </trkpt>
      <trkpt lat="-21.18105" lon="55.4917">
        <ele>1804</ele>
        <time>2013-05-24T05:29:27Z</time>
      </trkpt>
      <trkpt lat="-21.181" lon="55.49178">
        <ele>1804.7</ele>
        <time>2013-05-24T05:29:36Z</time>
      </trkpt>
      <trkpt lat="-21.18093" lon="55.49182">
        <ele>1804.2</ele>
        <time>2013-05-24T05:29:46Z</time>
      </trkpt>
      <trkpt lat="-21.18085" lon="55.49187">
        <ele>1797.9</ele>
        <time>2013-05-24T05:30:08Z</time>
      </trkpt>
      <trkpt lat="-21.1808" lon="55.49194">
        <ele>1792.5</ele>
        <time>2013-05-24T05:30:18Z</time>
      </trkpt>
      <trkpt lat="-21.18074" lon="55.49201">
        <ele>1791.4</ele>
        <time>2013-05-24T05:30:27Z</time>
      </trkpt>
      <trkpt lat="-21.18067" lon="55.49206">
        <ele>1790.2</ele>
        <time>2013-05-24T05:30:35Z</time>
      </trkpt>
      <trkpt lat="-21.18062" lon="55.49213">
        <ele>1789.4</ele>
        <time>2013-05-24T05:30:43Z</time>
      </trkpt>
      <trkpt lat="-21.18057" lon="55.49221">
        <ele>1793.5</ele>
        <time>2013-05-24T05:30:56Z</time>
      </trkpt>
      <trkpt lat="-21.18055" lon="55.4923">
        <ele>1799.6</ele>
        <time>2013-05-24T05:31:16Z</time>
      </trkpt>
      <trkpt lat="-21.18047" lon="55.49235">
        <ele>1804.3</ele>
        <time>2013-05-24T05:31:33Z</time>
      </trkpt>
      <trkpt lat="-21.18042" lon="55.49242">
        <ele>1807.5</ele>
        <time>2013-05-24T05:31:54Z</time>
      </trkpt>
      <trkpt lat="-21.18035" lon="55.49248">
        <ele>1810.9</ele>
        <time>2013-05-24T05:32:15Z</time>
      </trkpt>
      <trkpt lat="-21.18032" lon="55.49257">
        <ele>1815.7</ele>
        <time>2013-05-24T05:32:39Z</time>
      </trkpt>
      <trkpt lat="-21.18026" lon="55.49264">
        <ele>1821.7</ele>
        <time>2013-05-24T05:33:03Z</time>
      </trkpt>
      <trkpt lat="-21.18021" lon="55.49271">
        <ele>1824.6</ele>
        <time>2013-05-24T05:33:17Z</time>
      </trkpt>
      <trkpt lat="-21.18017" lon="55.4928">
        <ele>1828.7</ele>
        <time>2013-05-24T05:33:37Z</time>
      </trkpt>
      <trkpt lat="-21.18012" lon="55.49288">
        <ele>1831.5</ele>
        <time>2013-05-24T05:33:51Z</time>
      </trkpt>
      <trkpt lat="-21.18005" lon="55.49293">
        <ele>1829.3</ele>
        <time>2013-05-24T05:34:02Z</time>
      </trkpt>
      <trkpt lat="-21.17999" lon="55.493">
        <ele>1828.4</ele>
        <time>2013-05-24T05:34:10Z</time>
      </trkpt>
      <trkpt lat="-21.17991" lon="55.49305">
        <ele>1827</ele>
        <time>2013-05-24T05:34:18Z</time>
      </trkpt>
      <trkpt lat="-21.17986" lon="55.49311">
        <ele>1825.9</ele>
        <time>2013-05-24T05:34:24Z</time>
      </trkpt>
      <trkpt lat="-21.1798" lon="55.49316">
        <ele>1824.3</ele>
        <time>2013-05-24T05:34:30Z</time>
      </trkpt>
      <trkpt lat="-21.17973" lon="55.49321">
        <ele>1824.5</ele>
        <time>2013-05-24T05:34:36Z</time>
      </trkpt>
      <trkpt lat="-21.17969" lon="55.49329">
        <ele>1825.9</ele>
        <time>2013-05-24T05:34:44Z</time>
      </trkpt>
      <trkpt lat="-21.17963" lon="55.49336">
        <ele>1828.1</ele>
        <time>2013-05-24T05:34:53Z</time>
      </trkpt>
      <trkpt lat="-21.17957" lon="55.49342">
        <ele>1829.9</ele>
        <time>2013-05-24T05:35:02Z</time>
      </trkpt>
      <trkpt lat="-21.17951" lon="55.49349">
        <ele>1832.5</ele>
        <time>2013-05-24T05:35:12Z</time>
      </trkpt>
      <trkpt lat="-21.17943" lon="55.49353">
        <ele>1833.7</ele>
        <time>2013-05-24T05:35:20Z</time>
      </trkpt>
      <trkpt lat="-21.17935" lon="55.49357">
        <ele>1835.7</ele>
        <time>2013-05-24T05:35:27Z</time>
      </trkpt>
      <trkpt lat="-21.17928" lon="55.49362">
        <ele>1835.1</ele>
        <time>2013-05-24T05:35:34Z</time>
      </trkpt>
      <trkpt lat="-21.1792" lon="55.49367">
        <ele>1833</ele>
        <time>2013-05-24T05:35:45Z</time>
      </trkpt>
      <trkpt lat="-21.17913" lon="55.49372">
        <ele>1829.1</ele>
        <time>2013-05-24T05:35:56Z</time>
      </trkpt>
      <trkpt lat="-21.17906" lon="55.49376">
        <ele>1827.1</ele>
        <time>2013-05-24T05:36:05Z</time>
      </trkpt>
      <trkpt lat="-21.17899" lon="55.49379">
        <ele>1826.1</ele>
        <time>2013-05-24T05:36:13Z</time>
      </trkpt>
      <trkpt lat="-21.17892" lon="55.49382">
        <ele>1826</ele>
        <time>2013-05-24T05:36:19Z</time>
      </trkpt>
      <trkpt lat="-21.17884" lon="55.49386">
        <ele>1828</ele>
        <time>2013-05-24T05:36:28Z</time>
      </trkpt>
      <trkpt lat="-21.1788" lon="55.49394">
        <ele>1828.5</ele>
        <time>2013-05-24T05:36:35Z</time>
      </trkpt>
      <trkpt lat="-21.17874" lon="55.494">
        <ele>1830.3</ele>
        <time>2013-05-24T05:36:45Z</time>
      </trkpt>
      <trkpt lat="-21.17867" lon="55.49406">
        <ele>1834.8</ele>
        <time>2013-05-24T05:36:59Z</time>
      </trkpt>
      <trkpt lat="-21.17861" lon="55.49413">
        <ele>1838.9</ele>
        <time>2013-05-24T05:37:16Z</time>
      </trkpt>
      <trkpt lat="-21.17853" lon="55.49417">
        <ele>1840.9</ele>
        <time>2013-05-24T05:37:31Z</time>
      </trkpt>
      <trkpt lat="-21.17847" lon="55.49423">
        <ele>1845.6</ele>
        <time>2013-05-24T05:37:51Z</time>
      </trkpt>
      <trkpt lat="-21.1784" lon="55.49429">
        <ele>1849.7</ele>
        <time>2013-05-24T05:38:07Z</time>
      </trkpt>
      <trkpt lat="-21.17836" lon="55.49438">
        <ele>1852.3</ele>
        <time>2013-05-24T05:38:18Z</time>
      </trkpt>
      <trkpt lat="-21.17829" lon="55.49443">
        <ele>1853</ele>
        <time>2013-05-24T05:38:27Z</time>
      </trkpt>
      <trkpt lat="-21.17822" lon="55.49446">
        <ele>1854</ele>
        <time>2013-05-24T05:38:34Z</time>
      </trkpt>
      <trkpt lat="-21.17815" lon="55.49452">
        <ele>1853.2</ele>
        <time>2013-05-24T05:38:42Z</time>
      </trkpt>
      <trkpt lat="-21.17808" lon="55.49456">
        <ele>1853</ele>
        <time>2013-05-24T05:38:48Z</time>
      </trkpt>
      <trkpt lat="-21.17801" lon="55.49461">
        <ele>1855.3</ele>
        <time>2013-05-24T05:38:58Z</time>
      </trkpt>
      <trkpt lat="-21.17794" lon="55.49464">
        <ele>1856.2</ele>
        <time>2013-05-24T05:39:04Z</time>
      </trkpt>
      <trkpt lat="-21.17786" lon="55.49466">
        <ele>1857.6</ele>
        <time>2013-05-24T05:39:10Z</time>
      </trkpt>
      <trkpt lat="-21.17779" lon="55.49471">
        <ele>1858.3</ele>
        <time>2013-05-24T05:39:17Z</time>
      </trkpt>
      <trkpt lat="-21.17773" lon="55.49477">
        <ele>1859.5</ele>
        <time>2013-05-24T05:39:23Z</time>
      </trkpt>
      <trkpt lat="-21.17767" lon="55.49485">
        <ele>1860.6</ele>
        <time>2013-05-24T05:39:30Z</time>
      </trkpt>
      <trkpt lat="-21.17761" lon="55.4949">
        <ele>1860.5</ele>
        <time>2013-05-24T05:39:38Z</time>
      </trkpt>
      <trkpt lat="-21.17753" lon="55.49493">
        <ele>1859.6</ele>
        <time>2013-05-24T05:39:45Z</time>
      </trkpt>
      <trkpt lat="-21.17744" lon="55.49495">
        <ele>1859.8</ele>
        <time>2013-05-24T05:39:52Z</time>
      </trkpt>
      <trkpt lat="-21.17736" lon="55.49499">
        <ele>1858.7</ele>
        <time>2013-05-24T05:39:59Z</time>
      </trkpt>
      <trkpt lat="-21.17728" lon="55.49502">
        <ele>1861.6</ele>
        <time>2013-05-24T05:40:15Z</time>
      </trkpt>
      <trkpt lat="-21.17721" lon="55.49508">
        <ele>1866.7</ele>
        <time>2013-05-24T05:40:30Z</time>
      </trkpt>
      <trkpt lat="-21.17718" lon="55.49516">
        <ele>1869.2</ele>
        <time>2013-05-24T05:40:41Z</time>
      </trkpt>
      <trkpt lat="-21.17714" lon="55.49524">
        <ele>1872.2</ele>
        <time>2013-05-24T05:40:54Z</time>
      </trkpt>
      <trkpt lat="-21.17707" lon="55.49528">
        <ele>1875.6</ele>
        <time>2013-05-24T05:41:09Z</time>
      </trkpt>
      <trkpt lat="-21.17699" lon="55.49533">
        <ele>1877.7</ele>
        <time>2013-05-24T05:41:24Z</time>
      </trkpt>
      <trkpt lat="-21.1769" lon="55.49532">
        <ele>1879.9</ele>
        <time>2013-05-24T05:41:36Z</time>
      </trkpt>
      <trkpt lat="-21.17682" lon="55.49535">
        <ele>1881.5</ele>
        <time>2013-05-24T05:41:51Z</time>
      </trkpt>
      <trkpt lat="-21.17674" lon="55.49535">
        <ele>1883</ele>
        <time>2013-05-24T05:42:00Z</time>
      </trkpt>
      <trkpt lat="-21.17666" lon="55.49533">
        <ele>1884.5</ele>
        <time>2013-05-24T05:42:07Z</time>
      </trkpt>
      <trkpt lat="-21.17658" lon="55.49529">
        <ele>1885.2</ele>
        <time>2013-05-24T05:42:14Z</time>
      </trkpt>
      <trkpt lat="-21.1765" lon="55.49527">
        <ele>1887.5</ele>
        <time>2013-05-24T05:42:21Z</time>
      </trkpt>
      <trkpt lat="-21.17642" lon="55.49523">
        <ele>1888.5</ele>
        <time>2013-05-24T05:42:30Z</time>
      </trkpt>
      <trkpt lat="-21.17634" lon="55.49522">
        <ele>1888</ele>
        <time>2013-05-24T05:42:37Z</time>
      </trkpt>
      <trkpt lat="-21.17626" lon="55.49522">
        <ele>1887.7</ele>
        <time>2013-05-24T05:42:44Z</time>
      </trkpt>
      <trkpt lat="-21.17617" lon="55.4952">
        <ele>1885.6</ele>
        <time>2013-05-24T05:42:53Z</time>
      </trkpt>
      <trkpt lat="-21.17608" lon="55.49522">
        <ele>1886.7</ele>
        <time>2013-05-24T05:43:00Z</time>
      </trkpt>
      <trkpt lat="-21.17601" lon="55.49525">
        <ele>1886.4</ele>
        <time>2013-05-24T05:43:09Z</time>
      </trkpt>
      <trkpt lat="-21.17593" lon="55.49528">
        <ele>1884.7</ele>
        <time>2013-05-24T05:43:18Z</time>
      </trkpt>
      <trkpt lat="-21.17586" lon="55.49532">
        <ele>1883.1</ele>
        <time>2013-05-24T05:43:26Z</time>
      </trkpt>
      <trkpt lat="-21.17577" lon="55.49533">
        <ele>1880.1</ele>
        <time>2013-05-24T05:43:41Z</time>
      </trkpt>
      <trkpt lat="-21.17569" lon="55.49534">
        <ele>1879.6</ele>
        <time>2013-05-24T05:43:48Z</time>
      </trkpt>
      <trkpt lat="-21.1756" lon="55.49538">
        <ele>1879.4</ele>
        <time>2013-05-24T05:43:54Z</time>
      </trkpt>
      <trkpt lat="-21.17553" lon="55.49541">
        <ele>1878.5</ele>
        <time>2013-05-24T05:44:01Z</time>
      </trkpt>
      <trkpt lat="-21.17544" lon="55.49543">
        <ele>1878.1</ele>
        <time>2013-05-24T05:44:09Z</time>
      </trkpt>
      <trkpt lat="-21.17536" lon="55.49547">
        <ele>1882.5</ele>
        <time>2013-05-24T05:44:21Z</time>
      </trkpt>
      <trkpt lat="-21.17528" lon="55.49551">
        <ele>1887.2</ele>
        <time>2013-05-24T05:44:44Z</time>
      </trkpt>
      <trkpt lat="-21.17519" lon="55.49554">
        <ele>1894.8</ele>
        <time>2013-05-24T05:45:22Z</time>
      </trkpt>
      <trkpt lat="-21.17512" lon="55.49558">
        <ele>1899.2</ele>
        <time>2013-05-24T05:45:48Z</time>
      </trkpt>
      <trkpt lat="-21.17505" lon="55.49565">
        <ele>1906.9</ele>
        <time>2013-05-24T05:46:21Z</time>
      </trkpt>
      <trkpt lat="-21.17497" lon="55.49569">
        <ele>1907.8</ele>
        <time>2013-05-24T05:46:26Z</time>
      </trkpt>
      <trkpt lat="-21.17495" lon="55.49577">
        <ele>1911.5</ele>
        <time>2013-05-24T05:46:48Z</time>
      </trkpt>
      <trkpt lat="-21.17489" lon="55.49584">
        <ele>1915.7</ele>
        <time>2013-05-24T05:47:04Z</time>
      </trkpt>
      <trkpt lat="-21.1748" lon="55.49583">
        <ele>1920.5</ele>
        <time>2013-05-24T05:47:31Z</time>
      </trkpt>
      <trkpt lat="-21.17472" lon="55.4958">
        <ele>1922.5</ele>
        <time>2013-05-24T05:47:40Z</time>
      </trkpt>
      <trkpt lat="-21.17463" lon="55.49581">
        <ele>1923.9</ele>
        <time>2013-05-24T05:47:51Z</time>
      </trkpt>
      <trkpt lat="-21.17455" lon="55.49585">
        <ele>1925.1</ele>
        <time>2013-05-24T05:48:02Z</time>
      </trkpt>
      <trkpt lat="-21.17448" lon="55.49589">
        <ele>1927.1</ele>
        <time>2013-05-24T05:48:11Z</time>
      </trkpt>
      <trkpt lat="-21.1744" lon="55.49593">
        <ele>1929.2</ele>
        <time>2013-05-24T05:48:23Z</time>
      </trkpt>
      <trkpt lat="-21.17432" lon="55.49596">
        <ele>1930.4</ele>
        <time>2013-05-24T05:48:34Z</time>
      </trkpt>
      <trkpt lat="-21.17423" lon="55.49599">
        <ele>1932.7</ele>
        <time>2013-05-24T05:48:48Z</time>
      </trkpt>
      <trkpt lat="-21.17415" lon="55.49602">
        <ele>1936.3</ele>
        <time>2013-05-24T05:49:03Z</time>
      </trkpt>
      <trkpt lat="-21.17407" lon="55.49604">
        <ele>1939.6</ele>
        <time>2013-05-24T05:49:24Z</time>
      </trkpt>
      <trkpt lat="-21.17398" lon="55.49605">
        <ele>1942.9</ele>
        <time>2013-05-24T05:49:37Z</time>
      </trkpt>
      <trkpt lat="-21.1739" lon="55.49607">
        <ele>1943.5</ele>
        <time>2013-05-24T05:49:48Z</time>
      </trkpt>
      <trkpt lat="-21.17382" lon="55.49607">
        <ele>1943.5</ele>
        <time>2013-05-24T05:49:56Z</time>
      </trkpt>
      <trkpt lat="-21.17373" lon="55.49607">
        <ele>1945.3</ele>
        <time>2013-05-24T05:50:05Z</time>
      </trkpt>
      <trkpt lat="-21.17365" lon="55.49607">
        <ele>1946.8</ele>
        <time>2013-05-24T05:50:16Z</time>
      </trkpt>
      <trkpt lat="-21.17356" lon="55.49606">
        <ele>1948.7</ele>
        <time>2013-05-24T05:50:29Z</time>
      </trkpt>
      <trkpt lat="-21.17347" lon="55.49608">
        <ele>1951.8</ele>
        <time>2013-05-24T05:50:42Z</time>
      </trkpt>
      <trkpt lat="-21.17341" lon="55.49615">
        <ele>1953.5</ele>
        <time>2013-05-24T05:50:48Z</time>
      </trkpt>
      <trkpt lat="-21.17334" lon="55.4962">
        <ele>1959.2</ele>
        <time>2013-05-24T05:51:15Z</time>
      </trkpt>
      <trkpt lat="-21.17326" lon="55.49622">
        <ele>1964.1</ele>
        <time>2013-05-24T05:51:41Z</time>
      </trkpt>
      <trkpt lat="-21.17318" lon="55.49625">
        <ele>1966.2</ele>
        <time>2013-05-24T05:51:54Z</time>
      </trkpt>
      <trkpt lat="-21.1731" lon="55.4963">
        <ele>1967.6</ele>
        <time>2013-05-24T05:52:08Z</time>
      </trkpt>
      <trkpt lat="-21.17302" lon="55.4963">
        <ele>1970.3</ele>
        <time>2013-05-24T05:52:18Z</time>
      </trkpt>
      <trkpt lat="-21.17293" lon="55.49629">
        <ele>1973</ele>
        <time>2013-05-24T05:52:35Z</time>
      </trkpt>
      <trkpt lat="-21.17284" lon="55.49629">
        <ele>1977.2</ele>
        <time>2013-05-24T05:52:50Z</time>
      </trkpt>
      <trkpt lat="-21.17276" lon="55.49629">
        <ele>1978</ele>
        <time>2013-05-24T05:52:58Z</time>
      </trkpt>
      <trkpt lat="-21.17268" lon="55.49631">
        <ele>1978.6</ele>
        <time>2013-05-24T05:53:07Z</time>
      </trkpt>
      <trkpt lat="-21.17259" lon="55.49632">
        <ele>1981</ele>
        <time>2013-05-24T05:53:17Z</time>
      </trkpt>
      <trkpt lat="-21.17251" lon="55.49635">
        <ele>1983.8</ele>
        <time>2013-05-24T05:53:31Z</time>
      </trkpt>
      <trkpt lat="-21.17243" lon="55.49636">
        <ele>1986.8</ele>
        <time>2013-05-24T05:53:44Z</time>
      </trkpt>
      <trkpt lat="-21.17235" lon="55.49638">
        <ele>1988.8</ele>
        <time>2013-05-24T05:53:55Z</time>
      </trkpt>
      <trkpt lat="-21.17226" lon="55.49636">
        <ele>1993</ele>
        <time>2013-05-24T05:54:11Z</time>
      </trkpt>
      <trkpt lat="-21.17217" lon="55.49639">
        <ele>1996.4</ele>
        <time>2013-05-24T05:54:28Z</time>
      </trkpt>
      <trkpt lat="-21.17209" lon="55.49639">
        <ele>1998.1</ele>
        <time>2013-05-24T05:54:37Z</time>
      </trkpt>
      <trkpt lat="-21.17201" lon="55.49641">
        <ele>1999.2</ele>
        <time>2013-05-24T05:54:46Z</time>
      </trkpt>
      <trkpt lat="-21.17193" lon="55.4964">
        <ele>2000.9</ele>
        <time>2013-05-24T05:54:55Z</time>
      </trkpt>
      <trkpt lat="-21.17185" lon="55.49636">
        <ele>2003</ele>
        <time>2013-05-24T05:55:16Z</time>
      </trkpt>
      <trkpt lat="-21.17178" lon="55.49642">
        <ele>2008.8</ele>
        <time>2013-05-24T05:57:41Z</time>
      </trkpt>
      <trkpt lat="-21.17173" lon="55.4965">
        <ele>2010.5</ele>
        <time>2013-05-24T05:58:14Z</time>
      </trkpt>
      <trkpt lat="-21.17165" lon="55.49654">
        <ele>2013.1</ele>
        <time>2013-05-24T05:58:28Z</time>
      </trkpt>
      <trkpt lat="-21.17156" lon="55.49655">
        <ele>2016</ele>
        <time>2013-05-24T06:00:52Z</time>
      </trkpt>
      <trkpt lat="-21.17148" lon="55.49656">
        <ele>2014.5</ele>
        <time>2013-05-24T06:01:03Z</time>
      </trkpt>
      <trkpt lat="-21.1714" lon="55.4966">
        <ele>2012.7</ele>
        <time>2013-05-24T06:01:13Z</time>
      </trkpt>
      <trkpt lat="-21.17133" lon="55.49661">
        <ele>2011.6</ele>
        <time>2013-05-24T06:01:21Z</time>
      </trkpt>
      <trkpt lat="-21.17125" lon="55.49663">
        <ele>2010.4</ele>
        <time>2013-05-24T06:01:27Z</time>
      </trkpt>
      <trkpt lat="-21.17117" lon="55.49667">
        <ele>2012</ele>
        <time>2013-05-24T06:01:37Z</time>
      </trkpt>
      <trkpt lat="-21.1711" lon="55.49672">
        <ele>2014.5</ele>
        <time>2013-05-24T06:01:49Z</time>
      </trkpt>
      <trkpt lat="-21.17103" lon="55.49677">
        <ele>2015.3</ele>
        <time>2013-05-24T06:01:57Z</time>
      </trkpt>
      <trkpt lat="-21.17097" lon="55.49684">
        <ele>2016.8</ele>
        <time>2013-05-24T06:02:05Z</time>
      </trkpt>
      <trkpt lat="-21.17091" lon="55.49691">
        <ele>2018.4</ele>
        <time>2013-05-24T06:02:12Z</time>
      </trkpt>
      <trkpt lat="-21.17084" lon="55.49696">
        <ele>2019.5</ele>
        <time>2013-05-24T06:02:21Z</time>
      </trkpt>
      <trkpt lat="-21.17079" lon="55.49703">
        <ele>2019.5</ele>
        <time>2013-05-24T06:02:29Z</time>
      </trkpt>
      <trkpt lat="-21.17074" lon="55.4971">
        <ele>2021.2</ele>
        <time>2013-05-24T06:02:38Z</time>
      </trkpt>
      <trkpt lat="-21.17069" lon="55.49718">
        <ele>2024.2</ele>
        <time>2013-05-24T06:02:49Z</time>
      </trkpt>
      <trkpt lat="-21.17063" lon="55.49724">
        <ele>2021.8</ele>
        <time>2013-05-24T06:03:05Z</time>
      </trkpt>
      <trkpt lat="-21.17055" lon="55.49729">
        <ele>2019.5</ele>
        <time>2013-05-24T06:03:14Z</time>
      </trkpt>
      <trkpt lat="-21.17048" lon="55.49735">
        <ele>2017.7</ele>
        <time>2013-05-24T06:03:22Z</time>
      </trkpt>
      <trkpt lat="-21.1704" lon="55.49739">
        <ele>2016.4</ele>
        <time>2013-05-24T06:03:30Z</time>
      </trkpt>
      <trkpt lat="-21.17032" lon="55.49742">
        <ele>2014.6</ele>
        <time>2013-05-24T06:03:38Z</time>
      </trkpt>
      <trkpt lat="-21.17025" lon="55.49747">
        <ele>2016.8</ele>
        <time>2013-05-24T06:03:52Z</time>
      </trkpt>
      <trkpt lat="-21.17017" lon="55.49751">
        <ele>2021.4</ele>
        <time>2013-05-24T06:04:08Z</time>
      </trkpt>
      <trkpt lat="-21.1701" lon="55.49757">
        <ele>2025.6</ele>
        <time>2013-05-24T06:04:30Z</time>
      </trkpt>
      <trkpt lat="-21.17002" lon="55.49762">
        <ele>2028.2</ele>
        <time>2013-05-24T06:04:54Z</time>
      </trkpt>
      <trkpt lat="-21.16995" lon="55.49766">
        <ele>2030.7</ele>
        <time>2013-05-24T06:05:10Z</time>
      </trkpt>
      <trkpt lat="-21.16989" lon="55.49772">
        <ele>2031.8</ele>
        <time>2013-05-24T06:05:20Z</time>
      </trkpt>
      <trkpt lat="-21.16981" lon="55.49777">
        <ele>2033.6</ele>
        <time>2013-05-24T06:05:30Z</time>
      </trkpt>
      <trkpt lat="-21.16974" lon="55.49782">
        <ele>2036.4</ele>
        <time>2013-05-24T06:05:43Z</time>
      </trkpt>
      <trkpt lat="-21.16965" lon="55.49786">
        <ele>2038.9</ele>
        <time>2013-05-24T06:05:59Z</time>
      </trkpt>
      <trkpt lat="-21.16957" lon="55.49789">
        <ele>2042.1</ele>
        <time>2013-05-24T06:06:14Z</time>
      </trkpt>
      <trkpt lat="-21.16949" lon="55.49792">
        <ele>2044.8</ele>
        <time>2013-05-24T06:06:29Z</time>
      </trkpt>
      <trkpt lat="-21.1694" lon="55.49793">
        <ele>2047.8</ele>
        <time>2013-05-24T06:06:43Z</time>
      </trkpt>
      <trkpt lat="-21.16932" lon="55.49795">
        <ele>2049.8</ele>
        <time>2013-05-24T06:06:57Z</time>
      </trkpt>
      <trkpt lat="-21.16924" lon="55.49798">
        <ele>2051.4</ele>
        <time>2013-05-24T06:07:09Z</time>
      </trkpt>
      <trkpt lat="-21.16915" lon="55.49799">
        <ele>2054.5</ele>
        <time>2013-05-24T06:07:23Z</time>
      </trkpt>
      <trkpt lat="-21.16907" lon="55.49801">
        <ele>2055.8</ele>
        <time>2013-05-24T06:07:32Z</time>
      </trkpt>
      <trkpt lat="-21.16899" lon="55.49802">
        <ele>2056.6</ele>
        <time>2013-05-24T06:07:42Z</time>
      </trkpt>
      <trkpt lat="-21.16891" lon="55.49803">
        <ele>2057.4</ele>
        <time>2013-05-24T06:07:50Z</time>
      </trkpt>
      <trkpt lat="-21.16882" lon="55.49802">
        <ele>2058.8</ele>
        <time>2013-05-24T06:08:02Z</time>
      </trkpt>
      <trkpt lat="-21.16873" lon="55.49801">
        <ele>2062.1</ele>
        <time>2013-05-24T06:08:17Z</time>
      </trkpt>
      <trkpt lat="-21.16865" lon="55.49801">
        <ele>2064.3</ele>
        <time>2013-05-24T06:08:27Z</time>
      </trkpt>
      <trkpt lat="-21.16856" lon="55.498">
        <ele>2066.3</ele>
        <time>2013-05-24T06:08:38Z</time>
      </trkpt>
      <trkpt lat="-21.16848" lon="55.49798">
        <ele>2066.8</ele>
        <time>2013-05-24T06:08:46Z</time>
      </trkpt>
      <trkpt lat="-21.1684" lon="55.49795">
        <ele>2068.1</ele>
        <time>2013-05-24T06:08:53Z</time>
      </trkpt>
      <trkpt lat="-21.16832" lon="55.49792">
        <ele>2068.9</ele>
        <time>2013-05-24T06:09:01Z</time>
      </trkpt>
      <trkpt lat="-21.16825" lon="55.49787">
        <ele>2070.2</ele>
        <time>2013-05-24T06:09:08Z</time>
      </trkpt>
      <trkpt lat="-21.16817" lon="55.49783">
        <ele>2072</ele>
        <time>2013-05-24T06:09:16Z</time>
      </trkpt>
      <trkpt lat="-21.16808" lon="55.49781">
        <ele>2072.8</ele>
        <time>2013-05-24T06:09:25Z</time>
      </trkpt>
      <trkpt lat="-21.16801" lon="55.49778">
        <ele>2073.1</ele>
        <time>2013-05-24T06:09:33Z</time>
      </trkpt>
      <trkpt lat="-21.16793" lon="55.49776">
        <ele>2073.6</ele>
        <time>2013-05-24T06:09:42Z</time>
      </trkpt>
      <trkpt lat="-21.16785" lon="55.49774">
        <ele>2074.8</ele>
        <time>2013-05-24T06:09:50Z</time>
      </trkpt>
      <trkpt lat="-21.16776" lon="55.49772">
        <ele>2076.9</ele>
        <time>2013-05-24T06:09:58Z</time>
      </trkpt>
      <trkpt lat="-21.16767" lon="55.49771">
        <ele>2076.8</ele>
        <time>2013-05-24T06:10:06Z</time>
      </trkpt>
      <trkpt lat="-21.16759" lon="55.49771">
        <ele>2077.8</ele>
        <time>2013-05-24T06:10:13Z</time>
      </trkpt>
      <trkpt lat="-21.16751" lon="55.4977">
        <ele>2077.9</ele>
        <time>2013-05-24T06:10:21Z</time>
      </trkpt>
      <trkpt lat="-21.16743" lon="55.49769">
        <ele>2079.6</ele>
        <time>2013-05-24T06:10:29Z</time>
      </trkpt>
      <trkpt lat="-21.16734" lon="55.49771">
        <ele>2080.8</ele>
        <time>2013-05-24T06:10:37Z</time>
      </trkpt>
      <trkpt lat="-21.16726" lon="55.49772">
        <ele>2081.2</ele>
        <time>2013-05-24T06:10:43Z</time>
      </trkpt>
      <trkpt lat="-21.16718" lon="55.49774">
        <ele>2082.1</ele>
        <time>2013-05-24T06:10:51Z</time>
      </trkpt>
      <trkpt lat="-21.1671" lon="55.49777">
        <ele>2082.9</ele>
        <time>2013-05-24T06:10:57Z</time>
      </trkpt>
      <trkpt lat="-21.16702" lon="55.4978">
        <ele>2083.8</ele>
        <time>2013-05-24T06:11:05Z</time>
      </trkpt>
      <trkpt lat="-21.16694" lon="55.49783">
        <ele>2084.7</ele>
        <time>2013-05-24T06:11:12Z</time>
      </trkpt>
      <trkpt lat="-21.16686" lon="55.49785">
        <ele>2085.7</ele>
        <time>2013-05-24T06:11:19Z</time>
      </trkpt>
      <trkpt lat="-21.16678" lon="55.49787">
        <ele>2086.7</ele>
        <time>2013-05-24T06:11:27Z</time>
      </trkpt>
      <trkpt lat="-21.1667" lon="55.49791">
        <ele>2087.3</ele>
        <time>2013-05-24T06:11:35Z</time>
      </trkpt>
      <trkpt lat="-21.16663" lon="55.49795">
        <ele>2089.4</ele>
        <time>2013-05-24T06:11:44Z</time>
      </trkpt>
      <trkpt lat="-21.16655" lon="55.49798">
        <ele>2089</ele>
        <time>2013-05-24T06:11:52Z</time>
      </trkpt>
      <trkpt lat="-21.16647" lon="55.49799">
        <ele>2089.4</ele>
        <time>2013-05-24T06:11:59Z</time>
      </trkpt>
      <trkpt lat="-21.16639" lon="55.498">
        <ele>2090.8</ele>
        <time>2013-05-24T06:12:07Z</time>
      </trkpt>
      <trkpt lat="-21.16631" lon="55.49804">
        <ele>2091.8</ele>
        <time>2013-05-24T06:12:16Z</time>
      </trkpt>
      <trkpt lat="-21.16622" lon="55.49806">
        <ele>2093.1</ele>
        <time>2013-05-24T06:12:26Z</time>
      </trkpt>
      <trkpt lat="-21.16614" lon="55.49808">
        <ele>2096.4</ele>
        <time>2013-05-24T06:12:39Z</time>
      </trkpt>
      <trkpt lat="-21.16606" lon="55.4981">
        <ele>2098.1</ele>
        <time>2013-05-24T06:12:48Z</time>
      </trkpt>
      <trkpt lat="-21.16598" lon="55.49815">
        <ele>2097.7</ele>
        <time>2013-05-24T06:12:55Z</time>
      </trkpt>
      <trkpt lat="-21.16591" lon="55.49812">
        <ele>2100.4</ele>
        <time>2013-05-24T06:13:08Z</time>
      </trkpt>
      <trkpt lat="-21.16582" lon="55.49811">
        <ele>2101.4</ele>
        <time>2013-05-24T06:13:18Z</time>
      </trkpt>
      <trkpt lat="-21.16575" lon="55.49815">
        <ele>2105.7</ele>
        <time>2013-05-24T06:13:36Z</time>
      </trkpt>
      <trkpt lat="-21.16567" lon="55.4982">
        <ele>2107.2</ele>
        <time>2013-05-24T06:13:48Z</time>
      </trkpt>
      <trkpt lat="-21.16559" lon="55.49824">
        <ele>2108.8</ele>
        <time>2013-05-24T06:13:56Z</time>
      </trkpt>
      <trkpt lat="-21.16553" lon="55.4983">
        <ele>2109.5</ele>
        <time>2013-05-24T06:14:04Z</time>
      </trkpt>
      <trkpt lat="-21.16545" lon="55.49834">
        <ele>2109.6</ele>
        <time>2013-05-24T06:14:12Z</time>
      </trkpt>
      <trkpt lat="-21.16536" lon="55.49835">
        <ele>2115.7</ele>
        <time>2013-05-24T06:14:44Z</time>
      </trkpt>
      <trkpt lat="-21.1653" lon="55.4984">
        <ele>2118.1</ele>
        <time>2013-05-24T06:15:01Z</time>
      </trkpt>
      <trkpt lat="-21.16528" lon="55.49848">
        <ele>2121.1</ele>
        <time>2013-05-24T06:15:11Z</time>
      </trkpt>
      <trkpt lat="-21.1652" lon="55.4985">
        <ele>2121.5</ele>
        <time>2013-05-24T06:15:19Z</time>
      </trkpt>
      <trkpt lat="-21.16512" lon="55.49851">
        <ele>2123.6</ele>
        <time>2013-05-24T06:15:32Z</time>
      </trkpt>
      <trkpt lat="-21.16504" lon="55.49851">
        <ele>2124.4</ele>
        <time>2013-05-24T06:15:36Z</time>
      </trkpt>
      <trkpt lat="-21.16495" lon="55.4985">
        <ele>2125.8</ele>
        <time>2013-05-24T06:15:51Z</time>
      </trkpt>
      <trkpt lat="-21.16487" lon="55.49854">
        <ele>2127.2</ele>
        <time>2013-05-24T06:16:03Z</time>
      </trkpt>
      <trkpt lat="-21.16479" lon="55.49859">
        <ele>2129.4</ele>
        <time>2013-05-24T06:16:21Z</time>
      </trkpt>
      <trkpt lat="-21.16471" lon="55.49863">
        <ele>2130.7</ele>
        <time>2013-05-24T06:16:32Z</time>
      </trkpt>
      <trkpt lat="-21.16463" lon="55.49866">
        <ele>2132.7</ele>
        <time>2013-05-24T06:16:44Z</time>
      </trkpt>
      <trkpt lat="-21.16456" lon="55.49872">
        <ele>2134.8</ele>
        <time>2013-05-24T06:17:03Z</time>
      </trkpt>
      <trkpt lat="-21.1645" lon="55.49879">
        <ele>2139.1</ele>
        <time>2013-05-24T06:17:23Z</time>
      </trkpt>
      <trkpt lat="-21.16444" lon="55.49884">
        <ele>2139.6</ele>
        <time>2013-05-24T06:17:31Z</time>
      </trkpt>
      <trkpt lat="-21.16439" lon="55.49891">
        <ele>2140.5</ele>
        <time>2013-05-24T06:17:41Z</time>
      </trkpt>
      <trkpt lat="-21.16432" lon="55.49895">
        <ele>2140.7</ele>
        <time>2013-05-24T06:17:51Z</time>
      </trkpt>
      <trkpt lat="-21.16424" lon="55.499">
        <ele>2142.3</ele>
        <time>2013-05-24T06:18:04Z</time>
      </trkpt>
      <trkpt lat="-21.16416" lon="55.49904">
        <ele>2143.2</ele>
        <time>2013-05-24T06:18:13Z</time>
      </trkpt>
      <trkpt lat="-21.16409" lon="55.49908">
        <ele>2144.5</ele>
        <time>2013-05-24T06:18:23Z</time>
      </trkpt>
      <trkpt lat="-21.16401" lon="55.4991">
        <ele>2145.8</ele>
        <time>2013-05-24T06:18:34Z</time>
      </trkpt>
      <trkpt lat="-21.16393" lon="55.49914">
        <ele>2147.7</ele>
        <time>2013-05-24T06:18:44Z</time>
      </trkpt>
      <trkpt lat="-21.16387" lon="55.4992">
        <ele>2147.2</ele>
        <time>2013-05-24T06:18:53Z</time>
      </trkpt>
      <trkpt lat="-21.16379" lon="55.49924">
        <ele>2148</ele>
        <time>2013-05-24T06:19:01Z</time>
      </trkpt>
      <trkpt lat="-21.1637" lon="55.49924">
        <ele>2148.5</ele>
        <time>2013-05-24T06:19:09Z</time>
      </trkpt>
      <trkpt lat="-21.16362" lon="55.49927">
        <ele>2149.8</ele>
        <time>2013-05-24T06:19:17Z</time>
      </trkpt>
      <trkpt lat="-21.16354" lon="55.4993">
        <ele>2150.7</ele>
        <time>2013-05-24T06:19:25Z</time>
      </trkpt>
      <trkpt lat="-21.16346" lon="55.49933">
        <ele>2151</ele>
        <time>2013-05-24T06:19:33Z</time>
      </trkpt>
      <trkpt lat="-21.16338" lon="55.49937">
        <ele>2152.7</ele>
        <time>2013-05-24T06:19:41Z</time>
      </trkpt>
      <trkpt lat="-21.16331" lon="55.4994">
        <ele>2154.3</ele>
        <time>2013-05-24T06:19:49Z</time>
      </trkpt>
      <trkpt lat="-21.16323" lon="55.49943">
        <ele>2154.2</ele>
        <time>2013-05-24T06:19:56Z</time>
      </trkpt>
      <trkpt lat="-21.16315" lon="55.49946">
        <ele>2152.3</ele>
        <time>2013-05-24T06:20:03Z</time>
      </trkpt>
      <trkpt lat="-21.16307" lon="55.49948">
        <ele>2151.3</ele>
        <time>2013-05-24T06:20:09Z</time>
      </trkpt>
      <trkpt lat="-21.16299" lon="55.49952">
        <ele>2151.7</ele>
        <time>2013-05-24T06:20:16Z</time>
      </trkpt>
      <trkpt lat="-21.16292" lon="55.49956">
        <ele>2151.4</ele>
        <time>2013-05-24T06:20:22Z</time>
      </trkpt>
      <trkpt lat="-21.16284" lon="55.4996">
        <ele>2151.6</ele>
        <time>2013-05-24T06:20:31Z</time>
      </trkpt>
      <trkpt lat="-21.16276" lon="55.49962">
        <ele>2150.7</ele>
        <time>2013-05-24T06:20:39Z</time>
      </trkpt>
      <trkpt lat="-21.16267" lon="55.49965">
        <ele>2151.2</ele>
        <time>2013-05-24T06:20:48Z</time>
      </trkpt>
      <trkpt lat="-21.16259" lon="55.49967">
        <ele>2153.4</ele>
        <time>2013-05-24T06:20:57Z</time>
      </trkpt>
      <trkpt lat="-21.16251" lon="55.49967">
        <ele>2154.5</ele>
        <time>2013-05-24T06:21:05Z</time>
      </trkpt>
      <trkpt lat="-21.16243" lon="55.4997">
        <ele>2156.4</ele>
        <time>2013-05-24T06:21:13Z</time>
      </trkpt>
      <trkpt lat="-21.16235" lon="55.49974">
        <ele>2158.7</ele>
        <time>2013-05-24T06:21:23Z</time>
      </trkpt>
      <trkpt lat="-21.16227" lon="55.49977">
        <ele>2159.5</ele>
        <time>2013-05-24T06:21:33Z</time>
      </trkpt>
      <trkpt lat="-21.1622" lon="55.49982">
        <ele>2161.8</ele>
        <time>2013-05-24T06:21:44Z</time>
      </trkpt>
      <trkpt lat="-21.16213" lon="55.49987">
        <ele>2163.2</ele>
        <time>2013-05-24T06:21:53Z</time>
      </trkpt>
      <trkpt lat="-21.16206" lon="55.49992">
        <ele>2163.4</ele>
        <time>2013-05-24T06:22:04Z</time>
      </trkpt>
      <trkpt lat="-21.16198" lon="55.49996">
        <ele>2166.6</ele>
        <time>2013-05-24T06:22:19Z</time>
      </trkpt>
      <trkpt lat="-21.16192" lon="55.50002">
        <ele>2167.9</ele>
        <time>2013-05-24T06:22:28Z</time>
      </trkpt>
      <trkpt lat="-21.16185" lon="55.50007">
        <ele>2167.7</ele>
        <time>2013-05-24T06:22:36Z</time>
      </trkpt>
      <trkpt lat="-21.16178" lon="55.50012">
        <ele>2169.7</ele>
        <time>2013-05-24T06:22:46Z</time>
      </trkpt>
      <trkpt lat="-21.1617" lon="55.50016">
        <ele>2170.6</ele>
        <time>2013-05-24T06:22:59Z</time>
      </trkpt>
      <trkpt lat="-21.16162" lon="55.5002">
        <ele>2172.6</ele>
        <time>2013-05-24T06:23:10Z</time>
      </trkpt>
      <trkpt lat="-21.16154" lon="55.50023">
        <ele>2174.6</ele>
        <time>2013-05-24T06:23:26Z</time>
      </trkpt>
      <trkpt lat="-21.16146" lon="55.50027">
        <ele>2176.8</ele>
        <time>2013-05-24T06:23:39Z</time>
      </trkpt>
      <trkpt lat="-21.16139" lon="55.50032">
        <ele>2178.2</ele>
        <time>2013-05-24T06:23:52Z</time>
      </trkpt>
      <trkpt lat="-21.1613" lon="55.50034">
        <ele>2181.8</ele>
        <time>2013-05-24T06:24:08Z</time>
      </trkpt>
      <trkpt lat="-21.16123" lon="55.50039">
        <ele>2184.1</ele>
        <time>2013-05-24T06:24:24Z</time>
      </trkpt>
      <trkpt lat="-21.16116" lon="55.50044">
        <ele>2186.2</ele>
        <time>2013-05-24T06:24:37Z</time>
      </trkpt>
      <trkpt lat="-21.16108" lon="55.50048">
        <ele>2186.1</ele>
        <time>2013-05-24T06:24:47Z</time>
      </trkpt>
      <trkpt lat="-21.161" lon="55.50051">
        <ele>2186.1</ele>
        <time>2013-05-24T06:24:56Z</time>
      </trkpt>
      <trkpt lat="-21.16092" lon="55.50054">
        <ele>2187</ele>
        <time>2013-05-24T06:25:04Z</time>
      </trkpt>
      <trkpt lat="-21.16084" lon="55.50058">
        <ele>2186.9</ele>
        <time>2013-05-24T06:25:12Z</time>
      </trkpt>
      <trkpt lat="-21.16077" lon="55.50061">
        <ele>2188.1</ele>
        <time>2013-05-24T06:25:20Z</time>
      </trkpt>
      <trkpt lat="-21.16069" lon="55.50065">
        <ele>2189.5</ele>
        <time>2013-05-24T06:25:29Z</time>
      </trkpt>
      <trkpt lat="-21.16061" lon="55.50068">
        <ele>2191.3</ele>
        <time>2013-05-24T06:25:39Z</time>
      </trkpt>
      <trkpt lat="-21.16054" lon="55.50073">
        <ele>2192.7</ele>
        <time>2013-05-24T06:25:48Z</time>
      </trkpt>
      <trkpt lat="-21.16048" lon="55.50078">
        <ele>2191.3</ele>
        <time>2013-05-24T06:25:55Z</time>
      </trkpt>
      <trkpt lat="-21.1604" lon="55.50084">
        <ele>2191.3</ele>
        <time>2013-05-24T06:26:03Z</time>
      </trkpt>
      <trkpt lat="-21.16034" lon="55.50089">
        <ele>2191.2</ele>
        <time>2013-05-24T06:26:11Z</time>
      </trkpt>
      <trkpt lat="-21.16027" lon="55.50094">
        <ele>2190.5</ele>
        <time>2013-05-24T06:26:17Z</time>
      </trkpt>
      <trkpt lat="-21.16021" lon="55.501">
        <ele>2190.7</ele>
        <time>2013-05-24T06:26:24Z</time>
      </trkpt>
      <trkpt lat="-21.16015" lon="55.50106">
        <ele>2191.1</ele>
        <time>2013-05-24T06:26:32Z</time>
      </trkpt>
      <trkpt lat="-21.16008" lon="55.50112">
        <ele>2192.7</ele>
        <time>2013-05-24T06:26:39Z</time>
      </trkpt>
      <trkpt lat="-21.16004" lon="55.50119">
        <ele>2192.6</ele>
        <time>2013-05-24T06:26:45Z</time>
      </trkpt>
      <trkpt lat="-21.15998" lon="55.50126">
        <ele>2192.7</ele>
        <time>2013-05-24T06:26:52Z</time>
      </trkpt>
      <trkpt lat="-21.15993" lon="55.50133">
        <ele>2191.7</ele>
        <time>2013-05-24T06:26:59Z</time>
      </trkpt>
      <trkpt lat="-21.15985" lon="55.50138">
        <ele>2189.5</ele>
        <time>2013-05-24T06:27:09Z</time>
      </trkpt>
      <trkpt lat="-21.15978" lon="55.50143">
        <ele>2188.9</ele>
        <time>2013-05-24T06:27:16Z</time>
      </trkpt>
      <trkpt lat="-21.15971" lon="55.50149">
        <ele>2190.3</ele>
        <time>2013-05-24T06:27:24Z</time>
      </trkpt>
      <trkpt lat="-21.15966" lon="55.50155">
        <ele>2190.1</ele>
        <time>2013-05-24T06:27:30Z</time>
      </trkpt>
      <trkpt lat="-21.15959" lon="55.50161">
        <ele>2190.9</ele>
        <time>2013-05-24T06:27:37Z</time>
      </trkpt>
      <trkpt lat="-21.15953" lon="55.50167">
        <ele>2191.6</ele>
        <time>2013-05-24T06:27:44Z</time>
      </trkpt>
      <trkpt lat="-21.15947" lon="55.50174">
        <ele>2192.1</ele>
        <time>2013-05-24T06:27:52Z</time>
      </trkpt>
      <trkpt lat="-21.15941" lon="55.50181">
        <ele>2191.9</ele>
        <time>2013-05-24T06:28:00Z</time>
      </trkpt>
      <trkpt lat="-21.15935" lon="55.50186">
        <ele>2191.4</ele>
        <time>2013-05-24T06:28:06Z</time>
      </trkpt>
      <trkpt lat="-21.15928" lon="55.50191">
        <ele>2191.9</ele>
        <time>2013-05-24T06:28:12Z</time>
      </trkpt>
      <trkpt lat="-21.15922" lon="55.50196">
        <ele>2190.6</ele>
        <time>2013-05-24T06:28:18Z</time>
      </trkpt>
      <trkpt lat="-21.15916" lon="55.50202">
        <ele>2190.9</ele>
        <time>2013-05-24T06:28:24Z</time>
      </trkpt>
      <trkpt lat="-21.15909" lon="55.50207">
        <ele>2190.5</ele>
        <time>2013-05-24T06:28:31Z</time>
      </trkpt>
      <trkpt lat="-21.15902" lon="55.5021">
        <ele>2190.5</ele>
        <time>2013-05-24T06:28:37Z</time>
      </trkpt>
      <trkpt lat="-21.15893" lon="55.50213">
        <ele>2190.5</ele>
        <time>2013-05-24T06:28:45Z</time>
      </trkpt>
      <trkpt lat="-21.15885" lon="55.50214">
        <ele>2193.1</ele>
        <time>2013-05-24T06:28:57Z</time>
      </trkpt>
      <trkpt lat="-21.15877" lon="55.50214">
        <ele>2194.1</ele>
        <time>2013-05-24T06:29:03Z</time>
      </trkpt>
      <trkpt lat="-21.15869" lon="55.50216">
        <ele>2194.7</ele>
        <time>2013-05-24T06:29:09Z</time>
      </trkpt>
      <trkpt lat="-21.15861" lon="55.50218">
        <ele>2195.2</ele>
        <time>2013-05-24T06:29:15Z</time>
      </trkpt>
      <trkpt lat="-21.15852" lon="55.50216">
        <ele>2194.7</ele>
        <time>2013-05-24T06:29:22Z</time>
      </trkpt>
      <trkpt lat="-21.15844" lon="55.50214">
        <ele>2195.2</ele>
        <time>2013-05-24T06:29:30Z</time>
      </trkpt>
      <trkpt lat="-21.15836" lon="55.50213">
        <ele>2196.4</ele>
        <time>2013-05-24T06:29:37Z</time>
      </trkpt>
      <trkpt lat="-21.15827" lon="55.50211">
        <ele>2196.9</ele>
        <time>2013-05-24T06:29:45Z</time>
      </trkpt>
      <trkpt lat="-21.15819" lon="55.50211">
        <ele>2197.8</ele>
        <time>2013-05-24T06:29:52Z</time>
      </trkpt>
      <trkpt lat="-21.15811" lon="55.50209">
        <ele>2198.6</ele>
        <time>2013-05-24T06:30:00Z</time>
      </trkpt>
      <trkpt lat="-21.15803" lon="55.50209">
        <ele>2200.1</ele>
        <time>2013-05-24T06:30:08Z</time>
      </trkpt>
      <trkpt lat="-21.15794" lon="55.50208">
        <ele>2201.7</ele>
        <time>2013-05-24T06:30:18Z</time>
      </trkpt>
      <trkpt lat="-21.15785" lon="55.50207">
        <ele>2204</ele>
        <time>2013-05-24T06:30:31Z</time>
      </trkpt>
      <trkpt lat="-21.15777" lon="55.50205">
        <ele>2206.3</ele>
        <time>2013-05-24T06:30:43Z</time>
      </trkpt>
      <trkpt lat="-21.1577" lon="55.50201">
        <ele>2208.5</ele>
        <time>2013-05-24T06:30:54Z</time>
      </trkpt>
      <trkpt lat="-21.15762" lon="55.50197">
        <ele>2209.5</ele>
        <time>2013-05-24T06:31:03Z</time>
      </trkpt>
      <trkpt lat="-21.15755" lon="55.50193">
        <ele>2211.8</ele>
        <time>2013-05-24T06:31:13Z</time>
      </trkpt>
      <trkpt lat="-21.15748" lon="55.50188">
        <ele>2211.8</ele>
        <time>2013-05-24T06:31:21Z</time>
      </trkpt>
      <trkpt lat="-21.15739" lon="55.50186">
        <ele>2212.1</ele>
        <time>2013-05-24T06:31:30Z</time>
      </trkpt>
      <trkpt lat="-21.15731" lon="55.50183">
        <ele>2211.8</ele>
        <time>2013-05-24T06:31:41Z</time>
      </trkpt>
      <trkpt lat="-21.15723" lon="55.50182">
        <ele>2209.8</ele>
        <time>2013-05-24T06:31:49Z</time>
      </trkpt>
      <trkpt lat="-21.15714" lon="55.50183">
        <ele>2208.2</ele>
        <time>2013-05-24T06:31:57Z</time>
      </trkpt>
      <trkpt lat="-21.15706" lon="55.50182">
        <ele>2206.7</ele>
        <time>2013-05-24T06:32:05Z</time>
      </trkpt>
      <trkpt lat="-21.15697" lon="55.50182">
        <ele>2204.7</ele>
        <time>2013-05-24T06:32:16Z</time>
      </trkpt>
      <trkpt lat="-21.15689" lon="55.50178">
        <ele>2203</ele>
        <time>2013-05-24T06:32:27Z</time>
      </trkpt>
      <trkpt lat="-21.15681" lon="55.50175">
        <ele>2199.5</ele>
        <time>2013-05-24T06:32:48Z</time>
      </trkpt>
      <trkpt lat="-21.15673" lon="55.50174">
        <ele>2192.9</ele>
        <time>2013-05-24T06:33:09Z</time>
      </trkpt>
      <trkpt lat="-21.15664" lon="55.50171">
        <ele>2190.5</ele>
        <time>2013-05-24T06:34:09Z</time>
      </trkpt>
      <trkpt lat="-21.15656" lon="55.5017">
        <ele>2182.1</ele>
        <time>2013-05-24T06:35:19Z</time>
      </trkpt>
      <trkpt lat="-21.15647" lon="55.50171">
        <ele>2177.9</ele>
        <time>2013-05-24T06:37:06Z</time>
      </trkpt>
      <trkpt lat="-21.15638" lon="55.50171">
        <ele>2175.4</ele>
        <time>2013-05-24T06:37:26Z</time>
      </trkpt>
      <trkpt lat="-21.1563" lon="55.5017">
        <ele>2172.5</ele>
        <time>2013-05-24T06:37:38Z</time>
      </trkpt>
      <trkpt lat="-21.15621" lon="55.5017">
        <ele>2171.5</ele>
        <time>2013-05-24T06:37:45Z</time>
      </trkpt>
      <trkpt lat="-21.15613" lon="55.50173">
        <ele>2173.4</ele>
        <time>2013-05-24T06:38:00Z</time>
      </trkpt>
      <trkpt lat="-21.15604" lon="55.50171">
        <ele>2172.3</ele>
        <time>2013-05-24T06:38:12Z</time>
      </trkpt>
      <trkpt lat="-21.15596" lon="55.50167">
        <ele>2172.2</ele>
        <time>2013-05-24T06:38:21Z</time>
      </trkpt>
      <trkpt lat="-21.15588" lon="55.50163">
        <ele>2172.2</ele>
        <time>2013-05-24T06:38:30Z</time>
      </trkpt>
      <trkpt lat="-21.1558" lon="55.50159">
        <ele>2171</ele>
        <time>2013-05-24T06:38:39Z</time>
      </trkpt>
      <trkpt lat="-21.15572" lon="55.50157">
        <ele>2171.2</ele>
        <time>2013-05-24T06:38:45Z</time>
      </trkpt>
      <trkpt lat="-21.15564" lon="55.50153">
        <ele>2171.9</ele>
        <time>2013-05-24T06:38:52Z</time>
      </trkpt>
      <trkpt lat="-21.15557" lon="55.50149">
        <ele>2172.8</ele>
        <time>2013-05-24T06:38:58Z</time>
      </trkpt>
      <trkpt lat="-21.1555" lon="55.50145">
        <ele>2172.3</ele>
        <time>2013-05-24T06:39:04Z</time>
      </trkpt>
      <trkpt lat="-21.15542" lon="55.50141">
        <ele>2172.1</ele>
        <time>2013-05-24T06:39:10Z</time>
      </trkpt>
      <trkpt lat="-21.15534" lon="55.50137">
        <ele>2173.1</ele>
        <time>2013-05-24T06:39:17Z</time>
      </trkpt>
      <trkpt lat="-21.15527" lon="55.50132">
        <ele>2172.4</ele>
        <time>2013-05-24T06:39:32Z</time>
      </trkpt>
      <trkpt lat="-21.15521" lon="55.50126">
        <ele>2170.5</ele>
        <time>2013-05-24T06:39:47Z</time>
      </trkpt>
      <trkpt lat="-21.15512" lon="55.50127">
        <ele>2168.6</ele>
        <time>2013-05-24T06:39:59Z</time>
      </trkpt>
      <trkpt lat="-21.15503" lon="55.5013">
        <ele>2165.1</ele>
        <time>2013-05-24T06:40:14Z</time>
      </trkpt>
      <trkpt lat="-21.15495" lon="55.50128">
        <ele>2162.7</ele>
        <time>2013-05-24T06:40:24Z</time>
      </trkpt>
      <trkpt lat="-21.15486" lon="55.50128">
        <ele>2161.7</ele>
        <time>2013-05-24T06:40:33Z</time>
      </trkpt>
      <trkpt lat="-21.15477" lon="55.50128">
        <ele>2160.4</ele>
        <time>2013-05-24T06:41:39Z</time>
      </trkpt>
      <trkpt lat="-21.15469" lon="55.50127">
        <ele>2156.2</ele>
        <time>2013-05-24T06:42:17Z</time>
      </trkpt>
      <trkpt lat="-21.15465" lon="55.50136">
        <ele>2148.6</ele>
        <time>2013-05-24T06:43:42Z</time>
      </trkpt>
      <trkpt lat="-21.15458" lon="55.50131">
        <ele>2146.9</ele>
        <time>2013-05-24T06:43:57Z</time>
      </trkpt>
      <trkpt lat="-21.1545" lon="55.50126">
        <ele>2147.7</ele>
        <time>2013-05-24T06:44:08Z</time>
      </trkpt>
      <trkpt lat="-21.15443" lon="55.50121">
        <ele>2148.6</ele>
        <time>2013-05-24T06:44:18Z</time>
      </trkpt>
      <trkpt lat="-21.15436" lon="55.50116">
        <ele>2150.2</ele>
        <time>2013-05-24T06:44:32Z</time>
      </trkpt>
      <trkpt lat="-21.15433" lon="55.50116">
        <ele>2147</ele>
        <time>2013-05-24T06:44:47Z</time>
      </trkpt>
      <trkpt lat="-21.15425" lon="55.50115">
        <ele>2147.5</ele>
        <time>2013-05-24T06:44:48Z</time>
      </trkpt>
      <trkpt lat="-21.15421" lon="55.50107">
        <ele>2158.8</ele>
        <time>2013-05-24T06:45:37Z</time>
      </trkpt>
      <trkpt lat="-21.15413" lon="55.50103">
        <ele>2161.9</ele>
        <time>2013-05-24T06:47:12Z</time>
      </trkpt>
      <trkpt lat="-21.15404" lon="55.50101">
        <ele>2163.9</ele>
        <time>2013-05-24T06:47:30Z</time>
      </trkpt>
      <trkpt lat="-21.15396" lon="55.50098">
        <ele>2165.9</ele>
        <time>2013-05-24T06:47:52Z</time>
      </trkpt>
      <trkpt lat="-21.15388" lon="55.50094">
        <ele>2170.4</ele>
        <time>2013-05-24T06:48:13Z</time>
      </trkpt>
      <trkpt lat="-21.15379" lon="55.50095">
        <ele>2175.8</ele>
        <time>2013-05-24T06:49:06Z</time>
      </trkpt>
      <trkpt lat="-21.15371" lon="55.50094">
        <ele>2179.7</ele>
        <time>2013-05-24T06:50:00Z</time>
      </trkpt>
      <trkpt lat="-21.15363" lon="55.50097">
        <ele>2181.1</ele>
        <time>2013-05-24T06:51:46Z</time>
      </trkpt>
      <trkpt lat="-21.15354" lon="55.50096">
        <ele>2181.2</ele>
        <time>2013-05-24T06:51:59Z</time>
      </trkpt>
      <trkpt lat="-21.15346" lon="55.50098">
        <ele>2181</ele>
        <time>2013-05-24T06:52:06Z</time>
      </trkpt>
      <trkpt lat="-21.15338" lon="55.501">
        <ele>2181.5</ele>
        <time>2013-05-24T06:52:16Z</time>
      </trkpt>
      <trkpt lat="-21.1533" lon="55.50104">
        <ele>2183.6</ele>
        <time>2013-05-24T06:52:27Z</time>
      </trkpt>
      <trkpt lat="-21.15323" lon="55.5011">
        <ele>2189.2</ele>
        <time>2013-05-24T06:52:59Z</time>
      </trkpt>
      <trkpt lat="-21.15315" lon="55.50113">
        <ele>2191.2</ele>
        <time>2013-05-24T06:53:16Z</time>
      </trkpt>
      <trkpt lat="-21.15307" lon="55.50116">
        <ele>2196.2</ele>
        <time>2013-05-24T06:53:45Z</time>
      </trkpt>
      <trkpt lat="-21.153" lon="55.50123">
        <ele>2202.1</ele>
        <time>2013-05-24T06:54:18Z</time>
      </trkpt>
      <trkpt lat="-21.15294" lon="55.50128">
        <ele>2204.1</ele>
        <time>2013-05-24T06:54:31Z</time>
      </trkpt>
      <trkpt lat="-21.15286" lon="55.50131">
        <ele>2206.2</ele>
        <time>2013-05-24T06:54:42Z</time>
      </trkpt>
      <trkpt lat="-21.15277" lon="55.50132">
        <ele>2207.7</ele>
        <time>2013-05-24T06:54:58Z</time>
      </trkpt>
      <trkpt lat="-21.15269" lon="55.5013">
        <ele>2210.5</ele>
        <time>2013-05-24T06:55:21Z</time>
      </trkpt>
      <trkpt lat="-21.15261" lon="55.5013">
        <ele>2216.5</ele>
        <time>2013-05-24T06:55:56Z</time>
      </trkpt>
      <trkpt lat="-21.15252" lon="55.50129">
        <ele>2219.1</ele>
        <time>2013-05-24T06:56:10Z</time>
      </trkpt>
      <trkpt lat="-21.15246" lon="55.50123">
        <ele>2223.2</ele>
        <time>2013-05-24T06:56:33Z</time>
      </trkpt>
      <trkpt lat="-21.15237" lon="55.50124">
        <ele>2227.2</ele>
        <time>2013-05-24T06:56:58Z</time>
      </trkpt>
      <trkpt lat="-21.1523" lon="55.50118">
        <ele>2229.9</ele>
        <time>2013-05-24T06:57:15Z</time>
      </trkpt>
      <trkpt lat="-21.15222" lon="55.50113">
        <ele>2231.8</ele>
        <time>2013-05-24T06:57:52Z</time>
      </trkpt>
      <trkpt lat="-21.15214" lon="55.50114">
        <ele>2231.4</ele>
        <time>2013-05-24T06:58:16Z</time>
      </trkpt>
      <trkpt lat="-21.15205" lon="55.50115">
        <ele>2229.3</ele>
        <time>2013-05-24T06:58:32Z</time>
      </trkpt>
      <trkpt lat="-21.15199" lon="55.50122">
        <ele>2221.6</ele>
        <time>2013-05-24T06:59:16Z</time>
      </trkpt>
      <trkpt lat="-21.15191" lon="55.50123">
        <ele>2221.4</ele>
        <time>2013-05-24T06:59:26Z</time>
      </trkpt>
      <trkpt lat="-21.15182" lon="55.50125">
        <ele>2220.5</ele>
        <time>2013-05-24T06:59:34Z</time>
      </trkpt>
      <trkpt lat="-21.15174" lon="55.50125">
        <ele>2221.2</ele>
        <time>2013-05-24T06:59:41Z</time>
      </trkpt>
      <trkpt lat="-21.15167" lon="55.50126">
        <ele>2221</ele>
        <time>2013-05-24T06:59:46Z</time>
      </trkpt>
      <trkpt lat="-21.15158" lon="55.50126">
        <ele>2220.7</ele>
        <time>2013-05-24T06:59:52Z</time>
      </trkpt>
      <trkpt lat="-21.1515" lon="55.50127">
        <ele>2220.8</ele>
        <time>2013-05-24T06:59:59Z</time>
      </trkpt>
      <trkpt lat="-21.15142" lon="55.5013">
        <ele>2224</ele>
        <time>2013-05-24T07:00:19Z</time>
      </trkpt>
      <trkpt lat="-21.15134" lon="55.5013">
        <ele>2225.8</ele>
        <time>2013-05-24T07:00:33Z</time>
      </trkpt>
      <trkpt lat="-21.15125" lon="55.50132">
        <ele>2225.6</ele>
        <time>2013-05-24T07:00:43Z</time>
      </trkpt>
      <trkpt lat="-21.15116" lon="55.50132">
        <ele>2228</ele>
        <time>2013-05-24T07:01:02Z</time>
      </trkpt>
      <trkpt lat="-21.15111" lon="55.50139">
        <ele>2230.6</ele>
        <time>2013-05-24T07:01:20Z</time>
      </trkpt>
      <trkpt lat="-21.15102" lon="55.50143">
        <ele>2234.8</ele>
        <time>2013-05-24T07:01:42Z</time>
      </trkpt>
      <trkpt lat="-21.15096" lon="55.5015">
        <ele>2237.6</ele>
        <time>2013-05-24T07:02:05Z</time>
      </trkpt>
      <trkpt lat="-21.1509" lon="55.50156">
        <ele>2242.8</ele>
        <time>2013-05-24T07:02:39Z</time>
      </trkpt>
      <trkpt lat="-21.15082" lon="55.50154">
        <ele>2243.5</ele>
        <time>2013-05-24T07:02:53Z</time>
      </trkpt>
      <trkpt lat="-21.15074" lon="55.50155">
        <ele>2243.4</ele>
        <time>2013-05-24T07:03:09Z</time>
      </trkpt>
      <trkpt lat="-21.15065" lon="55.50156">
        <ele>2242.6</ele>
        <time>2013-05-24T07:03:23Z</time>
      </trkpt>
      <trkpt lat="-21.15058" lon="55.50161">
        <ele>2242.1</ele>
        <time>2013-05-24T07:03:39Z</time>
      </trkpt>
      <trkpt lat="-21.15049" lon="55.50162">
        <ele>2244.7</ele>
        <time>2013-05-24T07:03:54Z</time>
      </trkpt>
      <trkpt lat="-21.1504" lon="55.50163">
        <ele>2245.3</ele>
        <time>2013-05-24T07:04:07Z</time>
      </trkpt>
      <trkpt lat="-21.15033" lon="55.50162">
        <ele>2245.7</ele>
        <time>2013-05-24T07:04:17Z</time>
      </trkpt>
      <trkpt lat="-21.15024" lon="55.50159">
        <ele>2246.4</ele>
        <time>2013-05-24T07:04:29Z</time>
      </trkpt>
      <trkpt lat="-21.15016" lon="55.50157">
        <ele>2243</ele>
        <time>2013-05-24T07:04:48Z</time>
      </trkpt>
      <trkpt lat="-21.15008" lon="55.50158">
        <ele>2243.6</ele>
        <time>2013-05-24T07:04:59Z</time>
      </trkpt>
      <trkpt lat="-21.14999" lon="55.50157">
        <ele>2243.9</ele>
        <time>2013-05-24T07:05:13Z</time>
      </trkpt>
      <trkpt lat="-21.14991" lon="55.50158">
        <ele>2243.2</ele>
        <time>2013-05-24T07:05:26Z</time>
      </trkpt>
      <trkpt lat="-21.14982" lon="55.50155">
        <ele>2244.9</ele>
        <time>2013-05-24T07:05:43Z</time>
      </trkpt>
      <trkpt lat="-21.14973" lon="55.50156">
        <ele>2246.5</ele>
        <time>2013-05-24T07:06:01Z</time>
      </trkpt>
      <trkpt lat="-21.14966" lon="55.50161">
        <ele>2249.7</ele>
        <time>2013-05-24T07:06:15Z</time>
      </trkpt>
      <trkpt lat="-21.14958" lon="55.50165">
        <ele>2250.5</ele>
        <time>2013-05-24T07:06:32Z</time>
      </trkpt>
      <trkpt lat="-21.14949" lon="55.50167">
        <ele>2254.4</ele>
        <time>2013-05-24T07:06:50Z</time>
      </trkpt>
      <trkpt lat="-21.14941" lon="55.50164">
        <ele>2256.4</ele>
        <time>2013-05-24T07:07:14Z</time>
      </trkpt>
      <trkpt lat="-21.14933" lon="55.50165">
        <ele>2259.9</ele>
        <time>2013-05-24T07:07:36Z</time>
      </trkpt>
      <trkpt lat="-21.14927" lon="55.50172">
        <ele>2263.3</ele>
        <time>2013-05-24T07:07:57Z</time>
      </trkpt>
      <trkpt lat="-21.14919" lon="55.50178">
        <ele>2268.4</ele>
        <time>2013-05-24T07:08:52Z</time>
      </trkpt>
      <trkpt lat="-21.14914" lon="55.50186">
        <ele>2271.5</ele>
        <time>2013-05-24T07:09:07Z</time>
      </trkpt>
      <trkpt lat="-21.14906" lon="55.50186">
        <ele>2273.2</ele>
        <time>2013-05-24T07:09:21Z</time>
      </trkpt>
      <trkpt lat="-21.14897" lon="55.5019">
        <ele>2277.4</ele>
        <time>2013-05-24T07:09:57Z</time>
      </trkpt>
      <trkpt lat="-21.14889" lon="55.50194">
        <ele>2281.8</ele>
        <time>2013-05-24T07:10:18Z</time>
      </trkpt>
      <trkpt lat="-21.14881" lon="55.50196">
        <ele>2293.8</ele>
        <time>2013-05-24T07:11:49Z</time>
      </trkpt>
      <trkpt lat="-21.14873" lon="55.50195">
        <ele>2298.7</ele>
        <time>2013-05-24T07:12:27Z</time>
      </trkpt>
      <trkpt lat="-21.14864" lon="55.50199">
        <ele>2299.8</ele>
        <time>2013-05-24T07:12:33Z</time>
      </trkpt>
      <trkpt lat="-21.14856" lon="55.50202">
        <ele>2304.3</ele>
        <time>2013-05-24T07:13:03Z</time>
      </trkpt>
      <trkpt lat="-21.14848" lon="55.50205">
        <ele>2308.4</ele>
        <time>2013-05-24T07:13:31Z</time>
      </trkpt>
      <trkpt lat="-21.14839" lon="55.50206">
        <ele>2309.4</ele>
        <time>2013-05-24T07:13:43Z</time>
      </trkpt>
      <trkpt lat="-21.14831" lon="55.50208">
        <ele>2309.3</ele>
        <time>2013-05-24T07:13:54Z</time>
      </trkpt>
      <trkpt lat="-21.14823" lon="55.50209">
        <ele>2309.8</ele>
        <time>2013-05-24T07:14:05Z</time>
      </trkpt>
      <trkpt lat="-21.14814" lon="55.5021">
        <ele>2310</ele>
        <time>2013-05-24T07:14:19Z</time>
      </trkpt>
      <trkpt lat="-21.14805" lon="55.50211">
        <ele>2312.3</ele>
        <time>2013-05-24T07:14:29Z</time>
      </trkpt>
      <trkpt lat="-21.14797" lon="55.50213">
        <ele>2312.9</ele>
        <time>2013-05-24T07:14:39Z</time>
      </trkpt>
      <trkpt lat="-21.14788" lon="55.50214">
        <ele>2314.5</ele>
        <time>2013-05-24T07:14:49Z</time>
      </trkpt>
      <trkpt lat="-21.14779" lon="55.50216">
        <ele>2315.2</ele>
        <time>2013-05-24T07:15:02Z</time>
      </trkpt>
      <trkpt lat="-21.14771" lon="55.50216">
        <ele>2318</ele>
        <time>2013-05-24T07:15:21Z</time>
      </trkpt>
      <trkpt lat="-21.14762" lon="55.50218">
        <ele>2320.7</ele>
        <time>2013-05-24T07:15:36Z</time>
      </trkpt>
      <trkpt lat="-21.14754" lon="55.5022">
        <ele>2323</ele>
        <time>2013-05-24T07:15:53Z</time>
      </trkpt>
      <trkpt lat="-21.14745" lon="55.50222">
        <ele>2322.4</ele>
        <time>2013-05-24T07:16:06Z</time>
      </trkpt>
      <trkpt lat="-21.14737" lon="55.50224">
        <ele>2324.1</ele>
        <time>2013-05-24T07:16:18Z</time>
      </trkpt>
      <trkpt lat="-21.14728" lon="55.50227">
        <ele>2324.6</ele>
        <time>2013-05-24T07:16:27Z</time>
      </trkpt>
      <trkpt lat="-21.14721" lon="55.5023">
        <ele>2324.8</ele>
        <time>2013-05-24T07:16:39Z</time>
      </trkpt>
      <trkpt lat="-21.14713" lon="55.50235">
        <ele>2326.1</ele>
        <time>2013-05-24T07:16:49Z</time>
      </trkpt>
      <trkpt lat="-21.14704" lon="55.50236">
        <ele>2327.3</ele>
        <time>2013-05-24T07:16:59Z</time>
      </trkpt>
      <trkpt lat="-21.14696" lon="55.50237">
        <ele>2329.1</ele>
        <time>2013-05-24T07:17:09Z</time>
      </trkpt>
      <trkpt lat="-21.14687" lon="55.50239">
        <ele>2330.7</ele>
        <time>2013-05-24T07:17:21Z</time>
      </trkpt>
      <trkpt lat="-21.1468" lon="55.50244">
        <ele>2331.1</ele>
        <time>2013-05-24T07:17:33Z</time>
      </trkpt>
      <trkpt lat="-21.14674" lon="55.5025">
        <ele>2331.8</ele>
        <time>2013-05-24T07:17:42Z</time>
      </trkpt>
      <trkpt lat="-21.14667" lon="55.50256">
        <ele>2330.3</ele>
        <time>2013-05-24T07:17:51Z</time>
      </trkpt>
      <trkpt lat="-21.1466" lon="55.50262">
        <ele>2331.4</ele>
        <time>2013-05-24T07:18:00Z</time>
      </trkpt>
      <trkpt lat="-21.14653" lon="55.50267">
        <ele>2332</ele>
        <time>2013-05-24T07:18:08Z</time>
      </trkpt>
      <trkpt lat="-21.14646" lon="55.50273">
        <ele>2331.4</ele>
        <time>2013-05-24T07:18:17Z</time>
      </trkpt>
      <trkpt lat="-21.1464" lon="55.50278">
        <ele>2332.9</ele>
        <time>2013-05-24T07:18:26Z</time>
      </trkpt>
      <trkpt lat="-21.14632" lon="55.50283">
        <ele>2333.3</ele>
        <time>2013-05-24T07:18:35Z</time>
      </trkpt>
      <trkpt lat="-21.14627" lon="55.50289">
        <ele>2334</ele>
        <time>2013-05-24T07:18:43Z</time>
      </trkpt>
      <trkpt lat="-21.14621" lon="55.50295">
        <ele>2334.2</ele>
        <time>2013-05-24T07:18:51Z</time>
      </trkpt>
      <trkpt lat="-21.14614" lon="55.50299">
        <ele>2334.8</ele>
        <time>2013-05-24T07:18:59Z</time>
      </trkpt>
      <trkpt lat="-21.14607" lon="55.50304">
        <ele>2335.6</ele>
        <time>2013-05-24T07:19:07Z</time>
      </trkpt>
      <trkpt lat="-21.14599" lon="55.50309">
        <ele>2335.9</ele>
        <time>2013-05-24T07:19:18Z</time>
      </trkpt>
      <trkpt lat="-21.14591" lon="55.50313">
        <ele>2336.5</ele>
        <time>2013-05-24T07:19:28Z</time>
      </trkpt>
      <trkpt lat="-21.14583" lon="55.50316">
        <ele>2339.2</ele>
        <time>2013-05-24T07:19:45Z</time>
      </trkpt>
      <trkpt lat="-21.14577" lon="55.50321">
        <ele>2341.2</ele>
        <time>2013-05-24T07:20:06Z</time>
      </trkpt>
      <trkpt lat="-21.1457" lon="55.50327">
        <ele>2341.9</ele>
        <time>2013-05-24T07:20:19Z</time>
      </trkpt>
      <trkpt lat="-21.14562" lon="55.50331">
        <ele>2343.6</ele>
        <time>2013-05-24T07:20:33Z</time>
      </trkpt>
      <trkpt lat="-21.14557" lon="55.50338">
        <ele>2345.4</ele>
        <time>2013-05-24T07:20:45Z</time>
      </trkpt>
      <trkpt lat="-21.1455" lon="55.50342">
        <ele>2346.8</ele>
        <time>2013-05-24T07:20:54Z</time>
      </trkpt>
      <trkpt lat="-21.14543" lon="55.50349">
        <ele>2345.9</ele>
        <time>2013-05-24T07:21:05Z</time>
      </trkpt>
      <trkpt lat="-21.14537" lon="55.50356">
        <ele>2346.8</ele>
        <time>2013-05-24T07:21:20Z</time>
      </trkpt>
      <trkpt lat="-21.14531" lon="55.50362">
        <ele>2343</ele>
        <time>2013-05-24T07:21:36Z</time>
      </trkpt>
      <trkpt lat="-21.14524" lon="55.50367">
        <ele>2343.6</ele>
        <time>2013-05-24T07:21:55Z</time>
      </trkpt>
      <trkpt lat="-21.14517" lon="55.50373">
        <ele>2344.8</ele>
        <time>2013-05-24T07:22:06Z</time>
      </trkpt>
      <trkpt lat="-21.1451" lon="55.50379">
        <ele>2344.7</ele>
        <time>2013-05-24T07:22:14Z</time>
      </trkpt>
      <trkpt lat="-21.14505" lon="55.50386">
        <ele>2344.3</ele>
        <time>2013-05-24T07:22:21Z</time>
      </trkpt>
      <trkpt lat="-21.14499" lon="55.50392">
        <ele>2345.1</ele>
        <time>2013-05-24T07:22:29Z</time>
      </trkpt>
      <trkpt lat="-21.14491" lon="55.50393">
        <ele>2347.4</ele>
        <time>2013-05-24T07:22:47Z</time>
      </trkpt>
      <trkpt lat="-21.14484" lon="55.50398">
        <ele>2348.6</ele>
        <time>2013-05-24T07:22:57Z</time>
      </trkpt>
      <trkpt lat="-21.1448" lon="55.50406">
        <ele>2350.7</ele>
        <time>2013-05-24T07:24:13Z</time>
      </trkpt>
      <trkpt lat="-21.14477" lon="55.50415">
        <ele>2348.7</ele>
        <time>2013-05-24T07:25:15Z</time>
      </trkpt>
      <trkpt lat="-21.14471" lon="55.50423">
        <ele>2349.6</ele>
        <time>2013-05-24T07:25:31Z</time>
      </trkpt>
      <trkpt lat="-21.14467" lon="55.50431">
        <ele>2350</ele>
        <time>2013-05-24T07:25:40Z</time>
      </trkpt>
      <trkpt lat="-21.14463" lon="55.50439">
        <ele>2349.9</ele>
        <time>2013-05-24T07:25:51Z</time>
      </trkpt>
      <trkpt lat="-21.1446" lon="55.50448">
        <ele>2349.8</ele>
        <time>2013-05-24T07:26:01Z</time>
      </trkpt>
      <trkpt lat="-21.14455" lon="55.50455">
        <ele>2347.9</ele>
        <time>2013-05-24T07:26:10Z</time>
      </trkpt>
      <trkpt lat="-21.14449" lon="55.50462">
        <ele>2346.9</ele>
        <time>2013-05-24T07:26:21Z</time>
      </trkpt>
      <trkpt lat="-21.14441" lon="55.50467">
        <ele>2344.7</ele>
        <time>2013-05-24T07:26:32Z</time>
      </trkpt>
      <trkpt lat="-21.14432" lon="55.50469">
        <ele>2344.4</ele>
        <time>2013-05-24T07:26:57Z</time>
      </trkpt>
      <trkpt lat="-21.14424" lon="55.50471">
        <ele>2341.3</ele>
        <time>2013-05-24T07:27:17Z</time>
      </trkpt>
      <trkpt lat="-21.14417" lon="55.50475">
        <ele>2338.5</ele>
        <time>2013-05-24T07:27:33Z</time>
      </trkpt>
      <trkpt lat="-21.1441" lon="55.50479">
        <ele>2336.8</ele>
        <time>2013-05-24T07:27:46Z</time>
      </trkpt>
      <trkpt lat="-21.14403" lon="55.50485">
        <ele>2335.1</ele>
        <time>2013-05-24T07:28:09Z</time>
      </trkpt>
      <trkpt lat="-21.14397" lon="55.5049">
        <ele>2334.7</ele>
        <time>2013-05-24T07:28:18Z</time>
      </trkpt>
      <trkpt lat="-21.14389" lon="55.50495">
        <ele>2335.1</ele>
        <time>2013-05-24T07:28:27Z</time>
      </trkpt>
      <trkpt lat="-21.14385" lon="55.50503">
        <ele>2335.5</ele>
        <time>2013-05-24T07:28:37Z</time>
      </trkpt>
      <trkpt lat="-21.14379" lon="55.50509">
        <ele>2337.6</ele>
        <time>2013-05-24T07:28:49Z</time>
      </trkpt>
      <trkpt lat="-21.14373" lon="55.50515">
        <ele>2339.8</ele>
        <time>2013-05-24T07:29:02Z</time>
      </trkpt>
      <trkpt lat="-21.14367" lon="55.50523">
        <ele>2341.6</ele>
        <time>2013-05-24T07:29:16Z</time>
      </trkpt>
      <trkpt lat="-21.14361" lon="55.50529">
        <ele>2343.9</ele>
        <time>2013-05-24T07:29:30Z</time>
      </trkpt>
      <trkpt lat="-21.14354" lon="55.50536">
        <ele>2345.5</ele>
        <time>2013-05-24T07:29:43Z</time>
      </trkpt>
      <trkpt lat="-21.14347" lon="55.50541">
        <ele>2346.1</ele>
        <time>2013-05-24T07:29:52Z</time>
      </trkpt>
      <trkpt lat="-21.1434" lon="55.50547">
        <ele>2346</ele>
        <time>2013-05-24T07:30:02Z</time>
      </trkpt>
      <trkpt lat="-21.14332" lon="55.50548">
        <ele>2346.2</ele>
        <time>2013-05-24T07:30:14Z</time>
      </trkpt>
      <trkpt lat="-21.14323" lon="55.50547">
        <ele>2348.3</ele>
        <time>2013-05-24T07:30:26Z</time>
      </trkpt>
      <trkpt lat="-21.14315" lon="55.50548">
        <ele>2349.5</ele>
        <time>2013-05-24T07:30:34Z</time>
      </trkpt>
      <trkpt lat="-21.14307" lon="55.50551">
        <ele>2351.3</ele>
        <time>2013-05-24T07:30:44Z</time>
      </trkpt>
      <trkpt lat="-21.143" lon="55.50557">
        <ele>2351.8</ele>
        <time>2013-05-24T07:30:52Z</time>
      </trkpt>
      <trkpt lat="-21.14294" lon="55.50564">
        <ele>2352</ele>
        <time>2013-05-24T07:31:00Z</time>
      </trkpt>
      <trkpt lat="-21.14288" lon="55.50571">
        <ele>2351.5</ele>
        <time>2013-05-24T07:31:39Z</time>
      </trkpt>
      <trkpt lat="-21.14283" lon="55.50577">
        <ele>2351.6</ele>
        <time>2013-05-24T07:31:50Z</time>
      </trkpt>
      <trkpt lat="-21.14279" lon="55.50585">
        <ele>2352.4</ele>
        <time>2013-05-24T07:31:57Z</time>
      </trkpt>
      <trkpt lat="-21.14275" lon="55.50592">
        <ele>2352.2</ele>
        <time>2013-05-24T07:32:04Z</time>
      </trkpt>
      <trkpt lat="-21.1427" lon="55.506">
        <ele>2351.3</ele>
        <time>2013-05-24T07:32:11Z</time>
      </trkpt>
      <trkpt lat="-21.14265" lon="55.50607">
        <ele>2352</ele>
        <time>2013-05-24T07:32:18Z</time>
      </trkpt>
      <trkpt lat="-21.14259" lon="55.50614">
        <ele>2352.4</ele>
        <time>2013-05-24T07:32:25Z</time>
      </trkpt>
      <trkpt lat="-21.14252" lon="55.50618">
        <ele>2351.8</ele>
        <time>2013-05-24T07:32:32Z</time>
      </trkpt>
      <trkpt lat="-21.14246" lon="55.50623">
        <ele>2351.4</ele>
        <time>2013-05-24T07:32:39Z</time>
      </trkpt>
      <trkpt lat="-21.14239" lon="55.5063">
        <ele>2351.4</ele>
        <time>2013-05-24T07:32:46Z</time>
      </trkpt>
      <trkpt lat="-21.14233" lon="55.50636">
        <ele>2352</ele>
        <time>2013-05-24T07:32:53Z</time>
      </trkpt>
      <trkpt lat="-21.14227" lon="55.50643">
        <ele>2352.7</ele>
        <time>2013-05-24T07:33:00Z</time>
      </trkpt>
      <trkpt lat="-21.14221" lon="55.5065">
        <ele>2351.3</ele>
        <time>2013-05-24T07:33:07Z</time>
      </trkpt>
      <trkpt lat="-21.14215" lon="55.50656">
        <ele>2351.9</ele>
        <time>2013-05-24T07:33:14Z</time>
      </trkpt>
      <trkpt lat="-21.14209" lon="55.50664">
        <ele>2350.9</ele>
        <time>2013-05-24T07:33:21Z</time>
      </trkpt>
      <trkpt lat="-21.14205" lon="55.50672">
        <ele>2351.4</ele>
        <time>2013-05-24T07:33:28Z</time>
      </trkpt>
      <trkpt lat="-21.14199" lon="55.50678">
        <ele>2353.5</ele>
        <time>2013-05-24T07:33:41Z</time>
      </trkpt>
      <trkpt lat="-21.14191" lon="55.50683">
        <ele>2357.1</ele>
        <time>2013-05-24T07:34:02Z</time>
      </trkpt>
      <trkpt lat="-21.14182" lon="55.50684">
        <ele>2358.9</ele>
        <time>2013-05-24T07:34:16Z</time>
      </trkpt>
      <trkpt lat="-21.14179" lon="55.50692">
        <ele>2360.7</ele>
        <time>2013-05-24T07:34:29Z</time>
      </trkpt>
      <trkpt lat="-21.14175" lon="55.507">
        <ele>2362.6</ele>
        <time>2013-05-24T07:34:41Z</time>
      </trkpt>
      <trkpt lat="-21.14168" lon="55.50706">
        <ele>2362.2</ele>
        <time>2013-05-24T07:34:56Z</time>
      </trkpt>
      <trkpt lat="-21.1416" lon="55.5071">
        <ele>2359</ele>
        <time>2013-05-24T07:35:15Z</time>
      </trkpt>
      <trkpt lat="-21.14155" lon="55.50716">
        <ele>2355.3</ele>
        <time>2013-05-24T07:35:25Z</time>
      </trkpt>
      <trkpt lat="-21.14148" lon="55.50722">
        <ele>2354.4</ele>
        <time>2013-05-24T07:35:31Z</time>
      </trkpt>
      <trkpt lat="-21.14141" lon="55.50727">
        <ele>2353.7</ele>
        <time>2013-05-24T07:35:38Z</time>
      </trkpt>
      <trkpt lat="-21.14134" lon="55.50731">
        <ele>2353.7</ele>
        <time>2013-05-24T07:35:46Z</time>
      </trkpt>
      <trkpt lat="-21.14125" lon="55.50734">
        <ele>2354.6</ele>
        <time>2013-05-24T07:35:53Z</time>
      </trkpt>
      <trkpt lat="-21.14118" lon="55.50738">
        <ele>2354.7</ele>
        <time>2013-05-24T07:36:00Z</time>
      </trkpt>
      <trkpt lat="-21.14111" lon="55.50743">
        <ele>2355</ele>
        <time>2013-05-24T07:36:06Z</time>
      </trkpt>
      <trkpt lat="-21.14104" lon="55.50746">
        <ele>2355.6</ele>
        <time>2013-05-24T07:36:12Z</time>
      </trkpt>
      <trkpt lat="-21.14095" lon="55.5075">
        <ele>2356.1</ele>
        <time>2013-05-24T07:36:21Z</time>
      </trkpt>
      <trkpt lat="-21.14088" lon="55.50754">
        <ele>2358.4</ele>
        <time>2013-05-24T07:36:32Z</time>
      </trkpt>
      <trkpt lat="-21.1408" lon="55.50758">
        <ele>2361.8</ele>
        <time>2013-05-24T07:36:45Z</time>
      </trkpt>
      <trkpt lat="-21.14075" lon="55.50765">
        <ele>2362.3</ele>
        <time>2013-05-24T07:36:55Z</time>
      </trkpt>
      <trkpt lat="-21.14069" lon="55.50771">
        <ele>2362.3</ele>
        <time>2013-05-24T07:37:03Z</time>
      </trkpt>
      <trkpt lat="-21.14062" lon="55.50775">
        <ele>2361</ele>
        <time>2013-05-24T07:37:14Z</time>
      </trkpt>
      <trkpt lat="-21.14054" lon="55.50778">
        <ele>2359.1</ele>
        <time>2013-05-24T07:37:26Z</time>
      </trkpt>
      <trkpt lat="-21.14045" lon="55.50781">
        <ele>2357.4</ele>
        <time>2013-05-24T07:37:34Z</time>
      </trkpt>
      <trkpt lat="-21.14037" lon="55.50784">
        <ele>2357.1</ele>
        <time>2013-05-24T07:37:43Z</time>
      </trkpt>
      <trkpt lat="-21.14029" lon="55.50785">
        <ele>2357.2</ele>
        <time>2013-05-24T07:37:51Z</time>
      </trkpt>
      <trkpt lat="-21.14021" lon="55.50789">
        <ele>2355.8</ele>
        <time>2013-05-24T07:38:00Z</time>
      </trkpt>
      <trkpt lat="-21.14015" lon="55.50796">
        <ele>2354.2</ele>
        <time>2013-05-24T07:38:09Z</time>
      </trkpt>
      <trkpt lat="-21.14013" lon="55.50805">
        <ele>2354.3</ele>
        <time>2013-05-24T07:38:42Z</time>
      </trkpt>
      <trkpt lat="-21.14013" lon="55.50804">
        <ele>2353.7</ele>
        <time>2013-05-24T07:40:06Z</time>
      </trkpt>
      <trkpt lat="-21.14013" lon="55.50804">
        <ele>2353.7</ele>
        <time>2013-05-24T07:40:06Z</time>
      </trkpt>
      <trkpt lat="-21.14013" lon="55.50804">
        <ele>2354.6</ele>
        <time>2013-05-24T07:40:11Z</time>
      </trkpt>
      <trkpt lat="-21.1401" lon="55.50799">
        <ele>2357.8</ele>
        <time>2013-05-24T08:12:44Z</time>
      </trkpt>
      <trkpt lat="-21.14002" lon="55.50802">
        <ele>2354.7</ele>
        <time>2013-05-24T08:13:06Z</time>
      </trkpt>
      <trkpt lat="-21.13994" lon="55.50807">
        <ele>2350</ele>
        <time>2013-05-24T08:13:36Z</time>
      </trkpt>
      <trkpt lat="-21.13986" lon="55.50808">
        <ele>2342.4</ele>
        <time>2013-05-24T08:14:20Z</time>
      </trkpt>
      <trkpt lat="-21.13985" lon="55.50808">
        <ele>2342.6</ele>
        <time>2013-05-24T08:14:21Z</time>
      </trkpt>
      <trkpt lat="-21.1397" lon="55.50817">
        <ele>2331.6</ele>
        <time>2013-05-24T08:15:23Z</time>
      </trkpt>
      <trkpt lat="-21.1397" lon="55.50817">
        <ele>2331.7</ele>
        <time>2013-05-24T08:15:24Z</time>
      </trkpt>
      <trkpt lat="-21.13954" lon="55.50822">
        <ele>2317.6</ele>
        <time>2013-05-24T08:16:26Z</time>
      </trkpt>
      <trkpt lat="-21.13953" lon="55.50822">
        <ele>2316.9</ele>
        <time>2013-05-24T08:16:27Z</time>
      </trkpt>
      <trkpt lat="-21.13937" lon="55.50819">
        <ele>2302.9</ele>
        <time>2013-05-24T08:17:35Z</time>
      </trkpt>
      <trkpt lat="-21.13936" lon="55.50819">
        <ele>2303.3</ele>
        <time>2013-05-24T08:17:36Z</time>
      </trkpt>
      <trkpt lat="-21.13921" lon="55.50822">
        <ele>2292.3</ele>
        <time>2013-05-24T08:18:20Z</time>
      </trkpt>
      <trkpt lat="-21.13913" lon="55.50825">
        <ele>2286.6</ele>
        <time>2013-05-24T08:18:39Z</time>
      </trkpt>
      <trkpt lat="-21.13912" lon="55.50825">
        <ele>2286.1</ele>
        <time>2013-05-24T08:18:40Z</time>
      </trkpt>
      <trkpt lat="-21.13896" lon="55.50831">
        <ele>2275.1</ele>
        <time>2013-05-24T08:19:15Z</time>
      </trkpt>
      <trkpt lat="-21.13887" lon="55.50829">
        <ele>2269.4</ele>
        <time>2013-05-24T08:19:36Z</time>
      </trkpt>
      <trkpt lat="-21.13879" lon="55.50833">
        <ele>2266.7</ele>
        <time>2013-05-24T08:19:50Z</time>
      </trkpt>
      <trkpt lat="-21.13879" lon="55.50834">
        <ele>2266.4</ele>
        <time>2013-05-24T08:19:51Z</time>
      </trkpt>
      <trkpt lat="-21.13864" lon="55.50841">
        <ele>2257.1</ele>
        <time>2013-05-24T08:20:24Z</time>
      </trkpt>
      <trkpt lat="-21.13856" lon="55.50845">
        <ele>2252.3</ele>
        <time>2013-05-24T08:20:47Z</time>
      </trkpt>
      <trkpt lat="-21.13849" lon="55.50851">
        <ele>2248.3</ele>
        <time>2013-05-24T08:21:13Z</time>
      </trkpt>
      <trkpt lat="-21.13849" lon="55.50852">
        <ele>2248.1</ele>
        <time>2013-05-24T08:21:14Z</time>
      </trkpt>
      <trkpt lat="-21.13835" lon="55.50861">
        <ele>2241.5</ele>
        <time>2013-05-24T08:21:49Z</time>
      </trkpt>
      <trkpt lat="-21.13827" lon="55.50861">
        <ele>2238.7</ele>
        <time>2013-05-24T08:22:01Z</time>
      </trkpt>
      <trkpt lat="-21.13819" lon="55.50859">
        <ele>2237.8</ele>
        <time>2013-05-24T08:22:08Z</time>
      </trkpt>
      <trkpt lat="-21.13811" lon="55.5086">
        <ele>2236.4</ele>
        <time>2013-05-24T08:22:13Z</time>
      </trkpt>
      <trkpt lat="-21.13805" lon="55.50867">
        <ele>2235.7</ele>
        <time>2013-05-24T08:22:19Z</time>
      </trkpt>
      <trkpt lat="-21.13803" lon="55.50868">
        <ele>2235.7</ele>
        <time>2013-05-24T08:22:20Z</time>
      </trkpt>
      <trkpt lat="-21.1379" lon="55.50875">
        <ele>2234.8</ele>
        <time>2013-05-24T08:22:31Z</time>
      </trkpt>
      <trkpt lat="-21.13783" lon="55.50881">
        <ele>2234.3</ele>
        <time>2013-05-24T08:22:37Z</time>
      </trkpt>
      <trkpt lat="-21.13776" lon="55.50885">
        <ele>2233</ele>
        <time>2013-05-24T08:22:43Z</time>
      </trkpt>
      <trkpt lat="-21.13768" lon="55.50886">
        <ele>2233.5</ele>
        <time>2013-05-24T08:22:48Z</time>
      </trkpt>
      <trkpt lat="-21.1376" lon="55.50888">
        <ele>2232.9</ele>
        <time>2013-05-24T08:22:54Z</time>
      </trkpt>
      <trkpt lat="-21.13754" lon="55.50892">
        <ele>2232.9</ele>
        <time>2013-05-24T08:22:59Z</time>
      </trkpt>
      <trkpt lat="-21.13746" lon="55.50896">
        <ele>2232.2</ele>
        <time>2013-05-24T08:23:05Z</time>
      </trkpt>
      <trkpt lat="-21.13739" lon="55.50901">
        <ele>2232.8</ele>
        <time>2013-05-24T08:23:11Z</time>
      </trkpt>
      <trkpt lat="-21.13734" lon="55.50906">
        <ele>2233.4</ele>
        <time>2013-05-24T08:23:16Z</time>
      </trkpt>
      <trkpt lat="-21.13728" lon="55.50912">
        <ele>2233.2</ele>
        <time>2013-05-24T08:23:21Z</time>
      </trkpt>
      <trkpt lat="-21.13727" lon="55.50913">
        <ele>2233.2</ele>
        <time>2013-05-24T08:23:22Z</time>
      </trkpt>
      <trkpt lat="-21.13714" lon="55.50922">
        <ele>2232.5</ele>
        <time>2013-05-24T08:23:32Z</time>
      </trkpt>
      <trkpt lat="-21.13706" lon="55.50926">
        <ele>2232.3</ele>
        <time>2013-05-24T08:23:39Z</time>
      </trkpt>
      <trkpt lat="-21.13699" lon="55.5093">
        <ele>2231.9</ele>
        <time>2013-05-24T08:23:46Z</time>
      </trkpt>
      <trkpt lat="-21.13691" lon="55.50935">
        <ele>2230.8</ele>
        <time>2013-05-24T08:23:53Z</time>
      </trkpt>
      <trkpt lat="-21.13684" lon="55.50941">
        <ele>2230.6</ele>
        <time>2013-05-24T08:24:00Z</time>
      </trkpt>
      <trkpt lat="-21.13678" lon="55.50946">
        <ele>2230.2</ele>
        <time>2013-05-24T08:24:07Z</time>
      </trkpt>
      <trkpt lat="-21.1367" lon="55.5095">
        <ele>2230.9</ele>
        <time>2013-05-24T08:24:15Z</time>
      </trkpt>
      <trkpt lat="-21.13664" lon="55.50956">
        <ele>2230.3</ele>
        <time>2013-05-24T08:24:25Z</time>
      </trkpt>
      <trkpt lat="-21.13663" lon="55.50957">
        <ele>2230</ele>
        <time>2013-05-24T08:24:26Z</time>
      </trkpt>
      <trkpt lat="-21.13653" lon="55.5097">
        <ele>2229.6</ele>
        <time>2013-05-24T08:24:46Z</time>
      </trkpt>
      <trkpt lat="-21.13646" lon="55.50976">
        <ele>2227.4</ele>
        <time>2013-05-24T08:25:00Z</time>
      </trkpt>
      <trkpt lat="-21.1364" lon="55.50983">
        <ele>2225.3</ele>
        <time>2013-05-24T08:25:10Z</time>
      </trkpt>
      <trkpt lat="-21.13634" lon="55.5099">
        <ele>2223.1</ele>
        <time>2013-05-24T08:25:21Z</time>
      </trkpt>
      <trkpt lat="-21.13627" lon="55.50993">
        <ele>2222.6</ele>
        <time>2013-05-24T08:25:28Z</time>
      </trkpt>
      <trkpt lat="-21.13626" lon="55.50994">
        <ele>2222.3</ele>
        <time>2013-05-24T08:25:29Z</time>
      </trkpt>
      <trkpt lat="-21.13615" lon="55.51006">
        <ele>2220.3</ele>
        <time>2013-05-24T08:25:44Z</time>
      </trkpt>
      <trkpt lat="-21.1361" lon="55.51013">
        <ele>2219.1</ele>
        <time>2013-05-24T08:25:51Z</time>
      </trkpt>
      <trkpt lat="-21.13604" lon="55.51019">
        <ele>2219.9</ele>
        <time>2013-05-24T08:25:58Z</time>
      </trkpt>
      <trkpt lat="-21.136" lon="55.51027">
        <ele>2217.1</ele>
        <time>2013-05-24T08:26:09Z</time>
      </trkpt>
      <trkpt lat="-21.13592" lon="55.5103">
        <ele>2216.2</ele>
        <time>2013-05-24T08:26:19Z</time>
      </trkpt>
      <trkpt lat="-21.13584" lon="55.51029">
        <ele>2216.7</ele>
        <time>2013-05-24T08:26:27Z</time>
      </trkpt>
      <trkpt lat="-21.13576" lon="55.5103">
        <ele>2217.7</ele>
        <time>2013-05-24T08:26:35Z</time>
      </trkpt>
      <trkpt lat="-21.13575" lon="55.51031">
        <ele>2217.8</ele>
        <time>2013-05-24T08:26:36Z</time>
      </trkpt>
      <trkpt lat="-21.13564" lon="55.51043">
        <ele>2219.4</ele>
        <time>2013-05-24T08:26:47Z</time>
      </trkpt>
      <trkpt lat="-21.13557" lon="55.51047">
        <ele>2220.6</ele>
        <time>2013-05-24T08:26:53Z</time>
      </trkpt>
      <trkpt lat="-21.1355" lon="55.51054">
        <ele>2220.7</ele>
        <time>2013-05-24T08:27:00Z</time>
      </trkpt>
      <trkpt lat="-21.13542" lon="55.51057">
        <ele>2218.1</ele>
        <time>2013-05-24T08:27:11Z</time>
      </trkpt>
      <trkpt lat="-21.13534" lon="55.51059">
        <ele>2216</ele>
        <time>2013-05-24T08:27:21Z</time>
      </trkpt>
      <trkpt lat="-21.13526" lon="55.51059">
        <ele>2213.4</ele>
        <time>2013-05-24T08:27:30Z</time>
      </trkpt>
      <trkpt lat="-21.13518" lon="55.51062">
        <ele>2210.7</ele>
        <time>2013-05-24T08:27:37Z</time>
      </trkpt>
      <trkpt lat="-21.13517" lon="55.51063">
        <ele>2210.4</ele>
        <time>2013-05-24T08:27:38Z</time>
      </trkpt>
      <trkpt lat="-21.13503" lon="55.51067">
        <ele>2208.5</ele>
        <time>2013-05-24T08:27:50Z</time>
      </trkpt>
      <trkpt lat="-21.13495" lon="55.5107">
        <ele>2206.7</ele>
        <time>2013-05-24T08:27:57Z</time>
      </trkpt>
      <trkpt lat="-21.13489" lon="55.51076">
        <ele>2206.7</ele>
        <time>2013-05-24T08:28:04Z</time>
      </trkpt>
      <trkpt lat="-21.1348" lon="55.51078">
        <ele>2204.9</ele>
        <time>2013-05-24T08:28:11Z</time>
      </trkpt>
      <trkpt lat="-21.13473" lon="55.51081">
        <ele>2204.6</ele>
        <time>2013-05-24T08:28:17Z</time>
      </trkpt>
      <trkpt lat="-21.13465" lon="55.51081">
        <ele>2205.2</ele>
        <time>2013-05-24T08:28:25Z</time>
      </trkpt>
      <trkpt lat="-21.13457" lon="55.51078">
        <ele>2205.9</ele>
        <time>2013-05-24T08:28:33Z</time>
      </trkpt>
      <trkpt lat="-21.13448" lon="55.51079">
        <ele>2206.6</ele>
        <time>2013-05-24T08:28:41Z</time>
      </trkpt>
      <trkpt lat="-21.13447" lon="55.5108">
        <ele>2206.6</ele>
        <time>2013-05-24T08:28:42Z</time>
      </trkpt>
      <trkpt lat="-21.13432" lon="55.51082">
        <ele>2206.6</ele>
        <time>2013-05-24T08:28:54Z</time>
      </trkpt>
      <trkpt lat="-21.13425" lon="55.51086">
        <ele>2207.3</ele>
        <time>2013-05-24T08:29:00Z</time>
      </trkpt>
      <trkpt lat="-21.13417" lon="55.5109">
        <ele>2205.9</ele>
        <time>2013-05-24T08:29:07Z</time>
      </trkpt>
      <trkpt lat="-21.1341" lon="55.51094">
        <ele>2206</ele>
        <time>2013-05-24T08:29:13Z</time>
      </trkpt>
      <trkpt lat="-21.13401" lon="55.51096">
        <ele>2204.7</ele>
        <time>2013-05-24T08:29:20Z</time>
      </trkpt>
      <trkpt lat="-21.13394" lon="55.51098">
        <ele>2203.6</ele>
        <time>2013-05-24T08:29:25Z</time>
      </trkpt>
      <trkpt lat="-21.13385" lon="55.511">
        <ele>2203.3</ele>
        <time>2013-05-24T08:29:31Z</time>
      </trkpt>
      <trkpt lat="-21.13378" lon="55.51105">
        <ele>2201.9</ele>
        <time>2013-05-24T08:29:37Z</time>
      </trkpt>
      <trkpt lat="-21.13371" lon="55.51111">
        <ele>2201.6</ele>
        <time>2013-05-24T08:29:43Z</time>
      </trkpt>
      <trkpt lat="-21.1337" lon="55.51112">
        <ele>2201.9</ele>
        <time>2013-05-24T08:29:44Z</time>
      </trkpt>
      <trkpt lat="-21.13358" lon="55.51119">
        <ele>2202</ele>
        <time>2013-05-24T08:29:53Z</time>
      </trkpt>
      <trkpt lat="-21.1335" lon="55.51122">
        <ele>2203.4</ele>
        <time>2013-05-24T08:29:59Z</time>
      </trkpt>
      <trkpt lat="-21.13342" lon="55.51126">
        <ele>2202.8</ele>
        <time>2013-05-24T08:30:05Z</time>
      </trkpt>
      <trkpt lat="-21.13335" lon="55.51129">
        <ele>2202.5</ele>
        <time>2013-05-24T08:30:11Z</time>
      </trkpt>
      <trkpt lat="-21.13327" lon="55.51131">
        <ele>2202.3</ele>
        <time>2013-05-24T08:30:16Z</time>
      </trkpt>
      <trkpt lat="-21.13319" lon="55.51134">
        <ele>2202</ele>
        <time>2013-05-24T08:30:22Z</time>
      </trkpt>
      <trkpt lat="-21.13312" lon="55.51138">
        <ele>2202.1</ele>
        <time>2013-05-24T08:30:27Z</time>
      </trkpt>
      <trkpt lat="-21.13307" lon="55.51143">
        <ele>2201.9</ele>
        <time>2013-05-24T08:30:33Z</time>
      </trkpt>
      <trkpt lat="-21.13298" lon="55.51146">
        <ele>2200.8</ele>
        <time>2013-05-24T08:30:39Z</time>
      </trkpt>
      <trkpt lat="-21.13291" lon="55.51152">
        <ele>2200.6</ele>
        <time>2013-05-24T08:30:45Z</time>
      </trkpt>
      <trkpt lat="-21.13291" lon="55.51153">
        <ele>2200.5</ele>
        <time>2013-05-24T08:30:46Z</time>
      </trkpt>
      <trkpt lat="-21.13279" lon="55.51162">
        <ele>2199.5</ele>
        <time>2013-05-24T08:30:56Z</time>
      </trkpt>
      <trkpt lat="-21.13271" lon="55.51166">
        <ele>2200.1</ele>
        <time>2013-05-24T08:31:02Z</time>
      </trkpt>
      <trkpt lat="-21.13263" lon="55.5117">
        <ele>2200</ele>
        <time>2013-05-24T08:31:09Z</time>
      </trkpt>
      <trkpt lat="-21.13258" lon="55.51177">
        <ele>2198.2</ele>
        <time>2013-05-24T08:31:16Z</time>
      </trkpt>
      <trkpt lat="-21.13255" lon="55.51185">
        <ele>2197.4</ele>
        <time>2013-05-24T08:31:21Z</time>
      </trkpt>
      <trkpt lat="-21.13252" lon="55.51193">
        <ele>2197.4</ele>
        <time>2013-05-24T08:31:27Z</time>
      </trkpt>
      <trkpt lat="-21.13248" lon="55.512">
        <ele>2196.6</ele>
        <time>2013-05-24T08:31:32Z</time>
      </trkpt>
      <trkpt lat="-21.13244" lon="55.51207">
        <ele>2196.3</ele>
        <time>2013-05-24T08:31:37Z</time>
      </trkpt>
      <trkpt lat="-21.13238" lon="55.51213">
        <ele>2196.8</ele>
        <time>2013-05-24T08:31:42Z</time>
      </trkpt>
      <trkpt lat="-21.13233" lon="55.51219">
        <ele>2196.7</ele>
        <time>2013-05-24T08:31:47Z</time>
      </trkpt>
      <trkpt lat="-21.13232" lon="55.5122">
        <ele>2196.9</ele>
        <time>2013-05-24T08:31:48Z</time>
      </trkpt>
      <trkpt lat="-21.13221" lon="55.51233">
        <ele>2196.8</ele>
        <time>2013-05-24T08:32:02Z</time>
      </trkpt>
      <trkpt lat="-21.13215" lon="55.51238">
        <ele>2197.2</ele>
        <time>2013-05-24T08:32:09Z</time>
      </trkpt>
      <trkpt lat="-21.13208" lon="55.51242">
        <ele>2196.8</ele>
        <time>2013-05-24T08:32:17Z</time>
      </trkpt>
      <trkpt lat="-21.13203" lon="55.5125">
        <ele>2196.9</ele>
        <time>2013-05-24T08:32:25Z</time>
      </trkpt>
      <trkpt lat="-21.13202" lon="55.5126">
        <ele>2198.3</ele>
        <time>2013-05-24T08:32:43Z</time>
      </trkpt>
      <trkpt lat="-21.13208" lon="55.51266">
        <ele>2197.7</ele>
        <time>2013-05-24T08:33:01Z</time>
      </trkpt>
      <trkpt lat="-21.13208" lon="55.51267">
        <ele>2197.5</ele>
        <time>2013-05-24T08:33:02Z</time>
      </trkpt>
      <trkpt lat="-21.13214" lon="55.51283">
        <ele>2196.8</ele>
        <time>2013-05-24T08:33:17Z</time>
      </trkpt>
      <trkpt lat="-21.13219" lon="55.51291">
        <ele>2195.8</ele>
        <time>2013-05-24T08:33:23Z</time>
      </trkpt>
      <trkpt lat="-21.13223" lon="55.51298">
        <ele>2195.4</ele>
        <time>2013-05-24T08:33:31Z</time>
      </trkpt>
      <trkpt lat="-21.13228" lon="55.51305">
        <ele>2194.4</ele>
        <time>2013-05-24T08:33:40Z</time>
      </trkpt>
      <trkpt lat="-21.13234" lon="55.51313">
        <ele>2193.2</ele>
        <time>2013-05-24T08:33:47Z</time>
      </trkpt>
      <trkpt lat="-21.1324" lon="55.5132">
        <ele>2192.3</ele>
        <time>2013-05-24T08:33:55Z</time>
      </trkpt>
      <trkpt lat="-21.13244" lon="55.51327">
        <ele>2191.3</ele>
        <time>2013-05-24T08:34:03Z</time>
      </trkpt>
      <trkpt lat="-21.13245" lon="55.51328">
        <ele>2191.2</ele>
        <time>2013-05-24T08:34:04Z</time>
      </trkpt>
      <trkpt lat="-21.13254" lon="55.51341">
        <ele>2190.6</ele>
        <time>2013-05-24T08:34:17Z</time>
      </trkpt>
      <trkpt lat="-21.1326" lon="55.51347">
        <ele>2189.5</ele>
        <time>2013-05-24T08:34:25Z</time>
      </trkpt>
      <trkpt lat="-21.13266" lon="55.51354">
        <ele>2188.3</ele>
        <time>2013-05-24T08:34:33Z</time>
      </trkpt>
      <trkpt lat="-21.13272" lon="55.5136">
        <ele>2186.9</ele>
        <time>2013-05-24T08:34:39Z</time>
      </trkpt>
      <trkpt lat="-21.13278" lon="55.51364">
        <ele>2187.2</ele>
        <time>2013-05-24T08:34:45Z</time>
      </trkpt>
      <trkpt lat="-21.13284" lon="55.5137">
        <ele>2188</ele>
        <time>2013-05-24T08:34:51Z</time>
      </trkpt>
      <trkpt lat="-21.13291" lon="55.51375">
        <ele>2187</ele>
        <time>2013-05-24T08:34:57Z</time>
      </trkpt>
      <trkpt lat="-21.13298" lon="55.51381">
        <ele>2187.1</ele>
        <time>2013-05-24T08:35:03Z</time>
      </trkpt>
      <trkpt lat="-21.13302" lon="55.51389">
        <ele>2186.8</ele>
        <time>2013-05-24T08:35:10Z</time>
      </trkpt>
      <trkpt lat="-21.13303" lon="55.5139">
        <ele>2186.7</ele>
        <time>2013-05-24T08:35:11Z</time>
      </trkpt>
      <trkpt lat="-21.13312" lon="55.51403">
        <ele>2184.7</ele>
        <time>2013-05-24T08:35:23Z</time>
      </trkpt>
      <trkpt lat="-21.13318" lon="55.51411">
        <ele>2184.1</ele>
        <time>2013-05-24T08:35:31Z</time>
      </trkpt>
      <trkpt lat="-21.13322" lon="55.51419">
        <ele>2183</ele>
        <time>2013-05-24T08:35:39Z</time>
      </trkpt>
      <trkpt lat="-21.13328" lon="55.51426">
        <ele>2181.8</ele>
        <time>2013-05-24T08:35:45Z</time>
      </trkpt>
      <trkpt lat="-21.13332" lon="55.51433">
        <ele>2180.9</ele>
        <time>2013-05-24T08:35:52Z</time>
      </trkpt>
      <trkpt lat="-21.13339" lon="55.51438">
        <ele>2180.4</ele>
        <time>2013-05-24T08:35:59Z</time>
      </trkpt>
      <trkpt lat="-21.13346" lon="55.51443">
        <ele>2180.2</ele>
        <time>2013-05-24T08:36:07Z</time>
      </trkpt>
      <trkpt lat="-21.13352" lon="55.5145">
        <ele>2179.1</ele>
        <time>2013-05-24T08:36:13Z</time>
      </trkpt>
      <trkpt lat="-21.13353" lon="55.51451">
        <ele>2179.1</ele>
        <time>2013-05-24T08:36:14Z</time>
      </trkpt>
      <trkpt lat="-21.13364" lon="55.51461">
        <ele>2178.4</ele>
        <time>2013-05-24T08:36:23Z</time>
      </trkpt>
      <trkpt lat="-21.13371" lon="55.51465">
        <ele>2178.4</ele>
        <time>2013-05-24T08:36:28Z</time>
      </trkpt>
      <trkpt lat="-21.13377" lon="55.51471">
        <ele>2178.1</ele>
        <time>2013-05-24T08:36:35Z</time>
      </trkpt>
      <trkpt lat="-21.13383" lon="55.51477">
        <ele>2177.9</ele>
        <time>2013-05-24T08:36:43Z</time>
      </trkpt>
      <trkpt lat="-21.1339" lon="55.51482">
        <ele>2178.4</ele>
        <time>2013-05-24T08:36:49Z</time>
      </trkpt>
      <trkpt lat="-21.13398" lon="55.51487">
        <ele>2177.7</ele>
        <time>2013-05-24T08:36:57Z</time>
      </trkpt>
      <trkpt lat="-21.13404" lon="55.51493">
        <ele>2176.8</ele>
        <time>2013-05-24T08:37:06Z</time>
      </trkpt>
      <trkpt lat="-21.13409" lon="55.51501">
        <ele>2176.4</ele>
        <time>2013-05-24T08:37:14Z</time>
      </trkpt>
      <trkpt lat="-21.1341" lon="55.51502">
        <ele>2176.3</ele>
        <time>2013-05-24T08:37:15Z</time>
      </trkpt>
      <trkpt lat="-21.13408" lon="55.51519">
        <ele>2174.9</ele>
        <time>2013-05-24T08:37:30Z</time>
      </trkpt>
      <trkpt lat="-21.13406" lon="55.51527">
        <ele>2173</ele>
        <time>2013-05-24T08:37:46Z</time>
      </trkpt>
      <trkpt lat="-21.13404" lon="55.51537">
        <ele>2172.3</ele>
        <time>2013-05-24T08:37:54Z</time>
      </trkpt>
      <trkpt lat="-21.13405" lon="55.51545">
        <ele>2171.2</ele>
        <time>2013-05-24T08:38:03Z</time>
      </trkpt>
      <trkpt lat="-21.13407" lon="55.51554">
        <ele>2169.9</ele>
        <time>2013-05-24T08:38:13Z</time>
      </trkpt>
      <trkpt lat="-21.13409" lon="55.51564">
        <ele>2167.8</ele>
        <time>2013-05-24T08:38:27Z</time>
      </trkpt>
      <trkpt lat="-21.13409" lon="55.51564">
        <ele>2167.9</ele>
        <time>2013-05-24T08:38:28Z</time>
      </trkpt>
      <trkpt lat="-21.13413" lon="55.5158">
        <ele>2162.8</ele>
        <time>2013-05-24T08:38:55Z</time>
      </trkpt>
      <trkpt lat="-21.13411" lon="55.5159">
        <ele>2162.3</ele>
        <time>2013-05-24T08:39:05Z</time>
      </trkpt>
      <trkpt lat="-21.13412" lon="55.51599">
        <ele>2159.8</ele>
        <time>2013-05-24T08:39:17Z</time>
      </trkpt>
      <trkpt lat="-21.13414" lon="55.51608">
        <ele>2158.4</ele>
        <time>2013-05-24T08:39:27Z</time>
      </trkpt>
      <trkpt lat="-21.13417" lon="55.51617">
        <ele>2155.4</ele>
        <time>2013-05-24T08:39:38Z</time>
      </trkpt>
      <trkpt lat="-21.13417" lon="55.51618">
        <ele>2155.1</ele>
        <time>2013-05-24T08:39:39Z</time>
      </trkpt>
      <trkpt lat="-21.13419" lon="55.51635">
        <ele>2151</ele>
        <time>2013-05-24T08:40:00Z</time>
      </trkpt>
      <trkpt lat="-21.13421" lon="55.51644">
        <ele>2148.5</ele>
        <time>2013-05-24T08:40:12Z</time>
      </trkpt>
      <trkpt lat="-21.13422" lon="55.51654">
        <ele>2146.9</ele>
        <time>2013-05-24T08:40:21Z</time>
      </trkpt>
      <trkpt lat="-21.13426" lon="55.51661">
        <ele>2145.9</ele>
        <time>2013-05-24T08:40:30Z</time>
      </trkpt>
      <trkpt lat="-21.13426" lon="55.5167">
        <ele>2144.3</ele>
        <time>2013-05-24T08:40:44Z</time>
      </trkpt>
      <trkpt lat="-21.13426" lon="55.51671">
        <ele>2144.3</ele>
        <time>2013-05-24T08:40:45Z</time>
      </trkpt>
      <trkpt lat="-21.13426" lon="55.51688">
        <ele>2140.1</ele>
        <time>2013-05-24T08:41:16Z</time>
      </trkpt>
      <trkpt lat="-21.13422" lon="55.51696">
        <ele>2137.3</ele>
        <time>2013-05-24T08:41:30Z</time>
      </trkpt>
      <trkpt lat="-21.13416" lon="55.51703">
        <ele>2136.3</ele>
        <time>2013-05-24T08:41:40Z</time>
      </trkpt>
      <trkpt lat="-21.13413" lon="55.51712">
        <ele>2135.9</ele>
        <time>2013-05-24T08:41:53Z</time>
      </trkpt>
      <trkpt lat="-21.13412" lon="55.51713">
        <ele>2136.1</ele>
        <time>2013-05-24T08:41:54Z</time>
      </trkpt>
      <trkpt lat="-21.13407" lon="55.51728">
        <ele>2134.3</ele>
        <time>2013-05-24T08:42:09Z</time>
      </trkpt>
      <trkpt lat="-21.13407" lon="55.51736">
        <ele>2132.6</ele>
        <time>2013-05-24T08:42:16Z</time>
      </trkpt>
      <trkpt lat="-21.13405" lon="55.51745">
        <ele>2131.9</ele>
        <time>2013-05-24T08:42:23Z</time>
      </trkpt>
      <trkpt lat="-21.13406" lon="55.51754">
        <ele>2129.6</ele>
        <time>2013-05-24T08:42:33Z</time>
      </trkpt>
      <trkpt lat="-21.13406" lon="55.51763">
        <ele>2128.3</ele>
        <time>2013-05-24T08:42:44Z</time>
      </trkpt>
      <trkpt lat="-21.13405" lon="55.51772">
        <ele>2125.7</ele>
        <time>2013-05-24T08:42:54Z</time>
      </trkpt>
      <trkpt lat="-21.13405" lon="55.51773">
        <ele>2125.4</ele>
        <time>2013-05-24T08:42:55Z</time>
      </trkpt>
      <trkpt lat="-21.13403" lon="55.5179">
        <ele>2121.9</ele>
        <time>2013-05-24T08:43:16Z</time>
      </trkpt>
      <trkpt lat="-21.13401" lon="55.51799">
        <ele>2119</ele>
        <time>2013-05-24T08:43:32Z</time>
      </trkpt>
      <trkpt lat="-21.134" lon="55.51808">
        <ele>2117.7</ele>
        <time>2013-05-24T08:43:44Z</time>
      </trkpt>
      <trkpt lat="-21.13397" lon="55.51817">
        <ele>2114.8</ele>
        <time>2013-05-24T08:43:56Z</time>
      </trkpt>
      <trkpt lat="-21.13397" lon="55.51818">
        <ele>2114.9</ele>
        <time>2013-05-24T08:43:57Z</time>
      </trkpt>
      <trkpt lat="-21.13396" lon="55.51836">
        <ele>2111</ele>
        <time>2013-05-24T08:44:21Z</time>
      </trkpt>
      <trkpt lat="-21.13403" lon="55.51841">
        <ele>2108.6</ele>
        <time>2013-05-24T08:44:36Z</time>
      </trkpt>
      <trkpt lat="-21.13404" lon="55.51851">
        <ele>2103.8</ele>
        <time>2013-05-24T08:44:59Z</time>
      </trkpt>
      <trkpt lat="-21.13404" lon="55.51851">
        <ele>2103.8</ele>
        <time>2013-05-24T08:45:00Z</time>
      </trkpt>
      <trkpt lat="-21.13398" lon="55.51868">
        <ele>2100.2</ele>
        <time>2013-05-24T08:45:25Z</time>
      </trkpt>
      <trkpt lat="-21.13398" lon="55.51877">
        <ele>2097.4</ele>
        <time>2013-05-24T08:45:42Z</time>
      </trkpt>
      <trkpt lat="-21.13399" lon="55.51886">
        <ele>2095.9</ele>
        <time>2013-05-24T08:46:03Z</time>
      </trkpt>
      <trkpt lat="-21.13399" lon="55.51887">
        <ele>2096</ele>
        <time>2013-05-24T08:46:04Z</time>
      </trkpt>
      <trkpt lat="-21.13402" lon="55.51904">
        <ele>2090.1</ele>
        <time>2013-05-24T08:46:35Z</time>
      </trkpt>
      <trkpt lat="-21.1341" lon="55.51909">
        <ele>2087.4</ele>
        <time>2013-05-24T08:46:57Z</time>
      </trkpt>
      <trkpt lat="-21.13417" lon="55.51915">
        <ele>2085.1</ele>
        <time>2013-05-24T08:47:21Z</time>
      </trkpt>
      <trkpt lat="-21.13417" lon="55.51915">
        <ele>2085</ele>
        <time>2013-05-24T08:47:22Z</time>
      </trkpt>
      <trkpt lat="-21.1342" lon="55.51932">
        <ele>2082.9</ele>
        <time>2013-05-24T08:47:45Z</time>
      </trkpt>
      <trkpt lat="-21.13419" lon="55.51941">
        <ele>2082.1</ele>
        <time>2013-05-24T08:47:52Z</time>
      </trkpt>
      <trkpt lat="-21.13419" lon="55.5195">
        <ele>2080.9</ele>
        <time>2013-05-24T08:48:02Z</time>
      </trkpt>
      <trkpt lat="-21.13421" lon="55.51959">
        <ele>2079.8</ele>
        <time>2013-05-24T08:48:11Z</time>
      </trkpt>
      <trkpt lat="-21.13422" lon="55.51968">
        <ele>2079</ele>
        <time>2013-05-24T08:48:24Z</time>
      </trkpt>
      <trkpt lat="-21.13422" lon="55.51969">
        <ele>2079.2</ele>
        <time>2013-05-24T08:48:25Z</time>
      </trkpt>
      <trkpt lat="-21.13422" lon="55.51986">
        <ele>2078.5</ele>
        <time>2013-05-24T08:49:22Z</time>
      </trkpt>
      <trkpt lat="-21.13419" lon="55.51995">
        <ele>2077.4</ele>
        <time>2013-05-24T08:49:47Z</time>
      </trkpt>
      <trkpt lat="-21.13419" lon="55.51996">
        <ele>2078</ele>
        <time>2013-05-24T08:49:48Z</time>
      </trkpt>
      <trkpt lat="-21.13417" lon="55.52014">
        <ele>2077.8</ele>
        <time>2013-05-24T08:50:12Z</time>
      </trkpt>
      <trkpt lat="-21.13415" lon="55.52023">
        <ele>2074.8</ele>
        <time>2013-05-24T08:50:28Z</time>
      </trkpt>
      <trkpt lat="-21.13415" lon="55.52032">
        <ele>2074.4</ele>
        <time>2013-05-24T08:50:41Z</time>
      </trkpt>
      <trkpt lat="-21.13414" lon="55.52041">
        <ele>2073.1</ele>
        <time>2013-05-24T08:50:55Z</time>
      </trkpt>
      <trkpt lat="-21.13414" lon="55.52042">
        <ele>2072.9</ele>
        <time>2013-05-24T08:50:56Z</time>
      </trkpt>
      <trkpt lat="-21.13412" lon="55.5206">
        <ele>2069</ele>
        <time>2013-05-24T08:51:29Z</time>
      </trkpt>
      <trkpt lat="-21.13414" lon="55.52069">
        <ele>2068.5</ele>
        <time>2013-05-24T08:52:29Z</time>
      </trkpt>
      <trkpt lat="-21.13414" lon="55.52069">
        <ele>2068.5</ele>
        <time>2013-05-24T08:52:30Z</time>
      </trkpt>
      <trkpt lat="-21.13414" lon="55.52087">
        <ele>2072</ele>
        <time>2013-05-24T08:53:05Z</time>
      </trkpt>
      <trkpt lat="-21.13417" lon="55.52096">
        <ele>2075.6</ele>
        <time>2013-05-24T08:53:24Z</time>
      </trkpt>
      <trkpt lat="-21.13425" lon="55.52096">
        <ele>2077.9</ele>
        <time>2013-05-24T08:53:41Z</time>
      </trkpt>
      <trkpt lat="-21.13426" lon="55.52095">
        <ele>2078</ele>
        <time>2013-05-24T08:53:42Z</time>
      </trkpt>
      <trkpt lat="-21.13435" lon="55.521">
        <ele>2079.6</ele>
        <time>2013-05-24T08:54:13Z</time>
      </trkpt>
      <trkpt lat="-21.13435" lon="55.52109">
        <ele>2078</ele>
        <time>2013-05-24T08:54:28Z</time>
      </trkpt>
      <trkpt lat="-21.13439" lon="55.52117">
        <ele>2074.3</ele>
        <time>2013-05-24T08:54:44Z</time>
      </trkpt>
      <trkpt lat="-21.13439" lon="55.52117">
        <ele>2074.3</ele>
        <time>2013-05-24T08:54:45Z</time>
      </trkpt>
      <trkpt lat="-21.13448" lon="55.52131">
        <ele>2072.3</ele>
        <time>2013-05-24T08:55:06Z</time>
      </trkpt>
      <trkpt lat="-21.13455" lon="55.52136">
        <ele>2069.9</ele>
        <time>2013-05-24T08:55:21Z</time>
      </trkpt>
      <trkpt lat="-21.13463" lon="55.52141">
        <ele>2066.6</ele>
        <time>2013-05-24T08:55:36Z</time>
      </trkpt>
      <trkpt lat="-21.13464" lon="55.52151">
        <ele>2064.2</ele>
        <time>2013-05-24T08:55:52Z</time>
      </trkpt>
      <trkpt lat="-21.13464" lon="55.52152">
        <ele>2064.1</ele>
        <time>2013-05-24T08:55:53Z</time>
      </trkpt>
      <trkpt lat="-21.13462" lon="55.52168">
        <ele>2065.7</ele>
        <time>2013-05-24T08:56:13Z</time>
      </trkpt>
      <trkpt lat="-21.13463" lon="55.52177">
        <ele>2065.8</ele>
        <time>2013-05-24T08:56:20Z</time>
      </trkpt>
      <trkpt lat="-21.13463" lon="55.52185">
        <ele>2066.1</ele>
        <time>2013-05-24T08:56:27Z</time>
      </trkpt>
      <trkpt lat="-21.13465" lon="55.52193">
        <ele>2065.1</ele>
        <time>2013-05-24T08:56:33Z</time>
      </trkpt>
      <trkpt lat="-21.1347" lon="55.52202">
        <ele>2064.9</ele>
        <time>2013-05-24T08:56:45Z</time>
      </trkpt>
      <trkpt lat="-21.13471" lon="55.5221">
        <ele>2063</ele>
        <time>2013-05-24T08:56:56Z</time>
      </trkpt>
      <trkpt lat="-21.1347" lon="55.52211">
        <ele>2062.9</ele>
        <time>2013-05-24T08:56:57Z</time>
      </trkpt>
      <trkpt lat="-21.13462" lon="55.52226">
        <ele>2060.5</ele>
        <time>2013-05-24T08:57:28Z</time>
      </trkpt>
      <trkpt lat="-21.13462" lon="55.52235">
        <ele>2058.9</ele>
        <time>2013-05-24T08:57:44Z</time>
      </trkpt>
      <trkpt lat="-21.13461" lon="55.52245">
        <ele>2057.6</ele>
        <time>2013-05-24T08:57:54Z</time>
      </trkpt>
      <trkpt lat="-21.13464" lon="55.52253">
        <ele>2056.6</ele>
        <time>2013-05-24T08:58:02Z</time>
      </trkpt>
      <trkpt lat="-21.13464" lon="55.52254">
        <ele>2056.6</ele>
        <time>2013-05-24T08:58:03Z</time>
      </trkpt>
      <trkpt lat="-21.13466" lon="55.52271">
        <ele>2054.7</ele>
        <time>2013-05-24T08:58:25Z</time>
      </trkpt>
      <trkpt lat="-21.13464" lon="55.52281">
        <ele>2052.3</ele>
        <time>2013-05-24T08:58:38Z</time>
      </trkpt>
      <trkpt lat="-21.13461" lon="55.52289">
        <ele>2050.8</ele>
        <time>2013-05-24T08:58:49Z</time>
      </trkpt>
      <trkpt lat="-21.13458" lon="55.52297">
        <ele>2048.8</ele>
        <time>2013-05-24T08:59:01Z</time>
      </trkpt>
      <trkpt lat="-21.13456" lon="55.52306">
        <ele>2046.3</ele>
        <time>2013-05-24T08:59:11Z</time>
      </trkpt>
      <trkpt lat="-21.13456" lon="55.52307">
        <ele>2046.6</ele>
        <time>2013-05-24T08:59:12Z</time>
      </trkpt>
      <trkpt lat="-21.13446" lon="55.52322">
        <ele>2041.1</ele>
        <time>2013-05-24T08:59:49Z</time>
      </trkpt>
      <trkpt lat="-21.1344" lon="55.52329">
        <ele>2038.5</ele>
        <time>2013-05-24T09:00:09Z</time>
      </trkpt>
      <trkpt lat="-21.13438" lon="55.52338">
        <ele>2036.3</ele>
        <time>2013-05-24T09:00:20Z</time>
      </trkpt>
      <trkpt lat="-21.13438" lon="55.52339">
        <ele>2036.5</ele>
        <time>2013-05-24T09:00:21Z</time>
      </trkpt>
      <trkpt lat="-21.13436" lon="55.52356">
        <ele>2034.7</ele>
        <time>2013-05-24T09:00:47Z</time>
      </trkpt>
      <trkpt lat="-21.13431" lon="55.52365">
        <ele>2031.7</ele>
        <time>2013-05-24T09:01:06Z</time>
      </trkpt>
      <trkpt lat="-21.1343" lon="55.52374">
        <ele>2027.7</ele>
        <time>2013-05-24T09:01:35Z</time>
      </trkpt>
      <trkpt lat="-21.1343" lon="55.52375">
        <ele>2027.7</ele>
        <time>2013-05-24T09:01:36Z</time>
      </trkpt>
      <trkpt lat="-21.13425" lon="55.52383">
        <ele>2028</ele>
        <time>2013-05-24T09:03:32Z</time>
      </trkpt>
      <trkpt lat="-21.1342" lon="55.52399">
        <ele>2024.5</ele>
        <time>2013-05-24T09:04:02Z</time>
      </trkpt>
      <trkpt lat="-21.13414" lon="55.52406">
        <ele>2023.4</ele>
        <time>2013-05-24T09:04:12Z</time>
      </trkpt>
      <trkpt lat="-21.13414" lon="55.52415">
        <ele>2021.3</ele>
        <time>2013-05-24T09:04:24Z</time>
      </trkpt>
      <trkpt lat="-21.13414" lon="55.52425">
        <ele>2019.5</ele>
        <time>2013-05-24T09:04:34Z</time>
      </trkpt>
      <trkpt lat="-21.13413" lon="55.52425">
        <ele>2019</ele>
        <time>2013-05-24T09:04:35Z</time>
      </trkpt>
      <trkpt lat="-21.1341" lon="55.52443">
        <ele>2017.6</ele>
        <time>2013-05-24T09:05:03Z</time>
      </trkpt>
      <trkpt lat="-21.13407" lon="55.52452">
        <ele>2015.9</ele>
        <time>2013-05-24T09:05:16Z</time>
      </trkpt>
      <trkpt lat="-21.13405" lon="55.52461">
        <ele>2014.4</ele>
        <time>2013-05-24T09:05:26Z</time>
      </trkpt>
      <trkpt lat="-21.134" lon="55.52469">
        <ele>2014.3</ele>
        <time>2013-05-24T09:05:36Z</time>
      </trkpt>
      <trkpt lat="-21.134" lon="55.5247">
        <ele>2014.2</ele>
        <time>2013-05-24T09:05:37Z</time>
      </trkpt>
      <trkpt lat="-21.13401" lon="55.52486">
        <ele>2012.2</ele>
        <time>2013-05-24T09:05:56Z</time>
      </trkpt>
      <trkpt lat="-21.13403" lon="55.52496">
        <ele>2011.6</ele>
        <time>2013-05-24T09:06:09Z</time>
      </trkpt>
      <trkpt lat="-21.13407" lon="55.52504">
        <ele>2008.5</ele>
        <time>2013-05-24T09:06:24Z</time>
      </trkpt>
      <trkpt lat="-21.13409" lon="55.52513">
        <ele>2007.4</ele>
        <time>2013-05-24T09:06:40Z</time>
      </trkpt>
      <trkpt lat="-21.1341" lon="55.52513">
        <ele>2007.1</ele>
        <time>2013-05-24T09:06:41Z</time>
      </trkpt>
      <trkpt lat="-21.13408" lon="55.52531">
        <ele>2002</ele>
        <time>2013-05-24T09:07:12Z</time>
      </trkpt>
      <trkpt lat="-21.13409" lon="55.5254">
        <ele>1999.8</ele>
        <time>2013-05-24T09:07:24Z</time>
      </trkpt>
      <trkpt lat="-21.13404" lon="55.52547">
        <ele>1996.3</ele>
        <time>2013-05-24T09:07:40Z</time>
      </trkpt>
      <trkpt lat="-21.134" lon="55.52555">
        <ele>1996.2</ele>
        <time>2013-05-24T09:07:48Z</time>
      </trkpt>
      <trkpt lat="-21.134" lon="55.52556">
        <ele>1996.2</ele>
        <time>2013-05-24T09:07:49Z</time>
      </trkpt>
      <trkpt lat="-21.13395" lon="55.52572">
        <ele>1994.5</ele>
        <time>2013-05-24T09:08:05Z</time>
      </trkpt>
      <trkpt lat="-21.13391" lon="55.52581">
        <ele>1993.5</ele>
        <time>2013-05-24T09:08:16Z</time>
      </trkpt>
      <trkpt lat="-21.13391" lon="55.5259">
        <ele>1993.3</ele>
        <time>2013-05-24T09:08:24Z</time>
      </trkpt>
      <trkpt lat="-21.1339" lon="55.52599">
        <ele>1991.8</ele>
        <time>2013-05-24T09:08:34Z</time>
      </trkpt>
      <trkpt lat="-21.13389" lon="55.52608">
        <ele>1990.3</ele>
        <time>2013-05-24T09:08:47Z</time>
      </trkpt>
      <trkpt lat="-21.13387" lon="55.52618">
        <ele>1989.2</ele>
        <time>2013-05-24T09:08:59Z</time>
      </trkpt>
      <trkpt lat="-21.13387" lon="55.52619">
        <ele>1989</ele>
        <time>2013-05-24T09:09:00Z</time>
      </trkpt>
      <trkpt lat="-21.13383" lon="55.52634">
        <ele>1987.4</ele>
        <time>2013-05-24T09:09:15Z</time>
      </trkpt>
      <trkpt lat="-21.13381" lon="55.52643">
        <ele>1987.7</ele>
        <time>2013-05-24T09:09:24Z</time>
      </trkpt>
      <trkpt lat="-21.13379" lon="55.52651">
        <ele>1986.1</ele>
        <time>2013-05-24T09:09:37Z</time>
      </trkpt>
      <trkpt lat="-21.13377" lon="55.5266">
        <ele>1985.3</ele>
        <time>2013-05-24T09:09:45Z</time>
      </trkpt>
      <trkpt lat="-21.13377" lon="55.52669">
        <ele>1983.3</ele>
        <time>2013-05-24T09:09:55Z</time>
      </trkpt>
      <trkpt lat="-21.13376" lon="55.52678">
        <ele>1981.8</ele>
        <time>2013-05-24T09:10:07Z</time>
      </trkpt>
      <trkpt lat="-21.13375" lon="55.52679">
        <ele>1981.7</ele>
        <time>2013-05-24T09:10:08Z</time>
      </trkpt>
      <trkpt lat="-21.13373" lon="55.52695">
        <ele>1979.6</ele>
        <time>2013-05-24T09:10:29Z</time>
      </trkpt>
      <trkpt lat="-21.1337" lon="55.52704">
        <ele>1979</ele>
        <time>2013-05-24T09:10:36Z</time>
      </trkpt>
      <trkpt lat="-21.13369" lon="55.52713">
        <ele>1979.8</ele>
        <time>2013-05-24T09:10:43Z</time>
      </trkpt>
      <trkpt lat="-21.13367" lon="55.52722">
        <ele>1978.5</ele>
        <time>2013-05-24T09:10:51Z</time>
      </trkpt>
      <trkpt lat="-21.13366" lon="55.52732">
        <ele>1977.6</ele>
        <time>2013-05-24T09:10:59Z</time>
      </trkpt>
      <trkpt lat="-21.13364" lon="55.52741">
        <ele>1976.8</ele>
        <time>2013-05-24T09:11:07Z</time>
      </trkpt>
      <trkpt lat="-21.13366" lon="55.5275">
        <ele>1975.7</ele>
        <time>2013-05-24T09:11:18Z</time>
      </trkpt>
      <trkpt lat="-21.13366" lon="55.52751">
        <ele>1975.2</ele>
        <time>2013-05-24T09:11:19Z</time>
      </trkpt>
      <trkpt lat="-21.13365" lon="55.52768">
        <ele>1972.3</ele>
        <time>2013-05-24T09:11:38Z</time>
      </trkpt>
      <trkpt lat="-21.13364" lon="55.52777">
        <ele>1972.2</ele>
        <time>2013-05-24T09:11:47Z</time>
      </trkpt>
      <trkpt lat="-21.13364" lon="55.52786">
        <ele>1970.1</ele>
        <time>2013-05-24T09:12:02Z</time>
      </trkpt>
      <trkpt lat="-21.13359" lon="55.52794">
        <ele>1969</ele>
        <time>2013-05-24T09:12:10Z</time>
      </trkpt>
      <trkpt lat="-21.13358" lon="55.52803">
        <ele>1968.3</ele>
        <time>2013-05-24T09:12:18Z</time>
      </trkpt>
      <trkpt lat="-21.13362" lon="55.52811">
        <ele>1966.7</ele>
        <time>2013-05-24T09:12:32Z</time>
      </trkpt>
      <trkpt lat="-21.13363" lon="55.52812">
        <ele>1966.5</ele>
        <time>2013-05-24T09:12:33Z</time>
      </trkpt>
      <trkpt lat="-21.1337" lon="55.52828">
        <ele>1965.4</ele>
        <time>2013-05-24T09:13:17Z</time>
      </trkpt>
      <trkpt lat="-21.13369" lon="55.52838">
        <ele>1964.6</ele>
        <time>2013-05-24T09:13:28Z</time>
      </trkpt>
      <trkpt lat="-21.13371" lon="55.52847">
        <ele>1964.7</ele>
        <time>2013-05-24T09:13:39Z</time>
      </trkpt>
      <trkpt lat="-21.13372" lon="55.52847">
        <ele>1964.5</ele>
        <time>2013-05-24T09:13:40Z</time>
      </trkpt>
      <trkpt lat="-21.13378" lon="55.52863">
        <ele>1961.8</ele>
        <time>2013-05-24T09:13:58Z</time>
      </trkpt>
      <trkpt lat="-21.13379" lon="55.52872">
        <ele>1960.2</ele>
        <time>2013-05-24T09:14:11Z</time>
      </trkpt>
      <trkpt lat="-21.13379" lon="55.52881">
        <ele>1958.4</ele>
        <time>2013-05-24T09:14:21Z</time>
      </trkpt>
      <trkpt lat="-21.1338" lon="55.52891">
        <ele>1958.3</ele>
        <time>2013-05-24T09:14:28Z</time>
      </trkpt>
      <trkpt lat="-21.13384" lon="55.52898">
        <ele>1956.6</ele>
        <time>2013-05-24T09:14:36Z</time>
      </trkpt>
      <trkpt lat="-21.13392" lon="55.52903">
        <ele>1955</ele>
        <time>2013-05-24T09:14:45Z</time>
      </trkpt>
      <trkpt lat="-21.13393" lon="55.52903">
        <ele>1954.9</ele>
        <time>2013-05-24T09:14:46Z</time>
      </trkpt>
      <trkpt lat="-21.13402" lon="55.52918">
        <ele>1952.3</ele>
        <time>2013-05-24T09:15:12Z</time>
      </trkpt>
      <trkpt lat="-21.13404" lon="55.52927">
        <ele>1952.4</ele>
        <time>2013-05-24T09:15:23Z</time>
      </trkpt>
      <trkpt lat="-21.13409" lon="55.52934">
        <ele>1950.7</ele>
        <time>2013-05-24T09:15:36Z</time>
      </trkpt>
      <trkpt lat="-21.13411" lon="55.52943">
        <ele>1949</ele>
        <time>2013-05-24T09:15:48Z</time>
      </trkpt>
      <trkpt lat="-21.13411" lon="55.52944">
        <ele>1948.9</ele>
        <time>2013-05-24T09:15:49Z</time>
      </trkpt>
      <trkpt lat="-21.13416" lon="55.52961">
        <ele>1947.1</ele>
        <time>2013-05-24T09:16:09Z</time>
      </trkpt>
      <trkpt lat="-21.13415" lon="55.52969">
        <ele>1946.9</ele>
        <time>2013-05-24T09:16:19Z</time>
      </trkpt>
      <trkpt lat="-21.13409" lon="55.52976">
        <ele>1946.9</ele>
        <time>2013-05-24T09:16:28Z</time>
      </trkpt>
      <trkpt lat="-21.1341" lon="55.52985">
        <ele>1951.1</ele>
        <time>2013-05-24T09:16:46Z</time>
      </trkpt>
      <trkpt lat="-21.13413" lon="55.52993">
        <ele>1951.6</ele>
        <time>2013-05-24T09:16:54Z</time>
      </trkpt>
      <trkpt lat="-21.13414" lon="55.52994">
        <ele>1951.4</ele>
        <time>2013-05-24T09:16:55Z</time>
      </trkpt>
      <trkpt lat="-21.13425" lon="55.53007">
        <ele>1949</ele>
        <time>2013-05-24T09:17:11Z</time>
      </trkpt>
      <trkpt lat="-21.13428" lon="55.53014">
        <ele>1947.6</ele>
        <time>2013-05-24T09:17:22Z</time>
      </trkpt>
      <trkpt lat="-21.13434" lon="55.53021">
        <ele>1946.1</ele>
        <time>2013-05-24T09:17:32Z</time>
      </trkpt>
      <trkpt lat="-21.1344" lon="55.53027">
        <ele>1945.3</ele>
        <time>2013-05-24T09:17:41Z</time>
      </trkpt>
      <trkpt lat="-21.13445" lon="55.53033">
        <ele>1942.9</ele>
        <time>2013-05-24T09:17:49Z</time>
      </trkpt>
      <trkpt lat="-21.13453" lon="55.53037">
        <ele>1943.7</ele>
        <time>2013-05-24T09:17:58Z</time>
      </trkpt>
      <trkpt lat="-21.13454" lon="55.53037">
        <ele>1943.6</ele>
        <time>2013-05-24T09:17:59Z</time>
      </trkpt>
      <trkpt lat="-21.13468" lon="55.53043">
        <ele>1944.7</ele>
        <time>2013-05-24T09:18:15Z</time>
      </trkpt>
      <trkpt lat="-21.1347" lon="55.53035">
        <ele>1947.1</ele>
        <time>2013-05-24T09:18:23Z</time>
      </trkpt>
      <trkpt lat="-21.13473" lon="55.53026">
        <ele>1949.5</ele>
        <time>2013-05-24T09:18:33Z</time>
      </trkpt>
      <trkpt lat="-21.13478" lon="55.53019">
        <ele>1954</ele>
        <time>2013-05-24T09:18:51Z</time>
      </trkpt>
      <trkpt lat="-21.13472" lon="55.53013">
        <ele>1960.3</ele>
        <time>2013-05-24T09:19:24Z</time>
      </trkpt>
      <trkpt lat="-21.13471" lon="55.53013">
        <ele>1960.5</ele>
        <time>2013-05-24T09:19:25Z</time>
      </trkpt>
      <trkpt lat="-21.13487" lon="55.53021">
        <ele>1966.4</ele>
        <time>2013-05-24T09:20:02Z</time>
      </trkpt>
      <trkpt lat="-21.13496" lon="55.53022">
        <ele>1968.7</ele>
        <time>2013-05-24T09:20:31Z</time>
      </trkpt>
      <trkpt lat="-21.13497" lon="55.53022">
        <ele>1968.7</ele>
        <time>2013-05-24T09:20:32Z</time>
      </trkpt>
      <trkpt lat="-21.13512" lon="55.53027">
        <ele>1969.2</ele>
        <time>2013-05-24T09:21:05Z</time>
      </trkpt>
      <trkpt lat="-21.1352" lon="55.5303">
        <ele>1968.9</ele>
        <time>2013-05-24T09:21:17Z</time>
      </trkpt>
      <trkpt lat="-21.13522" lon="55.53039">
        <ele>1969.4</ele>
        <time>2013-05-24T09:21:30Z</time>
      </trkpt>
      <trkpt lat="-21.13525" lon="55.53047">
        <ele>1969.3</ele>
        <time>2013-05-24T09:21:40Z</time>
      </trkpt>
      <trkpt lat="-21.13526" lon="55.53048">
        <ele>1969.3</ele>
        <time>2013-05-24T09:21:41Z</time>
      </trkpt>
      <trkpt lat="-21.13533" lon="55.53064">
        <ele>1969.1</ele>
        <time>2013-05-24T09:21:59Z</time>
      </trkpt>
      <trkpt lat="-21.13538" lon="55.53071">
        <ele>1968.8</ele>
        <time>2013-05-24T09:22:11Z</time>
      </trkpt>
      <trkpt lat="-21.13537" lon="55.53079">
        <ele>1970</ele>
        <time>2013-05-24T09:22:26Z</time>
      </trkpt>
      <trkpt lat="-21.13539" lon="55.53088">
        <ele>1970.2</ele>
        <time>2013-05-24T09:22:36Z</time>
      </trkpt>
      <trkpt lat="-21.13544" lon="55.53096">
        <ele>1969.9</ele>
        <time>2013-05-24T09:22:46Z</time>
      </trkpt>
      <trkpt lat="-21.13545" lon="55.53097">
        <ele>1970.3</ele>
        <time>2013-05-24T09:22:47Z</time>
      </trkpt>
      <trkpt lat="-21.13545" lon="55.53114">
        <ele>1968.7</ele>
        <time>2013-05-24T09:23:06Z</time>
      </trkpt>
      <trkpt lat="-21.13547" lon="55.53123">
        <ele>1968.8</ele>
        <time>2013-05-24T09:23:13Z</time>
      </trkpt>
      <trkpt lat="-21.1355" lon="55.53131">
        <ele>1969</ele>
        <time>2013-05-24T09:23:20Z</time>
      </trkpt>
      <trkpt lat="-21.13549" lon="55.53141">
        <ele>1969.2</ele>
        <time>2013-05-24T09:23:29Z</time>
      </trkpt>
      <trkpt lat="-21.13548" lon="55.5315">
        <ele>1970.6</ele>
        <time>2013-05-24T09:23:45Z</time>
      </trkpt>
      <trkpt lat="-21.13546" lon="55.53159">
        <ele>1971.2</ele>
        <time>2013-05-24T09:23:56Z</time>
      </trkpt>
      <trkpt lat="-21.13546" lon="55.5316">
        <ele>1970.9</ele>
        <time>2013-05-24T09:23:57Z</time>
      </trkpt>
      <trkpt lat="-21.13548" lon="55.53177">
        <ele>1969.7</ele>
        <time>2013-05-24T09:24:22Z</time>
      </trkpt>
      <trkpt lat="-21.13544" lon="55.53185">
        <ele>1970.3</ele>
        <time>2013-05-24T09:24:39Z</time>
      </trkpt>
      <trkpt lat="-21.13548" lon="55.53193">
        <ele>1972.8</ele>
        <time>2013-05-24T09:24:54Z</time>
      </trkpt>
      <trkpt lat="-21.13552" lon="55.53202">
        <ele>1976.1</ele>
        <time>2013-05-24T09:25:05Z</time>
      </trkpt>
      <trkpt lat="-21.13553" lon="55.53202">
        <ele>1976.1</ele>
        <time>2013-05-24T09:25:06Z</time>
      </trkpt>
      <trkpt lat="-21.13556" lon="55.53217">
        <ele>1973.1</ele>
        <time>2013-05-24T09:25:28Z</time>
      </trkpt>
      <trkpt lat="-21.13559" lon="55.53225">
        <ele>1971.6</ele>
        <time>2013-05-24T09:25:37Z</time>
      </trkpt>
      <trkpt lat="-21.13556" lon="55.53235">
        <ele>1972.2</ele>
        <time>2013-05-24T09:25:49Z</time>
      </trkpt>
      <trkpt lat="-21.13551" lon="55.53242">
        <ele>1973.8</ele>
        <time>2013-05-24T09:25:57Z</time>
      </trkpt>
      <trkpt lat="-21.13554" lon="55.5325">
        <ele>1975.4</ele>
        <time>2013-05-24T09:26:09Z</time>
      </trkpt>
      <trkpt lat="-21.13554" lon="55.53252">
        <ele>1975.5</ele>
        <time>2013-05-24T09:26:10Z</time>
      </trkpt>
      <trkpt lat="-21.13562" lon="55.53265">
        <ele>1976.5</ele>
        <time>2013-05-24T09:26:23Z</time>
      </trkpt>
      <trkpt lat="-21.13564" lon="55.53275">
        <ele>1976.8</ele>
        <time>2013-05-24T09:26:34Z</time>
      </trkpt>
      <trkpt lat="-21.13568" lon="55.53283">
        <ele>1977.1</ele>
        <time>2013-05-24T09:26:43Z</time>
      </trkpt>
      <trkpt lat="-21.13574" lon="55.53289">
        <ele>1975.2</ele>
        <time>2013-05-24T09:26:53Z</time>
      </trkpt>
      <trkpt lat="-21.13578" lon="55.53297">
        <ele>1973.8</ele>
        <time>2013-05-24T09:27:05Z</time>
      </trkpt>
      <trkpt lat="-21.1358" lon="55.53305">
        <ele>1975.2</ele>
        <time>2013-05-24T09:27:16Z</time>
      </trkpt>
      <trkpt lat="-21.13581" lon="55.53306">
        <ele>1975.1</ele>
        <time>2013-05-24T09:27:17Z</time>
      </trkpt>
      <trkpt lat="-21.1359" lon="55.53319">
        <ele>1976.1</ele>
        <time>2013-05-24T09:27:33Z</time>
      </trkpt>
      <trkpt lat="-21.13598" lon="55.53319">
        <ele>1977.6</ele>
        <time>2013-05-24T09:27:42Z</time>
      </trkpt>
      <trkpt lat="-21.13606" lon="55.53319">
        <ele>1979.7</ele>
        <time>2013-05-24T09:27:54Z</time>
      </trkpt>
      <trkpt lat="-21.1361" lon="55.53328">
        <ele>1979.7</ele>
        <time>2013-05-24T09:28:10Z</time>
      </trkpt>
      <trkpt lat="-21.13615" lon="55.53335">
        <ele>1980.9</ele>
        <time>2013-05-24T09:28:22Z</time>
      </trkpt>
      <trkpt lat="-21.13616" lon="55.53336">
        <ele>1981.1</ele>
        <time>2013-05-24T09:28:23Z</time>
      </trkpt>
      <trkpt lat="-21.13618" lon="55.53352">
        <ele>1982.8</ele>
        <time>2013-05-24T09:28:51Z</time>
      </trkpt>
      <trkpt lat="-21.13618" lon="55.53361">
        <ele>1984.2</ele>
        <time>2013-05-24T09:29:01Z</time>
      </trkpt>
      <trkpt lat="-21.13625" lon="55.53366">
        <ele>1989.5</ele>
        <time>2013-05-24T09:29:32Z</time>
      </trkpt>
      <trkpt lat="-21.13626" lon="55.53366">
        <ele>1989.9</ele>
        <time>2013-05-24T09:29:33Z</time>
      </trkpt>
      <trkpt lat="-21.13633" lon="55.53382">
        <ele>1994.2</ele>
        <time>2013-05-24T09:29:53Z</time>
      </trkpt>
      <trkpt lat="-21.13639" lon="55.53388">
        <ele>1994.4</ele>
        <time>2013-05-24T09:30:01Z</time>
      </trkpt>
      <trkpt lat="-21.13644" lon="55.53396">
        <ele>1994.2</ele>
        <time>2013-05-24T09:30:09Z</time>
      </trkpt>
      <trkpt lat="-21.1365" lon="55.53403">
        <ele>1997.8</ele>
        <time>2013-05-24T09:30:26Z</time>
      </trkpt>
      <trkpt lat="-21.13651" lon="55.53412">
        <ele>2003.9</ele>
        <time>2013-05-24T09:31:00Z</time>
      </trkpt>
      <trkpt lat="-21.13651" lon="55.53413">
        <ele>2003.9</ele>
        <time>2013-05-24T09:31:01Z</time>
      </trkpt>
      <trkpt lat="-21.13666" lon="55.53419">
        <ele>2007.5</ele>
        <time>2013-05-24T09:31:27Z</time>
      </trkpt>
      <trkpt lat="-21.13673" lon="55.53425">
        <ele>2010.7</ele>
        <time>2013-05-24T09:31:45Z</time>
      </trkpt>
      <trkpt lat="-21.13679" lon="55.53432">
        <ele>2015.5</ele>
        <time>2013-05-24T09:32:15Z</time>
      </trkpt>
      <trkpt lat="-21.1368" lon="55.53432">
        <ele>2016.1</ele>
        <time>2013-05-24T09:32:16Z</time>
      </trkpt>
      <trkpt lat="-21.13691" lon="55.53444">
        <ele>2026.1</ele>
        <time>2013-05-24T09:33:10Z</time>
      </trkpt>
      <trkpt lat="-21.13695" lon="55.53452">
        <ele>2026.2</ele>
        <time>2013-05-24T09:33:24Z</time>
      </trkpt>
      <trkpt lat="-21.13696" lon="55.53453">
        <ele>2026.2</ele>
        <time>2013-05-24T09:33:25Z</time>
      </trkpt>
      <trkpt lat="-21.13707" lon="55.53465">
        <ele>2028.2</ele>
        <time>2013-05-24T09:33:47Z</time>
      </trkpt>
      <trkpt lat="-21.13709" lon="55.53474">
        <ele>2031.6</ele>
        <time>2013-05-24T09:34:03Z</time>
      </trkpt>
      <trkpt lat="-21.13712" lon="55.53482">
        <ele>2032.3</ele>
        <time>2013-05-24T09:34:17Z</time>
      </trkpt>
      <trkpt lat="-21.13716" lon="55.53491">
        <ele>2035.4</ele>
        <time>2013-05-24T09:34:31Z</time>
      </trkpt>
      <trkpt lat="-21.13717" lon="55.53491">
        <ele>2035.7</ele>
        <time>2013-05-24T09:34:32Z</time>
      </trkpt>
      <trkpt lat="-21.13725" lon="55.53505">
        <ele>2038.1</ele>
        <time>2013-05-24T09:34:52Z</time>
      </trkpt>
      <trkpt lat="-21.13726" lon="55.53514">
        <ele>2039</ele>
        <time>2013-05-24T09:35:06Z</time>
      </trkpt>
      <trkpt lat="-21.13724" lon="55.53523">
        <ele>2038.8</ele>
        <time>2013-05-24T09:35:15Z</time>
      </trkpt>
      <trkpt lat="-21.13726" lon="55.53532">
        <ele>2041</ele>
        <time>2013-05-24T09:35:24Z</time>
      </trkpt>
      <trkpt lat="-21.13725" lon="55.53541">
        <ele>2041.3</ele>
        <time>2013-05-24T09:35:36Z</time>
      </trkpt>
      <trkpt lat="-21.13725" lon="55.53542">
        <ele>2041.6</ele>
        <time>2013-05-24T09:35:37Z</time>
      </trkpt>
      <trkpt lat="-21.13731" lon="55.53558">
        <ele>2043.4</ele>
        <time>2013-05-24T09:36:31Z</time>
      </trkpt>
      <trkpt lat="-21.13731" lon="55.53567">
        <ele>2040.8</ele>
        <time>2013-05-24T09:40:40Z</time>
      </trkpt>
      <trkpt lat="-21.13731" lon="55.53568">
        <ele>2040.8</ele>
        <time>2013-05-24T09:40:41Z</time>
      </trkpt>
      <trkpt lat="-21.13731" lon="55.53585">
        <ele>2035.7</ele>
        <time>2013-05-24T09:41:09Z</time>
      </trkpt>
      <trkpt lat="-21.13736" lon="55.53593">
        <ele>2034</ele>
        <time>2013-05-24T09:41:20Z</time>
      </trkpt>
      <trkpt lat="-21.13742" lon="55.536">
        <ele>2031.4</ele>
        <time>2013-05-24T09:41:33Z</time>
      </trkpt>
      <trkpt lat="-21.13749" lon="55.53604">
        <ele>2028.7</ele>
        <time>2013-05-24T09:41:45Z</time>
      </trkpt>
      <trkpt lat="-21.1375" lon="55.53604">
        <ele>2028.4</ele>
        <time>2013-05-24T09:41:46Z</time>
      </trkpt>
      <trkpt lat="-21.13765" lon="55.5361">
        <ele>2024.6</ele>
        <time>2013-05-24T09:42:08Z</time>
      </trkpt>
      <trkpt lat="-21.13772" lon="55.53614">
        <ele>2022.8</ele>
        <time>2013-05-24T09:42:18Z</time>
      </trkpt>
      <trkpt lat="-21.13778" lon="55.5362">
        <ele>2021.2</ele>
        <time>2013-05-24T09:42:30Z</time>
      </trkpt>
      <trkpt lat="-21.13783" lon="55.53626">
        <ele>2019.2</ele>
        <time>2013-05-24T09:42:40Z</time>
      </trkpt>
      <trkpt lat="-21.13782" lon="55.53636">
        <ele>2017.8</ele>
        <time>2013-05-24T09:42:50Z</time>
      </trkpt>
      <trkpt lat="-21.13782" lon="55.53637">
        <ele>2017.7</ele>
        <time>2013-05-24T09:42:51Z</time>
      </trkpt>
      <trkpt lat="-21.13781" lon="55.53654">
        <ele>2016.2</ele>
        <time>2013-05-24T09:43:08Z</time>
      </trkpt>
      <trkpt lat="-21.13779" lon="55.53663">
        <ele>2016.9</ele>
        <time>2013-05-24T09:43:17Z</time>
      </trkpt>
      <trkpt lat="-21.13774" lon="55.53671">
        <ele>2015.6</ele>
        <time>2013-05-24T09:43:28Z</time>
      </trkpt>
      <trkpt lat="-21.13771" lon="55.53679">
        <ele>2015.5</ele>
        <time>2013-05-24T09:43:38Z</time>
      </trkpt>
      <trkpt lat="-21.1377" lon="55.53688">
        <ele>2015</ele>
        <time>2013-05-24T09:43:49Z</time>
      </trkpt>
      <trkpt lat="-21.13767" lon="55.53696">
        <ele>2015.6</ele>
        <time>2013-05-24T09:43:56Z</time>
      </trkpt>
      <trkpt lat="-21.13766" lon="55.53697">
        <ele>2015.6</ele>
        <time>2013-05-24T09:43:57Z</time>
      </trkpt>
      <trkpt lat="-21.1376" lon="55.53712">
        <ele>2013.7</ele>
        <time>2013-05-24T09:44:10Z</time>
      </trkpt>
      <trkpt lat="-21.13755" lon="55.5372">
        <ele>2012</ele>
        <time>2013-05-24T09:44:21Z</time>
      </trkpt>
      <trkpt lat="-21.13749" lon="55.53726">
        <ele>2011.9</ele>
        <time>2013-05-24T09:44:31Z</time>
      </trkpt>
      <trkpt lat="-21.13743" lon="55.53732">
        <ele>2012</ele>
        <time>2013-05-24T09:44:40Z</time>
      </trkpt>
      <trkpt lat="-21.13736" lon="55.53737">
        <ele>2011.6</ele>
        <time>2013-05-24T09:44:50Z</time>
      </trkpt>
      <trkpt lat="-21.13728" lon="55.53741">
        <ele>2012</ele>
        <time>2013-05-24T09:44:59Z</time>
      </trkpt>
      <trkpt lat="-21.13728" lon="55.53742">
        <ele>2011.6</ele>
        <time>2013-05-24T09:45:00Z</time>
      </trkpt>
      <trkpt lat="-21.1372" lon="55.53757">
        <ele>2010.4</ele>
        <time>2013-05-24T09:45:17Z</time>
      </trkpt>
      <trkpt lat="-21.13718" lon="55.53766">
        <ele>2010.1</ele>
        <time>2013-05-24T09:45:25Z</time>
      </trkpt>
      <trkpt lat="-21.13714" lon="55.53775">
        <ele>2010.5</ele>
        <time>2013-05-24T09:45:37Z</time>
      </trkpt>
      <trkpt lat="-21.13711" lon="55.53784">
        <ele>2010.6</ele>
        <time>2013-05-24T09:45:48Z</time>
      </trkpt>
      <trkpt lat="-21.13707" lon="55.53792">
        <ele>2010.3</ele>
        <time>2013-05-24T09:45:58Z</time>
      </trkpt>
      <trkpt lat="-21.13705" lon="55.538">
        <ele>2010.1</ele>
        <time>2013-05-24T09:46:08Z</time>
      </trkpt>
      <trkpt lat="-21.13705" lon="55.53801">
        <ele>2010.2</ele>
        <time>2013-05-24T09:46:09Z</time>
      </trkpt>
      <trkpt lat="-21.13717" lon="55.5381">
        <ele>2009.1</ele>
        <time>2013-05-24T09:46:28Z</time>
      </trkpt>
      <trkpt lat="-21.13722" lon="55.53817">
        <ele>2009.3</ele>
        <time>2013-05-24T09:46:37Z</time>
      </trkpt>
      <trkpt lat="-21.13725" lon="55.53825">
        <ele>2008.8</ele>
        <time>2013-05-24T09:46:45Z</time>
      </trkpt>
      <trkpt lat="-21.13731" lon="55.53831">
        <ele>2009.4</ele>
        <time>2013-05-24T09:46:54Z</time>
      </trkpt>
      <trkpt lat="-21.13737" lon="55.53837">
        <ele>2008.8</ele>
        <time>2013-05-24T09:47:01Z</time>
      </trkpt>
      <trkpt lat="-21.13744" lon="55.53843">
        <ele>2008.4</ele>
        <time>2013-05-24T09:47:09Z</time>
      </trkpt>
      <trkpt lat="-21.13745" lon="55.53843">
        <ele>2008.1</ele>
        <time>2013-05-24T09:47:10Z</time>
      </trkpt>
      <trkpt lat="-21.13742" lon="55.53855">
        <ele>2004.6</ele>
        <time>2013-05-24T09:47:43Z</time>
      </trkpt>
      <trkpt lat="-21.13735" lon="55.5386">
        <ele>2004.4</ele>
        <time>2013-05-24T09:47:51Z</time>
      </trkpt>
      <trkpt lat="-21.13735" lon="55.53869">
        <ele>2003.1</ele>
        <time>2013-05-24T09:48:01Z</time>
      </trkpt>
      <trkpt lat="-21.13737" lon="55.53878">
        <ele>2002</ele>
        <time>2013-05-24T09:48:14Z</time>
      </trkpt>
      <trkpt lat="-21.13738" lon="55.53879">
        <ele>2001.9</ele>
        <time>2013-05-24T09:48:15Z</time>
      </trkpt>
      <trkpt lat="-21.13752" lon="55.53887">
        <ele>1999.7</ele>
        <time>2013-05-24T09:48:29Z</time>
      </trkpt>
      <trkpt lat="-21.1376" lon="55.53889">
        <ele>1998.5</ele>
        <time>2013-05-24T09:48:36Z</time>
      </trkpt>
      <trkpt lat="-21.13768" lon="55.53894">
        <ele>1997.3</ele>
        <time>2013-05-24T09:48:45Z</time>
      </trkpt>
      <trkpt lat="-21.13774" lon="55.53901">
        <ele>1995.9</ele>
        <time>2013-05-24T09:48:58Z</time>
      </trkpt>
      <trkpt lat="-21.13779" lon="55.53907">
        <ele>1995.5</ele>
        <time>2013-05-24T09:49:08Z</time>
      </trkpt>
      <trkpt lat="-21.13786" lon="55.53912">
        <ele>1994.3</ele>
        <time>2013-05-24T09:49:14Z</time>
      </trkpt>
      <trkpt lat="-21.13793" lon="55.53918">
        <ele>1992.5</ele>
        <time>2013-05-24T09:49:23Z</time>
      </trkpt>
      <trkpt lat="-21.13794" lon="55.53919">
        <ele>1992.1</ele>
        <time>2013-05-24T09:49:24Z</time>
      </trkpt>
      <trkpt lat="-21.13808" lon="55.53926">
        <ele>1992.1</ele>
        <time>2013-05-24T09:49:37Z</time>
      </trkpt>
      <trkpt lat="-21.13816" lon="55.5393">
        <ele>1991</ele>
        <time>2013-05-24T09:49:44Z</time>
      </trkpt>
      <trkpt lat="-21.13825" lon="55.53932">
        <ele>1989.7</ele>
        <time>2013-05-24T09:49:52Z</time>
      </trkpt>
      <trkpt lat="-21.13832" lon="55.53938">
        <ele>1986.2</ele>
        <time>2013-05-24T09:50:06Z</time>
      </trkpt>
      <trkpt lat="-21.1384" lon="55.53936">
        <ele>1984.9</ele>
        <time>2013-05-24T09:50:15Z</time>
      </trkpt>
      <trkpt lat="-21.13844" lon="55.53944">
        <ele>1985.1</ele>
        <time>2013-05-24T09:50:27Z</time>
      </trkpt>
      <trkpt lat="-21.13845" lon="55.53945">
        <ele>1985.2</ele>
        <time>2013-05-24T09:50:28Z</time>
      </trkpt>
      <trkpt lat="-21.13847" lon="55.53962">
        <ele>1982.4</ele>
        <time>2013-05-24T09:50:47Z</time>
      </trkpt>
      <trkpt lat="-21.13855" lon="55.53964">
        <ele>1980.4</ele>
        <time>2013-05-24T09:50:57Z</time>
      </trkpt>
      <trkpt lat="-21.13864" lon="55.53966">
        <ele>1979.8</ele>
        <time>2013-05-24T09:51:05Z</time>
      </trkpt>
      <trkpt lat="-21.13872" lon="55.5397">
        <ele>1978.8</ele>
        <time>2013-05-24T09:51:11Z</time>
      </trkpt>
      <trkpt lat="-21.1388" lon="55.53974">
        <ele>1978.4</ele>
        <time>2013-05-24T09:51:20Z</time>
      </trkpt>
      <trkpt lat="-21.13886" lon="55.53979">
        <ele>1976.3</ele>
        <time>2013-05-24T09:51:29Z</time>
      </trkpt>
      <trkpt lat="-21.13886" lon="55.53981">
        <ele>1976</ele>
        <time>2013-05-24T09:51:30Z</time>
      </trkpt>
      <trkpt lat="-21.139" lon="55.53982">
        <ele>1972.9</ele>
        <time>2013-05-24T09:51:47Z</time>
      </trkpt>
      <trkpt lat="-21.13906" lon="55.53977">
        <ele>1970.7</ele>
        <time>2013-05-24T09:51:54Z</time>
      </trkpt>
      <trkpt lat="-21.13913" lon="55.5397">
        <ele>1969</ele>
        <time>2013-05-24T09:52:02Z</time>
      </trkpt>
      <trkpt lat="-21.13919" lon="55.53964">
        <ele>1968.3</ele>
        <time>2013-05-24T09:52:10Z</time>
      </trkpt>
      <trkpt lat="-21.13926" lon="55.53958">
        <ele>1966.5</ele>
        <time>2013-05-24T09:52:22Z</time>
      </trkpt>
      <trkpt lat="-21.13934" lon="55.53954">
        <ele>1965.1</ele>
        <time>2013-05-24T09:52:34Z</time>
      </trkpt>
      <trkpt lat="-21.13935" lon="55.53954">
        <ele>1964.9</ele>
        <time>2013-05-24T09:52:35Z</time>
      </trkpt>
      <trkpt lat="-21.13951" lon="55.5396">
        <ele>1962.6</ele>
        <time>2013-05-24T09:52:49Z</time>
      </trkpt>
      <trkpt lat="-21.13959" lon="55.53962">
        <ele>1962</ele>
        <time>2013-05-24T09:52:55Z</time>
      </trkpt>
      <trkpt lat="-21.13966" lon="55.53965">
        <ele>1961.5</ele>
        <time>2013-05-24T09:53:02Z</time>
      </trkpt>
      <trkpt lat="-21.13974" lon="55.53968">
        <ele>1959.2</ele>
        <time>2013-05-24T09:53:10Z</time>
      </trkpt>
      <trkpt lat="-21.13981" lon="55.53972">
        <ele>1957.8</ele>
        <time>2013-05-24T09:53:17Z</time>
      </trkpt>
      <trkpt lat="-21.13988" lon="55.53977">
        <ele>1956.9</ele>
        <time>2013-05-24T09:53:23Z</time>
      </trkpt>
      <trkpt lat="-21.13994" lon="55.53983">
        <ele>1956.3</ele>
        <time>2013-05-24T09:53:30Z</time>
      </trkpt>
      <trkpt lat="-21.13999" lon="55.53991">
        <ele>1955.7</ele>
        <time>2013-05-24T09:53:38Z</time>
      </trkpt>
      <trkpt lat="-21.14" lon="55.53991">
        <ele>1955.4</ele>
        <time>2013-05-24T09:53:39Z</time>
      </trkpt>
      <trkpt lat="-21.14014" lon="55.53984">
        <ele>1952.7</ele>
        <time>2013-05-24T09:53:55Z</time>
      </trkpt>
      <trkpt lat="-21.14019" lon="55.53977">
        <ele>1952</ele>
        <time>2013-05-24T09:54:03Z</time>
      </trkpt>
      <trkpt lat="-21.1402" lon="55.53968">
        <ele>1950.3</ele>
        <time>2013-05-24T09:54:12Z</time>
      </trkpt>
      <trkpt lat="-21.14018" lon="55.53959">
        <ele>1949.2</ele>
        <time>2013-05-24T09:54:21Z</time>
      </trkpt>
      <trkpt lat="-21.14027" lon="55.5396">
        <ele>1948.3</ele>
        <time>2013-05-24T09:54:38Z</time>
      </trkpt>
      <trkpt lat="-21.14034" lon="55.53964">
        <ele>1948.1</ele>
        <time>2013-05-24T09:54:47Z</time>
      </trkpt>
      <trkpt lat="-21.14035" lon="55.53964">
        <ele>1947.9</ele>
        <time>2013-05-24T09:54:48Z</time>
      </trkpt>
      <trkpt lat="-21.14049" lon="55.53969">
        <ele>1945.9</ele>
        <time>2013-05-24T09:55:04Z</time>
      </trkpt>
      <trkpt lat="-21.14058" lon="55.53968">
        <ele>1942.6</ele>
        <time>2013-05-24T09:55:14Z</time>
      </trkpt>
      <trkpt lat="-21.14066" lon="55.5397">
        <ele>1941.9</ele>
        <time>2013-05-24T09:55:20Z</time>
      </trkpt>
      <trkpt lat="-21.14074" lon="55.53973">
        <ele>1941.3</ele>
        <time>2013-05-24T09:55:27Z</time>
      </trkpt>
      <trkpt lat="-21.14082" lon="55.53976">
        <ele>1941.5</ele>
        <time>2013-05-24T09:55:35Z</time>
      </trkpt>
      <trkpt lat="-21.1409" lon="55.53981">
        <ele>1941.3</ele>
        <time>2013-05-24T09:55:42Z</time>
      </trkpt>
      <trkpt lat="-21.14095" lon="55.53988">
        <ele>1940.9</ele>
        <time>2013-05-24T09:55:48Z</time>
      </trkpt>
      <trkpt lat="-21.14096" lon="55.53989">
        <ele>1941.1</ele>
        <time>2013-05-24T09:55:49Z</time>
      </trkpt>
      <trkpt lat="-21.1411" lon="55.53996">
        <ele>1940.4</ele>
        <time>2013-05-24T09:56:00Z</time>
      </trkpt>
      <trkpt lat="-21.14116" lon="55.54001">
        <ele>1938.8</ele>
        <time>2013-05-24T09:56:07Z</time>
      </trkpt>
      <trkpt lat="-21.14124" lon="55.54004">
        <ele>1937.4</ele>
        <time>2013-05-24T09:56:13Z</time>
      </trkpt>
      <trkpt lat="-21.14132" lon="55.54008">
        <ele>1936.4</ele>
        <time>2013-05-24T09:56:19Z</time>
      </trkpt>
      <trkpt lat="-21.14138" lon="55.54013">
        <ele>1934.9</ele>
        <time>2013-05-24T09:56:26Z</time>
      </trkpt>
      <trkpt lat="-21.14145" lon="55.54017">
        <ele>1934.1</ele>
        <time>2013-05-24T09:56:32Z</time>
      </trkpt>
      <trkpt lat="-21.14153" lon="55.54021">
        <ele>1932.4</ele>
        <time>2013-05-24T09:56:40Z</time>
      </trkpt>
      <trkpt lat="-21.1416" lon="55.54027">
        <ele>1929.3</ele>
        <time>2013-05-24T09:56:52Z</time>
      </trkpt>
      <trkpt lat="-21.14161" lon="55.54027">
        <ele>1928.8</ele>
        <time>2013-05-24T09:56:53Z</time>
      </trkpt>
      <trkpt lat="-21.14176" lon="55.54032">
        <ele>1926.9</ele>
        <time>2013-05-24T09:57:09Z</time>
      </trkpt>
      <trkpt lat="-21.14182" lon="55.54039">
        <ele>1924.8</ele>
        <time>2013-05-24T09:57:18Z</time>
      </trkpt>
      <trkpt lat="-21.14191" lon="55.54042">
        <ele>1923.7</ele>
        <time>2013-05-24T09:57:26Z</time>
      </trkpt>
      <trkpt lat="-21.14198" lon="55.54043">
        <ele>1922.3</ele>
        <time>2013-05-24T09:57:32Z</time>
      </trkpt>
      <trkpt lat="-21.14206" lon="55.54042">
        <ele>1920.7</ele>
        <time>2013-05-24T09:57:38Z</time>
      </trkpt>
      <trkpt lat="-21.14214" lon="55.54043">
        <ele>1920</ele>
        <time>2013-05-24T09:57:45Z</time>
      </trkpt>
      <trkpt lat="-21.14222" lon="55.54045">
        <ele>1918.8</ele>
        <time>2013-05-24T09:57:51Z</time>
      </trkpt>
      <trkpt lat="-21.14229" lon="55.54041">
        <ele>1918</ele>
        <time>2013-05-24T09:57:57Z</time>
      </trkpt>
      <trkpt lat="-21.14231" lon="55.5404">
        <ele>1917.7</ele>
        <time>2013-05-24T09:57:58Z</time>
      </trkpt>
      <trkpt lat="-21.14245" lon="55.54035">
        <ele>1916.6</ele>
        <time>2013-05-24T09:58:12Z</time>
      </trkpt>
      <trkpt lat="-21.14253" lon="55.54031">
        <ele>1913.8</ele>
        <time>2013-05-24T09:58:22Z</time>
      </trkpt>
      <trkpt lat="-21.14262" lon="55.5403">
        <ele>1913.1</ele>
        <time>2013-05-24T09:58:31Z</time>
      </trkpt>
      <trkpt lat="-21.14271" lon="55.5403">
        <ele>1912.7</ele>
        <time>2013-05-24T09:58:40Z</time>
      </trkpt>
      <trkpt lat="-21.14278" lon="55.54025">
        <ele>1911.7</ele>
        <time>2013-05-24T09:58:46Z</time>
      </trkpt>
      <trkpt lat="-21.14287" lon="55.54024">
        <ele>1911.3</ele>
        <time>2013-05-24T09:58:52Z</time>
      </trkpt>
      <trkpt lat="-21.14295" lon="55.54027">
        <ele>1910</ele>
        <time>2013-05-24T09:58:57Z</time>
      </trkpt>
      <trkpt lat="-21.14302" lon="55.54031">
        <ele>1909.4</ele>
        <time>2013-05-24T09:59:03Z</time>
      </trkpt>
      <trkpt lat="-21.14303" lon="55.54031">
        <ele>1909.3</ele>
        <time>2013-05-24T09:59:04Z</time>
      </trkpt>
      <trkpt lat="-21.14318" lon="55.54032">
        <ele>1908</ele>
        <time>2013-05-24T09:59:16Z</time>
      </trkpt>
      <trkpt lat="-21.14325" lon="55.54036">
        <ele>1907.4</ele>
        <time>2013-05-24T09:59:22Z</time>
      </trkpt>
      <trkpt lat="-21.14332" lon="55.5404">
        <ele>1905</ele>
        <time>2013-05-24T09:59:29Z</time>
      </trkpt>
      <trkpt lat="-21.14341" lon="55.54042">
        <ele>1905.3</ele>
        <time>2013-05-24T09:59:36Z</time>
      </trkpt>
      <trkpt lat="-21.14348" lon="55.54044">
        <ele>1905.6</ele>
        <time>2013-05-24T09:59:42Z</time>
      </trkpt>
      <trkpt lat="-21.14355" lon="55.54047">
        <ele>1904.8</ele>
        <time>2013-05-24T09:59:47Z</time>
      </trkpt>
      <trkpt lat="-21.14363" lon="55.54051">
        <ele>1905.2</ele>
        <time>2013-05-24T09:59:53Z</time>
      </trkpt>
      <trkpt lat="-21.14372" lon="55.54054">
        <ele>1903.2</ele>
        <time>2013-05-24T09:59:59Z</time>
      </trkpt>
      <trkpt lat="-21.14379" lon="55.54054">
        <ele>1902.2</ele>
        <time>2013-05-24T10:00:05Z</time>
      </trkpt>
      <trkpt lat="-21.14381" lon="55.54054">
        <ele>1902</ele>
        <time>2013-05-24T10:00:06Z</time>
      </trkpt>
      <trkpt lat="-21.14395" lon="55.54049">
        <ele>1899.8</ele>
        <time>2013-05-24T10:00:16Z</time>
      </trkpt>
      <trkpt lat="-21.14403" lon="55.54046">
        <ele>1898</ele>
        <time>2013-05-24T10:00:25Z</time>
      </trkpt>
      <trkpt lat="-21.14409" lon="55.5404">
        <ele>1896.1</ele>
        <time>2013-05-24T10:00:31Z</time>
      </trkpt>
      <trkpt lat="-21.14416" lon="55.54036">
        <ele>1894.8</ele>
        <time>2013-05-24T10:00:37Z</time>
      </trkpt>
      <trkpt lat="-21.14425" lon="55.54037">
        <ele>1892.6</ele>
        <time>2013-05-24T10:00:44Z</time>
      </trkpt>
      <trkpt lat="-21.14433" lon="55.54039">
        <ele>1892.3</ele>
        <time>2013-05-24T10:00:50Z</time>
      </trkpt>
      <trkpt lat="-21.14441" lon="55.54043">
        <ele>1891</ele>
        <time>2013-05-24T10:00:56Z</time>
      </trkpt>
      <trkpt lat="-21.14446" lon="55.54049">
        <ele>1890.2</ele>
        <time>2013-05-24T10:01:05Z</time>
      </trkpt>
      <trkpt lat="-21.1445" lon="55.54057">
        <ele>1887.8</ele>
        <time>2013-05-24T10:01:13Z</time>
      </trkpt>
      <trkpt lat="-21.14451" lon="55.54058">
        <ele>1887.7</ele>
        <time>2013-05-24T10:01:14Z</time>
      </trkpt>
      <trkpt lat="-21.14464" lon="55.54066">
        <ele>1883.9</ele>
        <time>2013-05-24T10:01:26Z</time>
      </trkpt>
      <trkpt lat="-21.1447" lon="55.54073">
        <ele>1882.2</ele>
        <time>2013-05-24T10:01:33Z</time>
      </trkpt>
      <trkpt lat="-21.14477" lon="55.54078">
        <ele>1880.6</ele>
        <time>2013-05-24T10:01:39Z</time>
      </trkpt>
      <trkpt lat="-21.14481" lon="55.54086">
        <ele>1878.5</ele>
        <time>2013-05-24T10:01:48Z</time>
      </trkpt>
      <trkpt lat="-21.14485" lon="55.54094">
        <ele>1876</ele>
        <time>2013-05-24T10:01:57Z</time>
      </trkpt>
      <trkpt lat="-21.1449" lon="55.54102">
        <ele>1875</ele>
        <time>2013-05-24T10:02:05Z</time>
      </trkpt>
      <trkpt lat="-21.14496" lon="55.54109">
        <ele>1873.9</ele>
        <time>2013-05-24T10:02:14Z</time>
      </trkpt>
      <trkpt lat="-21.14497" lon="55.5411">
        <ele>1873.7</ele>
        <time>2013-05-24T10:02:15Z</time>
      </trkpt>
      <trkpt lat="-21.14511" lon="55.54119">
        <ele>1869.2</ele>
        <time>2013-05-24T10:02:29Z</time>
      </trkpt>
      <trkpt lat="-21.14517" lon="55.54125">
        <ele>1867.9</ele>
        <time>2013-05-24T10:02:37Z</time>
      </trkpt>
      <trkpt lat="-21.14523" lon="55.54132">
        <ele>1865.8</ele>
        <time>2013-05-24T10:02:44Z</time>
      </trkpt>
      <trkpt lat="-21.1453" lon="55.54136">
        <ele>1864.6</ele>
        <time>2013-05-24T10:02:50Z</time>
      </trkpt>
      <trkpt lat="-21.14537" lon="55.54138">
        <ele>1862.9</ele>
        <time>2013-05-24T10:02:57Z</time>
      </trkpt>
      <trkpt lat="-21.14545" lon="55.54141">
        <ele>1862.4</ele>
        <time>2013-05-24T10:03:03Z</time>
      </trkpt>
      <trkpt lat="-21.14552" lon="55.54144">
        <ele>1859.9</ele>
        <time>2013-05-24T10:03:09Z</time>
      </trkpt>
      <trkpt lat="-21.14561" lon="55.54147">
        <ele>1859.9</ele>
        <time>2013-05-24T10:03:14Z</time>
      </trkpt>
      <trkpt lat="-21.14568" lon="55.54148">
        <ele>1858.8</ele>
        <time>2013-05-24T10:03:18Z</time>
      </trkpt>
      <trkpt lat="-21.1457" lon="55.54149">
        <ele>1858.7</ele>
        <time>2013-05-24T10:03:19Z</time>
      </trkpt>
      <trkpt lat="-21.14582" lon="55.54156">
        <ele>1858.1</ele>
        <time>2013-05-24T10:03:29Z</time>
      </trkpt>
      <trkpt lat="-21.14589" lon="55.54161">
        <ele>1857.3</ele>
        <time>2013-05-24T10:03:35Z</time>
      </trkpt>
      <trkpt lat="-21.14595" lon="55.54164">
        <ele>1856.7</ele>
        <time>2013-05-24T10:03:40Z</time>
      </trkpt>
      <trkpt lat="-21.14603" lon="55.54168">
        <ele>1855.8</ele>
        <time>2013-05-24T10:03:46Z</time>
      </trkpt>
      <trkpt lat="-21.1461" lon="55.54173">
        <ele>1855.2</ele>
        <time>2013-05-24T10:03:53Z</time>
      </trkpt>
      <trkpt lat="-21.14618" lon="55.54177">
        <ele>1854.3</ele>
        <time>2013-05-24T10:03:59Z</time>
      </trkpt>
      <trkpt lat="-21.14624" lon="55.54183">
        <ele>1852.3</ele>
        <time>2013-05-24T10:04:08Z</time>
      </trkpt>
      <trkpt lat="-21.14631" lon="55.54188">
        <ele>1850.7</ele>
        <time>2013-05-24T10:04:16Z</time>
      </trkpt>
      <trkpt lat="-21.14638" lon="55.54191">
        <ele>1848.7</ele>
        <time>2013-05-24T10:04:24Z</time>
      </trkpt>
      <trkpt lat="-21.1464" lon="55.54192">
        <ele>1848.5</ele>
        <time>2013-05-24T10:04:25Z</time>
      </trkpt>
      <trkpt lat="-21.14654" lon="55.54198">
        <ele>1846.8</ele>
        <time>2013-05-24T10:04:37Z</time>
      </trkpt>
      <trkpt lat="-21.14661" lon="55.542">
        <ele>1846.1</ele>
        <time>2013-05-24T10:04:42Z</time>
      </trkpt>
      <trkpt lat="-21.14669" lon="55.54206">
        <ele>1845.2</ele>
        <time>2013-05-24T10:04:49Z</time>
      </trkpt>
      <trkpt lat="-21.14676" lon="55.54208">
        <ele>1843.3</ele>
        <time>2013-05-24T10:04:55Z</time>
      </trkpt>
      <trkpt lat="-21.14684" lon="55.54212">
        <ele>1840.4</ele>
        <time>2013-05-24T10:05:02Z</time>
      </trkpt>
      <trkpt lat="-21.14691" lon="55.54215">
        <ele>1839.2</ele>
        <time>2013-05-24T10:05:08Z</time>
      </trkpt>
      <trkpt lat="-21.14698" lon="55.54219">
        <ele>1838.9</ele>
        <time>2013-05-24T10:05:13Z</time>
      </trkpt>
      <trkpt lat="-21.14706" lon="55.54224">
        <ele>1837.9</ele>
        <time>2013-05-24T10:05:20Z</time>
      </trkpt>
      <trkpt lat="-21.14709" lon="55.54232">
        <ele>1838.4</ele>
        <time>2013-05-24T10:05:26Z</time>
      </trkpt>
      <trkpt lat="-21.14709" lon="55.54234">
        <ele>1838.5</ele>
        <time>2013-05-24T10:05:27Z</time>
      </trkpt>
      <trkpt lat="-21.14717" lon="55.54248">
        <ele>1836.8</ele>
        <time>2013-05-24T10:05:38Z</time>
      </trkpt>
      <trkpt lat="-21.14724" lon="55.54253">
        <ele>1835.8</ele>
        <time>2013-05-24T10:05:44Z</time>
      </trkpt>
      <trkpt lat="-21.14733" lon="55.54254">
        <ele>1835</ele>
        <time>2013-05-24T10:05:50Z</time>
      </trkpt>
      <trkpt lat="-21.14741" lon="55.54252">
        <ele>1833.4</ele>
        <time>2013-05-24T10:05:56Z</time>
      </trkpt>
      <trkpt lat="-21.1475" lon="55.54254">
        <ele>1830.9</ele>
        <time>2013-05-24T10:06:06Z</time>
      </trkpt>
      <trkpt lat="-21.14757" lon="55.5426">
        <ele>1829.2</ele>
        <time>2013-05-24T10:06:14Z</time>
      </trkpt>
      <trkpt lat="-21.1476" lon="55.54268">
        <ele>1828.2</ele>
        <time>2013-05-24T10:06:20Z</time>
      </trkpt>
      <trkpt lat="-21.14767" lon="55.54273">
        <ele>1826.5</ele>
        <time>2013-05-24T10:06:27Z</time>
      </trkpt>
      <trkpt lat="-21.14769" lon="55.54274">
        <ele>1826</ele>
        <time>2013-05-24T10:06:28Z</time>
      </trkpt>
      <trkpt lat="-21.1478" lon="55.54284">
        <ele>1824.7</ele>
        <time>2013-05-24T10:06:38Z</time>
      </trkpt>
      <trkpt lat="-21.14786" lon="55.54291">
        <ele>1824</ele>
        <time>2013-05-24T10:06:45Z</time>
      </trkpt>
      <trkpt lat="-21.14793" lon="55.54296">
        <ele>1821.7</ele>
        <time>2013-05-24T10:06:52Z</time>
      </trkpt>
      <trkpt lat="-21.148" lon="55.54301">
        <ele>1819.9</ele>
        <time>2013-05-24T10:06:58Z</time>
      </trkpt>
      <trkpt lat="-21.14806" lon="55.54308">
        <ele>1817.3</ele>
        <time>2013-05-24T10:07:04Z</time>
      </trkpt>
      <trkpt lat="-21.14811" lon="55.54315">
        <ele>1817.2</ele>
        <time>2013-05-24T10:07:11Z</time>
      </trkpt>
      <trkpt lat="-21.14818" lon="55.54321">
        <ele>1816.2</ele>
        <time>2013-05-24T10:07:17Z</time>
      </trkpt>
      <trkpt lat="-21.14826" lon="55.54326">
        <ele>1815.4</ele>
        <time>2013-05-24T10:07:23Z</time>
      </trkpt>
      <trkpt lat="-21.14832" lon="55.54331">
        <ele>1814.7</ele>
        <time>2013-05-24T10:07:28Z</time>
      </trkpt>
      <trkpt lat="-21.14833" lon="55.54331">
        <ele>1814.3</ele>
        <time>2013-05-24T10:07:29Z</time>
      </trkpt>
      <trkpt lat="-21.14848" lon="55.54336">
        <ele>1811.5</ele>
        <time>2013-05-24T10:07:40Z</time>
      </trkpt>
      <trkpt lat="-21.14856" lon="55.54337">
        <ele>1810.6</ele>
        <time>2013-05-24T10:07:46Z</time>
      </trkpt>
      <trkpt lat="-21.14865" lon="55.54338">
        <ele>1808.5</ele>
        <time>2013-05-24T10:07:59Z</time>
      </trkpt>
      <trkpt lat="-21.14869" lon="55.54346">
        <ele>1806.6</ele>
        <time>2013-05-24T10:08:08Z</time>
      </trkpt>
      <trkpt lat="-21.14874" lon="55.54353">
        <ele>1804.4</ele>
        <time>2013-05-24T10:08:16Z</time>
      </trkpt>
      <trkpt lat="-21.14878" lon="55.54361">
        <ele>1801.6</ele>
        <time>2013-05-24T10:08:25Z</time>
      </trkpt>
      <trkpt lat="-21.14885" lon="55.54367">
        <ele>1799.6</ele>
        <time>2013-05-24T10:08:33Z</time>
      </trkpt>
      <trkpt lat="-21.14886" lon="55.54368">
        <ele>1799.2</ele>
        <time>2013-05-24T10:08:34Z</time>
      </trkpt>
      <trkpt lat="-21.14899" lon="55.54377">
        <ele>1796</ele>
        <time>2013-05-24T10:08:49Z</time>
      </trkpt>
      <trkpt lat="-21.14906" lon="55.54381">
        <ele>1794.9</ele>
        <time>2013-05-24T10:08:58Z</time>
      </trkpt>
      <trkpt lat="-21.14914" lon="55.54383">
        <ele>1793.1</ele>
        <time>2013-05-24T10:09:04Z</time>
      </trkpt>
      <trkpt lat="-21.14921" lon="55.54386">
        <ele>1792</ele>
        <time>2013-05-24T10:09:09Z</time>
      </trkpt>
      <trkpt lat="-21.14926" lon="55.54394">
        <ele>1790.5</ele>
        <time>2013-05-24T10:09:18Z</time>
      </trkpt>
      <trkpt lat="-21.14935" lon="55.54393">
        <ele>1789.5</ele>
        <time>2013-05-24T10:09:28Z</time>
      </trkpt>
      <trkpt lat="-21.14942" lon="55.54387">
        <ele>1788.7</ele>
        <time>2013-05-24T10:09:35Z</time>
      </trkpt>
      <trkpt lat="-21.14943" lon="55.54386">
        <ele>1788.5</ele>
        <time>2013-05-24T10:09:36Z</time>
      </trkpt>
      <trkpt lat="-21.14952" lon="55.54374">
        <ele>1788.7</ele>
        <time>2013-05-24T10:09:47Z</time>
      </trkpt>
      <trkpt lat="-21.14958" lon="55.54369">
        <ele>1788.4</ele>
        <time>2013-05-24T10:09:55Z</time>
      </trkpt>
      <trkpt lat="-21.14964" lon="55.54373">
        <ele>1790.7</ele>
        <time>2013-05-24T10:10:06Z</time>
      </trkpt>
      <trkpt lat="-21.14969" lon="55.54381">
        <ele>1791.4</ele>
        <time>2013-05-24T10:10:13Z</time>
      </trkpt>
      <trkpt lat="-21.14973" lon="55.54389">
        <ele>1790.4</ele>
        <time>2013-05-24T10:10:21Z</time>
      </trkpt>
      <trkpt lat="-21.14972" lon="55.54398">
        <ele>1789.7</ele>
        <time>2013-05-24T10:10:30Z</time>
      </trkpt>
      <trkpt lat="-21.14971" lon="55.54407">
        <ele>1787.7</ele>
        <time>2013-05-24T10:10:38Z</time>
      </trkpt>
      <trkpt lat="-21.14971" lon="55.54408">
        <ele>1787.5</ele>
        <time>2013-05-24T10:10:39Z</time>
      </trkpt>
      <trkpt lat="-21.14974" lon="55.54424">
        <ele>1787.4</ele>
        <time>2013-05-24T10:10:51Z</time>
      </trkpt>
      <trkpt lat="-21.14977" lon="55.54432">
        <ele>1786.7</ele>
        <time>2013-05-24T10:10:57Z</time>
      </trkpt>
      <trkpt lat="-21.14981" lon="55.54441">
        <ele>1785.6</ele>
        <time>2013-05-24T10:11:04Z</time>
      </trkpt>
      <trkpt lat="-21.14984" lon="55.54449">
        <ele>1785</ele>
        <time>2013-05-24T10:11:12Z</time>
      </trkpt>
      <trkpt lat="-21.14988" lon="55.54458">
        <ele>1783.2</ele>
        <time>2013-05-24T10:11:19Z</time>
      </trkpt>
      <trkpt lat="-21.14991" lon="55.54467">
        <ele>1781.4</ele>
        <time>2013-05-24T10:11:25Z</time>
      </trkpt>
      <trkpt lat="-21.14996" lon="55.54472">
        <ele>1780.3</ele>
        <time>2013-05-24T10:11:30Z</time>
      </trkpt>
      <trkpt lat="-21.15004" lon="55.54477">
        <ele>1779.8</ele>
        <time>2013-05-24T10:11:35Z</time>
      </trkpt>
      <trkpt lat="-21.15011" lon="55.54481">
        <ele>1779.7</ele>
        <time>2013-05-24T10:11:40Z</time>
      </trkpt>
      <trkpt lat="-21.15012" lon="55.54481">
        <ele>1779.3</ele>
        <time>2013-05-24T10:11:41Z</time>
      </trkpt>
      <trkpt lat="-21.15025" lon="55.54487">
        <ele>1777.7</ele>
        <time>2013-05-24T10:11:51Z</time>
      </trkpt>
      <trkpt lat="-21.15033" lon="55.54491">
        <ele>1777.6</ele>
        <time>2013-05-24T10:11:57Z</time>
      </trkpt>
      <trkpt lat="-21.15041" lon="55.54496">
        <ele>1776.6</ele>
        <time>2013-05-24T10:12:03Z</time>
      </trkpt>
      <trkpt lat="-21.15049" lon="55.54499">
        <ele>1776.9</ele>
        <time>2013-05-24T10:12:10Z</time>
      </trkpt>
      <trkpt lat="-21.15057" lon="55.54502">
        <ele>1776.5</ele>
        <time>2013-05-24T10:12:17Z</time>
      </trkpt>
      <trkpt lat="-21.15065" lon="55.54505">
        <ele>1775.1</ele>
        <time>2013-05-24T10:12:23Z</time>
      </trkpt>
      <trkpt lat="-21.15072" lon="55.54509">
        <ele>1774.4</ele>
        <time>2013-05-24T10:12:29Z</time>
      </trkpt>
      <trkpt lat="-21.1508" lon="55.54512">
        <ele>1775.3</ele>
        <time>2013-05-24T10:12:35Z</time>
      </trkpt>
      <trkpt lat="-21.15086" lon="55.54518">
        <ele>1775.5</ele>
        <time>2013-05-24T10:12:42Z</time>
      </trkpt>
      <trkpt lat="-21.15087" lon="55.54519">
        <ele>1775.5</ele>
        <time>2013-05-24T10:12:43Z</time>
      </trkpt>
      <trkpt lat="-21.15086" lon="55.54536">
        <ele>1774.2</ele>
        <time>2013-05-24T10:12:58Z</time>
      </trkpt>
      <trkpt lat="-21.15088" lon="55.54545">
        <ele>1773.3</ele>
        <time>2013-05-24T10:13:04Z</time>
      </trkpt>
      <trkpt lat="-21.15094" lon="55.54551">
        <ele>1773.1</ele>
        <time>2013-05-24T10:13:10Z</time>
      </trkpt>
      <trkpt lat="-21.151" lon="55.54557">
        <ele>1771.9</ele>
        <time>2013-05-24T10:13:16Z</time>
      </trkpt>
      <trkpt lat="-21.15108" lon="55.54558">
        <ele>1773.4</ele>
        <time>2013-05-24T10:13:22Z</time>
      </trkpt>
      <trkpt lat="-21.15117" lon="55.54556">
        <ele>1773</ele>
        <time>2013-05-24T10:13:28Z</time>
      </trkpt>
      <trkpt lat="-21.15125" lon="55.5456">
        <ele>1769.2</ele>
        <time>2013-05-24T10:13:36Z</time>
      </trkpt>
      <trkpt lat="-21.15131" lon="55.54566">
        <ele>1768.1</ele>
        <time>2013-05-24T10:13:41Z</time>
      </trkpt>
      <trkpt lat="-21.15137" lon="55.54572">
        <ele>1766.5</ele>
        <time>2013-05-24T10:13:46Z</time>
      </trkpt>
      <trkpt lat="-21.15137" lon="55.54574">
        <ele>1766</ele>
        <time>2013-05-24T10:13:47Z</time>
      </trkpt>
      <trkpt lat="-21.15146" lon="55.54587">
        <ele>1764.6</ele>
        <time>2013-05-24T10:14:00Z</time>
      </trkpt>
      <trkpt lat="-21.1515" lon="55.54593">
        <ele>1764.5</ele>
        <time>2013-05-24T10:14:04Z</time>
      </trkpt>
      <trkpt lat="-21.15156" lon="55.54597">
        <ele>1763.8</ele>
        <time>2013-05-24T10:14:07Z</time>
      </trkpt>
      <trkpt lat="-21.15163" lon="55.54601">
        <ele>1763.2</ele>
        <time>2013-05-24T10:14:11Z</time>
      </trkpt>
      <trkpt lat="-21.15168" lon="55.54607">
        <ele>1765</ele>
        <time>2013-05-24T10:14:16Z</time>
      </trkpt>
      <trkpt lat="-21.15169" lon="55.54615">
        <ele>1766.8</ele>
        <time>2013-05-24T10:14:22Z</time>
      </trkpt>
      <trkpt lat="-21.1517" lon="55.54624">
        <ele>1766.9</ele>
        <time>2013-05-24T10:14:28Z</time>
      </trkpt>
      <trkpt lat="-21.15169" lon="55.54632">
        <ele>1767.2</ele>
        <time>2013-05-24T10:14:34Z</time>
      </trkpt>
      <trkpt lat="-21.15169" lon="55.54641">
        <ele>1767</ele>
        <time>2013-05-24T10:14:40Z</time>
      </trkpt>
      <trkpt lat="-21.15171" lon="55.5465">
        <ele>1767</ele>
        <time>2013-05-24T10:14:46Z</time>
      </trkpt>
      <trkpt lat="-21.15173" lon="55.54658">
        <ele>1767.8</ele>
        <time>2013-05-24T10:14:51Z</time>
      </trkpt>
      <trkpt lat="-21.15174" lon="55.5466">
        <ele>1767.2</ele>
        <time>2013-05-24T10:14:52Z</time>
      </trkpt>
      <trkpt lat="-21.15176" lon="55.54676">
        <ele>1765.7</ele>
        <time>2013-05-24T10:15:01Z</time>
      </trkpt>
      <trkpt lat="-21.15179" lon="55.54684">
        <ele>1765.1</ele>
        <time>2013-05-24T10:15:06Z</time>
      </trkpt>
      <trkpt lat="-21.15181" lon="55.54693">
        <ele>1764.9</ele>
        <time>2013-05-24T10:15:12Z</time>
      </trkpt>
      <trkpt lat="-21.1518" lon="55.54701">
        <ele>1765</ele>
        <time>2013-05-24T10:15:17Z</time>
      </trkpt>
      <trkpt lat="-21.1518" lon="55.5471">
        <ele>1764.6</ele>
        <time>2013-05-24T10:15:22Z</time>
      </trkpt>
      <trkpt lat="-21.15184" lon="55.54717">
        <ele>1764.5</ele>
        <time>2013-05-24T10:15:27Z</time>
      </trkpt>
      <trkpt lat="-21.15189" lon="55.54725">
        <ele>1764.6</ele>
        <time>2013-05-24T10:15:32Z</time>
      </trkpt>
      <trkpt lat="-21.15194" lon="55.54731">
        <ele>1765.4</ele>
        <time>2013-05-24T10:15:36Z</time>
      </trkpt>
      <trkpt lat="-21.152" lon="55.54738">
        <ele>1764.6</ele>
        <time>2013-05-24T10:15:41Z</time>
      </trkpt>
      <trkpt lat="-21.15206" lon="55.54743">
        <ele>1765.2</ele>
        <time>2013-05-24T10:15:46Z</time>
      </trkpt>
      <trkpt lat="-21.15212" lon="55.54749">
        <ele>1765.3</ele>
        <time>2013-05-24T10:15:51Z</time>
      </trkpt>
      <trkpt lat="-21.15218" lon="55.54755">
        <ele>1765.6</ele>
        <time>2013-05-24T10:15:56Z</time>
      </trkpt>
      <trkpt lat="-21.15219" lon="55.54756">
        <ele>1765.5</ele>
        <time>2013-05-24T10:15:57Z</time>
      </trkpt>
      <trkpt lat="-21.15228" lon="55.54769">
        <ele>1765</ele>
        <time>2013-05-24T10:16:06Z</time>
      </trkpt>
      <trkpt lat="-21.15232" lon="55.54776">
        <ele>1765.2</ele>
        <time>2013-05-24T10:16:11Z</time>
      </trkpt>
      <trkpt lat="-21.15234" lon="55.54784">
        <ele>1764.1</ele>
        <time>2013-05-24T10:16:17Z</time>
      </trkpt>
      <trkpt lat="-21.15235" lon="55.54793">
        <ele>1765.4</ele>
        <time>2013-05-24T10:16:23Z</time>
      </trkpt>
      <trkpt lat="-21.15234" lon="55.54802">
        <ele>1765</ele>
        <time>2013-05-24T10:16:30Z</time>
      </trkpt>
      <trkpt lat="-21.15233" lon="55.5481">
        <ele>1764.8</ele>
        <time>2013-05-24T10:16:35Z</time>
      </trkpt>
      <trkpt lat="-21.15236" lon="55.54818">
        <ele>1764.9</ele>
        <time>2013-05-24T10:16:40Z</time>
      </trkpt>
      <trkpt lat="-21.15239" lon="55.54827">
        <ele>1764.7</ele>
        <time>2013-05-24T10:16:46Z</time>
      </trkpt>
      <trkpt lat="-21.15241" lon="55.54835">
        <ele>1764.3</ele>
        <time>2013-05-24T10:16:51Z</time>
      </trkpt>
      <trkpt lat="-21.15244" lon="55.54843">
        <ele>1764</ele>
        <time>2013-05-24T10:16:56Z</time>
      </trkpt>
      <trkpt lat="-21.15248" lon="55.5485">
        <ele>1763.6</ele>
        <time>2013-05-24T10:17:01Z</time>
      </trkpt>
      <trkpt lat="-21.15248" lon="55.54852">
        <ele>1763.6</ele>
        <time>2013-05-24T10:17:02Z</time>
      </trkpt>
      <trkpt lat="-21.15247" lon="55.54868">
        <ele>1763.7</ele>
        <time>2013-05-24T10:17:12Z</time>
      </trkpt>
      <trkpt lat="-21.15246" lon="55.54877">
        <ele>1763.1</ele>
        <time>2013-05-24T10:17:18Z</time>
      </trkpt>
      <trkpt lat="-21.15246" lon="55.54885">
        <ele>1763.7</ele>
        <time>2013-05-24T10:17:23Z</time>
      </trkpt>
      <trkpt lat="-21.15247" lon="55.54894">
        <ele>1762.8</ele>
        <time>2013-05-24T10:17:28Z</time>
      </trkpt>
      <trkpt lat="-21.15246" lon="55.54902">
        <ele>1762.2</ele>
        <time>2013-05-24T10:17:33Z</time>
      </trkpt>
      <trkpt lat="-21.15248" lon="55.54911">
        <ele>1761</ele>
        <time>2013-05-24T10:17:39Z</time>
      </trkpt>
      <trkpt lat="-21.15252" lon="55.54918">
        <ele>1761.7</ele>
        <time>2013-05-24T10:17:44Z</time>
      </trkpt>
      <trkpt lat="-21.15257" lon="55.54925">
        <ele>1761.3</ele>
        <time>2013-05-24T10:17:49Z</time>
      </trkpt>
      <trkpt lat="-21.15263" lon="55.5493">
        <ele>1761.1</ele>
        <time>2013-05-24T10:17:53Z</time>
      </trkpt>
      <trkpt lat="-21.15268" lon="55.54936">
        <ele>1761.3</ele>
        <time>2013-05-24T10:17:58Z</time>
      </trkpt>
      <trkpt lat="-21.15274" lon="55.54943">
        <ele>1760.7</ele>
        <time>2013-05-24T10:18:03Z</time>
      </trkpt>
      <trkpt lat="-21.15275" lon="55.54944">
        <ele>1760.6</ele>
        <time>2013-05-24T10:18:04Z</time>
      </trkpt>
      <trkpt lat="-21.15283" lon="55.54957">
        <ele>1759.3</ele>
        <time>2013-05-24T10:18:13Z</time>
      </trkpt>
      <trkpt lat="-21.15287" lon="55.54964">
        <ele>1760.4</ele>
        <time>2013-05-24T10:18:19Z</time>
      </trkpt>
      <trkpt lat="-21.15292" lon="55.54971">
        <ele>1760</ele>
        <time>2013-05-24T10:18:24Z</time>
      </trkpt>
      <trkpt lat="-21.15298" lon="55.54976">
        <ele>1760.2</ele>
        <time>2013-05-24T10:18:29Z</time>
      </trkpt>
      <trkpt lat="-21.15301" lon="55.54983">
        <ele>1759.7</ele>
        <time>2013-05-24T10:18:34Z</time>
      </trkpt>
      <trkpt lat="-21.15306" lon="55.54989">
        <ele>1759.7</ele>
        <time>2013-05-24T10:18:38Z</time>
      </trkpt>
      <trkpt lat="-21.15311" lon="55.54996">
        <ele>1759.6</ele>
        <time>2013-05-24T10:18:42Z</time>
      </trkpt>
      <trkpt lat="-21.15315" lon="55.55003">
        <ele>1760.2</ele>
        <time>2013-05-24T10:18:46Z</time>
      </trkpt>
      <trkpt lat="-21.15319" lon="55.5501">
        <ele>1759.4</ele>
        <time>2013-05-24T10:18:51Z</time>
      </trkpt>
      <trkpt lat="-21.15321" lon="55.55019">
        <ele>1759.6</ele>
        <time>2013-05-24T10:18:58Z</time>
      </trkpt>
      <trkpt lat="-21.15317" lon="55.55027">
        <ele>1759.2</ele>
        <time>2013-05-24T10:19:05Z</time>
      </trkpt>
      <trkpt lat="-21.15316" lon="55.55028">
        <ele>1759.4</ele>
        <time>2013-05-24T10:19:06Z</time>
      </trkpt>
      <trkpt lat="-21.15317" lon="55.55044">
        <ele>1759.6</ele>
        <time>2013-05-24T10:19:16Z</time>
      </trkpt>
      <trkpt lat="-21.15315" lon="55.55052">
        <ele>1759.2</ele>
        <time>2013-05-24T10:19:22Z</time>
      </trkpt>
      <trkpt lat="-21.15312" lon="55.5506">
        <ele>1759.6</ele>
        <time>2013-05-24T10:19:26Z</time>
      </trkpt>
      <trkpt lat="-21.15313" lon="55.55069">
        <ele>1760.1</ele>
        <time>2013-05-24T10:19:33Z</time>
      </trkpt>
      <trkpt lat="-21.15315" lon="55.55078">
        <ele>1760.6</ele>
        <time>2013-05-24T10:19:39Z</time>
      </trkpt>
      <trkpt lat="-21.15313" lon="55.55086">
        <ele>1760.7</ele>
        <time>2013-05-24T10:19:45Z</time>
      </trkpt>
      <trkpt lat="-21.15312" lon="55.55094">
        <ele>1761.2</ele>
        <time>2013-05-24T10:19:50Z</time>
      </trkpt>
      <trkpt lat="-21.15311" lon="55.55104">
        <ele>1760.9</ele>
        <time>2013-05-24T10:19:56Z</time>
      </trkpt>
      <trkpt lat="-21.15314" lon="55.55113">
        <ele>1760.7</ele>
        <time>2013-05-24T10:20:02Z</time>
      </trkpt>
      <trkpt lat="-21.15315" lon="55.55121">
        <ele>1760.1</ele>
        <time>2013-05-24T10:20:08Z</time>
      </trkpt>
      <trkpt lat="-21.15315" lon="55.55123">
        <ele>1759.8</ele>
        <time>2013-05-24T10:20:09Z</time>
      </trkpt>
      <trkpt lat="-21.15317" lon="55.55139">
        <ele>1760</ele>
        <time>2013-05-24T10:20:19Z</time>
      </trkpt>
      <trkpt lat="-21.15314" lon="55.55148">
        <ele>1759.7</ele>
        <time>2013-05-24T10:20:25Z</time>
      </trkpt>
      <trkpt lat="-21.15311" lon="55.55157">
        <ele>1760.3</ele>
        <time>2013-05-24T10:20:31Z</time>
      </trkpt>
      <trkpt lat="-21.15311" lon="55.55166">
        <ele>1758.7</ele>
        <time>2013-05-24T10:20:36Z</time>
      </trkpt>
      <trkpt lat="-21.15309" lon="55.55175">
        <ele>1759.9</ele>
        <time>2013-05-24T10:20:42Z</time>
      </trkpt>
      <trkpt lat="-21.15313" lon="55.55183">
        <ele>1759.1</ele>
        <time>2013-05-24T10:20:47Z</time>
      </trkpt>
      <trkpt lat="-21.15315" lon="55.55191">
        <ele>1758.7</ele>
        <time>2013-05-24T10:20:51Z</time>
      </trkpt>
      <trkpt lat="-21.15315" lon="55.552">
        <ele>1759.2</ele>
        <time>2013-05-24T10:20:57Z</time>
      </trkpt>
      <trkpt lat="-21.15318" lon="55.55207">
        <ele>1758.4</ele>
        <time>2013-05-24T10:21:02Z</time>
      </trkpt>
      <trkpt lat="-21.1532" lon="55.55215">
        <ele>1759.5</ele>
        <time>2013-05-24T10:21:06Z</time>
      </trkpt>
      <trkpt lat="-21.15322" lon="55.55223">
        <ele>1758.7</ele>
        <time>2013-05-24T10:21:10Z</time>
      </trkpt>
      <trkpt lat="-21.15323" lon="55.55225">
        <ele>1758.6</ele>
        <time>2013-05-24T10:21:11Z</time>
      </trkpt>
      <trkpt lat="-21.15323" lon="55.55241">
        <ele>1759.3</ele>
        <time>2013-05-24T10:21:19Z</time>
      </trkpt>
      <trkpt lat="-21.15319" lon="55.5525">
        <ele>1758.9</ele>
        <time>2013-05-24T10:21:25Z</time>
      </trkpt>
      <trkpt lat="-21.15319" lon="55.55259">
        <ele>1757.6</ele>
        <time>2013-05-24T10:21:33Z</time>
      </trkpt>
      <trkpt lat="-21.15317" lon="55.55267">
        <ele>1756.8</ele>
        <time>2013-05-24T10:21:40Z</time>
      </trkpt>
      <trkpt lat="-21.15319" lon="55.55276">
        <ele>1758.1</ele>
        <time>2013-05-24T10:21:46Z</time>
      </trkpt>
      <trkpt lat="-21.15321" lon="55.55284">
        <ele>1758.2</ele>
        <time>2013-05-24T10:21:53Z</time>
      </trkpt>
      <trkpt lat="-21.15321" lon="55.55293">
        <ele>1758.2</ele>
        <time>2013-05-24T10:22:01Z</time>
      </trkpt>
      <trkpt lat="-21.15318" lon="55.55302">
        <ele>1758.2</ele>
        <time>2013-05-24T10:22:08Z</time>
      </trkpt>
      <trkpt lat="-21.15316" lon="55.5531">
        <ele>1758.1</ele>
        <time>2013-05-24T10:22:13Z</time>
      </trkpt>
      <trkpt lat="-21.15316" lon="55.55312">
        <ele>1758.5</ele>
        <time>2013-05-24T10:22:14Z</time>
      </trkpt>
      <trkpt lat="-21.15312" lon="55.55327">
        <ele>1757.2</ele>
        <time>2013-05-24T10:22:23Z</time>
      </trkpt>
      <trkpt lat="-21.15308" lon="55.55333">
        <ele>1756.9</ele>
        <time>2013-05-24T10:22:27Z</time>
      </trkpt>
      <trkpt lat="-21.15306" lon="55.55341">
        <ele>1757</ele>
        <time>2013-05-24T10:22:31Z</time>
      </trkpt>
      <trkpt lat="-21.15304" lon="55.55349">
        <ele>1757.3</ele>
        <time>2013-05-24T10:22:35Z</time>
      </trkpt>
      <trkpt lat="-21.15302" lon="55.55357">
        <ele>1756.6</ele>
        <time>2013-05-24T10:22:39Z</time>
      </trkpt>
      <trkpt lat="-21.15302" lon="55.55365">
        <ele>1756</ele>
        <time>2013-05-24T10:22:43Z</time>
      </trkpt>
      <trkpt lat="-21.15302" lon="55.55375">
        <ele>1755.3</ele>
        <time>2013-05-24T10:22:49Z</time>
      </trkpt>
      <trkpt lat="-21.15304" lon="55.55383">
        <ele>1754.9</ele>
        <time>2013-05-24T10:22:55Z</time>
      </trkpt>
      <trkpt lat="-21.15305" lon="55.55392">
        <ele>1754.6</ele>
        <time>2013-05-24T10:23:00Z</time>
      </trkpt>
      <trkpt lat="-21.15307" lon="55.554">
        <ele>1754.2</ele>
        <time>2013-05-24T10:23:04Z</time>
      </trkpt>
      <trkpt lat="-21.15309" lon="55.5541">
        <ele>1754.5</ele>
        <time>2013-05-24T10:23:09Z</time>
      </trkpt>
      <trkpt lat="-21.15306" lon="55.55417">
        <ele>1753.7</ele>
        <time>2013-05-24T10:23:14Z</time>
      </trkpt>
      <trkpt lat="-21.15305" lon="55.55426">
        <ele>1752.6</ele>
        <time>2013-05-24T10:23:20Z</time>
      </trkpt>
      <trkpt lat="-21.15305" lon="55.55427">
        <ele>1752.3</ele>
        <time>2013-05-24T10:23:21Z</time>
      </trkpt>
      <trkpt lat="-21.15302" lon="55.55443">
        <ele>1750.1</ele>
        <time>2013-05-24T10:23:32Z</time>
      </trkpt>
      <trkpt lat="-21.153" lon="55.55451">
        <ele>1750.2</ele>
        <time>2013-05-24T10:23:38Z</time>
      </trkpt>
      <trkpt lat="-21.153" lon="55.55459">
        <ele>1749.5</ele>
        <time>2013-05-24T10:23:43Z</time>
      </trkpt>
      <trkpt lat="-21.15299" lon="55.55468">
        <ele>1749.1</ele>
        <time>2013-05-24T10:23:49Z</time>
      </trkpt>
      <trkpt lat="-21.15297" lon="55.55477">
        <ele>1747.8</ele>
        <time>2013-05-24T10:23:54Z</time>
      </trkpt>
      <trkpt lat="-21.15295" lon="55.55486">
        <ele>1747.2</ele>
        <time>2013-05-24T10:24:00Z</time>
      </trkpt>
      <trkpt lat="-21.15292" lon="55.55493">
        <ele>1746.8</ele>
        <time>2013-05-24T10:24:04Z</time>
      </trkpt>
      <trkpt lat="-21.1529" lon="55.55501">
        <ele>1746.6</ele>
        <time>2013-05-24T10:24:09Z</time>
      </trkpt>
      <trkpt lat="-21.15286" lon="55.5551">
        <ele>1745.9</ele>
        <time>2013-05-24T10:24:14Z</time>
      </trkpt>
      <trkpt lat="-21.15285" lon="55.55518">
        <ele>1744.5</ele>
        <time>2013-05-24T10:24:19Z</time>
      </trkpt>
      <trkpt lat="-21.15284" lon="55.55527">
        <ele>1743.9</ele>
        <time>2013-05-24T10:24:25Z</time>
      </trkpt>
      <trkpt lat="-21.15283" lon="55.55529">
        <ele>1743.9</ele>
        <time>2013-05-24T10:24:26Z</time>
      </trkpt>
      <trkpt lat="-21.15278" lon="55.55544">
        <ele>1740.9</ele>
        <time>2013-05-24T10:24:37Z</time>
      </trkpt>
      <trkpt lat="-21.15276" lon="55.55553">
        <ele>1740.5</ele>
        <time>2013-05-24T10:24:42Z</time>
      </trkpt>
      <trkpt lat="-21.15275" lon="55.55561">
        <ele>1740.8</ele>
        <time>2013-05-24T10:24:46Z</time>
      </trkpt>
      <trkpt lat="-21.15271" lon="55.55569">
        <ele>1740.2</ele>
        <time>2013-05-24T10:24:50Z</time>
      </trkpt>
      <trkpt lat="-21.15266" lon="55.55576">
        <ele>1739.9</ele>
        <time>2013-05-24T10:24:54Z</time>
      </trkpt>
      <trkpt lat="-21.15262" lon="55.55583">
        <ele>1739.2</ele>
        <time>2013-05-24T10:24:59Z</time>
      </trkpt>
      <trkpt lat="-21.15257" lon="55.55591">
        <ele>1738</ele>
        <time>2013-05-24T10:25:06Z</time>
      </trkpt>
      <trkpt lat="-21.15258" lon="55.55599">
        <ele>1737.9</ele>
        <time>2013-05-24T10:25:11Z</time>
      </trkpt>
      <trkpt lat="-21.15257" lon="55.55608">
        <ele>1736</ele>
        <time>2013-05-24T10:25:16Z</time>
      </trkpt>
      <trkpt lat="-21.15255" lon="55.55616">
        <ele>1734.6</ele>
        <time>2013-05-24T10:25:20Z</time>
      </trkpt>
      <trkpt lat="-21.1525" lon="55.55622">
        <ele>1733.9</ele>
        <time>2013-05-24T10:25:24Z</time>
      </trkpt>
      <trkpt lat="-21.15244" lon="55.55629">
        <ele>1732.1</ele>
        <time>2013-05-24T10:25:29Z</time>
      </trkpt>
      <trkpt lat="-21.15243" lon="55.5563">
        <ele>1731.9</ele>
        <time>2013-05-24T10:25:30Z</time>
      </trkpt>
      <trkpt lat="-21.15236" lon="55.55643">
        <ele>1730</ele>
        <time>2013-05-24T10:25:38Z</time>
      </trkpt>
      <trkpt lat="-21.15236" lon="55.55652">
        <ele>1728</ele>
        <time>2013-05-24T10:25:43Z</time>
      </trkpt>
      <trkpt lat="-21.15233" lon="55.55661">
        <ele>1727.6</ele>
        <time>2013-05-24T10:25:48Z</time>
      </trkpt>
      <trkpt lat="-21.15228" lon="55.55668">
        <ele>1726.1</ele>
        <time>2013-05-24T10:25:53Z</time>
      </trkpt>
      <trkpt lat="-21.15224" lon="55.55676">
        <ele>1725.4</ele>
        <time>2013-05-24T10:25:58Z</time>
      </trkpt>
      <trkpt lat="-21.15222" lon="55.55684">
        <ele>1725.3</ele>
        <time>2013-05-24T10:26:02Z</time>
      </trkpt>
      <trkpt lat="-21.15218" lon="55.55691">
        <ele>1724.7</ele>
        <time>2013-05-24T10:26:06Z</time>
      </trkpt>
      <trkpt lat="-21.15214" lon="55.55697">
        <ele>1723.8</ele>
        <time>2013-05-24T10:26:10Z</time>
      </trkpt>
      <trkpt lat="-21.15209" lon="55.55704">
        <ele>1723.7</ele>
        <time>2013-05-24T10:26:14Z</time>
      </trkpt>
      <trkpt lat="-21.15204" lon="55.55712">
        <ele>1723.8</ele>
        <time>2013-05-24T10:26:18Z</time>
      </trkpt>
      <trkpt lat="-21.15199" lon="55.55717">
        <ele>1724.1</ele>
        <time>2013-05-24T10:26:22Z</time>
      </trkpt>
      <trkpt lat="-21.15194" lon="55.55722">
        <ele>1724.2</ele>
        <time>2013-05-24T10:26:25Z</time>
      </trkpt>
      <trkpt lat="-21.15188" lon="55.55729">
        <ele>1724</ele>
        <time>2013-05-24T10:26:29Z</time>
      </trkpt>
      <trkpt lat="-21.15184" lon="55.55737">
        <ele>1723.7</ele>
        <time>2013-05-24T10:26:33Z</time>
      </trkpt>
      <trkpt lat="-21.15183" lon="55.55739">
        <ele>1723.8</ele>
        <time>2013-05-24T10:26:34Z</time>
      </trkpt>
      <trkpt lat="-21.15177" lon="55.55752">
        <ele>1722.6</ele>
        <time>2013-05-24T10:26:42Z</time>
      </trkpt>
      <trkpt lat="-21.15174" lon="55.5576">
        <ele>1722.4</ele>
        <time>2013-05-24T10:26:47Z</time>
      </trkpt>
      <trkpt lat="-21.1517" lon="55.55769">
        <ele>1721.9</ele>
        <time>2013-05-24T10:26:52Z</time>
      </trkpt>
      <trkpt lat="-21.15166" lon="55.55777">
        <ele>1721.1</ele>
        <time>2013-05-24T10:26:57Z</time>
      </trkpt>
      <trkpt lat="-21.15162" lon="55.55785">
        <ele>1720.2</ele>
        <time>2013-05-24T10:27:02Z</time>
      </trkpt>
      <trkpt lat="-21.15158" lon="55.55794">
        <ele>1717.9</ele>
        <time>2013-05-24T10:27:08Z</time>
      </trkpt>
      <trkpt lat="-21.15158" lon="55.55803">
        <ele>1714.5</ele>
        <time>2013-05-24T10:27:16Z</time>
      </trkpt>
      <trkpt lat="-21.15163" lon="55.5581">
        <ele>1713.8</ele>
        <time>2013-05-24T10:27:20Z</time>
      </trkpt>
      <trkpt lat="-21.15169" lon="55.55816">
        <ele>1712</ele>
        <time>2013-05-24T10:27:25Z</time>
      </trkpt>
      <trkpt lat="-21.15176" lon="55.5582">
        <ele>1712</ele>
        <time>2013-05-24T10:27:31Z</time>
      </trkpt>
      <trkpt lat="-21.15183" lon="55.55826">
        <ele>1711.7</ele>
        <time>2013-05-24T10:27:37Z</time>
      </trkpt>
      <trkpt lat="-21.15185" lon="55.55827">
        <ele>1711.7</ele>
        <time>2013-05-24T10:27:38Z</time>
      </trkpt>
      <trkpt lat="-21.15198" lon="55.55834">
        <ele>1711.6</ele>
        <time>2013-05-24T10:27:50Z</time>
      </trkpt>
      <trkpt lat="-21.15205" lon="55.55835">
        <ele>1711.8</ele>
        <time>2013-05-24T10:27:57Z</time>
      </trkpt>
      <trkpt lat="-21.15214" lon="55.55835">
        <ele>1711.3</ele>
        <time>2013-05-24T10:28:05Z</time>
      </trkpt>
      <trkpt lat="-21.15222" lon="55.55838">
        <ele>1709.4</ele>
        <time>2013-05-24T10:28:14Z</time>
      </trkpt>
      <trkpt lat="-21.1523" lon="55.55842">
        <ele>1708.3</ele>
        <time>2013-05-24T10:28:20Z</time>
      </trkpt>
      <trkpt lat="-21.15239" lon="55.55843">
        <ele>1708.3</ele>
        <time>2013-05-24T10:28:25Z</time>
      </trkpt>
      <trkpt lat="-21.15247" lon="55.55845">
        <ele>1707.9</ele>
        <time>2013-05-24T10:28:30Z</time>
      </trkpt>
      <trkpt lat="-21.15253" lon="55.55849">
        <ele>1707.9</ele>
        <time>2013-05-24T10:28:35Z</time>
      </trkpt>
      <trkpt lat="-21.1526" lon="55.55852">
        <ele>1707</ele>
        <time>2013-05-24T10:28:39Z</time>
      </trkpt>
      <trkpt lat="-21.15262" lon="55.55852">
        <ele>1706.7</ele>
        <time>2013-05-24T10:28:40Z</time>
      </trkpt>
      <trkpt lat="-21.15276" lon="55.55855">
        <ele>1707.5</ele>
        <time>2013-05-24T10:28:48Z</time>
      </trkpt>
      <trkpt lat="-21.15283" lon="55.55859">
        <ele>1708.9</ele>
        <time>2013-05-24T10:28:53Z</time>
      </trkpt>
      <trkpt lat="-21.1529" lon="55.55862">
        <ele>1708.6</ele>
        <time>2013-05-24T10:28:57Z</time>
      </trkpt>
      <trkpt lat="-21.15299" lon="55.55863">
        <ele>1707.2</ele>
        <time>2013-05-24T10:29:02Z</time>
      </trkpt>
      <trkpt lat="-21.15305" lon="55.55868">
        <ele>1706.4</ele>
        <time>2013-05-24T10:29:07Z</time>
      </trkpt>
      <trkpt lat="-21.15311" lon="55.55873">
        <ele>1705.8</ele>
        <time>2013-05-24T10:29:11Z</time>
      </trkpt>
      <trkpt lat="-21.15317" lon="55.55879">
        <ele>1706.4</ele>
        <time>2013-05-24T10:29:15Z</time>
      </trkpt>
      <trkpt lat="-21.15322" lon="55.55885">
        <ele>1705.4</ele>
        <time>2013-05-24T10:29:19Z</time>
      </trkpt>
      <trkpt lat="-21.15327" lon="55.55892">
        <ele>1704.5</ele>
        <time>2013-05-24T10:29:24Z</time>
      </trkpt>
      <trkpt lat="-21.15329" lon="55.559">
        <ele>1704.5</ele>
        <time>2013-05-24T10:29:28Z</time>
      </trkpt>
      <trkpt lat="-21.15334" lon="55.55907">
        <ele>1703.1</ele>
        <time>2013-05-24T10:29:35Z</time>
      </trkpt>
      <trkpt lat="-21.15339" lon="55.55914">
        <ele>1701.1</ele>
        <time>2013-05-24T10:29:44Z</time>
      </trkpt>
      <trkpt lat="-21.15339" lon="55.55915">
        <ele>1701</ele>
        <time>2013-05-24T10:29:45Z</time>
      </trkpt>
      <trkpt lat="-21.15341" lon="55.5593">
        <ele>1701.4</ele>
        <time>2013-05-24T10:29:53Z</time>
      </trkpt>
      <trkpt lat="-21.15344" lon="55.55936">
        <ele>1701.5</ele>
        <time>2013-05-24T10:29:57Z</time>
      </trkpt>
      <trkpt lat="-21.15349" lon="55.55944">
        <ele>1700.4</ele>
        <time>2013-05-24T10:30:02Z</time>
      </trkpt>
      <trkpt lat="-21.15353" lon="55.55952">
        <ele>1700.9</ele>
        <time>2013-05-24T10:30:07Z</time>
      </trkpt>
      <trkpt lat="-21.15359" lon="55.55958">
        <ele>1700.3</ele>
        <time>2013-05-24T10:30:14Z</time>
      </trkpt>
      <trkpt lat="-21.15366" lon="55.55964">
        <ele>1700.1</ele>
        <time>2013-05-24T10:30:20Z</time>
      </trkpt>
      <trkpt lat="-21.15371" lon="55.55971">
        <ele>1699.4</ele>
        <time>2013-05-24T10:30:28Z</time>
      </trkpt>
      <trkpt lat="-21.15375" lon="55.55978">
        <ele>1699</ele>
        <time>2013-05-24T10:30:34Z</time>
      </trkpt>
      <trkpt lat="-21.15377" lon="55.55987">
        <ele>1697.8</ele>
        <time>2013-05-24T10:30:43Z</time>
      </trkpt>
      <trkpt lat="-21.15385" lon="55.5599">
        <ele>1698.3</ele>
        <time>2013-05-24T10:30:48Z</time>
      </trkpt>
      <trkpt lat="-21.15387" lon="55.55991">
        <ele>1698.4</ele>
        <time>2013-05-24T10:30:49Z</time>
      </trkpt>
      <trkpt lat="-21.154" lon="55.55994">
        <ele>1698.1</ele>
        <time>2013-05-24T10:30:55Z</time>
      </trkpt>
      <trkpt lat="-21.15409" lon="55.55996">
        <ele>1697.6</ele>
        <time>2013-05-24T10:30:59Z</time>
      </trkpt>
      <trkpt lat="-21.15418" lon="55.55998">
        <ele>1697</ele>
        <time>2013-05-24T10:31:03Z</time>
      </trkpt>
      <trkpt lat="-21.15425" lon="55.56001">
        <ele>1696.4</ele>
        <time>2013-05-24T10:31:07Z</time>
      </trkpt>
      <trkpt lat="-21.15433" lon="55.56003">
        <ele>1696.6</ele>
        <time>2013-05-24T10:31:11Z</time>
      </trkpt>
      <trkpt lat="-21.1544" lon="55.56005">
        <ele>1696.4</ele>
        <time>2013-05-24T10:31:15Z</time>
      </trkpt>
      <trkpt lat="-21.15448" lon="55.56006">
        <ele>1695.7</ele>
        <time>2013-05-24T10:31:19Z</time>
      </trkpt>
      <trkpt lat="-21.15456" lon="55.56007">
        <ele>1696.1</ele>
        <time>2013-05-24T10:31:23Z</time>
      </trkpt>
      <trkpt lat="-21.15464" lon="55.56009">
        <ele>1695.8</ele>
        <time>2013-05-24T10:31:28Z</time>
      </trkpt>
      <trkpt lat="-21.15471" lon="55.56009">
        <ele>1696.8</ele>
        <time>2013-05-24T10:31:32Z</time>
      </trkpt>
      <trkpt lat="-21.15478" lon="55.56011">
        <ele>1696.9</ele>
        <time>2013-05-24T10:31:36Z</time>
      </trkpt>
      <trkpt lat="-21.15486" lon="55.56013">
        <ele>1697.4</ele>
        <time>2013-05-24T10:31:41Z</time>
      </trkpt>
      <trkpt lat="-21.15494" lon="55.56013">
        <ele>1698.4</ele>
        <time>2013-05-24T10:31:45Z</time>
      </trkpt>
      <trkpt lat="-21.15502" lon="55.56016">
        <ele>1698.5</ele>
        <time>2013-05-24T10:31:52Z</time>
      </trkpt>
      <trkpt lat="-21.15503" lon="55.56016">
        <ele>1698.2</ele>
        <time>2013-05-24T10:31:53Z</time>
      </trkpt>
      <trkpt lat="-21.15503" lon="55.56033">
        <ele>1697.3</ele>
        <time>2013-05-24T10:32:05Z</time>
      </trkpt>
      <trkpt lat="-21.15508" lon="55.56039">
        <ele>1695.7</ele>
        <time>2013-05-24T10:32:10Z</time>
      </trkpt>
      <trkpt lat="-21.15513" lon="55.56046">
        <ele>1695.1</ele>
        <time>2013-05-24T10:32:14Z</time>
      </trkpt>
      <trkpt lat="-21.1552" lon="55.56052">
        <ele>1694.9</ele>
        <time>2013-05-24T10:32:19Z</time>
      </trkpt>
      <trkpt lat="-21.15525" lon="55.56058">
        <ele>1694.7</ele>
        <time>2013-05-24T10:32:23Z</time>
      </trkpt>
      <trkpt lat="-21.1553" lon="55.56065">
        <ele>1694.8</ele>
        <time>2013-05-24T10:32:28Z</time>
      </trkpt>
      <trkpt lat="-21.15535" lon="55.56071">
        <ele>1694.5</ele>
        <time>2013-05-24T10:32:32Z</time>
      </trkpt>
      <trkpt lat="-21.15542" lon="55.56077">
        <ele>1694.5</ele>
        <time>2013-05-24T10:32:36Z</time>
      </trkpt>
      <trkpt lat="-21.15548" lon="55.56082">
        <ele>1694</ele>
        <time>2013-05-24T10:32:40Z</time>
      </trkpt>
      <trkpt lat="-21.15554" lon="55.56089">
        <ele>1693.9</ele>
        <time>2013-05-24T10:32:44Z</time>
      </trkpt>
      <trkpt lat="-21.15559" lon="55.56094">
        <ele>1694</ele>
        <time>2013-05-24T10:32:48Z</time>
      </trkpt>
      <trkpt lat="-21.15566" lon="55.561">
        <ele>1694.7</ele>
        <time>2013-05-24T10:32:53Z</time>
      </trkpt>
      <trkpt lat="-21.15567" lon="55.56101">
        <ele>1694.9</ele>
        <time>2013-05-24T10:32:54Z</time>
      </trkpt>
      <trkpt lat="-21.15575" lon="55.56113">
        <ele>1696.5</ele>
        <time>2013-05-24T10:33:03Z</time>
      </trkpt>
      <trkpt lat="-21.15578" lon="55.5612">
        <ele>1696.6</ele>
        <time>2013-05-24T10:33:07Z</time>
      </trkpt>
      <trkpt lat="-21.15579" lon="55.56128">
        <ele>1697</ele>
        <time>2013-05-24T10:33:11Z</time>
      </trkpt>
      <trkpt lat="-21.15584" lon="55.56135">
        <ele>1695.6</ele>
        <time>2013-05-24T10:33:16Z</time>
      </trkpt>
      <trkpt lat="-21.15589" lon="55.56143">
        <ele>1694.8</ele>
        <time>2013-05-24T10:33:23Z</time>
      </trkpt>
      <trkpt lat="-21.15594" lon="55.56149">
        <ele>1692.5</ele>
        <time>2013-05-24T10:33:29Z</time>
      </trkpt>
      <trkpt lat="-21.15593" lon="55.56158">
        <ele>1692.9</ele>
        <time>2013-05-24T10:33:40Z</time>
      </trkpt>
      <trkpt lat="-21.15596" lon="55.56167">
        <ele>1692.4</ele>
        <time>2013-05-24T10:33:48Z</time>
      </trkpt>
      <trkpt lat="-21.15598" lon="55.56176">
        <ele>1690.5</ele>
        <time>2013-05-24T10:33:55Z</time>
      </trkpt>
      <trkpt lat="-21.15599" lon="55.56178">
        <ele>1689.8</ele>
        <time>2013-05-24T10:33:56Z</time>
      </trkpt>
      <trkpt lat="-21.15602" lon="55.56194">
        <ele>1688.2</ele>
        <time>2013-05-24T10:34:05Z</time>
      </trkpt>
      <trkpt lat="-21.15606" lon="55.56202">
        <ele>1687.7</ele>
        <time>2013-05-24T10:34:09Z</time>
      </trkpt>
      <trkpt lat="-21.15609" lon="55.56208">
        <ele>1687.4</ele>
        <time>2013-05-24T10:34:14Z</time>
      </trkpt>
      <trkpt lat="-21.15612" lon="55.56216">
        <ele>1686.9</ele>
        <time>2013-05-24T10:34:18Z</time>
      </trkpt>
      <trkpt lat="-21.15616" lon="55.56224">
        <ele>1686.4</ele>
        <time>2013-05-24T10:34:22Z</time>
      </trkpt>
      <trkpt lat="-21.15618" lon="55.56232">
        <ele>1686.6</ele>
        <time>2013-05-24T10:34:26Z</time>
      </trkpt>
      <trkpt lat="-21.15621" lon="55.56241">
        <ele>1686.2</ele>
        <time>2013-05-24T10:34:30Z</time>
      </trkpt>
      <trkpt lat="-21.15624" lon="55.56249">
        <ele>1685.9</ele>
        <time>2013-05-24T10:34:34Z</time>
      </trkpt>
      <trkpt lat="-21.1563" lon="55.56255">
        <ele>1685.4</ele>
        <time>2013-05-24T10:34:38Z</time>
      </trkpt>
      <trkpt lat="-21.15634" lon="55.56261">
        <ele>1684.6</ele>
        <time>2013-05-24T10:34:41Z</time>
      </trkpt>
      <trkpt lat="-21.15638" lon="55.56269">
        <ele>1683.5</ele>
        <time>2013-05-24T10:34:45Z</time>
      </trkpt>
      <trkpt lat="-21.15642" lon="55.56277">
        <ele>1682.7</ele>
        <time>2013-05-24T10:34:49Z</time>
      </trkpt>
      <trkpt lat="-21.15647" lon="55.56284">
        <ele>1681.5</ele>
        <time>2013-05-24T10:34:53Z</time>
      </trkpt>
      <trkpt lat="-21.15652" lon="55.5629">
        <ele>1681.7</ele>
        <time>2013-05-24T10:34:56Z</time>
      </trkpt>
      <trkpt lat="-21.15654" lon="55.56292">
        <ele>1681.8</ele>
        <time>2013-05-24T10:34:57Z</time>
      </trkpt>
      <trkpt lat="-21.15664" lon="55.56303">
        <ele>1681.3</ele>
        <time>2013-05-24T10:35:05Z</time>
      </trkpt>
      <trkpt lat="-21.15666" lon="55.56311">
        <ele>1679.6</ele>
        <time>2013-05-24T10:35:09Z</time>
      </trkpt>
      <trkpt lat="-21.15671" lon="55.56318">
        <ele>1678.8</ele>
        <time>2013-05-24T10:35:13Z</time>
      </trkpt>
      <trkpt lat="-21.15676" lon="55.56326">
        <ele>1677.8</ele>
        <time>2013-05-24T10:35:17Z</time>
      </trkpt>
      <trkpt lat="-21.15679" lon="55.56335">
        <ele>1676.5</ele>
        <time>2013-05-24T10:35:22Z</time>
      </trkpt>
      <trkpt lat="-21.15684" lon="55.56342">
        <ele>1675.5</ele>
        <time>2013-05-24T10:35:26Z</time>
      </trkpt>
      <trkpt lat="-21.15689" lon="55.56349">
        <ele>1674.4</ele>
        <time>2013-05-24T10:35:30Z</time>
      </trkpt>
      <trkpt lat="-21.15695" lon="55.56356">
        <ele>1673.7</ele>
        <time>2013-05-24T10:35:34Z</time>
      </trkpt>
      <trkpt lat="-21.15701" lon="55.56362">
        <ele>1673.6</ele>
        <time>2013-05-24T10:35:38Z</time>
      </trkpt>
      <trkpt lat="-21.15707" lon="55.56368">
        <ele>1673.6</ele>
        <time>2013-05-24T10:35:42Z</time>
      </trkpt>
      <trkpt lat="-21.15713" lon="55.56374">
        <ele>1672.5</ele>
        <time>2013-05-24T10:35:46Z</time>
      </trkpt>
      <trkpt lat="-21.15718" lon="55.56381">
        <ele>1671.8</ele>
        <time>2013-05-24T10:35:50Z</time>
      </trkpt>
      <trkpt lat="-21.15723" lon="55.56388">
        <ele>1671.2</ele>
        <time>2013-05-24T10:35:54Z</time>
      </trkpt>
      <trkpt lat="-21.15728" lon="55.56395">
        <ele>1670.9</ele>
        <time>2013-05-24T10:35:58Z</time>
      </trkpt>
      <trkpt lat="-21.15729" lon="55.56397">
        <ele>1670.7</ele>
        <time>2013-05-24T10:35:59Z</time>
      </trkpt>
      <trkpt lat="-21.1574" lon="55.56408">
        <ele>1670.2</ele>
        <time>2013-05-24T10:36:07Z</time>
      </trkpt>
      <trkpt lat="-21.15744" lon="55.56416">
        <ele>1671.6</ele>
        <time>2013-05-24T10:36:12Z</time>
      </trkpt>
      <trkpt lat="-21.15746" lon="55.56426">
        <ele>1671.1</ele>
        <time>2013-05-24T10:36:17Z</time>
      </trkpt>
      <trkpt lat="-21.15746" lon="55.56434">
        <ele>1671.1</ele>
        <time>2013-05-24T10:36:21Z</time>
      </trkpt>
      <trkpt lat="-21.15747" lon="55.56442">
        <ele>1670.7</ele>
        <time>2013-05-24T10:36:25Z</time>
      </trkpt>
      <trkpt lat="-21.15747" lon="55.56451">
        <ele>1670.8</ele>
        <time>2013-05-24T10:36:29Z</time>
      </trkpt>
      <trkpt lat="-21.15749" lon="55.56459">
        <ele>1670.4</ele>
        <time>2013-05-24T10:36:33Z</time>
      </trkpt>
      <trkpt lat="-21.15751" lon="55.56467">
        <ele>1669.8</ele>
        <time>2013-05-24T10:36:37Z</time>
      </trkpt>
      <trkpt lat="-21.15752" lon="55.56475">
        <ele>1670.8</ele>
        <time>2013-05-24T10:36:41Z</time>
      </trkpt>
      <trkpt lat="-21.15755" lon="55.56484">
        <ele>1669.9</ele>
        <time>2013-05-24T10:36:45Z</time>
      </trkpt>
      <trkpt lat="-21.1576" lon="55.56491">
        <ele>1669.4</ele>
        <time>2013-05-24T10:36:49Z</time>
      </trkpt>
      <trkpt lat="-21.15765" lon="55.56497">
        <ele>1669.1</ele>
        <time>2013-05-24T10:36:53Z</time>
      </trkpt>
      <trkpt lat="-21.15771" lon="55.56503">
        <ele>1668.9</ele>
        <time>2013-05-24T10:36:58Z</time>
      </trkpt>
      <trkpt lat="-21.15779" lon="55.56507">
        <ele>1668.8</ele>
        <time>2013-05-24T10:37:07Z</time>
      </trkpt>
      <trkpt lat="-21.1578" lon="55.56508">
        <ele>1668.9</ele>
        <time>2013-05-24T10:37:08Z</time>
      </trkpt>
      <trkpt lat="-21.15789" lon="55.5652">
        <ele>1668.2</ele>
        <time>2013-05-24T10:37:16Z</time>
      </trkpt>
      <trkpt lat="-21.15796" lon="55.56526">
        <ele>1667.4</ele>
        <time>2013-05-24T10:37:21Z</time>
      </trkpt>
      <trkpt lat="-21.15804" lon="55.5653">
        <ele>1666.7</ele>
        <time>2013-05-24T10:37:25Z</time>
      </trkpt>
      <trkpt lat="-21.15811" lon="55.56535">
        <ele>1666.4</ele>
        <time>2013-05-24T10:37:29Z</time>
      </trkpt>
      <trkpt lat="-21.15818" lon="55.56539">
        <ele>1666.7</ele>
        <time>2013-05-24T10:37:34Z</time>
      </trkpt>
      <trkpt lat="-21.15824" lon="55.56546">
        <ele>1666.5</ele>
        <time>2013-05-24T10:37:39Z</time>
      </trkpt>
      <trkpt lat="-21.1583" lon="55.56551">
        <ele>1666.9</ele>
        <time>2013-05-24T10:37:43Z</time>
      </trkpt>
      <trkpt lat="-21.15837" lon="55.56554">
        <ele>1665.5</ele>
        <time>2013-05-24T10:37:46Z</time>
      </trkpt>
      <trkpt lat="-21.15845" lon="55.56557">
        <ele>1665.7</ele>
        <time>2013-05-24T10:37:50Z</time>
      </trkpt>
      <trkpt lat="-21.15852" lon="55.5656">
        <ele>1665.9</ele>
        <time>2013-05-24T10:37:54Z</time>
      </trkpt>
      <trkpt lat="-21.1586" lon="55.5656">
        <ele>1665.8</ele>
        <time>2013-05-24T10:37:58Z</time>
      </trkpt>
      <trkpt lat="-21.15867" lon="55.56564">
        <ele>1665.8</ele>
        <time>2013-05-24T10:38:02Z</time>
      </trkpt>
      <trkpt lat="-21.15874" lon="55.56568">
        <ele>1665.7</ele>
        <time>2013-05-24T10:38:06Z</time>
      </trkpt>
      <trkpt lat="-21.15878" lon="55.56575">
        <ele>1665.6</ele>
        <time>2013-05-24T10:38:11Z</time>
      </trkpt>
      <trkpt lat="-21.15878" lon="55.56577">
        <ele>1665.6</ele>
        <time>2013-05-24T10:38:12Z</time>
      </trkpt>
      <trkpt lat="-21.15882" lon="55.56592">
        <ele>1665.3</ele>
        <time>2013-05-24T10:38:21Z</time>
      </trkpt>
      <trkpt lat="-21.15887" lon="55.56598">
        <ele>1665.4</ele>
        <time>2013-05-24T10:38:25Z</time>
      </trkpt>
      <trkpt lat="-21.1589" lon="55.56606">
        <ele>1665.1</ele>
        <time>2013-05-24T10:38:30Z</time>
      </trkpt>
      <trkpt lat="-21.15896" lon="55.56611">
        <ele>1664.6</ele>
        <time>2013-05-24T10:38:40Z</time>
      </trkpt>
      <trkpt lat="-21.15904" lon="55.56614">
        <ele>1663.5</ele>
        <time>2013-05-24T10:38:45Z</time>
      </trkpt>
      <trkpt lat="-21.15912" lon="55.56616">
        <ele>1662.9</ele>
        <time>2013-05-24T10:38:49Z</time>
      </trkpt>
      <trkpt lat="-21.15919" lon="55.5662">
        <ele>1662.8</ele>
        <time>2013-05-24T10:38:54Z</time>
      </trkpt>
      <trkpt lat="-21.15925" lon="55.56625">
        <ele>1662.9</ele>
        <time>2013-05-24T10:38:58Z</time>
      </trkpt>
      <trkpt lat="-21.15929" lon="55.56632">
        <ele>1662.8</ele>
        <time>2013-05-24T10:39:02Z</time>
      </trkpt>
      <trkpt lat="-21.15932" lon="55.5664">
        <ele>1662.2</ele>
        <time>2013-05-24T10:39:06Z</time>
      </trkpt>
      <trkpt lat="-21.15938" lon="55.56646">
        <ele>1661.4</ele>
        <time>2013-05-24T10:39:10Z</time>
      </trkpt>
      <trkpt lat="-21.15945" lon="55.5665">
        <ele>1661</ele>
        <time>2013-05-24T10:39:14Z</time>
      </trkpt>
      <trkpt lat="-21.15947" lon="55.56651">
        <ele>1661</ele>
        <time>2013-05-24T10:39:15Z</time>
      </trkpt>
      <trkpt lat="-21.15954" lon="55.56663">
        <ele>1661.1</ele>
        <time>2013-05-24T10:39:23Z</time>
      </trkpt>
      <trkpt lat="-21.15957" lon="55.5667">
        <ele>1661.3</ele>
        <time>2013-05-24T10:39:28Z</time>
      </trkpt>
      <trkpt lat="-21.15962" lon="55.56677">
        <ele>1660</ele>
        <time>2013-05-24T10:39:32Z</time>
      </trkpt>
      <trkpt lat="-21.15967" lon="55.56683">
        <ele>1659.1</ele>
        <time>2013-05-24T10:39:36Z</time>
      </trkpt>
      <trkpt lat="-21.15971" lon="55.56691">
        <ele>1657.9</ele>
        <time>2013-05-24T10:39:39Z</time>
      </trkpt>
      <trkpt lat="-21.15975" lon="55.56699">
        <ele>1656.3</ele>
        <time>2013-05-24T10:39:44Z</time>
      </trkpt>
      <trkpt lat="-21.15977" lon="55.56706">
        <ele>1655.6</ele>
        <time>2013-05-24T10:39:48Z</time>
      </trkpt>
      <trkpt lat="-21.15982" lon="55.56714">
        <ele>1655.2</ele>
        <time>2013-05-24T10:39:52Z</time>
      </trkpt>
      <trkpt lat="-21.15987" lon="55.5672">
        <ele>1653.9</ele>
        <time>2013-05-24T10:39:55Z</time>
      </trkpt>
      <trkpt lat="-21.15992" lon="55.56727">
        <ele>1653.3</ele>
        <time>2013-05-24T10:39:59Z</time>
      </trkpt>
      <trkpt lat="-21.15997" lon="55.56735">
        <ele>1652.8</ele>
        <time>2013-05-24T10:40:03Z</time>
      </trkpt>
      <trkpt lat="-21.16002" lon="55.56741">
        <ele>1653.1</ele>
        <time>2013-05-24T10:40:07Z</time>
      </trkpt>
      <trkpt lat="-21.16005" lon="55.56748">
        <ele>1652.4</ele>
        <time>2013-05-24T10:40:11Z</time>
      </trkpt>
      <trkpt lat="-21.16009" lon="55.56756">
        <ele>1652</ele>
        <time>2013-05-24T10:40:15Z</time>
      </trkpt>
      <trkpt lat="-21.1601" lon="55.56758">
        <ele>1652.3</ele>
        <time>2013-05-24T10:40:16Z</time>
      </trkpt>
      <trkpt lat="-21.16015" lon="55.56774">
        <ele>1652.2</ele>
        <time>2013-05-24T10:40:23Z</time>
      </trkpt>
      <trkpt lat="-21.16019" lon="55.56782">
        <ele>1652</ele>
        <time>2013-05-24T10:40:27Z</time>
      </trkpt>
      <trkpt lat="-21.1602" lon="55.5679">
        <ele>1651.5</ele>
        <time>2013-05-24T10:40:30Z</time>
      </trkpt>
      <trkpt lat="-21.1602" lon="55.56797">
        <ele>1650.7</ele>
        <time>2013-05-24T10:40:33Z</time>
      </trkpt>
      <trkpt lat="-21.16021" lon="55.56805">
        <ele>1649.6</ele>
        <time>2013-05-24T10:40:36Z</time>
      </trkpt>
      <trkpt lat="-21.16023" lon="55.56812">
        <ele>1649.4</ele>
        <time>2013-05-24T10:40:39Z</time>
      </trkpt>
      <trkpt lat="-21.16025" lon="55.5682">
        <ele>1648.4</ele>
        <time>2013-05-24T10:40:42Z</time>
      </trkpt>
      <trkpt lat="-21.16028" lon="55.56828">
        <ele>1648.2</ele>
        <time>2013-05-24T10:40:46Z</time>
      </trkpt>
      <trkpt lat="-21.16031" lon="55.56837">
        <ele>1647.9</ele>
        <time>2013-05-24T10:40:50Z</time>
      </trkpt>
      <trkpt lat="-21.16036" lon="55.56842">
        <ele>1646.9</ele>
        <time>2013-05-24T10:40:53Z</time>
      </trkpt>
      <trkpt lat="-21.16041" lon="55.56848">
        <ele>1646.2</ele>
        <time>2013-05-24T10:40:56Z</time>
      </trkpt>
      <trkpt lat="-21.16046" lon="55.56855">
        <ele>1646.1</ele>
        <time>2013-05-24T10:41:00Z</time>
      </trkpt>
      <trkpt lat="-21.16052" lon="55.56862">
        <ele>1646.1</ele>
        <time>2013-05-24T10:41:04Z</time>
      </trkpt>
      <trkpt lat="-21.16056" lon="55.56869">
        <ele>1645.4</ele>
        <time>2013-05-24T10:41:08Z</time>
      </trkpt>
      <trkpt lat="-21.16059" lon="55.56877">
        <ele>1644.8</ele>
        <time>2013-05-24T10:41:12Z</time>
      </trkpt>
      <trkpt lat="-21.1606" lon="55.56886">
        <ele>1645.6</ele>
        <time>2013-05-24T10:41:17Z</time>
      </trkpt>
      <trkpt lat="-21.16059" lon="55.56889">
        <ele>1645.7</ele>
        <time>2013-05-24T10:41:18Z</time>
      </trkpt>
      <trkpt lat="-21.16059" lon="55.56904">
        <ele>1646.1</ele>
        <time>2013-05-24T10:41:25Z</time>
      </trkpt>
      <trkpt lat="-21.1606" lon="55.56913">
        <ele>1644.6</ele>
        <time>2013-05-24T10:41:30Z</time>
      </trkpt>
      <trkpt lat="-21.16062" lon="55.5692">
        <ele>1645.1</ele>
        <time>2013-05-24T10:41:34Z</time>
      </trkpt>
      <trkpt lat="-21.16063" lon="55.56928">
        <ele>1644.9</ele>
        <time>2013-05-24T10:41:38Z</time>
      </trkpt>
      <trkpt lat="-21.16064" lon="55.56938">
        <ele>1644.3</ele>
        <time>2013-05-24T10:41:42Z</time>
      </trkpt>
      <trkpt lat="-21.16065" lon="55.56946">
        <ele>1643.2</ele>
        <time>2013-05-24T10:41:46Z</time>
      </trkpt>
      <trkpt lat="-21.16066" lon="55.56956">
        <ele>1642.9</ele>
        <time>2013-05-24T10:41:51Z</time>
      </trkpt>
      <trkpt lat="-21.16066" lon="55.56965">
        <ele>1641.8</ele>
        <time>2013-05-24T10:41:55Z</time>
      </trkpt>
      <trkpt lat="-21.16067" lon="55.56975">
        <ele>1642.2</ele>
        <time>2013-05-24T10:41:59Z</time>
      </trkpt>
      <trkpt lat="-21.16067" lon="55.56984">
        <ele>1641.8</ele>
        <time>2013-05-24T10:42:03Z</time>
      </trkpt>
      <trkpt lat="-21.16068" lon="55.56993">
        <ele>1642.6</ele>
        <time>2013-05-24T10:42:07Z</time>
      </trkpt>
      <trkpt lat="-21.1607" lon="55.57001">
        <ele>1642.1</ele>
        <time>2013-05-24T10:42:11Z</time>
      </trkpt>
      <trkpt lat="-21.16073" lon="55.5701">
        <ele>1642.1</ele>
        <time>2013-05-24T10:42:15Z</time>
      </trkpt>
      <trkpt lat="-21.16077" lon="55.57018">
        <ele>1641</ele>
        <time>2013-05-24T10:42:19Z</time>
      </trkpt>
      <trkpt lat="-21.16078" lon="55.5702">
        <ele>1640.7</ele>
        <time>2013-05-24T10:42:20Z</time>
      </trkpt>
      <trkpt lat="-21.16084" lon="55.57031">
        <ele>1640.5</ele>
        <time>2013-05-24T10:42:26Z</time>
      </trkpt>
      <trkpt lat="-21.16088" lon="55.57039">
        <ele>1639.8</ele>
        <time>2013-05-24T10:42:30Z</time>
      </trkpt>
      <trkpt lat="-21.16092" lon="55.57046">
        <ele>1639.3</ele>
        <time>2013-05-24T10:42:34Z</time>
      </trkpt>
      <trkpt lat="-21.16096" lon="55.57055">
        <ele>1639.8</ele>
        <time>2013-05-24T10:42:39Z</time>
      </trkpt>
      <trkpt lat="-21.16101" lon="55.57063">
        <ele>1639.4</ele>
        <time>2013-05-24T10:42:45Z</time>
      </trkpt>
      <trkpt lat="-21.16103" lon="55.57071">
        <ele>1638.6</ele>
        <time>2013-05-24T10:42:51Z</time>
      </trkpt>
      <trkpt lat="-21.16103" lon="55.5708">
        <ele>1639.1</ele>
        <time>2013-05-24T10:42:57Z</time>
      </trkpt>
      <trkpt lat="-21.16103" lon="55.57089">
        <ele>1638.4</ele>
        <time>2013-05-24T10:43:04Z</time>
      </trkpt>
      <trkpt lat="-21.16109" lon="55.57093">
        <ele>1638.5</ele>
        <time>2013-05-24T10:43:08Z</time>
      </trkpt>
      <trkpt lat="-21.16116" lon="55.57099">
        <ele>1639.2</ele>
        <time>2013-05-24T10:43:13Z</time>
      </trkpt>
      <trkpt lat="-21.16124" lon="55.571">
        <ele>1638.8</ele>
        <time>2013-05-24T10:43:17Z</time>
      </trkpt>
      <trkpt lat="-21.1613" lon="55.57104">
        <ele>1638.8</ele>
        <time>2013-05-24T10:43:21Z</time>
      </trkpt>
      <trkpt lat="-21.16132" lon="55.57105">
        <ele>1638.9</ele>
        <time>2013-05-24T10:43:22Z</time>
      </trkpt>
      <trkpt lat="-21.16143" lon="55.57112">
        <ele>1639.1</ele>
        <time>2013-05-24T10:43:29Z</time>
      </trkpt>
      <trkpt lat="-21.16151" lon="55.57117">
        <ele>1639.6</ele>
        <time>2013-05-24T10:43:34Z</time>
      </trkpt>
      <trkpt lat="-21.16157" lon="55.57123">
        <ele>1639.6</ele>
        <time>2013-05-24T10:43:39Z</time>
      </trkpt>
      <trkpt lat="-21.16164" lon="55.57128">
        <ele>1639.2</ele>
        <time>2013-05-24T10:43:44Z</time>
      </trkpt>
      <trkpt lat="-21.16171" lon="55.57134">
        <ele>1639</ele>
        <time>2013-05-24T10:43:50Z</time>
      </trkpt>
      <trkpt lat="-21.16177" lon="55.5714">
        <ele>1639.9</ele>
        <time>2013-05-24T10:43:55Z</time>
      </trkpt>
      <trkpt lat="-21.16183" lon="55.57146">
        <ele>1639.8</ele>
        <time>2013-05-24T10:44:00Z</time>
      </trkpt>
      <trkpt lat="-21.16189" lon="55.57152">
        <ele>1639.7</ele>
        <time>2013-05-24T10:44:05Z</time>
      </trkpt>
      <trkpt lat="-21.16195" lon="55.57157">
        <ele>1639.3</ele>
        <time>2013-05-24T10:44:10Z</time>
      </trkpt>
      <trkpt lat="-21.16201" lon="55.57164">
        <ele>1639.4</ele>
        <time>2013-05-24T10:44:15Z</time>
      </trkpt>
      <trkpt lat="-21.16207" lon="55.57169">
        <ele>1639.6</ele>
        <time>2013-05-24T10:44:20Z</time>
      </trkpt>
      <trkpt lat="-21.16213" lon="55.57175">
        <ele>1639.4</ele>
        <time>2013-05-24T10:44:26Z</time>
      </trkpt>
      <trkpt lat="-21.16214" lon="55.57177">
        <ele>1639.3</ele>
        <time>2013-05-24T10:44:27Z</time>
      </trkpt>
      <trkpt lat="-21.16224" lon="55.57188">
        <ele>1639.8</ele>
        <time>2013-05-24T10:44:36Z</time>
      </trkpt>
      <trkpt lat="-21.16231" lon="55.57194">
        <ele>1638.6</ele>
        <time>2013-05-24T10:44:41Z</time>
      </trkpt>
      <trkpt lat="-21.16237" lon="55.572">
        <ele>1639.2</ele>
        <time>2013-05-24T10:44:47Z</time>
      </trkpt>
      <trkpt lat="-21.16243" lon="55.57207">
        <ele>1638.6</ele>
        <time>2013-05-24T10:44:53Z</time>
      </trkpt>
      <trkpt lat="-21.1625" lon="55.57213">
        <ele>1639.2</ele>
        <time>2013-05-24T10:44:59Z</time>
      </trkpt>
      <trkpt lat="-21.16254" lon="55.5722">
        <ele>1638.6</ele>
        <time>2013-05-24T10:45:04Z</time>
      </trkpt>
      <trkpt lat="-21.16259" lon="55.57228">
        <ele>1637.7</ele>
        <time>2013-05-24T10:45:10Z</time>
      </trkpt>
      <trkpt lat="-21.16264" lon="55.57234">
        <ele>1637</ele>
        <time>2013-05-24T10:45:16Z</time>
      </trkpt>
      <trkpt lat="-21.16268" lon="55.57241">
        <ele>1636.7</ele>
        <time>2013-05-24T10:45:21Z</time>
      </trkpt>
      <trkpt lat="-21.16273" lon="55.57247">
        <ele>1636.3</ele>
        <time>2013-05-24T10:45:26Z</time>
      </trkpt>
      <trkpt lat="-21.16279" lon="55.57253">
        <ele>1636.7</ele>
        <time>2013-05-24T10:45:31Z</time>
      </trkpt>
      <trkpt lat="-21.1628" lon="55.57255">
        <ele>1636.7</ele>
        <time>2013-05-24T10:45:32Z</time>
      </trkpt>
      <trkpt lat="-21.16291" lon="55.57266">
        <ele>1635.2</ele>
        <time>2013-05-24T10:45:41Z</time>
      </trkpt>
      <trkpt lat="-21.16298" lon="55.57271">
        <ele>1634.7</ele>
        <time>2013-05-24T10:45:46Z</time>
      </trkpt>
      <trkpt lat="-21.16304" lon="55.57276">
        <ele>1634.6</ele>
        <time>2013-05-24T10:45:51Z</time>
      </trkpt>
      <trkpt lat="-21.1631" lon="55.57282">
        <ele>1634.3</ele>
        <time>2013-05-24T10:45:56Z</time>
      </trkpt>
      <trkpt lat="-21.16317" lon="55.57288">
        <ele>1633.2</ele>
        <time>2013-05-24T10:46:01Z</time>
      </trkpt>
      <trkpt lat="-21.16323" lon="55.57293">
        <ele>1632.7</ele>
        <time>2013-05-24T10:46:06Z</time>
      </trkpt>
      <trkpt lat="-21.1633" lon="55.57298">
        <ele>1632.4</ele>
        <time>2013-05-24T10:46:11Z</time>
      </trkpt>
      <trkpt lat="-21.16336" lon="55.57304">
        <ele>1632.1</ele>
        <time>2013-05-24T10:46:15Z</time>
      </trkpt>
      <trkpt lat="-21.16342" lon="55.57309">
        <ele>1632.3</ele>
        <time>2013-05-24T10:46:20Z</time>
      </trkpt>
      <trkpt lat="-21.16348" lon="55.57315">
        <ele>1631.9</ele>
        <time>2013-05-24T10:46:25Z</time>
      </trkpt>
      <trkpt lat="-21.16355" lon="55.57321">
        <ele>1631.6</ele>
        <time>2013-05-24T10:46:30Z</time>
      </trkpt>
      <trkpt lat="-21.16361" lon="55.57328">
        <ele>1631.1</ele>
        <time>2013-05-24T10:46:35Z</time>
      </trkpt>
      <trkpt lat="-21.16362" lon="55.57329">
        <ele>1631.3</ele>
        <time>2013-05-24T10:46:36Z</time>
      </trkpt>
      <trkpt lat="-21.16374" lon="55.57341">
        <ele>1631.4</ele>
        <time>2013-05-24T10:46:47Z</time>
      </trkpt>
      <trkpt lat="-21.16378" lon="55.57347">
        <ele>1631</ele>
        <time>2013-05-24T10:46:52Z</time>
      </trkpt>
      <trkpt lat="-21.16384" lon="55.57354">
        <ele>1630.2</ele>
        <time>2013-05-24T10:46:57Z</time>
      </trkpt>
      <trkpt lat="-21.16389" lon="55.5736">
        <ele>1630.4</ele>
        <time>2013-05-24T10:47:02Z</time>
      </trkpt>
      <trkpt lat="-21.16395" lon="55.57366">
        <ele>1630.8</ele>
        <time>2013-05-24T10:47:07Z</time>
      </trkpt>
      <trkpt lat="-21.164" lon="55.57373">
        <ele>1630.3</ele>
        <time>2013-05-24T10:47:13Z</time>
      </trkpt>
      <trkpt lat="-21.16405" lon="55.57379">
        <ele>1631</ele>
        <time>2013-05-24T10:47:19Z</time>
      </trkpt>
      <trkpt lat="-21.16409" lon="55.57383">
        <ele>1631.3</ele>
        <time>2013-05-24T10:47:45Z</time>
      </trkpt>
      <trkpt lat="-21.16409" lon="55.57383">
        <ele>1631.5</ele>
        <time>2013-05-24T10:47:46Z</time>
      </trkpt>
    </trkseg>
  </trk>
</gpx>